# Wetter Temperatur Luftdruck Luftfeuchtigkeit Sichtweite Windgeschwindigkeit Windrichtung Zeit
1 Clear 25 1007 53 10000 3.09 230 05:32 02.10.2022
2 Rain 24 1009 64 10000 2.06 120 02:49 02.10.2022
3 Clear 24 1010 60 10000 3.09 120 00:45 02.10.2022
4 Clear 23 1012 73 10000 2.06 60 23:36 01.10.2022
5 Clear 23 1014 78 10000 2.06 60 22:31 01.10.2022
6 Clear 23 1016 83 10000 2.57 130 19:58 01.10.2022
7 Clear 25 1018 57 10000 1.03 0 17:46 01.10.2022
8 Clear 27 1019 50 10000 1.54 0 16:28 01.10.2022
9 Clear 26 1020 61 10000 3.6 230 14:19 01.10.2022
10 Clear 25 1020 73 10000 3.6 230 12:35 01.10.2022
11 Clear 25 1021 78 10000 4.63 250 11:57 01.10.2022
12 Clear 25 1021 69 10000 3.09 240 11:18 01.10.2022
13 Clear 25 1021 65 10000 3.6 230 10:30 01.10.2022
14 Clear 24 1021 73 10000 2.57 230 09:26 01.10.2022
15 Clear 23 1021 78 10000 2.06 220 08:40 01.10.2022
16 Clear 20 1020 88 10000 1.03 90 03:55 01.10.2022
17 Clear 20 1020 88 10000 0.51 110 03:28 01.10.2022
18 Clear 23 1019 64 10000 1.54 270 23:30 30.09.2022
19 Clear 23 1018 68 10000 1.03 0 22:19 30.09.2022
20 Clear 23 1018 68 10000 1.03 0 22:19 30.09.2022
21 Clear 23 1018 68 10000 0.51 0 21:22 30.09.2022
22 Clear 23 1018 68 10000 1.54 60 20:42 30.09.2022
23 Clear 24 1017 69 10000 1.54 150 19:30 30.09.2022
24 Clear 28 1016 42 10000 2.57 260 17:27 30.09.2022
25 Clear 28 1016 42 10000 2.57 240 14:55 30.09.2022
26 Clear 27 1016 47 10000 2.57 200 13:24 30.09.2022
27 Clear 27 1016 47 10000 3.6 180 11:56 30.09.2022
28 Clear 25 1015 57 10000 2.57 140 09:50 30.09.2022
29 Clear 24 1015 64 10000 3.09 170 08:21 30.09.2022
30 Clear 20 1014 88 10000 2.06 150 04:31 30.09.2022
31 Clear 21 1013 88 10000 2.57 230 02:23 30.09.2022
32 Clear 22 1011 73 10000 2.57 210 22:24 29.09.2022
33 Clear 22 1011 78 10000 1.03 0 21:26 29.09.2022
34 Clear 23 1010 68 10000 1.54 140 20:31 29.09.2022
35 Clear 24 1010 69 10000 2.06 170 18:32 29.09.2022
36 Clear 27 1009 50 10000 2.06 200 16:56 29.09.2022
37 Clear 27 1009 50 10000 2.57 210 16:26 29.09.2022
38 Clouds 27 1010 50 10000 3.6 230 15:35 29.09.2022
39 Clouds 26 1010 57 10000 3.09 230 13:28 29.09.2022
40 Clouds 26 1010 57 10000 3.09 230 13:28 29.09.2022
41 Clouds 25 1010 61 10000 3.6 180 09:21 29.09.2022
42 Clear 21 1008 83 10000 1.54 250 05:42 29.09.2022
43 Clear 21 1008 88 10000 4.12 200 02:44 29.09.2022
44 Clear 22 1008 83 10000 1.54 0 23:32 28.09.2022
45 Clear 23 1008 78 10000 3.09 180 22:25 28.09.2022
46 Clear 23 1008 73 10000 4.63 180 21:28 28.09.2022
47 Clouds 23 1007 73 10000 3.6 180 20:18 28.09.2022
48 Clouds 23 1007 73 10000 4.63 180 17:42 28.09.2022
49 Clouds 24 1007 69 10000 5.66 190 14:50 28.09.2022
50 Clouds 24 1007 69 10000 5.14 190 12:40 28.09.2022
51 Clouds 24 1007 69 10000 4.63 230 10:24 28.09.2022
52 Clouds 22 1006 78 10000 5.14 210 08:25 28.09.2022
53 Clouds 23 1006 68 10000 6.17 210 06:42 28.09.2022
54 Clouds 23 1006 73 10000 4.63 230 01:51 28.09.2022
55 Clouds 23 1006 73 10000 5.14 220 01:27 28.09.2022
56 Clear 23 1006 68 10000 5.66 230 22:50 27.09.2022
57 Rain 22 1006 73 10000 2.06 210 21:24 27.09.2022
58 Clear 23 1006 53 10000 3.6 190 20:37 27.09.2022
59 Clear 23 1005 49 10000 2.06 190 19:47 27.09.2022
60 Clear 23 1006 53 10000 1.54 200 18:25 27.09.2022
61 Clear 24 1006 49 10000 2.57 240 17:42 27.09.2022
62 Rain 24 1006 53 10000 5.14 240 15:27 27.09.2022
63 Clear 24 1006 50 10000 4.63 230 14:33 27.09.2022
64 Clear 23 1007 49 10000 5.14 220 12:40 27.09.2022
65 Clear 25 1007 41 10000 6.17 220 12:40 27.09.2022
66 Clear 23 1007 46 10000 7.2 220 10:53 27.09.2022
67 Clear 22 1008 53 10000 3.09 220 08:46 27.09.2022
68 Clear 20 1008 64 10000 4.63 230 06:27 27.09.2022
69 Clear 19 1010 82 10000 3.09 170 01:45 27.09.2022
70 Clear 19 1011 82 10000 2.06 170 00:50 27.09.2022
71 Clear 19 1012 82 10000 1.03 150 23:25 26.09.2022
72 Clear 19 1012 82 10000 1.03 0 22:19 26.09.2022
73 Clear 20 1012 68 10000 2.06 160 20:29 26.09.2022
74 Clear 20 1012 68 10000 2.06 140 19:30 26.09.2022
75 Clear 21 1012 60 10000 2.06 160 18:31 26.09.2022
76 Clear 23 1013 33 10000 5.66 250 15:52 26.09.2022
77 Clear 23 1015 43 10000 5.14 240 13:28 26.09.2022
78 Clear 22 1015 56 10000 5.66 210 11:29 26.09.2022
79 Clear 21 1016 60 10000 5.66 210 10:37 26.09.2022
80 Clear 21 1016 52 10000 5.66 210 10:19 26.09.2022
81 Clear 21 1016 52 10000 5.66 200 09:53 26.09.2022
82 Clear 21 1016 64 10000 5.14 210 09:22 26.09.2022
83 Clear 14 1016 88 10000 1.54 310 06:28 26.09.2022
84 Clear 14 1016 82 10000 1.03 0 02:44 26.09.2022
85 Clear 17 1017 67 10000 1.03 350 23:28 25.09.2022
86 Clear 16 1017 72 10000 3.09 50 21:49 25.09.2022
87 Clear 17 1017 67 10000 2.57 50 21:25 25.09.2022
88 Clear 18 1017 63 10000 3.6 40 20:38 25.09.2022
89 Clear 20 1017 56 10000 1.54 0 19:30 25.09.2022
90 Clear 19 1017 59 10000 0.51 0 18:34 25.09.2022
91 Clear 21 1018 52 10000 1.54 210 17:49 25.09.2022
92 Clear 22 1018 46 10000 2.06 220 16:22 25.09.2022
93 Clear 22 1018 40 10000 2.57 170 15:35 25.09.2022
94 Clear 22 1019 35 10000 3.09 150 14:20 25.09.2022
95 Clear 21 1020 37 10000 2.57 120 11:53 25.09.2022
96 Clear 19 1021 52 10000 3.6 80 10:20 25.09.2022
97 Clear 17 1021 63 10000 2.06 30 07:47 25.09.2022
98 Clear 14 1020 77 10000 1.54 350 05:29 25.09.2022
99 Clear 17 1021 63 10000 3.09 110 23:37 24.09.2022
100 Clear 17 1021 63 10000 3.09 90 22:34 24.09.2022
101 Clear 18 1021 52 10000 2.57 100 20:36 24.09.2022
102 Clear 18 1021 48 10000 0.51 130 19:20 24.09.2022
103 Clouds 20 1020 45 10000 3.09 220 16:58 24.09.2022
104 Clouds 20 1020 42 10000 3.6 220 16:23 24.09.2022
105 Clouds 20 1021 45 10000 4.63 210 15:19 24.09.2022
106 Clouds 20 1021 42 10000 4.63 220 13:23 24.09.2022
107 Clouds 20 1021 42 10000 4.63 200 12:40 24.09.2022
108 Clear 18 1021 52 10000 2.57 240 10:18 24.09.2022
109 Clear 18 1021 55 10000 2.57 260 09:22 24.09.2022
110 Clear 17 1021 63 10000 2.57 310 08:40 24.09.2022
111 Clear 12 1019 82 10000 2.57 330 04:58 24.09.2022
112 Clear 12 1018 82 10000 2.57 330 04:27 24.09.2022
113 Clear 14 1018 72 10000 2.06 30 23:25 23.09.2022
114 Clear 14 1018 72 10000 2.57 40 21:41 23.09.2022
115 Clear 15 1018 67 10000 3.09 40 21:22 23.09.2022
116 Clear 15 1018 67 10000 3.09 40 20:54 23.09.2022
117 Clear 15 1018 63 10000 4.12 60 19:20 23.09.2022
118 Clouds 17 1017 51 10000 5.14 50 17:42 23.09.2022
119 Clouds 18 1017 52 10000 5.14 30 13:40 23.09.2022
120 Clouds 17 1017 59 10000 2.57 200 10:22 23.09.2022
121 Clear 14 1017 72 10000 1.03 0 07:30 23.09.2022
122 Clouds 14 1017 82 10000 3.6 60 02:25 23.09.2022
123 Clear 12 1017 82 10000 2.57 290 23:29 22.09.2022
124 Clouds 14 1017 77 10000 3.6 310 22:28 22.09.2022
125 Clouds 14 1017 82 10000 1.03 340 21:30 22.09.2022
126 Clouds 14 1017 82 10000 1.54 60 20:23 22.09.2022
127 Rain 14 1016 77 10000 4.12 60 18:57 22.09.2022
128 Clouds 16 1015 59 10000 6.17 320 15:23 22.09.2022
129 Clouds 16 1015 67 10000 7.72 350 10:48 22.09.2022
130 Clouds 15 1015 77 10000 5.66 350 10:19 22.09.2022
131 Clouds 14 1014 77 8000 6.69 350 07:50 22.09.2022
132 Clouds 15 1013 77 10000 4.63 360 04:38 22.09.2022
133 Rain 16 1014 67 10000 6.69 10 00:36 22.09.2022
134 Rain 18 1014 52 10000 5.66 360 22:29 21.09.2022
135 Clouds 19 1014 48 10000 6.17 20 21:18 21.09.2022
136 Rain 19 1014 59 10000 7.2 30 18:34 21.09.2022
137 Clear 19 1014 52 10000 7.72 20 17:41 21.09.2022
138 Clouds 20 1013 45 10000 8.23 20 15:35 21.09.2022
139 Clouds 22 1013 40 10000 5.66 20 13:39 21.09.2022
140 Clouds 21 1014 43 10000 4.12 80 11:34 21.09.2022
141 Clouds 21 1015 40 10000 5.14 70 10:54 21.09.2022
142 Clouds 20 1015 45 10000 4.63 80 09:39 21.09.2022
143 Clouds 19 1015 48 10000 3.6 70 08:24 21.09.2022
144 Clear 15 1015 63 10000 2.57 40 03:51 21.09.2022
145 Clear 16 1016 59 10000 2.06 20 02:38 21.09.2022
146 Clear 16 1016 59 10000 2.06 30 01:52 21.09.2022
147 Clear 17 1016 59 10000 3.09 40 00:19 21.09.2022
148 Clear 17 1015 59 10000 4.12 50 21:52 20.09.2022
149 Clear 18 1015 55 10000 6.17 40 20:32 20.09.2022
150 Clear 19 1014 52 10000 8.23 40 17:54 20.09.2022
151 Clear 21 1014 49 10000 6.69 20 15:33 20.09.2022
152 Clouds 21 1014 49 10000 7.2 20 14:18 20.09.2022
153 Clouds 21 1014 56 10000 8.23 10 11:29 20.09.2022
154 Rain 20 1014 68 10000 6.17 350 08:36 20.09.2022
155 Clouds 19 1013 68 10000 5.66 340 07:37 20.09.2022
156 Clear 16 1012 72 10000 2.57 30 04:35 20.09.2022
157 Clear 18 1013 68 10000 3.6 40 01:41 20.09.2022
158 Clear 18 1013 68 10000 4.12 60 22:42 19.09.2022
159 Clear 19 1014 59 10000 5.14 50 21:28 19.09.2022
160 Clear 19 1013 55 10000 6.17 50 20:40 19.09.2022
161 Clear 20 1013 52 10000 6.17 20 18:45 19.09.2022
162 Clear 22 1013 46 10000 7.2 10 17:20 19.09.2022
163 Clear 23 1014 38 10000 3.6 40 13:47 19.09.2022
164 Clear 22 1015 40 10000 4.63 50 11:57 19.09.2022
165 Clouds 21 1016 43 10000 6.17 60 09:44 19.09.2022
166 Clouds 20 1016 40 10000 6.69 30 08:32 19.09.2022
167 Clouds 18 1015 48 10000 6.69 10 03:37 19.09.2022
168 Clouds 20 1014 49 10000 7.2 10 00:48 19.09.2022
169 Clouds 21 1013 46 10000 6.69 20 22:33 18.09.2022
170 Clouds 21 1012 46 10000 6.17 20 21:19 18.09.2022
171 Clouds 22 1011 46 10000 6.17 30 19:40 18.09.2022
172 Clear 21 1010 52 10000 7.2 30 17:52 18.09.2022
173 Clouds 21 1009 56 10000 8.23 20 16:49 18.09.2022
174 Clouds 22 1007 78 10000 8.75 360 14:51 18.09.2022
175 Clouds 24 1007 60 10000 9.77 10 13:35 18.09.2022
176 Clouds 28 1006 54 10000 4.12 230 12:20 18.09.2022
177 Clear 27 1005 61 10000 4.12 220 09:25 18.09.2022
178 Clear 25 1003 53 10000 3.09 300 01:44 18.09.2022
179 Clear 25 1003 53 10000 3.09 300 01:20 18.09.2022
180 Clear 24 1003 57 10000 1.54 150 22:57 17.09.2022
181 Clear 25 1003 57 10000 1.03 0 20:55 17.09.2022
182 Clear 27 1003 50 10000 1.03 140 19:39 17.09.2022
183 Clear 27 1003 53 10000 2.06 140 18:21 17.09.2022
184 Clear 29 1005 42 10000 3.09 220 14:24 17.09.2022
185 Clear 29 1005 44 10000 3.09 240 13:26 17.09.2022
186 Clear 28 1006 47 10000 4.12 220 10:49 17.09.2022
187 Clear 23 1006 78 10000 2.06 230 07:28 17.09.2022
188 Clear 22 1007 88 10000 1.54 230 06:19 17.09.2022
189 Clear 24 1008 78 10000 3.6 230 23:41 16.09.2022
190 Clear 24 1007 69 10000 3.09 220 22:19 16.09.2022
191 Clear 25 1008 50 10000 3.09 180 20:53 16.09.2022
192 Clear 25 1007 65 10000 1.03 160 19:29 16.09.2022
193 Clear 30 1008 32 10000 2.06 230 16:24 16.09.2022
194 Clear 29 1009 44 10000 3.09 220 14:52 16.09.2022
195 Clear 28 1010 50 10000 3.09 210 13:21 16.09.2022
196 Clear 27 1011 61 10000 4.12 220 10:24 16.09.2022
197 Clear 24 1010 73 10000 4.63 230 07:23 16.09.2022
198 Clear 23 1010 78 10000 4.12 230 06:48 16.09.2022
199 Clear 23 1010 78 10000 4.12 230 05:57 16.09.2022
200 Clear 23 1010 83 10000 4.63 230 02:30 16.09.2022
201 Clear 23 1011 73 10000 0.51 0 21:44 15.09.2022
202 Clear 23 1011 68 10000 2.57 170 20:37 15.09.2022
203 Clear 24 1011 64 10000 2.06 180 19:24 15.09.2022
204 Clear 27 1012 38 10000 2.06 200 17:40 15.09.2022
205 Clear 27 1012 38 10000 2.06 200 17:22 15.09.2022
206 Clear 27 1012 44 10000 3.09 240 15:38 15.09.2022
207 Clouds 27 1013 38 10000 4.36 231 12:50 15.09.2022
208 Clear 25 1014 50 10000 5.66 210 11:48 15.09.2022
209 Clear 23 1014 56 10000 5.14 210 09:44 15.09.2022
210 Clear 21 1013 64 10000 4.12 200 06:45 15.09.2022
211 Clear 19 1014 72 10000 0.51 0 03:46 15.09.2022
212 Clear 21 1014 64 10000 2.57 100 22:57 14.09.2022
213 Clear 22 1015 49 10000 1.03 0 20:31 14.09.2022
214 Clear 22 1014 49 10000 2.57 260 19:32 14.09.2022
215 Clear 25 1014 38 10000 2.57 250 17:37 14.09.2022
216 Clear 25 1014 36 10000 3.09 230 16:36 14.09.2022
217 Clouds 25 1015 38 10000 3.6 210 14:51 14.09.2022
218 Clouds 23 1016 53 10000 3.09 170 12:38 14.09.2022
219 Clouds 22 1016 68 10000 2.57 150 09:52 14.09.2022
220 Clouds 20 1015 77 10000 2.06 100 08:28 14.09.2022
221 Clear 17 1015 82 10000 2.06 340 06:49 14.09.2022
222 Clear 16 1014 82 10000 2.06 350 06:28 14.09.2022
223 Clear 19 1014 77 10000 2.57 100 02:25 14.09.2022
224 Clear 19 1014 77 10000 2.57 80 01:34 14.09.2022
225 Clear 19 1014 77 10000 2.57 100 00:52 14.09.2022
226 Clear 19 1014 72 10000 2.57 90 23:54 13.09.2022
227 Clear 19 1014 72 10000 2.57 90 23:36 13.09.2022
228 Clear 20 1014 68 10000 4.12 100 23:18 13.09.2022
229 Clear 20 1014 68 10000 3.09 90 22:26 13.09.2022
230 Clear 19 1014 68 10000 3.6 60 21:35 13.09.2022
231 Clear 21 1012 56 10000 6.17 60 18:54 13.09.2022
232 Clouds 23 1011 56 10000 6.69 30 16:34 13.09.2022
233 Clouds 23 1011 53 10000 4.12 10 15:18 13.09.2022
234 Clouds 24 1011 47 10000 5.14 350 13:37 13.09.2022
235 Clouds 23 1011 56 10000 4.63 340 10:20 13.09.2022
236 Clear 20 1010 73 10000 1.03 0 07:54 13.09.2022
237 Clear 18 1010 82 10000 2.57 340 02:21 13.09.2022
238 Clear 20 1010 83 10000 0.51 0 23:22 12.09.2022
239 Clear 20 1010 88 10000 1.03 320 22:37 12.09.2022
240 Clear 20 1010 83 10000 1.03 270 21:21 12.09.2022
241 Clear 21 1010 78 10000 1.03 220 19:58 12.09.2022
242 Clear 22 1009 73 10000 2.06 210 18:22 12.09.2022
243 Clouds 22 1010 73 10000 3.09 170 15:48 12.09.2022
244 Clouds 23 1010 60 10000 1.54 280 12:30 12.09.2022
245 Rain 19 1010 82 10000 5.66 360 10:30 12.09.2022
246 Clouds 21 1009 64 10000 9.77 350 07:33 12.09.2022
247 Clouds 21 1008 78 10000 4.12 360 04:35 12.09.2022
248 Clear 22 1008 83 10000 5.14 350 01:53 12.09.2022
249 Clear 22 1008 83 10000 3.6 50 22:46 11.09.2022
250 Clear 23 1009 78 10000 4.63 50 21:26 11.09.2022
251 Clear 23 1009 78 10000 4.63 50 20:44 11.09.2022
252 Clear 24 1009 69 10000 4.63 40 19:39 11.09.2022
253 Clear 24 1009 69 10000 5.14 30 19:18 11.09.2022
254 Clouds 27 1009 54 10000 6.69 40 17:28 11.09.2022
255 Clouds 28 1010 57 10000 3.6 360 15:51 11.09.2022
256 Clouds 26 1011 69 10000 2.06 220 13:22 11.09.2022
257 Clouds 27 1011 65 10000 2.57 180 11:25 11.09.2022
258 Clear 25 1011 61 10000 1.03 0 08:25 11.09.2022
259 Clear 22 1010 78 10000 1.54 330 05:30 11.09.2022
260 Clear 23 1010 64 10000 0 0 23:51 10.09.2022
261 Clear 24 1010 60 10000 0 0 22:22 10.09.2022
262 Clear 25 1011 53 10000 2.06 70 20:33 10.09.2022
263 Clear 25 1011 57 10000 2.57 80 19:43 10.09.2022
264 Clear 26 1010 44 10000 2.57 100 19:25 10.09.2022
265 Clear 28 1011 42 10000 1.54 230 17:27 10.09.2022
266 Clear 28 1012 54 10000 2.57 210 15:35 10.09.2022
267 Clear 28 1013 47 10000 2.57 200 13:36 10.09.2022
268 Clear 26 1014 57 10000 2.06 180 12:30 10.09.2022
269 Clear 24 1015 69 10000 3.09 140 10:31 10.09.2022
270 Clouds 24 1015 64 10000 0.51 0 08:41 10.09.2022
271 Clouds 23 1015 68 10000 1.03 0 08:20 10.09.2022
272 Clear 19 1015 82 10000 2.06 340 03:48 10.09.2022
273 Clear 21 1016 78 10000 3.09 40 23:36 09.09.2022
274 Clear 22 1016 73 10000 2.57 20 22:36 09.09.2022
275 Clear 22 1016 68 10000 4.12 40 20:50 09.09.2022
276 Clear 23 1016 68 10000 4.12 30 19:58 09.09.2022
277 Clear 23 1015 68 10000 5.14 50 19:22 09.09.2022
278 Clear 27 1016 50 10000 4.63 50 17:19 09.09.2022
279 Clear 26 1016 65 10000 3.09 230 14:47 09.09.2022
280 Clear 26 1017 65 10000 2.57 210 13:19 09.09.2022
281 Clear 25 1018 65 10000 3.09 100 10:42 09.09.2022
282 Clear 25 1018 65 10000 3.09 100 10:42 09.09.2022
283 Clear 22 1018 68 10000 2.57 60 07:45 09.09.2022
284 Clear 19 1018 77 10000 3.09 30 03:34 09.09.2022
285 Clear 21 1018 68 10000 5.14 60 22:34 08.09.2022
286 Clear 21 1018 68 10000 5.14 60 21:51 08.09.2022
287 Clear 22 1018 64 10000 6.69 70 20:49 08.09.2022
288 Clear 22 1018 64 10000 6.17 70 20:25 08.09.2022
289 Clear 23 1017 56 10000 8.75 40 18:43 08.09.2022
290 Clear 25 1017 44 10000 7.2 50 17:23 08.09.2022
291 Clear 26 1017 41 10000 6.17 70 15:35 08.09.2022
292 Clear 26 1017 39 10000 5.98 55 13:30 08.09.2022
293 Clear 26 1017 39 10000 5.96 55 12:40 08.09.2022
294 Clear 26 1018 31 10000 5.4 69 11:22 08.09.2022
295 Clear 24 1018 41 10000 6.13 72 09:35 08.09.2022
296 Clear 20 1019 68 10000 4.95 76 07:18 08.09.2022
297 Clear 19 1018 63 10000 5.29 72 03:37 08.09.2022
298 Clear 19 1019 63 10000 5.18 73 02:36 08.09.2022
299 Clear 19 1018 63 10000 5.37 72 02:18 08.09.2022
300 Clear 21 1019 52 10000 6.17 69 22:58 07.09.2022
301 Clear 21 1020 52 10000 6.48 68 21:44 07.09.2022
302 Clear 21 1020 52 10000 6.7 65 21:21 07.09.2022
303 Clear 22 1020 49 10000 7.09 62 20:25 07.09.2022
304 Clear 23 1019 46 10000 7.34 60 18:54 07.09.2022
305 Clear 25 1018 44 10000 9.22 61 15:51 07.09.2022
306 Clouds 25 1019 38 10000 10.29 60 10:51 07.09.2022
307 Clouds 24 1019 41 10000 9.77 70 10:32 07.09.2022
308 Clouds 23 1019 46 10000 7.72 70 08:23 07.09.2022
309 Clear 20 1018 56 10000 4.12 70 05:33 07.09.2022
310 Clear 21 1019 56 10000 5.14 60 00:27 07.09.2022
311 Clouds 21 1019 64 10000 6.17 50 21:48 06.09.2022
312 Clouds 22 1020 60 10000 5.66 50 21:30 06.09.2022
313 Clouds 22 1019 64 10000 7.2 50 19:27 06.09.2022
314 Clouds 23 1019 56 10000 8.23 60 18:29 06.09.2022
315 Clouds 24 1018 53 10000 8.75 60 17:23 06.09.2022
316 Clouds 24 1018 57 10000 10.29 50 16:41 06.09.2022
317 Clouds 23 1019 56 10000 11.83 50 15:26 06.09.2022
318 Clouds 24 1019 60 10000 9.26 50 13:47 06.09.2022
319 Clouds 22 1019 73 10000 7.2 40 13:27 06.09.2022
320 Clouds 21 1019 78 10000 8.75 30 12:40 06.09.2022
321 Clouds 22 1020 56 10000 9.26 50 10:52 06.09.2022
322 Clouds 21 1019 68 10000 7.72 40 08:56 06.09.2022
323 Clouds 21 1019 60 10000 4.63 30 07:52 06.09.2022
324 Clouds 20 1019 64 10000 4.63 20 05:59 06.09.2022
325 Clear 19 1021 56 10000 6.69 50 00:20 06.09.2022
326 Clear 20 1022 56 10000 7.72 50 22:41 05.09.2022
327 Clear 20 1022 56 10000 7.2 50 20:59 05.09.2022
328 Clear 21 1021 52 10000 7.72 40 19:56 05.09.2022
329 Clouds 21 1021 56 10000 10.8 60 18:51 05.09.2022
330 Clouds 22 1021 53 10000 10.8 70 18:24 05.09.2022
331 Clouds 22 1021 53 10000 10.29 60 17:35 05.09.2022
332 Clouds 23 1020 53 10000 10.8 50 15:53 05.09.2022
333 Clouds 24 1020 57 10000 10.29 50 13:54 05.09.2022
334 Clouds 24 1020 60 10000 10.29 50 12:29 05.09.2022
335 Clouds 24 1020 57 10000 6.69 40 10:34 05.09.2022
336 Clouds 22 1019 64 10000 8.75 50 07:43 05.09.2022
337 Clouds 22 1018 73 10000 4.12 50 02:58 05.09.2022
338 Rain 22 1019 73 10000 5.14 30 23:48 04.09.2022
339 Clouds 22 1019 73 10000 6.17 30 22:28 04.09.2022
340 Clouds 22 1020 73 10000 5.66 30 21:41 04.09.2022
341 Clouds 22 1019 73 10000 6.17 40 19:39 04.09.2022
342 Clouds 23 1019 68 10000 8.75 40 18:21 04.09.2022
343 Clouds 24 1019 64 10000 7.72 30 17:24 04.09.2022
344 Clouds 25 1019 65 10000 7.2 40 14:59 04.09.2022
345 Clouds 25 1019 65 10000 7.2 30 14:21 04.09.2022
346 Clouds 24 1019 69 10000 7.72 40 12:24 04.09.2022
347 Clouds 24 1020 73 10000 7.2 20 10:58 04.09.2022
348 Clouds 25 1019 69 10000 6.69 20 09:23 04.09.2022
349 Clouds 22 1018 78 10000 5.66 20 06:24 04.09.2022
350 Clouds 22 1018 78 10000 5.14 20 02:30 04.09.2022
351 Clouds 23 1017 73 10000 7.2 20 22:26 03.09.2022
352 Clouds 23 1017 73 10000 7.2 20 22:26 03.09.2022
353 Clouds 23 1017 73 10000 7.2 20 22:26 03.09.2022
354 Clouds 23 1017 73 10000 5.66 20 21:24 03.09.2022
355 Clouds 24 1016 73 10000 7.72 30 20:42 03.09.2022
356 Clouds 26 1014 65 10000 6.17 30 17:36 03.09.2022
357 Clouds 28 1014 61 10000 5.66 30 16:49 03.09.2022
358 Clouds 27 1014 65 10000 2.06 220 14:47 03.09.2022
359 Clouds 28 1014 61 10000 2.57 30 14:28 03.09.2022
360 Clouds 28 1014 61 10000 2.57 20 13:43 03.09.2022
361 Clouds 28 1013 61 10000 5.14 240 11:24 03.09.2022
362 Clouds 26 1013 73 10000 3.09 360 08:55 03.09.2022
363 Clouds 24 1012 78 10000 3.6 350 07:23 03.09.2022
364 Clear 23 1011 83 10000 2.06 350 04:45 03.09.2022
365 Clouds 26 1011 83 10000 1.54 10 00:48 03.09.2022
366 Rain 26 1011 78 10000 3.09 20 23:28 02.09.2022
367 Rain 26 1010 78 10000 3.6 80 21:36 02.09.2022
368 Clouds 26 1010 78 10000 4.12 40 20:40 02.09.2022
369 Clouds 27 1010 74 10000 6.17 60 19:47 02.09.2022
370 Clouds 27 1009 69 10000 5.66 40 18:43 02.09.2022
371 Clear 28 1009 65 10000 5.14 40 18:24 02.09.2022
372 Clear 31 1009 55 10000 3.6 60 16:56 02.09.2022
373 Clear 31 1010 55 10000 3.09 70 15:48 02.09.2022
374 Clouds 31 1011 42 10000 3.6 50 12:58 02.09.2022
375 Clouds 28 1011 69 10000 2.57 170 10:37 02.09.2022
376 Clouds 28 1011 69 10000 2.57 120 09:41 02.09.2022
377 Clouds 27 1011 78 10000 2.57 100 08:42 02.09.2022
378 Clouds 25 1011 83 9000 3.09 40 06:43 02.09.2022
379 Clouds 24 1011 83 10000 2.57 40 04:58 02.09.2022
380 Clouds 25 1011 78 10000 3.09 40 22:54 01.09.2022
381 Clouds 26 1011 73 10000 4.12 60 21:45 01.09.2022
382 Clouds 26 1011 73 10000 5.14 50 21:26 01.09.2022
383 Clouds 26 1011 78 10000 4.12 50 20:49 01.09.2022
384 Clouds 27 1010 69 10000 5.14 40 19:24 01.09.2022
385 Clouds 28 1010 61 10000 6.17 40 17:49 01.09.2022
386 Clouds 29 1010 61 10000 6.69 20 16:41 01.09.2022
387 Clouds 29 1011 58 10000 3.09 100 14:34 01.09.2022
388 Rain 29 1011 65 10000 3.6 360 13:20 01.09.2022
389 Clouds 25 1011 83 6000 3.09 330 11:57 01.09.2022
390 Clouds 25 1011 83 6000 3.09 330 11:38 01.09.2022
391 Clouds 26 1011 73 8000 5.66 330 11:18 01.09.2022
392 Clouds 27 1010 69 10000 2.06 40 08:53 01.09.2022
393 Clouds 22 1010 94 10000 0 0 06:26 01.09.2022
394 Clouds 24 1011 78 10000 2.06 10 01:45 01.09.2022
395 Clear 24 1011 83 10000 3.6 10 00:19 01.09.2022
396 Clear 25 1011 78 10000 3.09 20 22:21 31.08.2022
397 Clouds 25 1010 78 10000 3.6 360 20:22 31.08.2022
398 Clouds 27 1010 65 10000 5.14 50 18:19 31.08.2022
399 Clouds 27 1011 65 10000 5.14 70 16:31 31.08.2022
400 Rain 26 1010 69 10000 5.66 10 14:44 31.08.2022
401 Clouds 29 1011 58 10000 3.6 40 12:25 31.08.2022
402 Clouds 28 1011 61 10000 3.6 50 11:37 31.08.2022
403 Clouds 26 1011 69 10000 4.12 350 09:25 31.08.2022
404 Clouds 26 1011 83 10000 2.06 70 06:19 31.08.2022
405 Clouds 26 1012 83 10000 4.63 50 23:25 30.08.2022
406 Clouds 27 1012 83 10000 4.63 60 21:49 30.08.2022
407 Clouds 27 1012 78 10000 5.14 50 20:58 30.08.2022
408 Clouds 28 1011 74 10000 6.69 30 18:52 30.08.2022
409 Clouds 31 1012 58 10000 7.2 40 15:29 30.08.2022
410 Clouds 31 1012 58 10000 6.69 20 13:25 30.08.2022
411 Clouds 31 1013 58 10000 7.2 30 11:22 30.08.2022
412 Clouds 30 1013 62 10000 6.69 40 10:57 30.08.2022
413 Clouds 26 1012 83 10000 6.17 50 07:46 30.08.2022
414 Clear 25 1012 83 10000 4.12 30 02:34 30.08.2022
415 Clear 25 1013 83 10000 4.63 60 23:22 29.08.2022
416 Clear 26 1012 73 10000 5.66 40 22:28 29.08.2022
417 Clear 26 1012 73 10000 6.17 50 21:26 29.08.2022
418 Clear 27 1012 65 10000 6.17 70 19:54 29.08.2022
419 Clear 29 1012 54 10000 7.72 40 17:54 29.08.2022
420 Clear 30 1012 48 10000 8.23 40 17:25 29.08.2022
421 Clear 30 1012 48 10000 8.23 40 16:40 29.08.2022
422 Clear 32 1013 45 10000 7.72 70 14:47 29.08.2022
423 Clear 32 1014 43 10000 8.23 70 13:21 29.08.2022
424 Clear 31 1014 48 10000 6.17 60 11:20 29.08.2022
425 Clouds 29 1014 61 10000 7.2 60 09:48 29.08.2022
426 Clouds 26 1014 78 10000 4.63 60 08:29 29.08.2022
427 Clouds 24 1014 83 10000 3.6 50 05:35 29.08.2022
428 Clear 25 1013 78 10000 4.12 50 00:22 29.08.2022
429 Clear 26 1014 73 10000 3.6 70 22:41 28.08.2022
430 Clear 26 1014 73 10000 4.12 80 21:44 28.08.2022
431 Clear 27 1013 65 10000 5.14 70 20:55 28.08.2022
432 Clear 28 1012 54 10000 5.66 50 19:26 28.08.2022
433 Clear 29 1012 45 10000 6.69 60 18:20 28.08.2022
434 Clear 31 1012 42 10000 6.69 70 17:22 28.08.2022
435 Clear 32 1012 37 10000 6.17 30 16:27 28.08.2022
436 Clear 31 1012 45 10000 2.57 230 14:41 28.08.2022
437 Clear 31 1012 44 10000 3.04 46 12:48 28.08.2022
438 Clear 29 1012 48 10000 2.18 84 10:43 28.08.2022
439 Clear 29 1012 48 10000 2.18 84 10:43 28.08.2022
440 Clear 28 1013 53 10000 2.78 89 09:49 28.08.2022
441 Clear 26 1013 58 10000 2.28 86 08:37 28.08.2022
442 Clouds 23 1012 64 10000 2.19 63 07:43 28.08.2022
443 Clear 21 1012 63 10000 1.48 19 02:48 28.08.2022
444 Clear 23 1012 64 10000 0.7 39 00:27 28.08.2022
445 Clear 25 1011 63 10000 0.76 63 22:36 27.08.2022
446 Clear 25 1011 62 10000 1.29 87 21:36 27.08.2022
447 Clear 26 1011 63 10000 3.07 67 19:49 27.08.2022
448 Clear 28 1010 58 10000 3.18 28 17:43 27.08.2022
449 Clouds 28 1011 74 10000 3.09 240 15:53 27.08.2022
450 Clouds 28 1011 65 10000 3.09 240 15:24 27.08.2022
451 Clouds 27 1011 74 10000 4.63 230 12:28 27.08.2022
452 Clouds 26 1011 78 10000 4.63 220 11:31 27.08.2022
453 Clouds 26 1011 78 10000 4.12 220 09:49 27.08.2022
454 Clouds 25 1010 83 10000 0 0 07:54 27.08.2022
455 Clear 23 1009 83 10000 0 0 02:52 27.08.2022
456 Clear 23 1009 83 10000 1.54 350 23:57 26.08.2022
457 Clouds 25 1008 69 10000 2.06 60 22:40 26.08.2022
458 Clouds 25 1008 69 10000 2.57 50 21:30 26.08.2022
459 Clouds 27 1008 69 10000 3.6 100 19:23 26.08.2022
460 Clouds 27 1003 74 10000 2.57 240 16:50 26.08.2022
461 Clouds 29 1003 65 10000 3.6 240 15:31 26.08.2022
462 Clouds 28 1004 69 10000 3.6 240 14:34 26.08.2022
463 Clouds 27 1004 65 10000 3.09 220 12:51 26.08.2022
464 Clouds 27 1003 65 10000 3.09 230 11:33 26.08.2022
465 Clouds 26 1004 69 10000 2.57 250 10:46 26.08.2022
466 Clear 23 1008 78 10000 1.54 90 07:28 26.08.2022
467 Clouds 21 1007 78 10000 1.54 300 02:30 26.08.2022
468 Clouds 21 1007 83 10000 2.06 310 23:41 25.08.2022
469 Clouds 21 1007 73 10000 3.09 320 21:36 25.08.2022
470 Clouds 21 1007 78 10000 1.54 300 20:30 25.08.2022
471 Clouds 23 1007 73 10000 2.06 350 18:55 25.08.2022
472 Clouds 24 1007 69 10000 5.14 360 17:50 25.08.2022
473 Clouds 24 1008 78 10000 6.69 350 17:31 25.08.2022
474 Clouds 27 1008 69 10000 2.06 270 15:43 25.08.2022
475 Clouds 25 1007 73 10000 3.6 240 15:25 25.08.2022
476 Thunderstorm 22 1009 78 7000 3.09 140 11:55 25.08.2022
477 Thunderstorm 22 1010 83 4000 1.54 70 10:48 25.08.2022
478 Thunderstorm 23 1009 83 10000 2.06 360 08:54 25.08.2022
479 Clouds 22 1008 83 10000 0.51 0 05:24 25.08.2022
480 Clouds 22 1010 83 10000 1.54 360 01:37 25.08.2022
481 Rain 22 1009 88 10000 5.14 10 23:26 24.08.2022
482 Thunderstorm 22 1011 88 10000 2.57 50 22:22 24.08.2022
483 Thunderstorm 25 1012 83 10000 4.12 120 21:36 24.08.2022
484 Thunderstorm 26 1012 78 10000 3.6 100 20:52 24.08.2022
485 Rain 27 1008 78 10000 5.14 20 18:58 24.08.2022
486 Rain 28 1009 74 10000 6.17 30 16:37 24.08.2022
487 Rain 29 1009 70 10000 6.17 50 15:52 24.08.2022
488 Clouds 29 1008 61 10000 8.23 40 13:40 24.08.2022
489 Rain 30 1008 66 10000 6.17 50 11:29 24.08.2022
490 Rain 29 1008 70 10000 6.17 80 09:35 24.08.2022
491 Rain 27 1008 78 10000 6.17 60 07:50 24.08.2022
492 Clouds 26 1008 83 10000 3.09 360 02:29 24.08.2022
493 Clouds 27 1008 78 10000 4.63 40 23:32 23.08.2022
494 Clouds 27 1009 78 10000 4.12 20 22:32 23.08.2022
495 Clouds 27 1008 78 10000 6.17 50 21:29 23.08.2022
496 Clouds 27 1008 78 10000 5.14 60 20:20 23.08.2022
497 Clouds 28 1008 74 10000 5.66 40 18:44 23.08.2022
498 Clouds 28 1008 69 10000 7.2 20 17:49 23.08.2022
499 Clouds 30 1008 66 10000 7.2 40 16:53 23.08.2022
500 Clouds 32 1008 55 10000 6.17 30 15:39 23.08.2022
501 Clouds 30 1008 62 10000 4.63 30 13:29 23.08.2022
502 Clouds 30 1008 66 10000 6.17 30 11:32 23.08.2022
503 Rain 30 1008 62 10000 4.12 40 10:36 23.08.2022
504 Clouds 29 1008 70 10000 3.6 60 09:54 23.08.2022
505 Clouds 27 1008 78 10000 3.09 110 08:51 23.08.2022
506 Clouds 27 1008 78 10000 2.57 100 08:20 23.08.2022
507 Clouds 27 1008 78 10000 3.09 80 07:38 23.08.2022
508 Clouds 26 1007 83 10000 2.06 80 06:28 23.08.2022
509 Clouds 26 1007 83 10000 3.09 80 04:38 23.08.2022
510 Clouds 26 1007 83 10000 5.14 40 00:28 23.08.2022
511 Clouds 26 1007 83 10000 4.63 20 23:37 22.08.2022
512 Clouds 27 1006 74 10000 5.14 40 22:44 22.08.2022
513 Clouds 26 1007 83 10000 6.69 50 21:29 22.08.2022
514 Clouds 27 1006 78 10000 6.17 50 19:48 22.08.2022
515 Clouds 28 1005 74 10000 7.2 40 18:50 22.08.2022
516 Clouds 26 1006 59 10000 6.23 58 17:22 22.08.2022
517 Clouds 31 1006 58 10000 7.72 40 15:39 22.08.2022
518 Clouds 31 1006 58 10000 6.17 50 13:57 22.08.2022
519 Clouds 29 1006 65 10000 6.17 50 10:43 22.08.2022
520 Rain 26 1006 78 10000 3.09 70 07:59 22.08.2022
521 Clouds 25 1005 83 10000 3.09 40 04:25 22.08.2022
522 Rain 25 1005 83 10000 4.12 60 00:43 22.08.2022
523 Clear 25 1005 78 10000 4.12 60 00:23 22.08.2022
524 Clear 26 1005 73 10000 4.12 80 22:22 21.08.2022
525 Clear 26 1005 73 10000 5.66 60 21:25 21.08.2022
526 Clear 26 1005 73 10000 5.66 60 20:56 21.08.2022
527 Clear 27 1005 74 10000 7.2 40 19:26 21.08.2022
528 Clouds 28 1005 65 10000 8.23 50 17:35 21.08.2022
529 Clouds 31 1005 51 10000 8.75 50 15:53 21.08.2022
530 Clouds 31 1005 55 10000 7.2 50 15:21 21.08.2022
531 Clouds 31 1005 55 10000 6.69 40 13:52 21.08.2022
532 Clouds 31 1006 58 10000 7.72 50 13:28 21.08.2022
533 Clouds 30 1006 58 10000 6.69 40 11:39 21.08.2022
534 Clouds 28 1007 61 10000 6.69 70 09:31 21.08.2022
535 Clouds 27 1007 65 10000 6.17 80 08:56 21.08.2022
536 Clouds 26 1007 73 10000 5.66 70 08:38 21.08.2022
537 Clouds 25 1007 83 10000 3.09 70 07:26 21.08.2022
538 Clear 24 1007 83 10000 3.6 50 03:41 21.08.2022
539 Clear 25 1008 78 10000 4.12 70 00:24 21.08.2022
540 Clear 25 1008 78 10000 4.63 70 22:40 20.08.2022
541 Clear 26 1009 73 10000 5.66 70 21:37 20.08.2022
542 Clear 26 1008 73 10000 6.69 70 20:40 20.08.2022
543 Clear 26 1008 73 10000 5.66 50 19:40 20.08.2022
544 Clear 29 1008 58 10000 7.2 50 18:30 20.08.2022
545 Clear 29 1008 58 10000 6.17 30 17:50 20.08.2022
546 Clouds 30 1008 54 10000 6.17 40 16:52 20.08.2022
547 Clouds 28 1009 69 10000 3.6 240 15:30 20.08.2022
548 Clouds 28 1009 69 10000 4.63 250 13:26 20.08.2022
549 Clouds 28 1010 69 10000 3.09 250 11:50 20.08.2022
550 Clouds 27 1010 69 10000 2.06 80 09:37 20.08.2022
551 Clouds 26 1010 73 10000 1.54 0 08:31 20.08.2022
552 Clouds 24 1010 83 10000 2.57 50 05:52 20.08.2022
553 Clear 24 1011 88 10000 1.54 20 00:59 20.08.2022
554 Clear 24 1011 83 10000 3.09 30 00:35 20.08.2022
555 Clear 25 1011 83 10000 3.09 40 23:18 19.08.2022
556 Clear 26 1011 73 10000 3.6 50 21:41 19.08.2022
557 Clear 26 1010 69 10000 4.12 60 20:20 19.08.2022
558 Clear 30 1010 51 10000 4.12 20 17:35 19.08.2022
559 Clouds 32 1010 45 10000 5.14 10 15:18 19.08.2022
560 Clouds 30 1011 62 10000 1.54 200 13:18 19.08.2022
561 Clouds 27 1011 78 10000 2.57 190 10:53 19.08.2022
562 Clouds 27 1011 78 10000 3.6 200 10:21 19.08.2022
563 Clear 24 1010 88 10000 3.09 10 06:27 19.08.2022
564 Clear 26 1010 69 10000 2.06 70 00:56 19.08.2022
565 Clear 26 1010 69 10000 2.57 60 00:26 19.08.2022
566 Clear 26 1010 69 10000 2.57 60 23:37 18.08.2022
567 Clear 26 1010 69 10000 2.57 60 22:38 18.08.2022
568 Clear 27 1010 69 10000 4.12 50 21:55 18.08.2022
569 Clear 27 1010 69 10000 3.6 60 21:26 18.08.2022
570 Clear 28 1010 61 10000 6.17 30 19:56 18.08.2022
571 Clear 28 1010 61 10000 5.14 30 19:26 18.08.2022
572 Clear 31 1010 51 10000 5.14 20 17:49 18.08.2022
573 Clear 33 1010 46 10000 5.14 10 16:55 18.08.2022
574 Clear 31 1010 70 10000 2.57 210 14:42 18.08.2022
575 Clear 31 1010 66 10000 3.6 240 14:19 18.08.2022
576 Clear 29 1010 61 10000 3.09 230 12:55 18.08.2022
577 Clear 28 1010 65 10000 3.09 220 11:31 18.08.2022
578 Clear 28 1011 65 10000 2.06 170 09:43 18.08.2022
579 Clear 26 1011 78 10000 2.57 150 08:39 18.08.2022
580 Clear 25 1010 78 10000 1.03 0 07:19 18.08.2022
581 Clear 23 1009 78 10000 2.06 350 03:53 18.08.2022
582 Clear 25 1010 69 10000 0.51 0 23:30 17.08.2022
583 Clear 28 1010 61 10000 2.57 70 21:39 17.08.2022
584 Clear 28 1010 65 10000 1.54 90 20:18 17.08.2022
585 Clear 29 1009 51 10000 1.03 220 19:28 17.08.2022
586 Clear 29 1009 57 10000 2.06 240 17:32 17.08.2022
587 Clear 30 1009 61 10000 2.57 220 16:22 17.08.2022
588 Clear 29 1009 61 10000 2.06 230 15:22 17.08.2022
589 Clear 28 1010 74 10000 4.63 240 12:54 17.08.2022
590 Clear 28 1010 74 10000 4.12 220 11:36 17.08.2022
591 Clear 28 1010 74 10000 4.12 220 11:36 17.08.2022
592 Clear 27 1010 69 10000 3.09 230 09:31 17.08.2022
593 Clear 25 1010 83 10000 2.06 240 07:55 17.08.2022
594 Clear 24 1010 78 10000 0.51 0 02:24 17.08.2022
595 Clear 24 1011 73 10000 0 0 23:58 16.08.2022
596 Clear 25 1011 69 10000 0.51 0 22:30 16.08.2022
597 Clear 25 1010 69 10000 0.51 0 20:52 16.08.2022
598 Clear 26 1010 61 10000 1.54 100 19:53 16.08.2022
599 Clear 27 1010 54 10000 1.03 0 18:34 16.08.2022
600 Clear 28 1010 54 10000 1.54 170 17:41 16.08.2022
601 Clear 29 1011 51 10000 2.57 230 15:47 16.08.2022
602 Clear 28 1011 54 10000 2.57 250 14:55 16.08.2022
603 Clear 28 1011 54 10000 2.57 250 14:37 16.08.2022
604 Clear 27 1012 69 10000 3.6 250 12:44 16.08.2022
605 Clear 26 1011 69 10000 4.63 230 10:37 16.08.2022
606 Clear 25 1012 78 10000 5.14 220 09:44 16.08.2022
607 Clear 25 1011 73 10000 4.12 220 08:45 16.08.2022
608 Clear 24 1011 78 10000 4.12 210 07:33 16.08.2022
609 Clear 21 1010 88 10000 0 0 02:19 16.08.2022
610 Clear 22 1010 78 10000 0 0 22:30 15.08.2022
611 Clear 22 1010 78 10000 0 0 22:30 15.08.2022
612 Clear 22 1010 83 10000 1.03 200 21:54 15.08.2022
613 Clear 22 1009 83 10000 0.51 210 20:52 15.08.2022
614 Clear 22 1009 83 10000 1.03 0 20:19 15.08.2022
615 Clear 22 1009 83 10000 1.03 0 20:19 15.08.2022
616 Clear 23 1008 73 10000 2.06 210 18:42 15.08.2022
617 Clear 23 1008 78 10000 3.09 210 17:36 15.08.2022
618 Clouds 24 1008 78 10000 3.6 230 16:22 15.08.2022
619 Clouds 23 1008 78 10000 3.6 240 13:57 15.08.2022
620 Clouds 21 1008 78 10000 2.57 270 12:37 15.08.2022
621 Thunderstorm 20 1008 94 10000 6.17 130 10:18 15.08.2022
622 Rain 23 1005 94 10000 5.66 20 08:42 15.08.2022
623 Clouds 24 1005 83 10000 4.12 10 06:27 15.08.2022
624 Clouds 25 1005 78 10000 3.6 70 02:40 15.08.2022
625 Clouds 25 1005 78 10000 6.17 40 22:40 14.08.2022
626 Clouds 26 1005 73 10000 5.66 40 21:39 14.08.2022
627 Clouds 26 1004 69 10000 4.12 50 20:29 14.08.2022
628 Clouds 27 1004 65 10000 4.12 40 19:32 14.08.2022
629 Clouds 29 1003 58 10000 5.14 40 18:20 14.08.2022
630 Clouds 30 1003 54 10000 3.6 70 17:22 14.08.2022
631 Clouds 29 1004 58 10000 2.57 240 15:51 14.08.2022
632 Clouds 29 1004 54 10000 4.12 250 14:38 14.08.2022
633 Clouds 29 1005 61 10000 4.12 240 13:50 14.08.2022
634 Clouds 30 1005 54 10000 2.57 240 13:26 14.08.2022
635 Clouds 28 1006 61 10000 3.6 240 12:34 14.08.2022
636 Clouds 28 1006 65 10000 2.57 160 11:20 14.08.2022
637 Clouds 26 1007 65 10000 2.57 110 08:56 14.08.2022
638 Clear 22 1007 88 10000 2.57 360 06:23 14.08.2022
639 Clear 22 1007 88 10000 2.57 360 06:23 14.08.2022
640 Clouds 23 1007 88 10000 3.09 50 04:21 14.08.2022
641 Clear 23 1007 88 10000 2.57 20 00:42 14.08.2022
642 Clear 25 1008 73 10000 3.09 60 22:56 13.08.2022
643 Clear 25 1008 73 10000 4.12 70 21:55 13.08.2022
644 Clear 25 1008 73 10000 3.6 70 20:49 13.08.2022
645 Clear 26 1007 69 10000 5.14 40 19:47 13.08.2022
646 Clear 27 1007 65 10000 7.2 50 18:47 13.08.2022
647 Clouds 30 1007 51 10000 7.72 40 16:23 13.08.2022
648 Clouds 30 1008 54 10000 7.72 20 14:41 13.08.2022
649 Clouds 29 1008 58 10000 7.2 40 13:48 13.08.2022
650 Clouds 31 1008 55 10000 8.23 30 13:23 13.08.2022
651 Clouds 29 1009 61 10000 6.17 40 10:44 13.08.2022
652 Clouds 27 1009 65 10000 4.12 100 09:22 13.08.2022
653 Clouds 23 1009 88 10000 3.09 40 06:26 13.08.2022
654 Clouds 24 1011 83 10000 3.09 70 00:44 13.08.2022
655 Clouds 24 1011 83 10000 5.14 40 23:25 12.08.2022
656 Clouds 25 1012 78 10000 6.17 50 21:35 12.08.2022
657 Clouds 25 1012 73 10000 5.66 40 19:47 12.08.2022
658 Clouds 25 1012 73 10000 6.17 40 19:22 12.08.2022
659 Clouds 27 1012 65 10000 7.2 30 17:59 12.08.2022
660 Clouds 29 1012 58 10000 7.72 20 16:25 12.08.2022
661 Clouds 29 1012 58 10000 6.69 10 14:50 12.08.2022
662 Clouds 28 1013 61 10000 5.66 20 13:30 12.08.2022
663 Clouds 26 1013 69 10000 2.57 250 11:40 12.08.2022
664 Clouds 26 1013 65 10000 4.63 40 08:50 12.08.2022
665 Clouds 25 1013 73 10000 0.51 0 07:45 12.08.2022
666 Clouds 20 1013 94 10000 1.03 10 04:55 12.08.2022
667 Clear 23 1014 78 10000 2.06 60 00:31 12.08.2022
668 Clear 23 1014 78 10000 1.54 90 23:55 11.08.2022
669 Clouds 23 1014 78 10000 2.57 70 22:45 11.08.2022
670 Clear 23 1014 78 10000 3.09 70 21:53 11.08.2022
671 Clear 24 1014 73 10000 3.6 60 21:26 11.08.2022
672 Clear 24 1013 69 10000 5.14 70 20:30 11.08.2022
673 Clear 24 1013 69 10000 6.69 40 19:33 11.08.2022
674 Clouds 25 1013 65 10000 6.69 30 18:41 11.08.2022
675 Clouds 27 1013 61 10000 7.72 30 16:46 11.08.2022
676 Clouds 28 1013 57 10000 5.66 20 15:42 11.08.2022
677 Clouds 26 1014 61 10000 6.69 20 14:32 11.08.2022
678 Clouds 26 1014 65 10000 6.17 360 11:53 11.08.2022
679 Clouds 24 1013 69 10000 7.2 10 08:48 11.08.2022
680 Clouds 22 1012 78 10000 7.72 360 05:57 11.08.2022
681 Clouds 24 1012 73 10000 6.69 10 02:33 11.08.2022
682 Clouds 25 1012 73 10000 9.26 20 22:59 10.08.2022
683 Clouds 25 1012 73 10000 7.72 30 21:46 10.08.2022
684 Clouds 26 1012 69 10000 8.23 30 20:56 10.08.2022
685 Clouds 25 1012 78 10000 8.23 30 20:27 10.08.2022
686 Clouds 26 1011 73 10000 8.23 20 18:48 10.08.2022
687 Clouds 28 1011 65 10000 8.23 10 17:27 10.08.2022
688 Clouds 28 1011 69 10000 7.2 10 14:36 10.08.2022
689 Clouds 31 1011 55 10000 6.69 50 13:32 10.08.2022
690 Clouds 29 1010 58 10000 6.17 50 10:47 10.08.2022
691 Clouds 27 1010 69 10000 4.12 100 08:37 10.08.2022
692 Clouds 26 1010 73 10000 2.06 130 07:35 10.08.2022
693 Clouds 24 1009 78 10000 2.06 60 04:50 10.08.2022
694 Clouds 25 1010 78 10000 4.12 30 01:33 10.08.2022
695 Clouds 26 1010 73 10000 4.63 40 23:31 09.08.2022
696 Clouds 26 1010 78 10000 4.12 40 21:58 09.08.2022
697 Clear 26 1010 78 10000 5.66 40 21:23 09.08.2022
698 Clear 28 1010 51 10000 7.72 40 19:18 09.08.2022
699 Clear 31 1010 51 10000 7.72 30 17:37 09.08.2022
700 Clear 31 1010 51 10000 7.72 30 17:19 09.08.2022
701 Clear 31 1010 51 10000 7.72 30 16:23 09.08.2022
702 Clear 32 1010 45 10000 8.75 40 15:23 09.08.2022
703 Clouds 31 1011 45 10000 8.75 40 11:30 09.08.2022
704 Clear 30 1011 54 10000 6.69 40 08:53 09.08.2022
705 Clear 28 1011 61 10000 5.66 50 07:58 09.08.2022
706 Clear 25 1011 73 10000 4.12 40 05:25 09.08.2022
707 Clouds 26 1011 78 10000 6.69 40 00:59 09.08.2022
708 Clouds 26 1011 78 10000 7.2 60 23:25 08.08.2022
709 Clouds 26 1011 78 10000 7.72 50 22:45 08.08.2022
710 Clouds 26 1011 73 10000 6.69 70 21:47 08.08.2022
711 Clouds 27 1011 69 10000 8.23 60 20:43 08.08.2022
712 Clouds 27 1010 69 10000 8.23 50 19:39 08.08.2022
713 Clouds 28 1011 61 10000 11.32 50 18:19 08.08.2022
714 Clouds 31 1010 55 10000 10.29 30 15:55 08.08.2022
715 Clouds 31 1010 55 10000 10.29 30 15:37 08.08.2022
716 Clouds 31 1011 51 10000 9.77 50 12:31 08.08.2022
717 Clouds 30 1011 54 10000 9.26 60 10:50 08.08.2022
718 Clouds 25 1010 88 10000 7.72 40 08:20 08.08.2022
719 Clouds 26 1009 73 10000 5.66 50 04:45 08.08.2022
720 Clouds 26 1009 78 10000 5.14 40 01:29 08.08.2022
721 Clouds 26 1010 78 10000 7.2 50 21:49 07.08.2022
722 Clouds 26 1010 78 10000 7.72 50 21:30 07.08.2022
723 Clouds 27 1009 69 10000 8.23 50 20:25 07.08.2022
724 Clouds 27 1009 74 10000 8.23 40 19:53 07.08.2022
725 Clouds 27 1008 69 10000 8.23 30 19:24 07.08.2022
726 Clouds 29 1008 65 10000 8.75 30 17:58 07.08.2022
727 Clouds 30 1008 58 10000 9.77 30 16:53 07.08.2022
728 Clouds 30 1008 54 10000 9.77 40 15:45 07.08.2022
729 Clouds 31 1009 51 10000 8.23 40 14:32 07.08.2022
730 Clouds 31 1009 48 10000 8.75 70 12:50 07.08.2022
731 Clouds 29 1009 54 10000 8.75 40 10:54 07.08.2022
732 Clouds 29 1009 51 10000 7.72 50 10:21 07.08.2022
733 Clouds 24 1008 83 10000 4.12 30 04:41 07.08.2022
734 Clouds 24 1008 78 10000 4.12 40 02:37 07.08.2022
735 Clouds 25 1009 73 10000 6.17 50 22:57 06.08.2022
736 Clouds 25 1009 73 10000 6.17 50 22:19 06.08.2022
737 Clouds 26 1009 69 10000 6.17 60 20:19 06.08.2022
738 Clouds 26 1009 69 10000 7.2 40 19:38 06.08.2022
739 Clouds 28 1009 57 10000 8.75 30 17:52 06.08.2022
740 Clouds 29 1009 54 10000 8.75 40 16:33 06.08.2022
741 Clouds 31 1009 51 10000 8.75 40 13:52 06.08.2022
742 Clouds 30 1010 51 10000 8.75 50 12:50 06.08.2022
743 Clouds 29 1010 58 10000 7.72 60 11:21 06.08.2022
744 Clouds 28 1010 57 10000 7.72 50 09:50 06.08.2022
745 Clouds 25 1010 73 10000 4.63 60 07:36 06.08.2022
746 Clouds 24 1011 78 10000 4.63 60 02:22 06.08.2022
747 Clear 25 1012 73 10000 6.69 60 22:40 05.08.2022
748 Clear 25 1012 73 10000 7.2 70 21:51 05.08.2022
749 Clear 27 1012 65 10000 7.2 40 19:29 05.08.2022
750 Clear 27 1011 61 10000 8.75 40 18:44 05.08.2022
751 Clouds 29 1012 58 10000 9.26 50 17:26 05.08.2022
752 Clouds 29 1012 54 10000 8.75 30 16:43 05.08.2022
753 Clouds 30 1012 51 10000 9.26 70 15:21 05.08.2022
754 Clouds 31 1012 48 10000 8.23 60 13:43 05.08.2022
755 Clouds 31 1012 48 10000 8.23 50 13:22 05.08.2022
756 Clouds 30 1013 48 10000 7.72 50 12:24 05.08.2022
757 Clouds 29 1013 54 10000 7.2 60 10:30 05.08.2022
758 Clouds 26 1013 69 10000 4.63 50 07:58 05.08.2022
759 Clouds 26 1013 69 10000 4.63 50 07:58 05.08.2022
760 Clouds 23 1013 83 10000 4.12 40 05:30 05.08.2022
761 Clear 24 1014 78 10000 4.12 50 23:51 04.08.2022
762 Clouds 25 1014 73 10000 5.66 60 21:58 04.08.2022
763 Clouds 25 1014 69 10000 5.66 60 21:25 04.08.2022
764 Clouds 25 1014 69 10000 6.69 60 20:41 04.08.2022
765 Clouds 26 1014 65 10000 7.2 40 19:21 04.08.2022
766 Clouds 27 1013 57 10000 8.75 40 18:34 04.08.2022
767 Clouds 29 1013 51 10000 7.72 60 17:31 04.08.2022
768 Clouds 30 1014 54 10000 9.26 50 13:44 04.08.2022
769 Clouds 29 1014 48 10000 8.23 50 11:47 04.08.2022
770 Clouds 29 1014 51 10000 8.23 50 10:48 04.08.2022
771 Clouds 25 1014 73 10000 6.69 40 07:51 04.08.2022
772 Clouds 24 1013 78 10000 5.14 50 04:30 04.08.2022
773 Clouds 24 1013 78 10000 5.14 60 02:20 04.08.2022
774 Clear 24 1014 78 10000 5.14 70 23:43 03.08.2022
775 Clouds 25 1014 69 10000 5.14 60 21:50 03.08.2022
776 Clouds 25 1014 69 10000 7.72 50 20:37 03.08.2022
777 Clouds 26 1013 65 10000 7.2 30 19:29 03.08.2022
778 Clouds 28 1013 54 10000 9.77 40 17:58 03.08.2022
779 Clouds 29 1013 54 10000 9.26 40 16:24 03.08.2022
780 Clouds 30 1012 54 10000 9.26 30 14:44 03.08.2022
781 Clouds 29 1013 58 10000 8.23 20 11:53 03.08.2022
782 Clouds 25 1013 69 10000 4.12 80 08:26 03.08.2022
783 Clouds 23 1013 78 10000 3.6 50 04:47 03.08.2022
784 Clear 23 1013 78 10000 2.57 70 03:28 03.08.2022
785 Clear 24 1013 73 10000 3.09 60 01:18 03.08.2022
786 Clear 24 1013 73 10000 3.09 60 01:18 03.08.2022
787 Clear 24 1013 73 10000 3.09 60 01:18 03.08.2022
788 Clear 24 1013 73 10000 4.12 60 23:18 02.08.2022
789 Clear 24 1013 73 10000 4.12 70 21:55 02.08.2022
790 Clear 25 1013 65 10000 4.63 60 21:21 02.08.2022
791 Clear 27 1012 54 10000 7.72 50 18:52 02.08.2022
792 Clear 29 1012 51 10000 7.2 10 16:24 02.08.2022
793 Clouds 31 1012 45 10000 6.17 10 12:53 02.08.2022
794 Clouds 29 1012 51 10000 5.14 40 09:40 02.08.2022
795 Clouds 27 1011 61 10000 4.12 30 07:56 02.08.2022
796 Clear 24 1011 73 10000 3.09 350 06:43 02.08.2022
797 Clear 21 1011 64 10000 1.54 350 04:55 02.08.2022
798 Clear 24 1010 57 10000 1.03 40 23:52 01.08.2022
799 Clear 25 1011 53 10000 2.06 110 22:36 01.08.2022
800 Clear 27 1010 44 10000 2.06 110 20:53 01.08.2022
801 Clear 28 1010 36 10000 5.14 50 19:34 01.08.2022
802 Clear 28 1009 39 10000 5.66 60 18:42 01.08.2022
803 Clear 28 1009 39 10000 5.66 60 18:42 01.08.2022
804 Clear 30 1009 37 10000 5.14 100 16:54 01.08.2022
805 Clear 30 1009 37 10000 5.14 100 16:54 01.08.2022
806 Clear 30 1009 37 10000 4.63 110 16:28 01.08.2022
807 Clear 30 1009 37 10000 5.14 90 15:30 01.08.2022
808 Clear 30 1009 37 10000 5.14 40 14:43 01.08.2022
809 Clear 31 1010 40 10000 5.14 40 12:51 01.08.2022
810 Clear 29 1010 48 10000 7.2 10 10:29 01.08.2022
811 Clear 28 1010 54 10000 6.69 360 08:39 01.08.2022
812 Clouds 25 1010 78 10000 3.09 350 06:50 01.08.2022
813 Clouds 24 1009 83 10000 4.12 30 04:24 01.08.2022
814 Clouds 25 1009 88 10000 3.6 40 00:55 01.08.2022
815 Clear 25 1009 83 10000 3.6 30 22:42 31.07.2022
816 Clear 26 1009 73 10000 5.14 40 21:35 31.07.2022
817 Clear 28 1008 57 10000 5.14 60 19:58 31.07.2022
818 Clear 29 1008 54 10000 7.2 60 18:38 31.07.2022
819 Clouds 31 1008 51 10000 8.23 30 16:18 31.07.2022
820 Clouds 31 1009 58 10000 7.2 20 13:53 31.07.2022
821 Clouds 31 1009 55 10000 5.66 30 12:29 31.07.2022
822 Clouds 30 1009 58 10000 5.14 40 10:22 31.07.2022
823 Clouds 28 1009 69 10000 4.63 40 08:19 31.07.2022
824 Clouds 24 1009 88 10000 3.6 30 04:30 31.07.2022
825 Clouds 25 1010 83 10000 4.63 70 00:23 31.07.2022
826 Clear 25 1010 83 10000 6.17 50 22:20 30.07.2022
827 Clear 26 1011 78 10000 5.14 50 21:50 30.07.2022
828 Clear 26 1010 73 10000 5.14 50 21:20 30.07.2022
829 Clear 26 1010 69 10000 6.69 40 20:24 30.07.2022
830 Clear 28 1010 61 10000 8.23 50 19:27 30.07.2022
831 Clear 29 1010 51 10000 9.77 50 17:48 30.07.2022
832 Clear 31 1011 45 10000 9.26 60 16:21 30.07.2022
833 Clear 31 1011 42 10000 10.8 50 15:27 30.07.2022
834 Clouds 31 1012 48 10000 8.23 70 13:21 30.07.2022
835 Clouds 30 1012 54 10000 8.23 40 12:20 30.07.2022
836 Clouds 29 1012 58 10000 6.69 70 10:44 30.07.2022
837 Clouds 28 1013 57 10000 7.2 50 09:59 30.07.2022
838 Clouds 27 1013 61 10000 7.2 50 08:44 30.07.2022
839 Clouds 25 1013 78 10000 4.12 50 06:50 30.07.2022
840 Clouds 24 1013 83 10000 4.63 50 02:33 30.07.2022
841 Clear 25 1014 73 10000 7.2 60 22:57 29.07.2022
842 Clear 25 1013 73 10000 7.2 60 21:30 29.07.2022
843 Clouds 25 1013 73 10000 7.72 70 20:50 29.07.2022
844 Clear 26 1013 65 10000 9.26 40 19:34 29.07.2022
845 Clear 29 1013 51 10000 9.77 40 16:44 29.07.2022
846 Clouds 31 1013 48 10000 8.75 50 14:23 29.07.2022
847 Clouds 29 1013 54 10000 10.8 40 12:32 29.07.2022
848 Clouds 26 1013 65 10000 10.29 60 08:51 29.07.2022
849 Clouds 26 1013 65 10000 9.26 70 08:21 29.07.2022
850 Clouds 23 1013 78 10000 6.69 60 03:55 29.07.2022
851 Clear 25 1013 73 10000 8.23 70 23:30 28.07.2022
852 Clear 25 1013 69 10000 8.75 60 21:31 28.07.2022
853 Clear 25 1013 69 10000 9.77 60 20:50 28.07.2022
854 Clear 26 1012 65 10000 8.75 60 20:18 28.07.2022
855 Clear 27 1012 57 10000 9.77 60 19:26 28.07.2022
856 Clear 28 1012 54 10000 9.77 60 17:46 28.07.2022
857 Clear 29 1012 51 10000 10.29 50 17:20 28.07.2022
858 Clear 29 1012 51 10000 10.8 60 16:40 28.07.2022
859 Clear 30 1012 51 10000 9.77 60 13:56 28.07.2022
860 Clear 30 1012 45 10000 9.77 60 12:39 28.07.2022
861 Clouds 25 1011 69 10000 8.23 70 07:46 28.07.2022
862 Clear 23 1011 83 10000 6.17 70 05:39 28.07.2022
863 Clear 23 1011 83 10000 5.66 70 05:20 28.07.2022
864 Clear 24 1010 64 10000 6.17 60 23:19 27.07.2022
865 Clear 26 1010 53 10000 6.17 70 21:30 27.07.2022
866 Clear 27 1009 47 10000 7.2 60 19:48 27.07.2022
867 Clear 28 1009 39 10000 8.23 70 19:19 27.07.2022
868 Clear 31 1010 35 10000 7.2 60 16:31 27.07.2022
869 Clear 31 1010 37 10000 8.23 80 15:51 27.07.2022
870 Clear 32 1010 35 10000 7.2 50 14:41 27.07.2022
871 Clear 32 1010 35 10000 7.72 60 13:34 27.07.2022
872 Clear 28 1010 44 10000 4.12 100 09:28 27.07.2022
873 Clear 26 1010 50 10000 4.63 70 07:40 27.07.2022
874 Clear 23 1010 53 10000 2.06 40 03:57 27.07.2022
875 Clear 25 1010 53 10000 4.12 70 22:49 26.07.2022
876 Clear 25 1010 53 10000 4.12 70 21:49 26.07.2022
877 Clear 26 1010 50 10000 5.14 80 20:49 26.07.2022
878 Clear 28 1010 44 10000 6.69 60 19:20 26.07.2022
879 Clear 28 1010 44 10000 7.72 60 18:39 26.07.2022
880 Clear 30 1010 42 10000 6.69 80 17:46 26.07.2022
881 Clear 31 1011 40 10000 7.2 60 15:43 26.07.2022
882 Clear 31 1011 40 10000 6.17 40 14:38 26.07.2022
883 Clear 31 1012 37 10000 6.17 80 12:25 26.07.2022
884 Clouds 27 1012 57 10000 4.12 60 09:44 26.07.2022
885 Clouds 27 1012 65 10000 4.12 50 08:22 26.07.2022
886 Clear 24 1012 73 10000 4.12 80 01:52 26.07.2022
887 Clear 24 1012 78 10000 4.12 80 23:44 25.07.2022
888 Clear 24 1012 78 10000 5.14 60 22:39 25.07.2022
889 Clear 25 1012 69 10000 6.17 60 21:43 25.07.2022
890 Clear 25 1012 65 10000 7.2 50 20:43 25.07.2022
891 Clear 26 1012 57 10000 7.72 50 19:55 25.07.2022
892 Clear 27 1011 50 10000 7.72 50 19:20 25.07.2022
893 Clear 29 1012 45 10000 8.23 50 17:35 25.07.2022
894 Rain 29 1012 45 10000 7.72 40 16:40 25.07.2022
895 Clear 30 1013 42 10000 6.69 40 12:58 25.07.2022
896 Clear 30 1013 48 10000 5.14 40 10:47 25.07.2022
897 Clear 25 1012 65 10000 3.09 40 07:29 25.07.2022
898 Clear 24 1013 47 10000 3.09 80 23:57 24.07.2022
899 Clear 25 1013 47 10000 3.09 80 23:22 24.07.2022
900 Clear 25 1012 50 10000 4.12 90 22:43 24.07.2022
901 Clear 26 1012 44 10000 5.14 80 21:33 24.07.2022
902 Clear 27 1012 44 10000 5.66 70 20:58 24.07.2022
903 Clear 27 1012 44 10000 5.66 70 20:35 24.07.2022
904 Clear 29 1012 42 10000 4.63 60 18:59 24.07.2022
905 Clear 32 1013 29 10000 4.63 70 16:54 24.07.2022
906 Clear 31 1013 33 10000 2.06 240 15:54 24.07.2022
907 Clear 29 1014 45 10000 3.09 240 14:41 24.07.2022
908 Clear 29 1014 51 10000 3.09 240 13:47 24.07.2022
909 Clear 29 1014 39 10000 3.6 240 12:19 24.07.2022
910 Clear 29 1015 39 10000 3.09 160 11:29 24.07.2022
911 Clear 28 1015 36 10000 2.57 130 09:33 24.07.2022
912 Clear 26 1015 41 10000 1.03 0 07:53 24.07.2022
913 Clear 24 1015 50 10000 1.03 0 06:55 24.07.2022
914 Clear 22 1015 56 10000 2.06 50 02:41 24.07.2022
915 Clear 27 1015 41 10000 2.06 70 22:37 23.07.2022
916 Clear 28 1015 39 10000 3.09 70 20:47 23.07.2022
917 Clear 31 1015 33 10000 0.51 70 18:59 23.07.2022
918 Clear 29 1015 42 10000 2.57 260 17:58 23.07.2022
919 Clear 30 1015 39 10000 3.09 250 17:25 23.07.2022
920 Clear 30 1015 35 10000 2.57 240 16:21 23.07.2022
921 Clear 30 1015 37 10000 3.09 240 15:21 23.07.2022
922 Clear 29 1016 42 10000 3.6 250 14:52 23.07.2022
923 Clear 29 1016 42 10000 3.6 240 13:58 23.07.2022
924 Clear 29 1017 32 10000 3.09 220 11:48 23.07.2022
925 Clear 28 1017 39 10000 2.57 190 10:37 23.07.2022
926 Clear 26 1017 61 10000 2.06 160 09:34 23.07.2022
927 Clear 23 1017 64 10000 2.57 120 06:46 23.07.2022
928 Clear 20 1016 64 10000 0.51 0 03:37 23.07.2022
929 Clear 22 1016 60 10000 1.03 10 00:34 23.07.2022
930 Clear 26 1016 41 10000 2.57 70 21:33 22.07.2022
931 Clear 27 1015 39 10000 3.09 90 20:31 22.07.2022
932 Clear 25 1014 36 10000 4.98 81 18:42 22.07.2022
933 Clear 31 1015 29 10000 2.57 210 17:39 22.07.2022
934 Clear 28 1015 57 10000 3.6 240 15:48 22.07.2022
935 Clear 27 1016 57 10000 4.12 230 12:47 22.07.2022
936 Clear 26 1016 53 10000 4.12 110 10:22 22.07.2022
937 Clear 26 1016 53 10000 3.6 80 09:21 22.07.2022
938 Clear 24 1016 69 10000 1.54 100 07:57 22.07.2022
939 Clear 19 1015 94 10000 1.03 50 04:23 22.07.2022
940 Clear 24 1015 78 10000 4.12 70 23:36 21.07.2022
941 Clear 24 1015 73 10000 4.63 50 21:41 21.07.2022
942 Clear 26 1014 65 10000 5.14 50 19:45 21.07.2022
943 Clear 27 1014 57 10000 5.14 20 18:36 21.07.2022
944 Clear 30 1014 39 10000 5.14 10 17:21 21.07.2022
945 Clear 31 1014 42 10000 3.6 0 16:23 21.07.2022
946 Clear 28 1014 44 10000 4.12 250 14:46 21.07.2022
947 Clear 27 1014 39 10000 3.6 230 13:58 21.07.2022
948 Clear 26 1015 41 10000 3.6 220 11:58 21.07.2022
949 Clear 26 1015 50 10000 2.57 180 10:20 21.07.2022
950 Clear 25 1015 61 10000 0.51 0 08:53 21.07.2022
951 Clear 24 1015 64 10000 0.51 0 07:50 21.07.2022
952 Clear 20 1015 83 10000 1.03 0 06:27 21.07.2022
953 Clear 19 1016 82 10000 1.03 0 02:59 21.07.2022
954 Clear 23 1017 68 10000 3.09 80 22:49 20.07.2022
955 Clear 23 1017 73 10000 3.6 60 22:19 20.07.2022
956 Clear 23 1017 68 10000 5.66 50 20:46 20.07.2022
957 Clouds 24 1017 64 10000 6.69 40 19:47 20.07.2022
958 Clouds 25 1017 53 10000 8.23 40 18:55 20.07.2022
959 Clouds 26 1017 47 10000 8.75 40 18:31 20.07.2022
960 Clouds 26 1017 47 10000 8.75 40 18:31 20.07.2022
961 Clouds 27 1017 47 10000 10.8 40 17:33 20.07.2022
962 Clouds 27 1018 54 10000 10.29 30 15:38 20.07.2022
963 Clouds 27 1018 50 10000 10.29 40 14:49 20.07.2022
964 Clouds 27 1018 47 10000 10.8 50 13:44 20.07.2022
965 Clouds 26 1018 50 10000 9.26 50 11:29 20.07.2022
966 Clouds 23 1018 64 10000 4.12 50 06:49 20.07.2022
967 Clear 21 1018 68 10000 4.63 40 01:57 20.07.2022
968 Clear 22 1018 64 10000 5.66 50 00:42 20.07.2022
969 Clear 23 1019 64 10000 6.17 50 22:38 19.07.2022
970 Clear 23 1019 64 10000 7.2 60 22:20 19.07.2022
971 Clear 23 1019 64 10000 8.23 50 20:50 19.07.2022
972 Clouds 24 1018 53 10000 9.26 50 19:37 19.07.2022
973 Clouds 25 1018 53 10000 9.77 30 18:42 19.07.2022
974 Clouds 26 1019 47 10000 11.32 50 17:56 19.07.2022
975 Clouds 27 1018 47 10000 10.29 40 15:50 19.07.2022
976 Clouds 27 1019 47 10000 10.29 40 13:51 19.07.2022
977 Clouds 26 1019 47 10000 8.75 50 11:34 19.07.2022
978 Clouds 25 1020 50 10000 7.72 60 09:54 19.07.2022
979 Clouds 24 1020 53 10000 8.23 60 08:48 19.07.2022
980 Clouds 23 1020 53 10000 8.23 50 08:21 19.07.2022
981 Clouds 22 1020 53 10000 7.2 50 07:18 19.07.2022
982 Clouds 20 1020 64 10000 4.12 50 05:23 19.07.2022
983 Clouds 19 1019 64 10000 5.14 40 04:40 19.07.2022
984 Clear 21 1020 64 10000 4.63 60 00:21 19.07.2022
985 Clear 22 1021 64 10000 5.66 70 23:21 18.07.2022
986 Clear 22 1021 64 10000 5.66 70 22:51 18.07.2022
987 Clear 22 1021 60 10000 8.75 60 21:27 18.07.2022
988 Clear 23 1021 56 10000 8.23 60 20:49 18.07.2022
989 Clouds 24 1020 57 10000 10.8 40 19:21 18.07.2022
990 Clouds 26 1020 50 10000 12.86 50 16:50 18.07.2022
991 Clouds 28 1020 44 10000 11.83 40 15:41 18.07.2022
992 Clouds 29 1020 45 10000 10.29 60 13:41 18.07.2022
993 Clouds 28 1020 51 10000 11.32 60 12:29 18.07.2022
994 Clouds 28 1020 47 10000 10.29 60 10:24 18.07.2022
995 Clouds 26 1020 57 10000 9.77 70 08:21 18.07.2022
996 Clear 24 1020 69 10000 5.14 50 06:48 18.07.2022
997 Clear 24 1019 78 10000 4.63 80 23:30 17.07.2022
998 Clear 25 1019 73 10000 5.14 70 22:32 17.07.2022
999 Clear 25 1019 73 10000 4.63 70 21:43 17.07.2022
1000 Clear 25 1018 73 10000 6.69 50 20:53 17.07.2022
1001 Clear 25 1018 69 10000 6.69 50 20:35 17.07.2022
1002 Clear 27 1017 57 10000 6.69 50 19:26 17.07.2022
1003 Clear 28 1017 51 10000 7.72 40 18:26 17.07.2022
1004 Clear 29 1017 42 10000 8.23 40 17:37 17.07.2022
1005 Clear 30 1017 42 10000 7.72 30 16:50 17.07.2022
1006 Clear 30 1017 42 10000 7.2 30 16:25 17.07.2022
1007 Clear 32 1017 40 10000 6.17 10 14:20 17.07.2022
1008 Clear 31 1017 45 10000 6.17 10 13:28 17.07.2022
1009 Clouds 29 1017 54 10000 6.17 80 10:59 17.07.2022
1010 Clouds 27 1017 61 10000 5.66 50 08:43 17.07.2022
1011 Clear 22 1016 78 10000 2.57 60 03:40 17.07.2022
1012 Clear 23 1016 78 10000 4.63 60 01:47 17.07.2022
1013 Clear 24 1016 69 10000 4.63 70 23:19 16.07.2022
1014 Clear 25 1016 61 10000 4.63 60 21:21 16.07.2022
1015 Clear 27 1015 54 10000 6.69 60 19:25 16.07.2022
1016 Clear 29 1015 48 10000 7.72 60 17:56 16.07.2022
1017 Clear 29 1015 51 10000 7.2 60 16:27 16.07.2022
1018 Clouds 30 1014 45 10000 3.09 100 13:47 16.07.2022
1019 Clouds 28 1015 47 10000 6.69 80 10:40 16.07.2022
1020 Clouds 26 1015 53 10000 5.14 90 09:30 16.07.2022
1021 Clouds 25 1015 65 10000 5.14 80 08:42 16.07.2022
1022 Clear 25 1015 65 10000 5.14 80 07:59 16.07.2022
1023 Clear 21 1014 78 10000 2.57 60 03:41 16.07.2022
1024 Clear 22 1014 78 10000 3.09 50 02:35 16.07.2022
1025 Clear 23 1014 73 10000 3.6 70 23:28 15.07.2022
1026 Clear 23 1014 73 10000 3.6 70 22:39 15.07.2022
1027 Clear 24 1014 64 10000 4.12 70 21:24 15.07.2022
1028 Clear 25 1013 61 10000 4.63 40 19:59 15.07.2022
1029 Clouds 26 1013 61 10000 7.2 40 18:37 15.07.2022
1030 Clouds 27 1013 57 10000 8.75 40 17:36 15.07.2022
1031 Clouds 28 1012 54 10000 9.26 50 14:48 15.07.2022
1032 Clouds 29 1012 48 10000 9.26 50 12:49 15.07.2022
1033 Clouds 28 1013 54 10000 7.2 50 10:54 15.07.2022
1034 Clouds 26 1013 61 10000 9.26 50 08:49 15.07.2022
1035 Clear 22 1013 73 10000 5.14 50 05:56 15.07.2022
1036 Clear 22 1015 64 10000 5.14 70 00:52 15.07.2022
1037 Clear 23 1015 64 10000 5.66 70 23:36 14.07.2022
1038 Clear 24 1015 57 10000 5.14 60 22:42 14.07.2022
1039 Clear 24 1015 57 10000 6.17 70 21:43 14.07.2022
1040 Clear 24 1015 57 10000 7.2 60 21:25 14.07.2022
1041 Clear 24 1015 57 10000 7.2 50 20:43 14.07.2022
1042 Clear 25 1015 53 10000 7.72 50 20:19 14.07.2022
1043 Clear 26 1015 47 10000 9.26 40 18:42 14.07.2022
1044 Clear 29 1016 42 10000 8.75 50 16:22 14.07.2022
1045 Clear 29 1016 45 10000 8.23 40 15:29 14.07.2022
1046 Clouds 29 1016 42 10000 8.23 50 13:53 14.07.2022
1047 Clouds 27 1017 41 10000 8.23 60 12:53 14.07.2022
1048 Clouds 28 1017 44 10000 7.2 40 11:43 14.07.2022
1049 Clouds 27 1017 44 10000 7.2 50 11:22 14.07.2022
1050 Clouds 26 1017 44 10000 6.17 70 09:49 14.07.2022
1051 Clear 22 1018 68 10000 2.06 90 06:54 14.07.2022
1052 Clear 21 1017 68 10000 1.54 40 01:24 14.07.2022
1053 Clear 22 1017 64 10000 2.06 60 00:53 14.07.2022
1054 Clear 23 1018 64 10000 4.12 70 22:33 13.07.2022
1055 Clear 23 1017 60 10000 3.6 70 21:55 13.07.2022
1056 Clear 23 1017 60 10000 5.14 70 20:45 13.07.2022
1057 Clouds 24 1016 64 10000 5.66 30 19:21 13.07.2022
1058 Clouds 26 1016 50 10000 7.72 50 17:42 13.07.2022
1059 Clouds 28 1016 44 10000 7.2 30 16:29 13.07.2022
1060 Clouds 27 1016 50 10000 7.72 20 15:24 13.07.2022
1061 Clouds 26 1016 53 10000 5.14 20 12:55 13.07.2022
1062 Clouds 28 1016 47 10000 4.12 30 10:45 13.07.2022
1063 Clouds 26 1017 57 10000 3.6 40 09:58 13.07.2022
1064 Clouds 26 1016 53 10000 3.09 40 09:21 13.07.2022
1065 Clear 20 1017 83 10000 1.54 10 06:19 13.07.2022
1066 Clear 22 1017 73 10000 3.09 70 01:28 13.07.2022
1067 Clear 22 1017 73 10000 2.57 60 23:45 12.07.2022
1068 Clear 23 1017 68 10000 4.12 60 21:57 12.07.2022
1069 Clear 23 1017 68 10000 3.6 60 21:29 12.07.2022
1070 Clear 23 1017 68 10000 5.14 70 20:41 12.07.2022
1071 Clear 24 1017 60 10000 6.69 50 19:26 12.07.2022
1072 Clear 26 1016 53 10000 6.69 60 17:49 12.07.2022
1073 Clear 27 1017 50 10000 6.69 40 15:57 12.07.2022
1074 Clouds 27 1017 50 10000 6.69 30 14:31 12.07.2022
1075 Clouds 27 1017 50 10000 7.2 40 12:29 12.07.2022
1076 Clouds 27 1017 50 10000 6.69 20 11:22 12.07.2022
1077 Clouds 26 1017 47 10000 7.2 40 09:38 12.07.2022
1078 Clouds 24 1017 64 10000 7.2 40 08:19 12.07.2022
1079 Clear 20 1017 83 10000 2.06 10 06:29 12.07.2022
1080 Clear 19 1017 88 10000 2.57 10 05:39 12.07.2022
1081 Clear 21 1016 78 10000 2.57 60 02:21 12.07.2022
1082 Clear 22 1016 73 10000 4.63 70 23:18 11.07.2022
1083 Clear 23 1016 68 10000 4.63 70 22:30 11.07.2022
1084 Clear 24 1016 60 10000 5.14 60 20:33 11.07.2022
1085 Clear 24 1016 60 10000 4.63 80 19:36 11.07.2022
1086 Clear 25 1015 57 10000 5.66 40 18:32 11.07.2022
1087 Clouds 27 1015 44 10000 5.14 60 17:39 11.07.2022
1088 Clear 27 1015 47 10000 5.66 60 16:19 11.07.2022
1089 Clouds 28 1015 44 10000 5.14 20 14:37 11.07.2022
1090 Clear 27 1014 54 10000 4.63 360 11:49 11.07.2022
1091 Clouds 25 1014 61 10000 5.14 360 10:29 11.07.2022
1092 Clouds 25 1014 61 10000 5.14 10 09:42 11.07.2022
1093 Clear 23 1013 68 10000 2.57 350 08:33 11.07.2022
1094 Clear 20 1012 88 10000 1.03 100 05:51 11.07.2022
1095 Clear 19 1012 94 10000 0 0 00:22 11.07.2022
1096 Clear 20 1011 88 10000 1.03 250 22:56 10.07.2022
1097 Clear 21 1011 88 10000 1.54 240 21:51 10.07.2022
1098 Clear 22 1010 73 10000 0.51 0 20:54 10.07.2022
1099 Clear 24 1010 57 10000 2.06 40 19:50 10.07.2022
1100 Clear 25 1010 61 10000 3.6 10 18:48 10.07.2022
1101 Clouds 26 1010 57 10000 5.14 30 17:37 10.07.2022
1102 Clouds 26 1009 57 10000 6.17 30 16:45 10.07.2022
1103 Clouds 22 1010 83 10000 1.03 0 15:28 10.07.2022
1104 Rain 22 1010 88 10000 1.54 280 14:21 10.07.2022
1105 Rain 19 1010 94 10000 3.09 70 12:29 10.07.2022
1106 Thunderstorm 19 1009 94 10000 4.63 320 11:20 10.07.2022
1107 Clouds 20 1007 94 10000 4.12 30 08:45 10.07.2022
1108 Rain 19 1007 94 10000 4.63 30 07:39 10.07.2022
1109 Thunderstorm 20 1006 94 5000 2.57 350 02:47 10.07.2022
1110 Rain 24 1006 83 10000 6.17 20 22:51 09.07.2022
1111 Clouds 24 1006 78 10000 5.14 20 22:24 09.07.2022
1112 Clouds 25 1007 73 10000 6.69 20 20:50 09.07.2022
1113 Clouds 26 1006 69 10000 8.23 20 18:43 09.07.2022
1114 Clouds 26 1006 65 10000 9.77 30 17:45 09.07.2022
1115 Clouds 28 1006 57 10000 9.26 30 16:58 09.07.2022
1116 Clouds 29 1006 58 10000 10.29 30 15:42 09.07.2022
1117 Clouds 29 1007 58 10000 9.26 30 14:44 09.07.2022
1118 Clouds 31 1007 48 10000 8.75 40 13:51 09.07.2022
1119 Clouds 30 1007 48 10000 8.23 40 12:48 09.07.2022
1120 Clouds 30 1008 45 10000 6.17 50 11:32 09.07.2022
1121 Clouds 28 1008 57 10000 5.14 70 10:23 09.07.2022
1122 Clouds 28 1008 57 10000 5.14 70 10:23 09.07.2022
1123 Clouds 25 1008 69 10000 5.66 60 07:54 09.07.2022
1124 Clouds 22 1009 88 10000 3.09 50 05:37 09.07.2022
1125 Clouds 22 1009 88 10000 3.09 60 04:34 09.07.2022
1126 Clouds 23 1011 83 10000 3.09 60 23:18 08.07.2022
1127 Clouds 23 1011 83 10000 3.09 60 23:18 08.07.2022
1128 Clouds 23 1011 83 10000 5.14 40 21:59 08.07.2022
1129 Clouds 24 1011 73 10000 5.14 50 20:59 08.07.2022
1130 Clouds 24 1011 73 10000 6.17 50 20:25 08.07.2022
1131 Clouds 26 1011 65 10000 7.2 30 18:32 08.07.2022
1132 Clouds 28 1011 61 10000 8.23 50 17:25 08.07.2022
1133 Clouds 28 1012 61 10000 8.75 50 14:55 08.07.2022
1134 Clouds 29 1012 58 10000 7.2 30 13:56 08.07.2022
1135 Clouds 28 1013 61 10000 5.66 10 12:28 08.07.2022
1136 Clouds 26 1013 65 10000 6.17 40 10:45 08.07.2022
1137 Clouds 25 1013 69 10000 5.14 30 08:51 08.07.2022
1138 Clear 24 1013 73 10000 5.14 10 06:54 08.07.2022
1139 Clouds 23 1012 83 10000 3.6 10 03:22 08.07.2022
1140 Clouds 23 1013 88 10000 4.63 40 23:45 07.07.2022
1141 Clouds 24 1013 83 10000 5.14 30 22:40 07.07.2022
1142 Clouds 24 1012 83 10000 6.17 30 20:59 07.07.2022
1143 Clouds 28 1012 65 10000 7.72 20 18:42 07.07.2022
1144 Clouds 29 1012 61 10000 7.72 20 17:41 07.07.2022
1145 Clouds 30 1011 51 10000 7.2 10 15:22 07.07.2022
1146 Clouds 29 1012 51 10000 5.66 10 13:26 07.07.2022
1147 Clouds 31 1012 51 10000 5.66 20 12:39 07.07.2022
1148 Clouds 29 1012 54 10000 6.69 350 12:19 07.07.2022
1149 Clouds 30 1012 48 10000 6.17 10 11:30 07.07.2022
1150 Clouds 28 1012 54 10000 6.17 10 10:43 07.07.2022
1151 Clouds 28 1012 54 10000 6.17 360 10:25 07.07.2022
1152 Clouds 25 1011 78 10000 5.14 20 07:40 07.07.2022
1153 Clear 23 1011 83 10000 3.09 10 04:18 07.07.2022
1154 Clear 23 1011 73 10000 1.89 16 23:37 06.07.2022
1155 Clear 24 1011 78 10000 3.09 40 23:19 06.07.2022
1156 Clear 24 1011 78 10000 3.09 40 22:56 06.07.2022
1157 Clear 24 1011 78 10000 3.09 40 22:38 06.07.2022
1158 Clear 25 1011 69 10000 5.66 40 21:27 06.07.2022
1159 Clear 26 1010 57 10000 5.66 40 19:38 06.07.2022
1160 Clear 28 1010 47 10000 8.23 30 18:21 06.07.2022
1161 Clear 29 1010 45 10000 8.75 50 16:19 06.07.2022
1162 Clear 29 1010 51 10000 9.26 50 14:46 06.07.2022
1163 Clouds 30 1011 45 10000 8.23 40 12:35 06.07.2022
1164 Clouds 30 1011 45 10000 8.23 30 11:48 06.07.2022
1165 Clouds 28 1011 51 10000 7.72 70 10:18 06.07.2022
1166 Clouds 25 1011 69 10000 5.14 50 07:44 06.07.2022
1167 Clouds 25 1011 69 10000 4.63 50 07:23 06.07.2022
1168 Clear 22 1012 83 10000 3.09 40 02:55 06.07.2022
1169 Clear 23 1013 78 10000 5.14 60 22:45 05.07.2022
1170 Clear 23 1013 78 10000 5.14 60 22:45 05.07.2022
1171 Clear 23 1013 73 10000 6.17 50 21:36 05.07.2022
1172 Clear 24 1013 64 10000 6.17 50 20:38 05.07.2022
1173 Clear 25 1013 57 10000 7.72 50 19:41 05.07.2022
1174 Clear 25 1013 53 10000 7.2 30 19:21 05.07.2022
1175 Clear 27 1013 41 10000 9.77 40 17:46 05.07.2022
1176 Clear 28 1013 36 10000 11.32 40 16:44 05.07.2022
1177 Clear 28 1014 42 10000 10.8 50 15:25 05.07.2022
1178 Clear 29 1014 45 10000 8.75 40 13:53 05.07.2022
1179 Clear 30 1014 42 10000 8.75 40 12:42 05.07.2022
1180 Clouds 29 1014 42 10000 7.72 70 11:24 05.07.2022
1181 Clear 28 1014 47 10000 8.23 60 10:31 05.07.2022
1182 Clouds 25 1015 61 10000 7.2 60 08:26 05.07.2022
1183 Clouds 23 1015 68 10000 5.14 60 07:31 05.07.2022
1184 Clear 21 1014 78 10000 5.14 70 04:47 05.07.2022
1185 Clear 21 1014 78 10000 3.6 70 04:20 05.07.2022
1186 Clear 22 1015 73 10000 5.14 70 23:42 04.07.2022
1187 Clear 23 1014 73 10000 5.66 70 22:59 04.07.2022
1188 Clear 23 1015 68 10000 5.66 70 22:20 04.07.2022
1189 Clear 23 1015 68 10000 6.69 70 21:18 04.07.2022
1190 Clear 23 1014 64 10000 7.72 60 20:50 04.07.2022
1191 Clear 23 1014 64 10000 7.72 60 20:50 04.07.2022
1192 Clear 24 1014 60 10000 8.23 60 20:32 04.07.2022
1193 Clear 24 1014 60 10000 9.26 60 19:44 04.07.2022
1194 Clear 25 1014 50 10000 9.77 60 19:25 04.07.2022
1195 Clear 26 1014 53 10000 9.77 50 17:40 04.07.2022
1196 Clear 28 1014 51 10000 9.26 50 15:42 04.07.2022
1197 Clear 28 1015 51 10000 8.75 40 14:39 04.07.2022
1198 Clear 28 1015 47 10000 9.26 30 13:20 04.07.2022
1199 Clear 28 1015 47 10000 7.72 50 11:43 04.07.2022
1200 Clear 26 1015 50 10000 8.23 60 10:33 04.07.2022
1201 Clouds 25 1015 50 10000 7.72 50 09:33 04.07.2022
1202 Clear 22 1016 64 10000 5.66 60 06:50 04.07.2022
1203 Clear 21 1015 68 10000 4.63 60 03:23 04.07.2022
1204 Clear 22 1016 60 10000 6.17 70 23:53 03.07.2022
1205 Clear 22 1016 60 10000 6.69 70 22:55 03.07.2022
1206 Clear 23 1016 56 10000 8.75 70 20:46 03.07.2022
1207 Clear 23 1016 56 10000 7.72 70 20:20 03.07.2022
1208 Clear 25 1016 47 10000 7.72 70 19:25 03.07.2022
1209 Clear 26 1016 41 10000 9.77 60 18:31 03.07.2022
1210 Clear 26 1016 41 10000 10.8 50 17:42 03.07.2022
1211 Clear 29 1016 30 10000 10.8 40 15:28 03.07.2022
1212 Clear 28 1016 30 10000 11.83 50 14:57 03.07.2022
1213 Clear 29 1016 30 10000 10.29 30 13:50 03.07.2022
1214 Clear 29 1017 30 10000 10.8 60 12:51 03.07.2022
1215 Clear 29 1017 32 10000 10.29 50 12:21 03.07.2022
1216 Clouds 27 1017 41 10000 9.77 70 10:55 03.07.2022
1217 Clouds 27 1017 41 10000 9.77 70 10:36 03.07.2022
1218 Clouds 25 1017 61 10000 7.72 70 08:21 03.07.2022
1219 Clouds 25 1017 65 10000 8.23 50 07:34 03.07.2022
1220 Clear 23 1017 73 10000 3.6 70 01:32 03.07.2022
1221 Clear 23 1017 78 10000 4.63 50 23:38 02.07.2022
1222 Clear 24 1017 78 10000 4.12 40 22:31 02.07.2022
1223 Clear 25 1016 69 10000 6.17 50 20:37 02.07.2022
1224 Clear 25 1016 65 10000 6.17 50 19:50 02.07.2022
1225 Clear 27 1016 54 10000 10.29 40 18:48 02.07.2022
1226 Clear 29 1016 45 10000 8.75 60 17:40 02.07.2022
1227 Clear 30 1016 39 10000 8.75 40 16:32 02.07.2022
1228 Clear 30 1016 42 10000 7.72 30 13:51 02.07.2022
1229 Clear 31 1016 40 10000 8.75 70 11:51 02.07.2022
1230 Clear 29 1016 34 10000 7.2 50 10:52 02.07.2022
1231 Clear 29 1016 45 10000 5.14 50 10:28 02.07.2022
1232 Clouds 26 1016 61 10000 4.63 60 08:39 02.07.2022
1233 Clouds 25 1016 69 10000 4.63 40 08:19 02.07.2022
1234 Clouds 22 1015 88 10000 4.12 60 05:51 02.07.2022
1235 Clear 23 1015 83 10000 4.63 50 00:34 02.07.2022
1236 Clear 24 1015 83 10000 5.14 40 23:31 01.07.2022
1237 Clear 24 1015 78 10000 4.63 40 22:35 01.07.2022
1238 Clear 24 1015 78 10000 5.66 40 21:39 01.07.2022
1239 Clear 25 1014 69 10000 5.14 30 20:59 01.07.2022
1240 Clear 25 1014 69 10000 5.14 30 20:37 01.07.2022
1241 Clear 26 1014 69 10000 6.17 30 19:40 01.07.2022
1242 Clear 30 1013 51 10000 5.66 40 17:39 01.07.2022
1243 Clear 28 1014 57 10000 3.09 240 14:59 01.07.2022
1244 Clear 27 1014 69 10000 4.12 240 13:54 01.07.2022
1245 Clear 26 1015 69 10000 3.6 240 11:48 01.07.2022
1246 Clouds 25 1015 73 10000 2.57 180 10:19 01.07.2022
1247 Clouds 25 1014 73 10000 5.14 40 07:40 01.07.2022
1248 Clear 22 1013 88 10000 3.09 30 02:43 01.07.2022
1249 Clear 22 1013 83 10000 4.63 50 00:22 01.07.2022
1250 Clear 23 1013 78 10000 5.14 50 22:52 30.06.2022
1251 Clear 23 1013 78 10000 6.17 30 22:32 30.06.2022
1252 Clear 23 1013 78 10000 5.66 30 21:55 30.06.2022
1253 Clear 23 1013 73 10000 5.66 30 21:34 30.06.2022
1254 Clear 24 1013 69 10000 6.17 30 20:22 30.06.2022
1255 Clear 24 1013 69 10000 7.2 30 19:53 30.06.2022
1256 Clear 25 1013 61 10000 7.2 60 19:18 30.06.2022
1257 Clear 26 1013 57 10000 8.23 50 18:34 30.06.2022
1258 Clear 27 1012 57 10000 7.72 20 17:37 30.06.2022
1259 Clear 28 1012 54 10000 6.69 60 16:28 30.06.2022
1260 Clear 29 1013 48 10000 7.2 70 14:31 30.06.2022
1261 Clouds 29 1013 51 10000 5.14 50 13:30 30.06.2022
1262 Clouds 28 1013 51 10000 6.17 60 12:34 30.06.2022
1263 Clouds 28 1014 54 10000 6.69 40 11:28 30.06.2022
1264 Clouds 26 1013 57 10000 5.66 50 09:53 30.06.2022
1265 Clouds 25 1013 65 10000 4.12 40 09:31 30.06.2022
1266 Clouds 23 1013 73 10000 4.12 50 07:41 30.06.2022
1267 Clouds 21 1013 78 10000 1.03 80 05:47 30.06.2022
1268 Clear 22 1013 78 10000 2.06 100 00:31 30.06.2022
1269 Clear 22 1013 78 10000 2.57 70 23:19 29.06.2022
1270 Clear 23 1013 73 10000 3.6 70 22:38 29.06.2022
1271 Clear 23 1013 73 10000 4.63 60 21:34 29.06.2022
1272 Clear 23 1013 73 10000 4.63 30 20:33 29.06.2022
1273 Clear 24 1013 69 10000 5.66 30 19:36 29.06.2022
1274 Clouds 26 1013 61 10000 5.66 360 17:42 29.06.2022
1275 Clouds 25 1013 65 10000 5.66 30 16:36 29.06.2022
1276 Clouds 28 1013 54 10000 5.14 40 14:56 29.06.2022
1277 Clouds 28 1014 57 10000 8.75 60 12:39 29.06.2022
1278 Clouds 26 1014 61 10000 6.69 50 10:37 29.06.2022
1279 Clouds 24 1014 73 10000 6.69 60 09:32 29.06.2022
1280 Clouds 22 1013 88 10000 4.12 20 07:39 29.06.2022
1281 Clouds 22 1014 78 10000 4.12 360 04:51 29.06.2022
1282 Clouds 22 1014 78 10000 6.17 20 00:57 29.06.2022
1283 Clouds 22 1014 78 10000 6.17 20 00:35 29.06.2022
1284 Clouds 22 1014 83 10000 6.17 30 22:54 28.06.2022
1285 Clouds 22 1014 83 10000 5.14 10 22:24 28.06.2022
1286 Clouds 23 1014 73 10000 4.12 350 21:54 28.06.2022
1287 Clouds 23 1014 73 10000 6.17 340 21:32 28.06.2022
1288 Clouds 24 1013 57 10000 5.14 350 20:34 28.06.2022
1289 Clouds 26 1013 50 10000 5.66 20 19:34 28.06.2022
1290 Clouds 27 1013 47 10000 4.12 10 18:46 28.06.2022
1291 Clouds 28 1013 51 10000 4.63 340 17:40 28.06.2022
1292 Clouds 28 1014 54 10000 6.17 10 15:57 28.06.2022
1293 Clouds 28 1014 54 10000 6.69 10 15:36 28.06.2022
1294 Clouds 27 1014 54 10000 6.69 10 14:20 28.06.2022
1295 Clouds 28 1014 54 10000 7.2 40 13:51 28.06.2022
1296 Clouds 28 1013 51 10000 7.2 30 12:55 28.06.2022
1297 Clouds 28 1014 51 10000 6.69 30 11:18 28.06.2022
1298 Clouds 25 1013 69 10000 7.2 60 09:28 28.06.2022
1299 Clouds 24 1013 73 10000 6.17 50 08:43 28.06.2022
1300 Clouds 23 1012 83 10000 5.14 50 07:42 28.06.2022
1301 Clouds 21 1012 94 10000 5.66 20 06:20 28.06.2022
1302 Clouds 22 1013 78 10000 3.09 300 00:56 28.06.2022
1303 Clouds 22 1014 73 10000 1.54 310 23:37 27.06.2022
1304 Clouds 22 1014 78 10000 4.12 320 22:52 27.06.2022
1305 Clouds 22 1015 78 10000 4.12 360 21:34 27.06.2022
1306 Clouds 22 1015 78 10000 5.14 10 20:48 27.06.2022
1307 Clouds 23 1015 78 10000 5.14 40 19:31 27.06.2022
1308 Clouds 25 1015 57 10000 7.2 360 18:24 27.06.2022
1309 Clouds 28 1014 47 10000 6.69 360 16:19 27.06.2022
1310 Clouds 29 1015 45 10000 7.2 340 14:45 27.06.2022
1311 Clouds 29 1015 48 10000 6.69 20 13:35 27.06.2022
1312 Clouds 27 1015 51 10000 4.63 20 12:52 27.06.2022
1313 Clouds 26 1015 65 10000 3.6 350 10:23 27.06.2022
1314 Clouds 24 1016 69 10000 2.57 310 08:48 27.06.2022
1315 Clouds 23 1016 78 10000 3.09 300 08:19 27.06.2022
1316 Clouds 22 1016 83 10000 1.03 0 06:38 27.06.2022
1317 Clear 20 1015 83 10000 2.06 360 02:28 27.06.2022
1318 Clear 22 1015 64 10000 3.6 30 23:55 26.06.2022
1319 Clear 23 1015 53 10000 4.63 40 21:58 26.06.2022
1320 Clear 23 1015 49 10000 4.12 30 20:44 26.06.2022
1321 Clear 25 1015 47 10000 5.14 40 19:32 26.06.2022
1322 Clear 27 1015 41 10000 5.14 40 18:30 26.06.2022
1323 Clear 28 1015 42 10000 4.12 60 16:33 26.06.2022
1324 Clear 28 1015 47 10000 3.6 30 14:40 26.06.2022
1325 Clear 25 1015 57 10000 3.09 250 13:38 26.06.2022
1326 Clear 25 1015 61 10000 4.12 240 13:18 26.06.2022
1327 Clouds 24 1015 60 10000 3.09 210 11:26 26.06.2022
1328 Clouds 24 1015 60 10000 2.57 180 10:26 26.06.2022
1329 Clouds 23 1015 64 10000 3.09 140 09:19 26.06.2022
1330 Clouds 22 1014 68 10000 2.06 70 07:30 26.06.2022
1331 Clear 20 1013 73 10000 1.54 320 00:49 26.06.2022
1332 Clear 20 1013 73 10000 2.06 360 00:20 26.06.2022
1333 Clear 21 1013 68 10000 3.09 360 23:33 25.06.2022
1334 Clear 23 1013 53 10000 3.09 50 22:55 25.06.2022
1335 Clear 23 1013 53 10000 2.57 30 22:27 25.06.2022
1336 Clear 24 1013 53 10000 4.12 50 21:37 25.06.2022
1337 Clear 24 1013 53 10000 4.12 50 21:18 25.06.2022
1338 Clear 25 1013 50 10000 3.09 80 20:25 25.06.2022
1339 Clear 25 1013 50 10000 2.57 100 19:19 25.06.2022
1340 Clear 26 1013 50 10000 4.12 110 17:53 25.06.2022
1341 Clear 27 1013 41 10000 3.6 40 17:19 25.06.2022
1342 Clouds 26 1013 69 10000 2.06 180 14:59 25.06.2022
1343 Clouds 25 1013 69 10000 5.14 240 12:57 25.06.2022
1344 Clouds 24 1013 78 10000 5.66 250 12:37 25.06.2022
1345 Clear 25 1013 65 10000 5.14 230 10:32 25.06.2022
1346 Clear 24 1013 69 10000 4.12 250 08:57 25.06.2022
1347 Clear 23 1013 73 10000 4.63 250 08:35 25.06.2022
1348 Clear 23 1013 73 10000 4.12 260 07:45 25.06.2022
1349 Clear 21 1012 88 10000 2.57 300 03:30 25.06.2022
1350 Clear 21 1013 78 10000 2.57 250 00:33 25.06.2022
1351 Clear 22 1013 56 10000 0 0 22:51 24.06.2022
1352 Clear 22 1013 56 10000 1.54 60 21:34 24.06.2022
1353 Clear 24 1013 50 10000 3.09 60 20:44 24.06.2022
1354 Clear 24 1013 50 10000 3.09 50 20:18 24.06.2022
1355 Clear 25 1013 47 10000 4.12 20 19:20 24.06.2022
1356 Clear 26 1013 47 10000 5.14 20 18:48 24.06.2022
1357 Clear 26 1013 47 10000 4.12 20 18:30 24.06.2022
1358 Clear 28 1013 39 10000 6.17 20 16:57 24.06.2022
1359 Clear 28 1013 42 10000 5.14 10 15:28 24.06.2022
1360 Clouds 28 1013 44 10000 6.69 20 14:25 24.06.2022
1361 Clouds 27 1013 47 10000 6.17 350 13:53 24.06.2022
1362 Clouds 28 1013 44 10000 5.14 40 11:42 24.06.2022
1363 Clouds 28 1012 47 10000 5.14 10 10:47 24.06.2022
1364 Clouds 27 1012 50 10000 3.6 20 09:42 24.06.2022
1365 Clouds 25 1013 57 10000 1.54 0 09:19 24.06.2022
1366 Clear 24 1013 64 10000 3.09 350 08:42 24.06.2022
1367 Clear 22 1012 73 10000 3.6 340 06:47 24.06.2022
1368 Clear 21 1012 78 10000 2.57 360 06:29 24.06.2022
1369 Clear 19 1012 88 10000 2.57 340 05:51 24.06.2022
1370 Clouds 22 1012 73 10000 2.06 90 00:57 24.06.2022
1371 Clouds 23 1012 73 10000 3.6 90 22:44 23.06.2022
1372 Clouds 23 1012 73 10000 4.63 60 21:43 23.06.2022
1373 Clouds 23 1012 73 10000 5.14 60 20:43 23.06.2022
1374 Clouds 23 1012 73 10000 5.14 60 19:57 23.06.2022
1375 Clouds 24 1011 50 10000 5.66 30 18:43 23.06.2022
1376 Rain 27 1011 54 10000 4.12 20 17:37 23.06.2022
1377 Clouds 27 1010 57 10000 2.57 140 16:32 23.06.2022
1378 Clouds 28 1011 54 10000 3.09 220 15:26 23.06.2022
1379 Clouds 28 1011 51 10000 1.54 220 14:45 23.06.2022
1380 Clear 27 1011 54 10000 3.6 200 11:49 23.06.2022
1381 Clear 27 1011 61 10000 3.09 160 10:42 23.06.2022
1382 Clear 28 1011 39 10000 1.54 0 09:19 23.06.2022
1383 Clear 21 1010 68 10000 1.03 90 05:37 23.06.2022
1384 Clear 24 1010 50 10000 2.57 30 00:28 23.06.2022
1385 Clear 23 1010 60 10000 2.06 30 23:59 22.06.2022
1386 Clear 23 1010 64 10000 0.51 0 23:18 22.06.2022
1387 Clouds 25 1009 57 10000 1.54 280 21:44 22.06.2022
1388 Clouds 25 1009 61 10000 3.09 260 20:52 22.06.2022
1389 Clouds 26 1009 57 10000 2.57 260 20:19 22.06.2022
1390 Clear 27 1008 47 10000 0.51 0 19:30 22.06.2022
1391 Clear 28 1008 51 10000 2.06 210 17:40 22.06.2022
1392 Clear 28 1008 51 10000 3.6 180 16:41 22.06.2022
1393 Clear 28 1009 65 10000 4.12 200 15:29 22.06.2022
1394 Clear 27 1009 65 10000 4.63 190 14:51 22.06.2022
1395 Clear 28 1009 57 10000 4.12 160 13:48 22.06.2022
1396 Clear 28 1010 57 10000 4.12 160 13:24 22.06.2022
1397 Clouds 29 1010 48 10000 4.63 310 12:18 22.06.2022
1398 Clouds 29 1010 48 10000 3.6 360 11:29 22.06.2022
1399 Clouds 29 1010 54 10000 4.12 340 10:43 22.06.2022
1400 Clear 29 1009 51 10000 4.12 350 09:40 22.06.2022
1401 Clear 23 1008 78 10000 2.57 260 06:55 22.06.2022
1402 Clear 22 1007 83 10000 5.14 250 02:26 22.06.2022
1403 Clear 23 1007 78 10000 4.12 250 00:57 22.06.2022
1404 Clear 21 1008 83 10000 0.51 0 22:53 21.06.2022
1405 Clear 23 1008 68 10000 1.03 190 20:58 21.06.2022
1406 Clear 23 1008 68 10000 2.06 240 19:23 21.06.2022
1407 Clear 24 1008 64 10000 3.09 220 17:54 21.06.2022
1408 Clear 25 1008 65 10000 3.09 220 16:38 21.06.2022
1409 Clouds 23 1010 73 10000 5.14 240 11:58 21.06.2022
1410 Clouds 22 1010 83 10000 4.12 230 10:46 21.06.2022
1411 Clouds 22 1010 78 10000 2.57 200 09:24 21.06.2022
1412 Clouds 21 1009 83 10000 1.54 130 07:49 21.06.2022
1413 Thunderstorm 20 1009 94 10000 3.6 10 04:57 21.06.2022
1414 Clouds 21 1010 83 10000 0.51 0 00:23 21.06.2022
1415 Clouds 22 1011 83 10000 2.57 60 22:21 20.06.2022
1416 Clouds 22 1011 83 10000 2.57 60 22:21 20.06.2022
1417 Clouds 22 1011 83 10000 3.6 50 21:37 20.06.2022
1418 Clouds 22 1011 83 10000 4.12 30 20:29 20.06.2022
1419 Clouds 22 1010 78 10000 4.12 20 19:36 20.06.2022
1420 Clouds 23 1011 73 10000 5.66 50 18:26 20.06.2022
1421 Clouds 23 1011 73 10000 4.63 40 17:49 20.06.2022
1422 Clouds 24 1011 73 10000 6.17 10 16:26 20.06.2022
1423 Clouds 24 1011 73 10000 6.17 10 15:30 20.06.2022
1424 Clouds 25 1012 61 10000 7.2 70 12:32 20.06.2022
1425 Clouds 26 1013 53 10000 6.17 30 10:21 20.06.2022
1426 Clouds 26 1013 53 10000 6.17 30 10:21 20.06.2022
1427 Clouds 25 1013 53 10000 6.17 50 08:54 20.06.2022
1428 Clouds 23 1013 68 10000 6.17 50 07:52 20.06.2022
1429 Clear 20 1014 83 10000 4.63 50 05:21 20.06.2022
1430 Clear 20 1015 83 10000 4.63 50 01:33 20.06.2022
1431 Clear 21 1016 78 10000 4.63 60 23:57 19.06.2022
1432 Clouds 21 1016 78 10000 7.2 60 22:40 19.06.2022
1433 Clouds 21 1017 78 10000 7.2 50 21:45 19.06.2022
1434 Clouds 21 1017 73 10000 7.2 50 21:26 19.06.2022
1435 Clear 22 1016 68 10000 8.23 50 20:25 19.06.2022
1436 Clouds 22 1016 64 10000 6.69 40 19:46 19.06.2022
1437 Clouds 24 1016 60 10000 7.2 40 18:41 19.06.2022
1438 Clouds 25 1016 57 10000 8.75 30 17:48 19.06.2022
1439 Clouds 25 1016 57 10000 7.2 30 17:21 19.06.2022
1440 Clouds 26 1016 53 10000 7.72 50 16:34 19.06.2022
1441 Clouds 25 1017 53 10000 9.26 60 15:38 19.06.2022
1442 Clouds 27 1017 50 10000 7.2 50 14:55 19.06.2022
1443 Clouds 26 1017 47 10000 8.23 50 13:58 19.06.2022
1444 Clouds 27 1017 44 10000 9.26 50 12:56 19.06.2022
1445 Clouds 26 1018 50 10000 8.23 60 10:54 19.06.2022
1446 Clouds 24 1017 53 10000 9.26 60 09:40 19.06.2022
1447 Clouds 22 1017 68 10000 7.72 30 08:47 19.06.2022
1448 Clouds 23 1017 68 10000 7.2 60 07:48 19.06.2022
1449 Clear 20 1016 83 10000 5.66 40 04:41 19.06.2022
1450 Clear 21 1016 78 10000 5.14 50 01:29 19.06.2022
1451 Clouds 21 1016 78 10000 6.69 60 00:24 19.06.2022
1452 Clouds 21 1016 78 10000 7.2 50 23:35 18.06.2022
1453 Clouds 21 1017 78 10000 7.2 50 22:36 18.06.2022
1454 Clouds 21 1016 73 10000 7.72 50 20:56 18.06.2022
1455 Clear 22 1016 64 10000 8.75 50 20:28 18.06.2022
1456 Clear 23 1016 49 10000 9.77 60 19:31 18.06.2022
1457 Clouds 24 1016 53 10000 7.72 50 18:44 18.06.2022
1458 Clouds 25 1015 50 10000 9.26 30 17:30 18.06.2022
1459 Clouds 25 1015 53 10000 9.77 30 16:37 18.06.2022
1460 Clouds 27 1015 47 10000 8.75 40 15:22 18.06.2022
1461 Clouds 27 1015 47 10000 9.26 50 14:42 18.06.2022
1462 Clouds 27 1015 44 10000 9.77 50 13:22 18.06.2022
1463 Clouds 27 1015 47 10000 8.23 60 11:38 18.06.2022
1464 Clouds 25 1015 57 10000 7.72 50 10:46 18.06.2022
1465 Clouds 24 1016 60 10000 8.23 50 09:20 18.06.2022
1466 Clouds 23 1016 68 10000 7.2 70 08:19 18.06.2022
1467 Clouds 21 1015 78 10000 4.12 60 06:44 18.06.2022
1468 Clouds 20 1015 83 10000 4.63 70 03:24 18.06.2022
1469 Clouds 21 1016 78 10000 4.12 70 01:24 18.06.2022
1470 Clouds 21 1016 78 10000 4.12 70 00:45 18.06.2022
1471 Clouds 21 1016 78 10000 5.14 80 23:52 17.06.2022
1472 Clouds 21 1016 78 10000 5.14 70 23:19 17.06.2022
1473 Clouds 21 1016 78 10000 6.17 50 20:42 17.06.2022
1474 Clouds 23 1016 64 10000 7.72 50 19:30 17.06.2022
1475 Clear 24 1015 60 10000 6.69 60 18:37 17.06.2022
1476 Clear 25 1015 53 10000 7.72 30 17:43 17.06.2022
1477 Clear 26 1016 47 10000 8.75 30 16:43 17.06.2022
1478 Clouds 26 1016 44 10000 9.26 50 15:43 17.06.2022
1479 Clouds 26 1016 44 10000 9.26 70 14:58 17.06.2022
1480 Clouds 26 1016 44 10000 8.75 60 14:20 17.06.2022
1481 Clouds 27 1016 44 10000 8.75 40 13:45 17.06.2022
1482 Clouds 27 1016 47 10000 7.2 50 12:53 17.06.2022
1483 Clouds 25 1016 53 10000 6.69 50 11:57 17.06.2022
1484 Clouds 25 1016 53 10000 6.69 50 11:36 17.06.2022
1485 Clouds 26 1016 50 10000 6.69 50 10:48 17.06.2022
1486 Clouds 26 1016 50 10000 6.69 50 10:48 17.06.2022
1487 Clouds 26 1016 50 10000 6.69 50 10:48 17.06.2022
1488 Clouds 22 1017 64 10000 6.69 70 08:29 17.06.2022
1489 Clear 21 1017 73 10000 4.63 60 07:30 17.06.2022
1490 Clear 19 1017 82 10000 4.63 50 05:50 17.06.2022
1491 Clear 20 1018 77 10000 5.66 40 02:47 17.06.2022
1492 Clear 20 1018 77 10000 5.66 30 00:42 17.06.2022
1493 Clear 21 1018 68 10000 5.14 70 22:44 16.06.2022
1494 Clear 21 1018 68 10000 6.17 60 21:58 16.06.2022
1495 Clear 22 1018 60 10000 7.2 70 21:18 16.06.2022
1496 Clear 22 1018 60 10000 6.17 70 20:49 16.06.2022
1497 Clear 23 1018 49 10000 8.23 60 19:56 16.06.2022
1498 Clear 24 1018 46 10000 10.29 40 18:30 16.06.2022
1499 Clear 25 1018 44 10000 8.23 60 17:44 16.06.2022
1500 Clear 26 1018 50 10000 9.26 50 16:46 16.06.2022
1501 Clear 26 1018 50 10000 7.72 60 15:24 16.06.2022
1502 Clear 27 1018 47 10000 8.75 60 14:56 16.06.2022
1503 Clear 25 1018 50 10000 9.26 60 13:45 16.06.2022
1504 Clear 26 1019 47 10000 8.23 50 12:37 16.06.2022
1505 Clear 25 1019 47 10000 8.23 50 11:53 16.06.2022
1506 Clear 26 1018 47 10000 7.72 60 11:18 16.06.2022
1507 Clear 25 1018 47 10000 9.26 50 10:33 16.06.2022
1508 Clouds 24 1018 57 10000 6.69 50 09:25 16.06.2022
1509 Clouds 23 1018 60 10000 6.69 60 08:46 16.06.2022
1510 Clouds 22 1019 68 10000 5.14 50 07:29 16.06.2022
1511 Clear 19 1018 82 10000 4.12 50 05:31 16.06.2022
1512 Clear 20 1019 77 10000 5.14 60 02:52 16.06.2022
1513 Clear 20 1019 77 10000 4.63 50 01:51 16.06.2022
1514 Clear 20 1019 77 10000 5.14 50 01:21 16.06.2022
1515 Clear 21 1019 73 10000 6.17 70 23:49 15.06.2022
1516 Clear 21 1019 73 10000 5.14 70 22:44 15.06.2022
1517 Clear 21 1019 78 10000 7.2 50 21:23 15.06.2022
1518 Clear 21 1018 78 10000 8.23 50 20:56 15.06.2022
1519 Clear 21 1018 78 10000 8.23 50 20:35 15.06.2022
1520 Clear 22 1018 64 10000 9.26 40 19:30 15.06.2022
1521 Clear 25 1018 47 10000 10.29 50 17:58 15.06.2022
1522 Clear 26 1018 47 10000 7.72 50 17:33 15.06.2022
1523 Clear 27 1018 50 10000 7.72 50 15:51 15.06.2022
1524 Clouds 27 1018 54 10000 7.72 70 14:30 15.06.2022
1525 Clouds 25 1018 65 10000 8.23 60 12:56 15.06.2022
1526 Clouds 24 1018 69 10000 8.23 50 12:32 15.06.2022
1527 Clouds 24 1018 73 10000 8.23 30 10:28 15.06.2022
1528 Clouds 24 1018 73 10000 7.72 30 09:53 15.06.2022
1529 Clouds 24 1017 73 10000 8.75 30 08:50 15.06.2022
1530 Clouds 22 1017 83 10000 5.66 30 07:21 15.06.2022
1531 Clouds 20 1016 88 10000 5.14 20 04:51 15.06.2022
1532 Clear 21 1015 83 10000 4.63 20 02:28 15.06.2022
1533 Clear 22 1015 78 10000 3.6 30 00:54 15.06.2022
1534 Clear 22 1015 78 10000 3.6 20 23:55 14.06.2022
1535 Clear 22 1015 78 10000 3.6 20 23:37 14.06.2022
1536 Clear 22 1014 78 10000 5.14 20 22:28 14.06.2022
1537 Clear 22 1014 78 10000 5.14 20 21:41 14.06.2022
1538 Clear 24 1013 60 10000 3.09 40 20:57 14.06.2022
1539 Clear 25 1013 57 10000 4.12 30 20:32 14.06.2022
1540 Clear 26 1012 53 10000 6.17 20 19:22 14.06.2022
1541 Clear 28 1012 47 10000 5.14 30 18:25 14.06.2022
1542 Clear 28 1011 54 10000 5.66 20 16:49 14.06.2022
1543 Clear 29 1011 48 10000 6.17 30 15:50 14.06.2022
1544 Clear 30 1011 48 10000 6.17 40 15:31 14.06.2022
1545 Clear 29 1011 51 10000 6.17 20 14:40 14.06.2022
1546 Clear 25 1012 69 10000 5.14 240 13:46 14.06.2022
1547 Clear 24 1013 73 10000 5.14 250 12:48 14.06.2022
1548 Clear 24 1013 69 10000 3.09 240 11:46 14.06.2022
1549 Clear 23 1013 78 10000 4.63 210 10:49 14.06.2022
1550 Clear 23 1013 78 10000 4.63 210 10:49 14.06.2022
1551 Clear 24 1013 73 10000 3.09 190 10:24 14.06.2022
1552 Clear 26 1012 61 10000 5.14 350 08:49 14.06.2022
1553 Clear 23 1012 73 10000 1.54 290 07:50 14.06.2022
1554 Clear 19 1011 94 10000 1.03 240 05:56 14.06.2022
1555 Clear 19 1011 82 10000 2.06 20 03:20 14.06.2022
1556 Clear 19 1011 94 10000 3.6 30 01:31 14.06.2022
1557 Clear 19 1011 88 10000 3.6 10 23:48 13.06.2022
1558 Clear 21 1011 83 10000 4.12 30 22:26 13.06.2022
1559 Clear 20 1011 88 10000 3.6 20 21:54 13.06.2022
1560 Clear 21 1010 83 10000 3.6 20 20:42 13.06.2022
1561 Clear 23 1009 68 10000 4.12 20 19:39 13.06.2022
1562 Clear 25 1009 61 10000 4.12 20 18:36 13.06.2022
1563 Clear 26 1009 61 10000 4.12 10 17:48 13.06.2022
1564 Clear 26 1009 65 10000 6.17 10 16:54 13.06.2022
1565 Clear 26 1009 65 10000 7.72 350 15:41 13.06.2022
1566 Clear 26 1009 65 10000 6.69 350 14:47 13.06.2022
1567 Clear 25 1010 65 10000 6.69 10 13:55 13.06.2022
1568 Rain 27 1010 57 10000 6.17 10 12:59 13.06.2022
1569 Clouds 24 1010 69 10000 7.72 360 11:38 13.06.2022
1570 Clouds 23 1010 73 10000 8.23 360 10:28 13.06.2022
1571 Rain 23 1010 73 10000 6.69 360 09:42 13.06.2022
1572 Clouds 23 1009 73 10000 6.17 20 08:25 13.06.2022
1573 Clouds 21 1008 83 10000 7.72 10 06:34 13.06.2022
1574 Clouds 20 1007 88 10000 5.14 350 03:45 13.06.2022
1575 Clouds 21 1007 83 10000 3.6 10 01:38 13.06.2022
1576 Clouds 21 1007 83 10000 3.09 20 00:48 13.06.2022
1577 Clouds 21 1008 83 10000 5.14 350 23:31 12.06.2022
1578 Clouds 20 1008 88 10000 3.6 350 22:23 12.06.2022
1579 Clouds 21 1008 88 10000 2.06 10 21:40 12.06.2022
1580 Clouds 21 1007 83 10000 3.6 30 20:40 12.06.2022
1581 Clouds 22 1007 78 10000 5.14 10 19:41 12.06.2022
1582 Clouds 22 1006 83 10000 5.66 10 18:43 12.06.2022
1583 Clouds 24 1005 69 10000 7.2 40 16:44 12.06.2022
1584 Clouds 23 1005 69 10000 8.75 30 15:32 12.06.2022
1585 Clouds 23 1005 83 10000 7.2 30 14:33 12.06.2022
1586 Clouds 22 1004 88 10000 6.69 30 13:57 12.06.2022
1587 Clouds 22 1004 88 10000 6.69 30 13:38 12.06.2022
1588 Rain 19 1005 94 4000 6.17 330 11:48 12.06.2022
1589 Rain 19 1005 94 3200 3.09 330 10:45 12.06.2022
1590 Clouds 20 1005 88 10000 5.14 360 09:28 12.06.2022
1591 Clouds 20 1005 88 10000 4.63 30 08:49 12.06.2022
1592 Rain 20 1005 94 6000 2.57 360 07:47 12.06.2022
1593 Rain 19 1004 94 10000 3.09 320 05:39 12.06.2022
1594 Clouds 20 1005 88 10000 2.57 310 03:38 12.06.2022
1595 Clouds 21 1005 83 10000 3.09 10 01:44 12.06.2022
1596 Clouds 21 1006 83 10000 3.09 30 00:59 12.06.2022
1597 Clouds 21 1006 83 10000 3.6 30 00:28 12.06.2022
1598 Clouds 21 1006 83 10000 3.6 30 23:56 11.06.2022
1599 Clouds 21 1006 83 10000 4.12 350 22:49 11.06.2022
1600 Clouds 21 1006 78 10000 3.6 10 22:29 11.06.2022
1601 Clouds 22 1006 73 10000 5.14 30 20:55 11.06.2022
1602 Clouds 22 1006 73 10000 5.14 40 20:26 11.06.2022
1603 Clouds 23 1006 73 10000 5.66 20 19:32 11.06.2022
1604 Clouds 23 1006 68 10000 5.14 20 18:36 11.06.2022
1605 Clouds 23 1006 73 10000 2.06 170 17:58 11.06.2022
1606 Clouds 23 1006 73 10000 2.06 170 17:38 11.06.2022
1607 Clouds 24 1006 69 10000 2.57 160 17:19 11.06.2022
1608 Clouds 24 1006 64 10000 2.57 170 16:38 11.06.2022
1609 Clouds 23 1007 73 10000 3.6 130 15:46 11.06.2022
1610 Clouds 22 1008 83 10000 4.63 110 13:54 11.06.2022
1611 Clouds 22 1008 83 10000 4.63 110 13:36 11.06.2022
1612 Rain 22 1010 83 10000 4.63 110 11:18 11.06.2022
1613 Rain 23 1009 78 10000 6.17 90 10:22 11.06.2022
1614 Rain 22 1009 83 10000 4.63 100 09:40 11.06.2022
1615 Rain 21 1010 88 10000 3.09 130 07:58 11.06.2022
1616 Clouds 22 1009 88 10000 3.09 70 06:31 11.06.2022
1617 Clouds 21 1009 100 10000 2.57 50 05:22 11.06.2022
1618 Clear 23 1008 68 10000 3.09 30 01:54 11.06.2022
1619 Clear 24 1008 64 10000 3.09 30 01:34 11.06.2022
1620 Clear 24 1009 60 10000 3.6 40 00:34 11.06.2022
1621 Clear 24 1009 64 10000 4.12 50 22:35 10.06.2022
1622 Clear 24 1010 64 10000 3.6 40 21:56 10.06.2022
1623 Clear 25 1009 61 10000 5.14 40 20:55 10.06.2022
1624 Clear 25 1009 61 10000 5.14 40 20:36 10.06.2022
1625 Clear 25 1009 57 10000 5.14 40 20:18 10.06.2022
1626 Clear 27 1009 50 10000 6.69 40 19:18 10.06.2022
1627 Clear 28 1009 47 10000 6.17 30 18:20 10.06.2022
1628 Clear 28 1009 47 10000 6.17 20 17:36 10.06.2022
1629 Clear 30 1008 37 10000 2.06 250 16:58 10.06.2022
1630 Clouds 30 1008 37 10000 2.57 230 15:50 10.06.2022
1631 Rain 29 1009 37 10000 1.54 250 15:30 10.06.2022
1632 Clear 29 1009 37 10000 1.54 0 13:49 10.06.2022
1633 Clear 29 1009 39 10000 1.54 0 12:35 10.06.2022
1634 Clear 29 1009 45 10000 2.57 140 11:40 10.06.2022
1635 Clear 26 1009 57 10000 3.6 120 10:43 10.06.2022
1636 Clear 25 1009 61 10000 3.09 140 09:44 10.06.2022
1637 Clear 23 1009 68 10000 3.09 120 08:28 10.06.2022
1638 Clear 23 1008 73 10000 2.57 110 06:53 10.06.2022
1639 Clear 22 1008 78 10000 1.54 100 06:33 10.06.2022
1640 Clear 21 1008 83 10000 1.03 90 05:48 10.06.2022
1641 Clear 22 1007 73 10000 0.51 0 03:50 10.06.2022
1642 Clear 20 1008 83 10000 1.03 0 01:38 10.06.2022
1643 Clear 21 1008 78 10000 0 0 00:27 10.06.2022
1644 Clear 21 1008 78 10000 1.03 0 23:28 09.06.2022
1645 Clear 22 1008 73 10000 0 0 21:47 09.06.2022
1646 Clear 22 1008 73 10000 0 0 21:29 09.06.2022
1647 Clear 21 1008 78 10000 2.06 310 20:54 09.06.2022
1648 Clear 22 1007 73 10000 1.03 0 19:59 09.06.2022
1649 Clear 23 1007 73 10000 2.06 180 18:49 09.06.2022
1650 Clear 24 1007 60 10000 3.09 210 18:21 09.06.2022
1651 Clear 28 1007 44 10000 1.54 240 16:46 09.06.2022
1652 Clear 27 1008 47 10000 1.54 230 15:47 09.06.2022
1653 Clear 26 1008 50 10000 2.06 230 14:35 09.06.2022
1654 Clear 25 1008 53 10000 2.57 230 13:47 09.06.2022
1655 Clear 25 1009 53 10000 1.54 230 13:26 09.06.2022
1656 Clear 24 1010 57 10000 2.57 210 11:53 09.06.2022
1657 Clouds 23 1010 73 10000 1.03 0 10:51 09.06.2022
1658 Clouds 22 1010 78 10000 2.57 200 09:42 09.06.2022
1659 Clouds 21 1010 78 10000 2.57 180 09:23 09.06.2022
1660 Clear 20 1009 83 10000 2.06 130 07:34 09.06.2022
1661 Clouds 19 1009 82 10000 2.06 60 05:46 09.06.2022
1662 Clear 17 1009 94 10000 0 0 01:59 09.06.2022
1663 Clear 20 1010 83 10000 2.06 60 23:34 08.06.2022
1664 Clear 20 1011 83 10000 1.54 60 22:51 08.06.2022
1665 Clear 20 1011 77 10000 3.09 40 22:26 08.06.2022
1666 Clear 20 1011 77 10000 3.09 30 21:49 08.06.2022
1667 Clouds 20 1010 77 10000 3.6 30 20:43 08.06.2022
1668 Clouds 21 1010 73 10000 3.6 30 19:50 08.06.2022
1669 Clouds 23 1010 68 10000 4.12 40 18:58 08.06.2022
1670 Clouds 23 1010 68 10000 4.12 40 18:40 08.06.2022
1671 Clouds 23 1010 68 10000 4.63 30 16:34 08.06.2022
1672 Clouds 22 1010 73 10000 3.6 260 15:26 08.06.2022
1673 Clouds 20 1009 65 10000 2.06 306 13:36 08.06.2022
1674 Clouds 22 1010 68 10000 2.57 250 11:50 08.06.2022
1675 Clouds 22 1011 68 10000 3.09 230 11:24 08.06.2022
1676 Clouds 22 1010 73 10000 3.09 200 09:47 08.06.2022
1677 Clouds 22 1010 68 10000 2.57 160 09:20 08.06.2022
1678 Clouds 20 1010 77 10000 0.51 0 07:32 08.06.2022
1679 Clouds 18 1010 88 10000 2.57 50 05:22 08.06.2022
1680 Clear 17 1010 88 10000 2.57 20 02:38 08.06.2022
1681 Clear 18 1010 88 10000 2.06 40 23:42 07.06.2022
1682 Clear 19 1011 82 10000 2.06 60 23:24 07.06.2022
1683 Clouds 19 1011 82 10000 2.57 70 22:39 07.06.2022
1684 Clouds 18 1011 88 10000 2.57 10 21:52 07.06.2022
1685 Clouds 19 1011 82 10000 3.09 10 21:27 07.06.2022
1686 Clouds 19 1011 82 10000 3.09 10 21:27 07.06.2022
1687 Clouds 19 1011 77 10000 2.57 30 20:46 07.06.2022
1688 Clouds 19 1011 77 10000 2.06 10 20:23 07.06.2022
1689 Clouds 20 1011 73 10000 4.63 30 19:19 07.06.2022
1690 Clouds 21 1011 64 10000 5.14 10 17:55 07.06.2022
1691 Clouds 23 1011 60 10000 6.17 20 16:56 07.06.2022
1692 Clouds 24 1011 60 10000 6.17 10 16:33 07.06.2022
1693 Clouds 23 1011 64 10000 6.69 350 15:40 07.06.2022
1694 Clouds 23 1011 64 10000 5.66 20 15:22 07.06.2022
1695 Clouds 23 1011 69 10000 6.69 10 14:46 07.06.2022
1696 Rain 21 1012 73 10000 2.06 230 13:46 07.06.2022
1697 Rain 21 1012 73 10000 2.06 230 13:46 07.06.2022
1698 Rain 19 1012 88 10000 3.09 260 13:27 07.06.2022
1699 Rain 19 1012 82 10000 2.57 260 12:39 07.06.2022
1700 Rain 20 1013 88 8000 4.12 350 10:57 07.06.2022
1701 Rain 22 1013 64 10000 1.03 0 09:58 07.06.2022
1702 Rain 20 1013 77 10000 2.57 40 08:32 07.06.2022
1703 Rain 18 1013 94 10000 4.12 30 07:21 07.06.2022
1704 Rain 18 1013 88 10000 3.09 10 05:48 07.06.2022
1705 Clouds 18 1013 88 10000 3.09 350 02:28 07.06.2022
1706 Clouds 19 1013 82 10000 4.12 20 00:33 07.06.2022
1707 Clouds 20 1014 77 10000 4.63 40 23:32 06.06.2022
1708 Clear 20 1014 77 10000 5.66 40 22:37 06.06.2022
1709 Clear 20 1014 73 10000 6.17 20 21:36 06.06.2022
1710 Clear 21 1014 56 10000 7.2 40 19:59 06.06.2022
1711 Clear 21 1013 60 10000 6.17 30 19:21 06.06.2022
1712 Clear 22 1013 56 10000 7.2 30 18:38 06.06.2022
1713 Clear 23 1013 60 10000 6.69 30 17:42 06.06.2022
1714 Clouds 25 1013 50 10000 8.23 40 16:39 06.06.2022
1715 Clouds 26 1013 57 10000 7.2 30 15:40 06.06.2022
1716 Clouds 27 1012 54 10000 5.14 10 14:40 06.06.2022
1717 Clouds 24 1013 60 10000 6.17 20 13:27 06.06.2022
1718 Rain 24 1013 60 10000 7.2 10 12:38 06.06.2022
1719 Rain 23 1014 60 10000 9.77 350 12:19 06.06.2022
1720 Clouds 26 1013 57 10000 3.09 280 11:42 06.06.2022
1721 Clear 24 1012 60 10000 2.06 220 09:41 06.06.2022
1722 Clear 25 1012 57 10000 1.03 0 08:35 06.06.2022
1723 Clear 24 1012 57 10000 1.54 100 07:37 06.06.2022
1724 Clear 20 1011 68 10000 1.54 100 05:34 06.06.2022
1725 Clear 19 1012 63 10000 1.54 70 03:47 06.06.2022
1726 Clear 21 1012 56 10000 2.57 20 01:29 06.06.2022
1727 Clear 22 1012 53 10000 2.57 50 00:43 06.06.2022
1728 Clear 22 1012 49 10000 2.57 50 23:50 05.06.2022
1729 Clear 22 1013 46 10000 2.06 70 22:57 05.06.2022
1730 Clear 25 1013 41 10000 4.12 50 21:33 05.06.2022
1731 Clear 25 1012 44 10000 4.63 60 20:23 05.06.2022
1732 Clear 26 1012 61 10000 1.54 240 18:42 05.06.2022
1733 Clear 26 1012 69 10000 1.54 240 17:57 05.06.2022
1734 Clear 26 1012 69 10000 1.54 240 17:36 05.06.2022
1735 Clear 27 1012 61 10000 2.06 230 17:18 05.06.2022
1736 Clear 26 1012 69 10000 2.57 240 16:45 05.06.2022
1737 Clear 26 1013 69 10000 5.14 260 14:46 05.06.2022
1738 Clear 25 1014 73 10000 5.14 240 13:55 05.06.2022
1739 Clear 25 1014 65 10000 2.57 210 11:56 05.06.2022
1740 Clear 23 1015 73 10000 2.57 190 10:44 05.06.2022
1741 Clouds 23 1015 78 10000 3.09 200 10:23 05.06.2022
1742 Clouds 22 1015 78 10000 1.03 0 08:45 05.06.2022
1743 Clouds 21 1015 83 10000 1.03 0 08:21 05.06.2022
1744 Clouds 19 1015 88 10000 3.09 40 05:23 05.06.2022
1745 Clouds 19 1014 88 10000 4.12 10 04:33 05.06.2022
1746 Clouds 19 1015 88 10000 3.09 10 01:45 05.06.2022
1747 Clouds 19 1015 88 10000 3.09 10 01:45 05.06.2022
1748 Clouds 19 1015 88 10000 3.09 10 01:45 05.06.2022
1749 Clouds 19 1015 88 10000 3.6 360 01:23 05.06.2022
1750 Clouds 19 1015 88 10000 3.6 360 01:23 05.06.2022
1751 Clear 19 1016 88 10000 2.06 20 22:45 04.06.2022
1752 Clear 21 1016 78 10000 4.63 20 21:21 04.06.2022
1753 Clear 22 1015 78 10000 7.72 50 18:54 04.06.2022
1754 Clear 24 1015 69 10000 7.2 20 16:48 04.06.2022
1755 Clouds 25 1015 69 10000 7.72 20 16:19 04.06.2022
1756 Clouds 25 1015 69 10000 8.75 30 15:27 04.06.2022
1757 Clouds 26 1016 65 10000 8.23 10 13:54 04.06.2022
1758 Clouds 27 1016 65 10000 6.69 350 11:23 04.06.2022
1759 Clouds 27 1016 65 10000 4.63 10 10:52 04.06.2022
1760 Clouds 23 1016 78 10000 3.09 230 09:46 04.06.2022
1761 Clouds 24 1016 73 10000 2.57 150 08:44 04.06.2022
1762 Clouds 23 1015 78 10000 4.63 20 07:59 04.06.2022
1763 Clouds 21 1015 83 10000 4.63 40 06:20 04.06.2022
1764 Clouds 20 1015 88 10000 2.57 10 02:56 04.06.2022
1765 Clear 21 1016 83 10000 3.6 30 00:20 04.06.2022
1766 Clear 21 1016 83 10000 4.12 50 22:49 03.06.2022
1767 Clouds 21 1016 83 10000 5.14 50 21:43 03.06.2022
1768 Clouds 22 1015 78 10000 6.17 50 20:38 03.06.2022
1769 Clouds 23 1015 73 10000 8.75 40 19:19 03.06.2022
1770 Clear 26 1014 65 10000 8.23 30 16:54 03.06.2022
1771 Clear 25 1015 69 10000 7.72 30 15:40 03.06.2022
1772 Clear 29 1015 51 10000 8.23 40 13:51 03.06.2022
1773 Clouds 27 1015 61 10000 6.69 50 11:51 03.06.2022
1774 Clouds 25 1015 65 10000 5.14 40 09:54 03.06.2022
1775 Clouds 25 1015 65 10000 5.14 30 09:29 03.06.2022
1776 Clouds 22 1015 78 10000 6.17 50 07:42 03.06.2022
1777 Clouds 20 1013 88 10000 2.57 20 06:46 03.06.2022
1778 Clouds 20 1013 88 10000 4.12 20 06:27 03.06.2022
1779 Clouds 19 1014 88 10000 1.03 300 02:50 03.06.2022
1780 Clear 20 1014 83 10000 4.12 30 23:36 02.06.2022
1781 Clear 21 1014 78 10000 6.17 50 21:58 02.06.2022
1782 Clear 21 1013 78 10000 6.17 30 20:26 02.06.2022
1783 Clear 22 1014 68 10000 6.69 40 19:54 02.06.2022
1784 Clear 22 1013 68 10000 6.17 50 19:36 02.06.2022
1785 Clear 24 1013 57 10000 7.2 20 18:34 02.06.2022
1786 Clear 26 1013 57 10000 7.2 30 16:28 02.06.2022
1787 Clear 27 1014 57 10000 7.2 20 15:30 02.06.2022
1788 Clear 28 1014 51 10000 6.69 30 13:30 02.06.2022
1789 Clear 27 1014 57 10000 7.2 30 12:46 02.06.2022
1790 Clear 27 1014 54 10000 5.14 60 10:32 02.06.2022
1791 Clouds 24 1014 69 10000 5.14 30 09:29 02.06.2022
1792 Clouds 22 1014 73 10000 4.63 40 08:30 02.06.2022
1793 Clouds 21 1014 78 10000 5.66 50 07:58 02.06.2022
1794 Clouds 21 1014 78 10000 4.63 50 06:20 02.06.2022
1795 Clear 20 1013 83 10000 5.14 20 03:49 02.06.2022
1796 Clear 20 1014 83 10000 2.06 80 00:39 02.06.2022
1797 Clear 21 1014 78 10000 4.63 40 22:57 01.06.2022
1798 Clear 21 1015 78 10000 4.12 50 21:52 01.06.2022
1799 Clear 22 1014 73 10000 5.14 40 21:22 01.06.2022
1800 Clear 23 1014 64 10000 7.72 30 20:38 01.06.2022
1801 Clear 23 1014 64 10000 6.17 20 19:50 01.06.2022
1802 Clear 26 1014 50 10000 5.66 30 18:24 01.06.2022
1803 Clear 28 1014 44 10000 6.69 30 16:48 01.06.2022
1804 Clear 28 1013 45 10000 6.17 40 15:42 01.06.2022
1805 Clear 29 1014 42 10000 6.17 20 14:35 01.06.2022
1806 Clear 28 1015 42 10000 4.12 40 12:46 01.06.2022
1807 Clear 27 1015 50 10000 2.57 0 10:42 01.06.2022
1808 Clear 26 1015 53 10000 3.6 70 09:27 01.06.2022
1809 Clear 24 1015 60 10000 3.6 60 07:57 01.06.2022
1810 Clear 22 1015 64 10000 3.6 60 07:20 01.06.2022
1811 Clear 20 1014 73 10000 3.09 60 03:22 01.06.2022
1812 Clear 21 1015 73 10000 4.12 50 23:47 31.05.2022
1813 Clear 22 1015 68 10000 4.12 40 22:38 31.05.2022
1814 Clear 22 1015 68 10000 3.6 30 22:19 31.05.2022
1815 Clear 23 1015 64 10000 4.12 70 21:23 31.05.2022
1816 Clear 23 1015 64 10000 3.6 60 20:42 31.05.2022
1817 Clear 25 1014 53 10000 5.14 40 19:22 31.05.2022
1818 Clear 27 1014 47 10000 6.17 70 18:19 31.05.2022
1819 Clear 27 1014 50 10000 5.66 70 17:37 31.05.2022
1820 Clouds 29 1014 45 10000 6.17 20 15:45 31.05.2022
1821 Clouds 29 1014 48 10000 6.17 360 15:22 31.05.2022
1822 Clouds 29 1015 48 10000 5.14 70 12:41 31.05.2022
1823 Clouds 28 1015 51 10000 5.14 40 12:18 31.05.2022
1824 Clouds 27 1015 54 10000 5.14 80 10:22 31.05.2022
1825 Clear 24 1015 60 10000 2.06 100 07:43 31.05.2022
1826 Clear 20 1014 77 10000 2.06 20 05:38 31.05.2022
1827 Clear 20 1013 73 10000 3.09 350 03:49 31.05.2022
1828 Clear 21 1013 68 10000 3.09 10 23:45 30.05.2022
1829 Clear 21 1013 68 10000 3.09 10 23:23 30.05.2022
1830 Clear 23 1013 60 10000 3.6 30 22:33 30.05.2022
1831 Clear 22 1013 64 10000 3.6 30 21:40 30.05.2022
1832 Clear 24 1012 57 10000 4.12 40 20:43 30.05.2022
1833 Clear 25 1012 53 10000 4.63 40 19:40 30.05.2022
1834 Clear 30 1010 45 10000 5.66 10 17:48 30.05.2022
1835 Clear 30 1010 39 9000 6.17 320 17:20 30.05.2022
1836 Clouds 29 1010 42 10000 6.17 270 15:51 30.05.2022
1837 Clear 28 1011 42 10000 4.12 250 13:21 30.05.2022
1838 Clear 27 1011 50 10000 4.12 250 11:39 30.05.2022
1839 Clear 26 1010 47 10000 4.12 250 09:45 30.05.2022
1840 Clouds 24 1009 57 10000 3.09 260 07:34 30.05.2022
1841 Clear 22 1008 68 10000 3.09 260 05:54 30.05.2022
1842 Clear 21 1007 68 10000 1.03 0 03:22 30.05.2022
1843 Clear 25 1008 60 10000 2.06 170 23:58 29.05.2022
1844 Rain 25 1007 64 10000 5.66 110 22:40 29.05.2022
1845 Clear 25 1007 53 10000 7.72 120 21:44 29.05.2022
1846 Clouds 27 1006 54 10000 5.14 100 20:21 29.05.2022
1847 Clouds 30 1006 42 10000 5.14 80 19:28 29.05.2022
1848 Clouds 31 1007 42 10000 3.6 30 17:56 29.05.2022
1849 Clear 33 1007 43 10000 4.63 40 16:20 29.05.2022
1850 Clear 34 1007 43 10000 5.14 40 15:41 29.05.2022
1851 Clear 33 1008 40 10000 4.12 60 14:49 29.05.2022
1852 Clear 32 1010 43 10000 5.66 20 12:21 29.05.2022
1853 Clear 29 1010 48 10000 5.14 50 11:19 29.05.2022
1854 Clear 29 1011 48 10000 2.57 20 09:54 29.05.2022
1855 Clear 26 1010 50 10000 2.06 50 07:55 29.05.2022
1856 Clear 20 1009 68 10000 0 0 04:58 29.05.2022
1857 Clear 21 1009 64 10000 1.03 90 04:33 29.05.2022
1858 Clear 21 1010 68 10000 1.03 290 01:23 29.05.2022
1859 Clear 24 1010 57 10000 1.54 90 23:47 28.05.2022
1860 Clear 25 1010 50 10000 2.06 110 23:19 28.05.2022
1861 Clear 26 1010 47 10000 2.57 80 21:52 28.05.2022
1862 Clear 26 1010 47 10000 3.09 90 20:46 28.05.2022
1863 Clear 27 1010 47 10000 2.57 100 19:20 28.05.2022
1864 Clear 28 1010 42 10000 1.03 260 18:23 28.05.2022
1865 Clear 29 1010 39 10000 1.54 0 17:32 28.05.2022
1866 Clear 29 1010 39 10000 2.06 210 15:49 28.05.2022
1867 Clear 28 1011 47 10000 2.57 210 15:20 28.05.2022
1868 Clear 28 1012 39 10000 2.06 210 13:36 28.05.2022
1869 Clear 27 1012 44 10000 2.06 220 12:42 28.05.2022
1870 Clear 26 1013 57 10000 2.06 190 11:37 28.05.2022
1871 Clear 25 1013 57 10000 2.06 170 10:39 28.05.2022
1872 Clear 26 1012 57 10000 2.06 160 09:54 28.05.2022
1873 Clear 24 1013 60 10000 2.06 150 08:24 28.05.2022
1874 Clear 20 1012 77 10000 0 0 06:34 28.05.2022
1875 Clear 19 1012 73 10000 2.06 70 04:46 28.05.2022
1876 Clear 18 1013 82 10000 1.03 0 02:26 28.05.2022
1877 Clear 20 1015 77 10000 2.06 360 23:57 27.05.2022
1878 Clear 20 1015 77 10000 1.54 10 22:38 27.05.2022
1879 Clear 22 1015 68 10000 2.06 30 21:28 27.05.2022
1880 Clear 23 1015 60 10000 2.57 50 20:44 27.05.2022
1881 Clear 23 1015 64 10000 3.09 30 20:19 27.05.2022
1882 Clear 23 1015 64 10000 3.09 20 19:38 27.05.2022
1883 Clear 24 1015 60 10000 3.6 350 19:19 27.05.2022
1884 Clear 29 1016 42 10000 3.6 60 17:19 27.05.2022
1885 Clear 28 1016 54 10000 3.09 220 15:56 27.05.2022
1886 Clear 26 1017 65 10000 3.6 240 14:53 27.05.2022
1887 Clear 26 1017 65 10000 4.63 220 13:40 27.05.2022
1888 Clear 25 1019 64 10000 3.09 200 11:55 27.05.2022
1889 Clear 24 1019 64 10000 3.09 190 11:30 27.05.2022
1890 Clear 25 1019 65 10000 3.09 200 10:41 27.05.2022
1891 Clear 25 1019 69 10000 3.09 170 09:59 27.05.2022
1892 Clear 27 1019 57 10000 3.09 40 09:29 27.05.2022
1893 Clear 24 1019 64 7000 0 0 07:30 27.05.2022
1894 Clear 19 1018 82 10000 1.54 330 03:59 27.05.2022
1895 Clear 20 1018 83 10000 1.03 10 01:27 27.05.2022
1896 Clouds 24 1018 64 10000 2.57 70 23:23 26.05.2022
1897 Rain 23 1019 68 10000 1.03 0 21:57 26.05.2022
1898 Rain 22 1019 73 10000 0.51 0 21:27 26.05.2022
1899 Clear 24 1018 64 10000 0.51 0 19:34 26.05.2022
1900 Clear 24 1017 69 10000 1.54 170 18:45 26.05.2022
1901 Clear 25 1017 69 10000 2.06 170 17:36 26.05.2022
1902 Clear 25 1017 73 10000 2.57 190 16:18 26.05.2022
1903 Clear 25 1017 64 10000 5.14 240 15:24 26.05.2022
1904 Clear 24 1018 64 10000 4.63 240 14:19 26.05.2022
1905 Clear 24 1018 60 10000 4.12 240 12:18 26.05.2022
1906 Clear 25 1018 60 10000 5.14 250 11:20 26.05.2022
1907 Clear 24 1018 60 10000 4.12 270 09:39 26.05.2022
1908 Clear 22 1017 68 10000 2.06 240 08:48 26.05.2022
1909 Clear 18 1017 77 10000 1.03 0 05:43 26.05.2022
1910 Clear 18 1017 68 10000 1.03 210 02:24 26.05.2022
1911 Clear 19 1018 59 10000 1.03 0 23:57 25.05.2022
1912 Clear 21 1018 49 10000 0.51 0 22:53 25.05.2022
1913 Clear 22 1018 46 10000 2.57 50 21:42 25.05.2022
1914 Clear 23 1017 43 10000 4.63 60 20:49 25.05.2022
1915 Clear 24 1017 41 10000 4.12 50 19:45 25.05.2022
1916 Clear 25 1017 41 10000 4.63 50 18:48 25.05.2022
1917 Clear 25 1017 50 10000 2.06 240 17:24 25.05.2022
1918 Clear 26 1017 50 10000 2.06 230 16:33 25.05.2022
1919 Clear 26 1017 47 10000 2.57 230 15:36 25.05.2022
1920 Clear 26 1017 41 10000 2.57 240 14:50 25.05.2022
1921 Clear 26 1018 47 10000 3.6 240 14:32 25.05.2022
1922 Clear 25 1018 53 10000 2.57 230 13:23 25.05.2022
1923 Clear 18 1018 46 10000 1.72 75 11:50 25.05.2022
1924 Clear 23 1018 53 10000 2.06 230 10:41 25.05.2022
1925 Clear 23 1017 49 10000 1.03 220 09:38 25.05.2022
1926 Clouds 18 1017 50 10000 4.16 71 07:36 25.05.2022
1927 Clear 17 1015 67 10000 3.09 60 05:41 25.05.2022
1928 Clouds 16 1015 66 10000 4.35 61 02:41 25.05.2022
1929 Clouds 19 1014 59 10000 1.54 50 23:50 24.05.2022
1930 Clouds 20 1014 56 10000 2.06 40 22:59 24.05.2022
1931 Clouds 20 1014 56 10000 2.06 40 22:59 24.05.2022
1932 Rain 20 1014 56 10000 2.06 50 21:58 24.05.2022
1933 Clouds 20 1014 56 10000 2.06 50 21:37 24.05.2022
1934 Clear 22 1013 46 10000 3.09 60 21:19 24.05.2022
1935 Clear 23 1012 46 10000 3.09 90 19:27 24.05.2022
1936 Rain 24 1013 43 10000 2.06 110 18:29 24.05.2022
1937 Clear 25 1013 38 10000 1.54 160 16:39 24.05.2022
1938 Clouds 25 1013 38 10000 2.06 180 15:45 24.05.2022
1939 Clear 25 1013 36 10000 3.09 160 14:41 24.05.2022
1940 Clear 24 1013 33 10000 3.6 160 13:47 24.05.2022
1941 Clear 24 1013 43 10000 2.05 95 12:24 24.05.2022
1942 Clear 22 1014 37 10000 3.6 110 09:52 24.05.2022
1943 Clear 20 1013 52 10000 3.09 100 08:52 24.05.2022
1944 Clear 18 1013 63 10000 2.06 120 07:56 24.05.2022
1945 Clear 17 1013 67 10000 2.06 80 06:39 24.05.2022
1946 Clear 16 1012 77 10000 2.57 70 03:41 24.05.2022
1947 Clear 17 1012 72 10000 2.57 60 01:46 24.05.2022
1948 Clouds 17 1012 72 9000 2.57 100 00:34 24.05.2022
1949 Clear 18 1012 68 10000 6.17 40 22:24 23.05.2022
1950 Clear 19 1012 63 10000 5.14 50 21:53 23.05.2022
1951 Clear 19 1011 68 10000 5.14 60 20:49 23.05.2022
1952 Clouds 21 1010 56 10000 4.63 70 19:55 23.05.2022
1953 Clouds 20 1010 60 10000 3.6 110 19:24 23.05.2022
1954 Clouds 21 1010 60 10000 3.6 120 18:41 23.05.2022
1955 Clouds 21 1010 60 10000 3.6 120 18:41 23.05.2022
1956 Clear 22 1009 56 10000 4.63 100 17:56 23.05.2022
1957 Clouds 22 1009 56 10000 2.06 120 16:29 23.05.2022
1958 Clouds 22 1009 60 10000 3.6 40 14:20 23.05.2022
1959 Clouds 22 1009 53 10000 8.23 340 11:57 23.05.2022
1960 Clouds 23 1008 56 10000 4.12 340 10:58 23.05.2022
1961 Clear 22 1008 56 10000 3.09 310 09:48 23.05.2022
1962 Clear 19 1008 82 10000 3.6 250 08:47 23.05.2022
1963 Clear 18 1008 82 10000 2.06 230 07:37 23.05.2022
1964 Clouds 18 1008 82 10000 1.54 220 06:41 23.05.2022
1965 Clouds 16 1008 88 10000 0 0 03:52 23.05.2022
1966 Clouds 18 1008 72 10000 0 0 02:18 23.05.2022
1967 Clouds 17 1008 77 10000 1.54 10 01:33 23.05.2022
1968 Clouds 18 1009 72 10000 0.51 0 23:22 22.05.2022
1969 Clouds 19 1009 68 10000 1.54 80 22:33 22.05.2022
1970 Clouds 20 1009 64 10000 1.54 90 21:53 22.05.2022
1971 Clouds 20 1009 64 10000 1.54 80 20:51 22.05.2022
1972 Clouds 20 1008 64 10000 2.57 80 20:23 22.05.2022
1973 Clouds 20 1008 64 10000 3.09 60 19:42 22.05.2022
1974 Clouds 21 1008 64 10000 3.6 10 18:53 22.05.2022
1975 Clouds 21 1008 64 10000 3.6 360 18:22 22.05.2022
1976 Rain 23 1008 53 10000 5.66 20 17:28 22.05.2022
1977 Clear 25 1008 53 10000 5.14 340 15:59 22.05.2022
1978 Clear 24 1008 57 10000 6.69 340 14:48 22.05.2022
1979 Rain 23 1009 49 10000 5.14 260 13:27 22.05.2022
1980 Clear 22 1009 52 10000 5.66 250 12:50 22.05.2022
1981 Clear 20 1009 63 10000 4.63 260 11:32 22.05.2022
1982 Clear 20 1009 63 10000 4.63 240 09:42 22.05.2022
1983 Clear 18 1009 72 10000 3.6 230 08:31 22.05.2022
1984 Clear 17 1010 77 10000 2.06 230 07:21 22.05.2022
1985 Clear 12 1010 94 10000 0.51 0 05:22 22.05.2022
1986 Mist 13 1011 100 4000 0 0 01:41 22.05.2022
1987 Clear 15 1012 94 6000 1.03 170 00:43 22.05.2022
1988 Clear 16 1013 88 10000 1.03 180 23:52 21.05.2022
1989 Clear 16 1013 88 10000 1.03 0 22:28 21.05.2022
1990 Clear 17 1013 82 10000 1.03 120 21:42 21.05.2022
1991 Clear 17 1013 77 10000 1.03 140 20:51 21.05.2022
1992 Clear 17 1013 72 10000 1.03 0 20:22 21.05.2022
1993 Clear 19 1013 59 10000 2.06 230 19:27 21.05.2022
1994 Clear 20 1014 52 10000 3.6 240 17:48 21.05.2022
1995 Clear 21 1015 56 10000 3.6 250 15:54 21.05.2022
1996 Clear 21 1016 64 10000 3.6 230 14:37 21.05.2022
1997 Clear 21 1017 52 10000 3.09 240 13:42 21.05.2022
1998 Clear 20 1017 63 10000 3.6 250 12:50 21.05.2022
1999 Clear 20 1018 59 10000 3.6 250 12:25 21.05.2022
2000 Clear 20 1018 45 10000 2.06 230 10:24 21.05.2022
2001 Clear 19 1018 42 10000 1.54 230 09:43 21.05.2022
2002 Clear 20 1019 42 10000 0.51 0 08:57 21.05.2022
2003 Clear 18 1019 45 10000 0 0 07:53 21.05.2022
2004 Clear 11 1019 62 10000 2.06 10 03:58 21.05.2022
2005 Clear 16 1021 41 10000 2.06 90 23:54 20.05.2022
2006 Clear 16 1022 39 10000 2.57 60 22:57 20.05.2022
2007 Clear 16 1022 39 10000 3.09 50 22:23 20.05.2022
2008 Clear 17 1022 39 10000 3.6 70 21:43 20.05.2022
2009 Clear 18 1022 36 10000 5.14 60 20:56 20.05.2022
2010 Clear 19 1023 37 10000 4.63 80 19:59 20.05.2022
2011 Clear 20 1023 37 10000 5.14 80 19:26 20.05.2022
2012 Clear 20 1023 34 10000 6.69 70 18:44 20.05.2022
2013 Clear 22 1023 30 10000 8.23 60 16:54 20.05.2022
2014 Clear 23 1023 28 10000 7.72 50 16:19 20.05.2022
2015 Clear 23 1024 28 10000 8.75 50 15:44 20.05.2022
2016 Clear 22 1024 33 10000 7.2 60 14:30 20.05.2022
2017 Clear 22 1025 33 10000 6.17 70 13:55 20.05.2022
2018 Clear 19 1026 39 10000 4.12 120 11:34 20.05.2022
2019 Clear 17 1027 48 10000 3.6 120 09:52 20.05.2022
2020 Clear 16 1027 51 10000 3.6 110 08:44 20.05.2022
2021 Clear 12 1026 67 10000 3.6 50 06:50 20.05.2022
2022 Clear 12 1026 71 10000 3.6 50 06:31 20.05.2022
2023 Clear 9 1026 87 10000 2.06 40 04:31 20.05.2022
2024 Clear 12 1026 71 10000 2.57 70 00:48 20.05.2022
2025 Clear 13 1026 62 10000 3.09 50 22:47 19.05.2022
2026 Clear 13 1026 67 10000 2.57 50 22:19 19.05.2022
2027 Clear 13 1027 67 10000 2.06 60 21:42 19.05.2022
2028 Clear 13 1027 67 10000 3.09 70 21:22 19.05.2022
2029 Clear 14 1026 62 10000 3.6 70 20:32 19.05.2022
2030 Clear 14 1026 58 10000 5.14 70 19:40 19.05.2022
2031 Clear 15 1026 58 10000 6.17 40 18:19 19.05.2022
2032 Clouds 16 1026 55 10000 5.14 20 16:35 19.05.2022
2033 Clouds 17 1026 48 10000 6.17 30 14:52 19.05.2022
2034 Clouds 16 1026 55 10000 6.69 40 14:24 19.05.2022
2035 Clouds 16 1027 51 10000 6.69 20 13:20 19.05.2022
2036 Clouds 16 1027 51 10000 7.72 30 11:25 19.05.2022
2037 Clouds 15 1026 58 10000 6.17 30 09:19 19.05.2022
2038 Clouds 14 1026 67 10000 4.12 60 07:48 19.05.2022
2039 Clouds 10 1024 87 10000 1.54 90 05:32 19.05.2022
2040 Clouds 11 1024 76 10000 2.06 70 01:59 19.05.2022
2041 Clouds 11 1024 82 10000 3.6 80 23:55 18.05.2022
2042 Clouds 11 1023 87 10000 5.14 80 22:47 18.05.2022
2043 Clouds 11 1023 87 8000 7.2 70 21:47 18.05.2022
2044 Rain 11 1023 87 8000 5.66 70 21:26 18.05.2022
2045 Rain 11 1022 87 7000 7.2 60 20:41 18.05.2022
2046 Thunderstorm 11 1019 93 2500 11.83 30 20:18 18.05.2022
2047 Thunderstorm 11 1019 93 2500 11.83 30 18:28 18.05.2022
2048 Clouds 12 1018 94 4500 12.35 30 17:41 18.05.2022
2049 Rain 13 1017 82 10000 11.32 20 17:23 18.05.2022
2050 Rain 14 1017 88 10000 11.32 20 16:31 18.05.2022
2051 Clouds 15 1016 82 8000 11.32 10 15:40 18.05.2022
2052 Clouds 20 1015 73 10000 8.75 20 14:35 18.05.2022
2053 Clouds 23 1014 64 10000 6.69 20 13:22 18.05.2022
2054 Clouds 22 1014 64 10000 6.69 20 12:42 18.05.2022
2055 Clouds 24 1013 57 10000 2.57 250 11:34 18.05.2022
2056 Clear 22 1013 53 10000 4.12 240 10:56 18.05.2022
2057 Clear 21 1013 56 10000 3.09 250 09:24 18.05.2022
2058 Clear 19 1012 63 10000 3.09 230 07:32 18.05.2022
2059 Clear 16 1011 77 10000 1.03 180 05:34 18.05.2022
2060 Clear 17 1013 82 10000 0.51 0 00:52 18.05.2022
2061 Clear 17 1013 82 10000 1.03 100 00:21 18.05.2022
2062 Clear 19 1014 72 10000 1.03 0 21:39 17.05.2022
2063 Clear 19 1014 72 10000 2.06 140 21:19 17.05.2022
2064 Clear 21 1014 40 10000 1.03 270 19:52 17.05.2022
2065 Clear 23 1014 35 10000 1.03 260 19:27 17.05.2022
2066 Clear 25 1015 31 10000 3.6 260 17:50 17.05.2022
2067 Clear 25 1015 33 10000 4.12 250 16:58 17.05.2022
2068 Clear 25 1015 33 10000 3.6 250 16:29 17.05.2022
2069 Clear 25 1016 31 10000 3.09 240 15:24 17.05.2022
2070 Clouds 24 1017 41 10000 3.6 260 14:30 17.05.2022
2071 Clouds 24 1017 41 10000 3.6 260 14:30 17.05.2022
2072 Clouds 24 1017 41 10000 3.6 260 14:30 17.05.2022
2073 Clouds 24 1017 41 10000 3.6 260 14:30 17.05.2022
2074 Clouds 24 1017 41 10000 3.6 260 14:30 17.05.2022
2075 Clear 23 1017 49 10000 3.09 250 13:32 17.05.2022
2076 Clear 22 1018 53 10000 2.57 220 11:21 17.05.2022
2077 Clear 20 1018 59 10000 3.09 160 09:23 17.05.2022
2078 Clear 19 1018 59 10000 2.06 120 08:23 17.05.2022
2079 Clear 17 1018 68 10000 0 0 06:45 17.05.2022
2080 Clear 16 1017 63 10000 2.57 350 02:55 17.05.2022
2081 Clear 20 1018 49 10000 2.57 60 00:32 17.05.2022
2082 Clear 20 1018 45 10000 2.57 50 22:42 16.05.2022
2083 Clear 21 1018 43 10000 2.06 90 21:37 16.05.2022
2084 Clear 21 1018 46 10000 4.63 70 20:46 16.05.2022
2085 Clear 23 1017 46 10000 4.63 50 19:22 16.05.2022
2086 Clear 24 1017 43 10000 0.51 0 18:18 16.05.2022
2087 Clear 24 1017 49 10000 2.57 240 15:49 16.05.2022
2088 Clear 22 1019 60 10000 4.12 240 13:49 16.05.2022
2089 Clear 22 1019 60 10000 4.63 250 13:20 16.05.2022
2090 Clear 21 1020 64 10000 2.06 160 10:53 16.05.2022
2091 Clear 20 1020 64 10000 1.54 110 09:23 16.05.2022
2092 Clear 17 1019 82 10000 1.54 50 06:34 16.05.2022
2093 Clear 17 1018 77 10000 1.54 40 03:31 16.05.2022
2094 Clear 17 1018 77 10000 2.57 20 23:26 15.05.2022
2095 Clear 17 1018 72 10000 2.57 30 22:29 15.05.2022
2096 Clear 19 1018 63 10000 3.09 40 21:44 15.05.2022
2097 Clear 20 1018 60 10000 3.09 30 20:54 15.05.2022
2098 Clear 21 1017 60 10000 4.12 30 19:28 15.05.2022
2099 Clear 22 1016 53 10000 4.63 20 17:51 15.05.2022
2100 Clear 23 1016 56 10000 6.17 330 15:59 15.05.2022
2101 Clear 21 1016 73 10000 3.6 230 13:54 15.05.2022
2102 Clear 21 1017 68 10000 4.63 220 12:26 15.05.2022
2103 Clear 20 1017 73 10000 4.12 220 11:38 15.05.2022
2104 Clear 20 1017 73 10000 4.63 190 10:25 15.05.2022
2105 Clouds 19 1016 72 10000 4.12 30 08:32 15.05.2022
2106 Rain 17 1016 77 10000 3.09 10 06:58 15.05.2022
2107 Clear 15 1014 88 10000 0 0 05:33 15.05.2022
2108 Clear 16 1015 67 10000 0 0 00:49 15.05.2022
2109 Clear 17 1015 59 10000 0 0 23:38 14.05.2022
2110 Clear 17 1015 63 10000 0.51 0 22:47 14.05.2022
2111 Clear 17 1015 72 10000 0.51 0 21:29 14.05.2022
2112 Clear 18 1014 77 10000 1.03 130 20:51 14.05.2022
2113 Clear 20 1014 64 10000 1.03 0 19:37 14.05.2022
2114 Clear 20 1014 64 10000 1.03 0 19:19 14.05.2022
2115 Clear 22 1014 49 10000 2.06 200 17:56 14.05.2022
2116 Clear 23 1014 40 10000 3.09 240 16:37 14.05.2022
2117 Clear 22 1015 49 10000 4.12 230 15:23 14.05.2022
2118 Clear 21 1015 64 10000 5.14 220 14:33 14.05.2022
2119 Clear 21 1016 60 10000 4.12 240 12:23 14.05.2022
2120 Clear 21 1016 56 10000 4.12 240 10:54 14.05.2022
2121 Clear 20 1016 64 10000 4.12 250 10:20 14.05.2022
2122 Clear 20 1016 68 10000 3.09 230 09:53 14.05.2022
2123 Clear 20 1015 64 10000 3.09 260 08:49 14.05.2022
2124 Clear 17 1014 72 10000 3.09 250 05:47 14.05.2022
2125 Clear 15 1015 82 10000 0.51 0 02:32 14.05.2022
2126 Clear 18 1015 48 10000 1.03 340 23:36 13.05.2022
2127 Clear 17 1015 55 10000 1.03 50 22:58 13.05.2022
2128 Clear 18 1016 52 10000 1.03 0 22:25 13.05.2022
2129 Clear 19 1016 48 10000 2.06 40 21:39 13.05.2022
2130 Clear 22 1016 37 10000 2.06 70 20:45 13.05.2022
2131 Clear 23 1015 35 10000 3.09 70 20:24 13.05.2022
2132 Clear 22 1015 37 10000 0.51 110 19:28 13.05.2022
2133 Clear 22 1016 37 10000 2.57 270 17:50 13.05.2022
2134 Clear 25 1016 33 10000 2.06 240 17:27 13.05.2022
2135 Clear 24 1016 33 10000 3.09 240 16:18 13.05.2022
2136 Clear 25 1017 33 10000 2.57 240 15:20 13.05.2022
2137 Clear 24 1018 33 10000 5.14 260 13:41 13.05.2022
2138 Clear 24 1018 31 10000 3.09 150 12:25 13.05.2022
2139 Clear 21 1019 40 10000 2.06 150 10:53 13.05.2022
2140 Clear 21 1020 42 10000 2.57 140 09:34 13.05.2022
2141 Clear 19 1020 48 10000 2.06 110 08:24 13.05.2022
2142 Clear 18 1020 52 10000 2.57 120 07:42 13.05.2022
2143 Clear 13 1019 82 10000 0.51 0 05:59 13.05.2022
2144 Clear 14 1020 72 10000 0 0 02:48 13.05.2022
2145 Clear 19 1020 45 10000 2.57 70 23:56 12.05.2022
2146 Clear 18 1020 52 10000 2.06 90 22:44 12.05.2022
2147 Clear 18 1021 59 10000 0.51 0 21:54 12.05.2022
2148 Clear 20 1020 52 10000 1.54 0 20:27 12.05.2022
2149 Clear 25 1020 29 10000 1.54 0 18:50 12.05.2022
2150 Clear 23 1020 33 10000 2.57 250 16:58 12.05.2022
2151 Clear 23 1021 33 10000 3.09 250 15:50 12.05.2022
2152 Clear 22 1021 33 10000 3.09 260 14:39 12.05.2022
2153 Clear 21 1022 49 10000 3.6 250 13:34 12.05.2022
2154 Clear 19 1023 52 10000 2.06 230 10:43 12.05.2022
2155 Clear 16 1022 59 10000 2.06 150 09:24 12.05.2022
2156 Clear 16 1022 59 10000 2.06 140 08:50 12.05.2022
2157 Clear 15 1022 67 10000 3.09 140 07:38 12.05.2022
2158 Clear 10 1021 71 10000 0 0 05:35 12.05.2022
2159 Clear 11 1021 66 10000 2.57 340 02:49 12.05.2022
2160 Clear 12 1021 62 10000 1.54 360 00:35 12.05.2022
2161 Clear 14 1020 47 10000 1.03 0 22:34 11.05.2022
2162 Clear 17 1020 39 10000 3.09 50 21:38 11.05.2022
2163 Clear 17 1020 36 10000 3.6 60 20:55 11.05.2022
2164 Clear 20 1019 30 10000 5.66 40 18:27 11.05.2022
2165 Clear 21 1019 35 10000 5.14 70 16:51 11.05.2022
2166 Clear 21 1019 35 10000 5.14 70 16:51 11.05.2022
2167 Clear 21 1019 43 10000 2.06 240 14:58 11.05.2022
2168 Clear 21 1019 43 10000 2.06 240 14:38 11.05.2022
2169 Clear 21 1019 46 10000 3.6 250 14:18 11.05.2022
2170 Clear 20 1020 56 10000 2.57 0 11:52 11.05.2022
2171 Clear 18 1020 63 10000 4.63 40 10:32 11.05.2022
2172 Clear 16 1020 72 10000 5.14 40 08:37 11.05.2022
2173 Clear 12 1018 82 10000 3.09 50 05:27 11.05.2022
2174 Clear 13 1018 67 10000 4.12 60 00:42 11.05.2022
2175 Clear 13 1019 67 10000 4.12 60 22:30 10.05.2022
2176 Clear 13 1019 62 10000 4.63 60 21:55 10.05.2022
2177 Clear 14 1019 62 10000 6.17 50 20:56 10.05.2022
2178 Clear 15 1018 55 10000 7.2 50 19:27 10.05.2022
2179 Clear 17 1018 48 10000 8.75 50 17:54 10.05.2022
2180 Clear 18 1019 45 10000 9.26 50 16:56 10.05.2022
2181 Clear 19 1019 45 10000 8.75 50 14:48 10.05.2022
2182 Clear 19 1020 48 10000 8.23 60 12:39 10.05.2022
2183 Clear 18 1020 48 10000 8.23 60 11:50 10.05.2022
2184 Clear 18 1021 48 10000 8.75 40 11:20 10.05.2022
2185 Clear 17 1021 48 10000 7.72 50 10:22 10.05.2022
2186 Clear 16 1021 51 10000 7.2 40 09:25 10.05.2022
2187 Clear 12 1020 82 10000 5.14 60 06:54 10.05.2022
2188 Clear 11 1020 82 10000 4.63 40 03:30 10.05.2022
2189 Clear 12 1021 82 10000 6.17 40 00:38 10.05.2022
2190 Clear 12 1021 76 10000 5.66 40 22:52 09.05.2022
2191 Clear 13 1021 67 10000 7.2 40 21:50 09.05.2022
2192 Clear 13 1021 67 10000 5.66 60 20:52 09.05.2022
2193 Clear 15 1021 55 10000 7.2 40 18:43 09.05.2022
2194 Clear 16 1021 48 10000 8.23 40 17:44 09.05.2022
2195 Clear 17 1021 45 10000 8.75 40 16:33 09.05.2022
2196 Clear 17 1021 45 10000 10.8 50 15:52 09.05.2022
2197 Clear 18 1021 45 10000 11.83 50 15:21 09.05.2022
2198 Clear 18 1021 48 10000 11.32 50 14:29 09.05.2022
2199 Clear 18 1021 48 10000 10.29 40 13:40 09.05.2022
2200 Clear 18 1021 55 10000 7.72 40 12:21 09.05.2022
2201 Clear 17 1021 55 10000 6.17 40 11:18 09.05.2022
2202 Clear 17 1021 51 10000 6.69 40 10:42 09.05.2022
2203 Clouds 14 1021 67 10000 6.17 70 08:36 09.05.2022
2204 Clouds 13 1021 71 10000 6.69 80 07:53 09.05.2022
2205 Clear 11 1020 76 10000 7.72 40 03:19 09.05.2022
2206 Clear 12 1021 71 10000 6.17 70 23:34 08.05.2022
2207 Clear 12 1021 71 10000 5.66 70 22:52 08.05.2022
2208 Clear 13 1021 67 10000 5.66 70 21:55 08.05.2022
2209 Clear 13 1021 67 10000 5.66 70 21:55 08.05.2022
2210 Clear 14 1021 62 10000 7.2 70 20:35 08.05.2022
2211 Clear 14 1020 62 10000 7.2 60 19:44 08.05.2022
2212 Clear 15 1020 63 10000 8.23 60 18:54 08.05.2022
2213 Clear 16 1020 63 10000 9.26 60 17:59 08.05.2022
2214 Clear 17 1020 55 10000 8.23 50 16:43 08.05.2022
2215 Clear 19 1021 52 10000 8.75 60 15:31 08.05.2022
2216 Clear 19 1021 52 10000 8.23 60 14:44 08.05.2022
2217 Clear 18 1022 55 10000 6.69 30 12:25 08.05.2022
2218 Clear 17 1022 59 10000 4.63 50 10:31 08.05.2022
2219 Clear 16 1022 63 10000 5.14 60 09:57 08.05.2022
2220 Clear 16 1022 63 10000 5.14 60 09:56 08.05.2022
2221 Clear 15 1022 67 10000 5.14 60 08:55 08.05.2022
2222 Clear 11 1022 82 10000 4.63 50 06:57 08.05.2022
2223 Clear 11 1022 87 10000 4.12 50 03:35 08.05.2022
2224 Clear 11 1022 87 10000 3.6 60 02:41 08.05.2022
2225 Clear 12 1022 82 10000 3.6 70 00:21 08.05.2022
2226 Clear 12 1022 82 10000 4.63 70 23:47 07.05.2022
2227 Clear 12 1022 82 10000 5.14 70 22:46 07.05.2022
2228 Clear 13 1022 76 10000 5.66 70 21:57 07.05.2022
2229 Clear 13 1022 76 10000 5.66 70 21:33 07.05.2022
2230 Clear 13 1022 76 10000 7.2 40 20:28 07.05.2022
2231 Clear 14 1021 67 10000 6.17 30 19:22 07.05.2022
2232 Clear 17 1021 51 10000 7.72 30 17:33 07.05.2022
2233 Clear 18 1021 48 10000 7.2 40 15:41 07.05.2022
2234 Clear 18 1022 48 10000 4.63 60 12:50 07.05.2022
2235 Clouds 15 1022 63 10000 5.66 80 10:33 07.05.2022
2236 Clouds 14 1022 72 10000 4.12 110 08:52 07.05.2022
2237 Clouds 12 1022 82 10000 4.12 70 07:43 07.05.2022
2238 Clouds 12 1022 82 8000 3.09 80 06:43 07.05.2022
2239 Clouds 11 1022 87 10000 5.14 30 04:24 07.05.2022
2240 Clouds 12 1022 87 10000 4.63 50 00:56 07.05.2022
2241 Clouds 13 1022 82 10000 4.63 50 23:28 06.05.2022
2242 Clouds 13 1023 82 10000 3.6 50 22:21 06.05.2022
2243 Clouds 14 1023 77 10000 4.12 70 21:36 06.05.2022
2244 Clouds 14 1022 77 10000 4.12 60 20:20 06.05.2022
2245 Clouds 15 1022 72 10000 5.14 50 19:28 06.05.2022
2246 Clouds 15 1022 72 10000 6.69 60 18:49 06.05.2022
2247 Clouds 17 1022 59 10000 8.23 50 17:38 06.05.2022
2248 Clouds 17 1022 63 10000 8.75 50 15:56 06.05.2022
2249 Clouds 18 1022 55 10000 8.75 40 15:33 06.05.2022
2250 Clouds 19 1022 59 10000 7.2 30 14:22 06.05.2022
2251 Clouds 18 1023 55 10000 5.66 30 12:52 06.05.2022
2252 Clear 18 1023 59 10000 6.17 60 12:20 06.05.2022
2253 Clear 18 1023 52 10000 5.14 10 11:31 06.05.2022
2254 Clear 15 1024 67 10000 2.57 0 09:48 06.05.2022
2255 Clear 15 1024 67 10000 2.57 0 09:48 06.05.2022
2256 Clear 15 1024 63 10000 4.12 200 09:19 06.05.2022
2257 Clear 14 1023 58 10000 3.09 30 07:56 06.05.2022
2258 Clear 11 1023 71 10000 3.6 20 06:28 06.05.2022
2259 Clouds 9 1023 93 10000 2.57 350 04:29 06.05.2022
2260 Clouds 10 1022 93 10000 1.54 20 02:38 06.05.2022
2261 Clear 12 1023 82 10000 3.09 50 23:25 05.05.2022
2262 Clear 12 1023 82 10000 4.63 30 21:51 05.05.2022
2263 Clear 12 1022 82 10000 5.14 20 20:37 05.05.2022
2264 Clear 14 1022 62 10000 5.14 360 19:20 05.05.2022
2265 Clear 18 1021 45 10000 5.66 20 16:51 05.05.2022
2266 Clear 18 1021 45 10000 5.14 360 15:48 05.05.2022
2267 Clear 15 1021 77 10000 4.12 240 14:34 05.05.2022
2268 Clouds 15 1021 77 10000 5.14 240 13:18 05.05.2022
2269 Clouds 14 1021 72 10000 5.14 240 11:46 05.05.2022
2270 Clear 14 1021 82 10000 4.12 230 10:28 05.05.2022
2271 Clouds 13 1021 82 10000 3.09 220 09:32 05.05.2022
2272 Clouds 10 1020 93 10000 0.51 120 06:49 05.05.2022
2273 Clear 7 1019 93 10000 1.03 360 02:28 05.05.2022
2274 Clear 8 1019 93 10000 0.51 0 01:45 05.05.2022
2275 Clear 8 1019 93 10000 1.54 330 01:19 05.05.2022
2276 Clear 9 1019 93 10000 1.03 0 23:27 04.05.2022
2277 Clear 10 1019 87 10000 1.54 10 22:23 04.05.2022
2278 Clear 10 1019 87 10000 2.06 360 21:46 04.05.2022
2279 Clear 11 1019 87 10000 2.57 360 21:18 04.05.2022
2280 Clear 12 1018 71 10000 3.09 10 20:20 04.05.2022
2281 Clear 12 1018 66 10000 2.57 10 19:44 04.05.2022
2282 Clear 14 1017 62 10000 5.14 20 18:44 04.05.2022
2283 Clouds 14 1017 62 10000 4.63 20 18:20 04.05.2022
2284 Clouds 14 1017 62 10000 5.14 10 17:22 04.05.2022
2285 Clouds 15 1017 58 10000 3.09 10 15:34 04.05.2022
2286 Clouds 15 1017 58 10000 3.6 10 14:45 04.05.2022
2287 Clouds 14 1017 62 10000 4.12 360 14:19 04.05.2022
2288 Clouds 13 1017 67 10000 4.12 20 12:58 04.05.2022
2289 Clouds 13 1018 71 10000 3.6 40 11:59 04.05.2022
2290 Clouds 12 1017 76 10000 5.14 10 10:28 04.05.2022
2291 Clouds 13 1017 71 10000 3.09 10 09:22 04.05.2022
2292 Clouds 11 1017 87 10000 2.57 360 08:26 04.05.2022
2293 Clouds 10 1016 93 10000 5.14 10 05:42 04.05.2022
2294 Clouds 10 1015 87 10000 3.6 360 02:42 04.05.2022
2295 Clouds 11 1015 87 10000 2.06 20 23:23 03.05.2022
2296 Clouds 11 1015 87 10000 3.09 360 21:59 03.05.2022
2297 Clouds 11 1015 87 10000 3.09 10 21:32 03.05.2022
2298 Clouds 11 1014 87 10000 4.63 20 20:52 03.05.2022
2299 Clouds 11 1014 87 10000 4.12 360 19:36 03.05.2022
2300 Clouds 12 1014 82 10000 3.6 20 18:47 03.05.2022
2301 Clouds 12 1013 87 10000 4.12 20 17:34 03.05.2022
2302 Clouds 13 1013 82 10000 4.12 30 16:20 03.05.2022
2303 Rain 12 1013 87 10000 4.63 50 14:34 03.05.2022
2304 Clouds 12 1013 87 10000 6.17 50 12:46 03.05.2022
2305 Rain 12 1013 82 10000 5.14 40 12:22 03.05.2022
2306 Clouds 12 1012 82 10000 6.17 60 10:50 03.05.2022
2307 Clouds 12 1012 87 10000 6.17 60 08:33 03.05.2022
2308 Rain 12 1012 82 10000 4.63 80 06:46 03.05.2022
2309 Rain 12 1012 82 8000 4.63 80 06:46 03.05.2022
2310 Rain 12 1012 87 7000 5.14 60 03:26 03.05.2022
2311 Rain 13 1012 76 10000 6.17 60 23:32 02.05.2022
2312 Rain 14 1012 67 10000 6.69 50 22:34 02.05.2022
2313 Rain 14 1012 67 10000 8.23 60 21:48 02.05.2022
2314 Rain 14 1012 67 10000 7.72 60 20:48 02.05.2022
2315 Clear 16 1012 59 10000 9.26 60 18:28 02.05.2022
2316 Clear 16 1012 59 10000 9.26 70 17:42 02.05.2022
2317 Clear 16 1011 59 10000 10.29 50 16:47 02.05.2022
2318 Clear 17 1012 55 10000 10.29 50 15:52 02.05.2022
2319 Clear 18 1012 52 10000 10.8 60 14:54 02.05.2022
2320 Clear 18 1013 48 10000 10.8 60 13:45 02.05.2022
2321 Clear 18 1014 55 10000 9.77 50 11:51 02.05.2022
2322 Clear 17 1015 59 10000 9.77 50 10:18 02.05.2022
2323 Clouds 15 1015 67 10000 8.23 50 08:44 02.05.2022
2324 Clouds 13 1016 76 10000 5.66 60 07:23 02.05.2022
2325 Clouds 12 1017 82 10000 5.14 50 00:48 02.05.2022
2326 Clouds 12 1018 82 10000 6.69 40 00:22 02.05.2022
2327 Clouds 12 1018 82 10000 6.69 50 23:43 01.05.2022
2328 Clouds 12 1019 87 10000 5.14 30 21:46 01.05.2022
2329 Clouds 13 1018 82 10000 6.69 50 20:50 01.05.2022
2330 Clouds 14 1018 77 10000 6.17 40 19:40 01.05.2022
2331 Clouds 15 1017 72 10000 6.69 50 18:53 01.05.2022
2332 Clouds 16 1017 67 10000 8.23 60 17:51 01.05.2022
2333 Clear 17 1018 63 10000 8.23 50 16:46 01.05.2022
2334 Clear 17 1018 67 10000 6.17 30 16:23 01.05.2022
2335 Clear 18 1018 63 10000 5.66 20 14:58 01.05.2022
2336 Clouds 18 1019 59 10000 6.17 10 13:23 01.05.2022
2337 Clouds 16 1019 67 10000 5.14 40 10:45 01.05.2022
2338 Clouds 14 1019 82 10000 5.14 20 08:50 01.05.2022
2339 Clouds 12 1019 82 10000 5.66 40 06:51 01.05.2022
2340 Clouds 12 1018 87 10000 4.63 60 02:47 01.05.2022
2341 Clouds 12 1019 87 10000 6.17 40 22:52 30.04.2022
2342 Clouds 12 1019 87 10000 8.23 40 21:34 30.04.2022
2343 Clouds 12 1018 87 10000 8.23 30 20:22 30.04.2022
2344 Clouds 12 1018 87 10000 7.72 20 19:31 30.04.2022
2345 Clouds 12 1018 87 10000 6.17 20 17:37 30.04.2022
2346 Clouds 13 1017 82 10000 8.23 20 16:28 30.04.2022
2347 Clouds 13 1017 82 10000 9.77 10 15:19 30.04.2022
2348 Clouds 13 1018 82 10000 7.2 10 14:30 30.04.2022
2349 Clouds 14 1018 82 10000 6.69 20 12:28 30.04.2022
2350 Clouds 14 1018 77 10000 8.75 20 11:32 30.04.2022
2351 Clouds 13 1018 88 10000 9.26 30 10:30 30.04.2022
2352 Clouds 13 1018 88 10000 7.2 30 08:26 30.04.2022
2353 Clouds 13 1017 82 10000 7.2 50 04:58 30.04.2022
2354 Clouds 13 1018 82 10000 8.23 40 00:34 30.04.2022
2355 Clear 13 1018 82 10000 7.2 30 22:58 29.04.2022
2356 Clear 13 1018 82 10000 7.2 20 22:29 29.04.2022
2357 Clear 14 1018 77 10000 7.2 40 21:26 29.04.2022
2358 Clear 14 1018 77 10000 6.17 30 20:24 29.04.2022
2359 Clear 15 1018 72 10000 5.66 30 19:33 29.04.2022
2360 Clear 18 1017 59 10000 7.72 40 17:38 29.04.2022
2361 Clear 18 1017 63 10000 8.23 40 16:43 29.04.2022
2362 Clear 20 1017 52 10000 10.29 40 14:38 29.04.2022
2363 Clear 19 1018 55 10000 9.26 40 14:38 29.04.2022
2364 Clear 19 1018 55 10000 9.26 40 14:38 29.04.2022
2365 Clear 19 1018 55 10000 8.75 20 13:59 29.04.2022
2366 Clear 19 1018 55 10000 8.75 30 12:41 29.04.2022
2367 Clear 18 1019 59 10000 9.26 50 10:56 29.04.2022
2368 Clouds 14 1019 82 10000 5.14 50 07:58 29.04.2022
2369 Clouds 13 1019 88 10000 5.14 40 07:26 29.04.2022
2370 Clouds 13 1018 82 8000 4.12 40 06:33 29.04.2022
2371 Clear 12 1017 87 10000 5.66 40 03:23 29.04.2022
2372 Clear 13 1018 82 10000 6.17 50 00:18 29.04.2022
2373 Clear 13 1018 82 10000 6.17 50 23:26 28.04.2022
2374 Clear 13 1018 82 10000 6.69 50 22:37 28.04.2022
2375 Clear 14 1018 77 10000 5.14 50 21:44 28.04.2022
2376 Clear 14 1017 77 10000 5.14 60 20:49 28.04.2022
2377 Clear 15 1017 72 10000 6.69 30 19:57 28.04.2022
2378 Clear 15 1017 72 10000 6.69 30 19:38 28.04.2022
2379 Clear 16 1016 67 10000 6.69 30 19:19 28.04.2022
2380 Clear 19 1015 52 10000 7.2 40 17:55 28.04.2022
2381 Clear 20 1015 49 10000 9.77 60 16:58 28.04.2022
2382 Clear 20 1015 49 10000 9.77 40 16:21 28.04.2022
2383 Clear 21 1015 46 10000 8.23 40 15:52 28.04.2022
2384 Clear 21 1015 43 10000 7.2 50 15:18 28.04.2022
2385 Clear 21 1015 52 10000 5.14 60 13:42 28.04.2022
2386 Clear 17 1015 77 10000 3.09 220 12:32 28.04.2022
2387 Clear 20 1016 60 10000 3.6 10 11:38 28.04.2022
2388 Clear 18 1015 63 10000 4.12 20 10:27 28.04.2022
2389 Clear 17 1015 67 10000 4.12 10 09:50 28.04.2022
2390 Clouds 14 1015 82 10000 5.14 20 07:43 28.04.2022
2391 Clouds 13 1015 88 10000 4.12 30 06:53 28.04.2022
2392 Clouds 12 1015 87 8000 4.12 20 05:53 28.04.2022
2393 Clear 11 1015 93 8000 4.63 10 04:43 28.04.2022
2394 Clear 12 1015 87 10000 5.66 20 02:45 28.04.2022
2395 Clear 13 1016 82 10000 5.14 10 23:36 27.04.2022
2396 Clear 14 1016 77 10000 4.12 40 22:22 27.04.2022
2397 Clear 14 1016 77 10000 5.14 50 21:46 27.04.2022
2398 Clear 15 1016 72 10000 5.14 40 20:47 27.04.2022
2399 Clear 14 1016 77 10000 7.72 20 20:29 27.04.2022
2400 Clear 15 1015 63 10000 6.69 20 19:36 27.04.2022
2401 Clear 18 1015 55 10000 5.66 30 18:42 27.04.2022
2402 Clear 18 1015 55 10000 5.66 30 18:21 27.04.2022
2403 Clear 22 1015 43 10000 8.23 60 16:20 27.04.2022
2404 Clear 23 1015 38 10000 7.2 60 13:21 27.04.2022
2405 Clear 21 1016 37 10000 7.2 40 11:26 27.04.2022
2406 Clear 21 1016 35 10000 6.69 60 10:50 27.04.2022
2407 Clear 17 1015 55 10000 5.66 50 08:31 27.04.2022
2408 Clear 14 1015 72 10000 4.12 30 06:42 27.04.2022
2409 Clear 13 1014 82 10000 5.14 10 02:40 27.04.2022
2410 Clear 13 1013 82 10000 4.12 360 01:24 27.04.2022
2411 Clear 13 1014 82 10000 3.6 10 00:34 27.04.2022
2412 Clear 14 1014 72 10000 3.6 20 23:24 26.04.2022
2413 Clear 15 1014 67 10000 4.12 20 22:51 26.04.2022
2414 Clear 17 1014 59 10000 5.14 20 22:31 26.04.2022
2415 Clear 17 1013 63 10000 4.63 40 21:25 26.04.2022
2416 Clear 17 1013 67 10000 4.12 40 20:39 26.04.2022
2417 Clear 18 1012 59 10000 5.66 30 19:45 26.04.2022
2418 Clear 19 1012 59 10000 5.66 30 19:26 26.04.2022
2419 Clear 19 1012 59 10000 5.66 40 18:39 26.04.2022
2420 Clear 21 1012 56 10000 5.66 30 17:42 26.04.2022
2421 Clear 22 1012 53 10000 5.14 360 15:59 26.04.2022
2422 Clear 23 1013 53 10000 4.12 10 13:55 26.04.2022
2423 Clear 23 1013 49 10000 4.12 360 13:28 26.04.2022
2424 Clear 21 1013 56 10000 3.09 150 11:24 26.04.2022
2425 Clear 21 1012 60 10000 1.54 190 10:30 26.04.2022
2426 Clear 19 1012 59 10000 1.03 0 08:34 26.04.2022
2427 Clear 13 1011 82 10000 0.51 350 04:59 26.04.2022
2428 Clear 13 1011 82 10000 1.03 50 04:22 26.04.2022
2429 Clear 15 1011 77 10000 1.54 80 00:51 26.04.2022
2430 Clear 15 1011 72 10000 0 0 23:50 25.04.2022
2431 Clear 15 1010 72 10000 1.03 160 21:53 25.04.2022
2432 Clear 15 1010 77 10000 1.03 160 21:26 25.04.2022
2433 Clear 16 1009 77 10000 1.54 180 19:53 25.04.2022
2434 Clear 18 1009 72 10000 1.54 190 18:34 25.04.2022
2435 Clear 19 1008 72 10000 2.06 180 17:40 25.04.2022
2436 Clear 20 1008 64 10000 3.6 220 16:42 25.04.2022
2437 Clear 21 1009 46 10000 3.6 250 15:22 25.04.2022
2438 Clear 19 1009 55 10000 4.12 250 14:32 25.04.2022
2439 Clear 18 1009 68 10000 2.57 240 12:47 25.04.2022
2440 Clear 17 1010 77 10000 2.06 210 10:44 25.04.2022
2441 Clear 17 1010 77 10000 1.03 0 09:41 25.04.2022
2442 Clear 15 1009 72 10000 2.06 340 07:38 25.04.2022
2443 Clear 11 1009 82 10000 1.03 0 05:54 25.04.2022
2444 Clear 14 1009 67 10000 1.54 340 01:28 25.04.2022
2445 Clear 18 1010 55 10000 3.09 50 23:54 24.04.2022
2446 Clear 18 1010 55 10000 3.09 50 23:24 24.04.2022
2447 Clear 19 1010 52 10000 3.09 70 22:39 24.04.2022
2448 Clear 19 1010 52 10000 5.14 70 21:55 24.04.2022
2449 Clear 20 1010 49 10000 5.14 70 21:21 24.04.2022
2450 Clear 20 1010 49 10000 5.14 70 20:44 24.04.2022
2451 Clear 20 1010 49 10000 6.17 60 20:20 24.04.2022
2452 Clear 22 1010 40 10000 6.69 60 18:38 24.04.2022
2453 Clear 23 1010 40 10000 7.2 50 17:42 24.04.2022
2454 Clear 24 1010 38 10000 7.2 50 17:20 24.04.2022
2455 Clear 24 1010 38 10000 7.72 40 16:51 24.04.2022
2456 Clear 25 1010 36 10000 6.69 40 16:23 24.04.2022
2457 Clear 25 1010 38 10000 6.17 40 15:39 24.04.2022
2458 Clear 25 1011 36 10000 5.66 50 14:31 24.04.2022
2459 Clear 23 1011 56 10000 2.57 250 13:26 24.04.2022
2460 Clear 22 1011 56 10000 2.06 230 12:46 24.04.2022
2461 Clear 21 1012 60 10000 2.06 230 11:46 24.04.2022
2462 Clear 20 1012 63 10000 1.03 0 10:37 24.04.2022
2463 Clear 19 1012 63 10000 1.54 170 10:37 24.04.2022
2464 Clear 19 1012 63 10000 1.54 210 09:42 24.04.2022
2465 Clouds 17 1012 67 10000 0.51 0 07:41 24.04.2022
2466 Clear 12 1011 82 10000 1.03 80 05:32 24.04.2022
2467 Clear 13 1010 76 10000 0 0 01:51 24.04.2022
2468 Clear 13 1010 76 10000 0 0 00:38 24.04.2022
2469 Clear 15 1010 72 10000 0 0 23:46 23.04.2022
2470 Clear 15 1010 72 10000 1.03 180 23:25 23.04.2022
2471 Clear 16 1010 63 10000 0.51 0 21:56 23.04.2022
2472 Clear 16 1009 67 10000 1.03 0 21:36 23.04.2022
2473 Clear 16 1009 72 10000 3.09 260 20:58 23.04.2022
2474 Clear 16 1008 67 10000 3.09 220 19:54 23.04.2022
2475 Clear 17 1008 72 10000 2.06 0 19:19 23.04.2022
2476 Clear 18 1008 59 10000 2.57 220 18:53 23.04.2022
2477 Clear 19 1007 52 10000 4.12 260 18:28 23.04.2022
2478 Clear 20 1007 49 10000 5.14 270 17:43 23.04.2022
2479 Clear 22 1008 46 10000 3.09 260 16:43 23.04.2022
2480 Clear 22 1007 46 10000 4.63 280 15:32 23.04.2022
2481 Clear 21 1009 52 10000 3.09 220 12:50 23.04.2022
2482 Clear 20 1009 60 10000 2.06 220 10:50 23.04.2022
2483 Clear 19 1009 59 10000 1.54 250 09:38 23.04.2022
2484 Clear 17 1008 72 10000 1.03 110 07:38 23.04.2022
2485 Clear 15 1008 77 10000 1.03 0 03:54 23.04.2022
2486 Clear 16 1009 77 10000 3.6 280 01:32 23.04.2022
2487 Rain 17 1010 67 10000 2.06 80 23:32 22.04.2022
2488 Clear 16 1011 72 10000 2.57 70 22:22 22.04.2022
2489 Clear 16 1011 72 10000 1.54 50 21:44 22.04.2022
2490 Clear 19 1011 55 10000 2.57 50 20:54 22.04.2022
2491 Clear 18 1012 63 10000 2.06 30 20:27 22.04.2022
2492 Clear 21 1012 49 10000 3.6 50 19:21 22.04.2022
2493 Clear 21 1012 49 10000 4.12 50 18:45 22.04.2022
2494 Clear 22 1012 43 10000 3.6 90 17:48 22.04.2022
2495 Clear 23 1013 43 10000 3.09 100 16:46 22.04.2022
2496 Clear 22 1014 40 10000 3.6 80 15:44 22.04.2022
2497 Clear 21 1014 40 10000 2.57 100 15:18 22.04.2022
2498 Clear 20 1015 52 10000 2.06 100 13:54 22.04.2022
2499 Clear 18 1016 55 10000 1.03 0 12:58 22.04.2022
2500 Clear 18 1017 52 10000 1.54 150 11:52 22.04.2022
2501 Clear 18 1017 55 10000 2.57 120 11:22 22.04.2022
2502 Clear 17 1017 55 10000 2.57 110 10:50 22.04.2022
2503 Clear 16 1017 63 10000 2.57 110 10:30 22.04.2022
2504 Clear 16 1017 67 10000 2.06 110 09:50 22.04.2022
2505 Clear 14 1017 72 10000 1.03 0 08:50 22.04.2022
2506 Clear 12 1017 82 10000 0.51 80 07:21 22.04.2022
2507 Clear 11 1017 87 10000 2.06 110 03:47 22.04.2022
2508 Clear 11 1017 76 10000 0 0 00:52 22.04.2022
2509 Clear 11 1017 71 10000 1.03 0 23:25 21.04.2022
2510 Clear 11 1018 66 10000 1.03 80 22:29 21.04.2022
2511 Clear 11 1018 66 10000 0 0 20:43 21.04.2022
2512 Clear 11 1018 66 10000 0 0 20:24 21.04.2022
2513 Clear 12 1017 62 10000 1.54 170 18:44 21.04.2022
2514 Clear 13 1017 62 10000 1.54 170 18:18 21.04.2022
2515 Clear 13 1017 62 10000 2.06 160 16:44 21.04.2022
2516 Clear 14 1018 58 10000 2.06 140 15:22 21.04.2022
2517 Clear 13 1018 67 10000 1.54 160 14:49 21.04.2022
2518 Clouds 13 1018 67 10000 3.09 140 13:23 21.04.2022
2519 Clouds 12 1018 66 10000 3.09 150 12:59 21.04.2022
2520 Clouds 11 1018 71 10000 4.12 130 10:57 21.04.2022
2521 Clouds 10 1018 81 10000 1.03 0 08:57 21.04.2022
2522 Clouds 9 1018 81 10000 1.03 0 07:32 21.04.2022
2523 Clouds 8 1017 87 10000 1.03 300 05:42 21.04.2022
2524 Clouds 9 1016 81 10000 4.63 310 03:32 21.04.2022
2525 Rain 10 1016 66 10000 5.14 320 02:47 21.04.2022
2526 Clouds 12 1015 66 10000 5.14 300 00:47 21.04.2022
2527 Clouds 11 1014 71 10000 1.03 240 23:51 20.04.2022
2528 Clouds 12 1014 54 10000 0.51 0 23:22 20.04.2022
2529 Clouds 11 1013 62 10000 1.03 160 22:50 20.04.2022
2530 Clouds 10 1013 66 10000 0.51 0 22:31 20.04.2022
2531 Clear 11 1013 62 10000 1.54 330 21:29 20.04.2022
2532 Clear 11 1014 66 10000 1.54 310 20:37 20.04.2022
2533 Clear 11 1014 66 10000 1.03 0 19:53 20.04.2022
2534 Clear 13 1013 66 10000 3.09 150 19:22 20.04.2022
2535 Clear 14 1014 44 10000 1.54 130 18:23 20.04.2022
2536 Clear 16 1014 36 10000 1.54 230 16:56 20.04.2022
2537 Clear 16 1014 36 10000 1.54 230 16:37 20.04.2022
2538 Clear 14 1016 51 10000 2.57 240 14:21 20.04.2022
2539 Clear 12 1017 66 10000 3.6 210 11:52 20.04.2022
2540 Clear 11 1018 66 10000 3.09 180 11:24 20.04.2022
2541 Clear 11 1018 71 10000 3.09 170 10:24 20.04.2022
2542 Clouds 10 1018 76 10000 2.57 180 09:25 20.04.2022
2543 Clouds 10 1018 76 10000 4.12 220 08:22 20.04.2022
2544 Clouds 9 1018 81 10000 3.09 210 07:37 20.04.2022
2545 Clouds 4 1017 93 10000 0 0 03:49 20.04.2022
2546 Clouds 5 1017 93 10000 0 0 00:23 20.04.2022
2547 Clouds 5 1017 93 10000 0 0 23:59 19.04.2022
2548 Clouds 6 1016 87 10000 0.51 0 22:28 19.04.2022
2549 Clouds 7 1016 87 10000 0.51 220 21:57 19.04.2022
2550 Clouds 7 1017 87 10000 0 0 21:33 19.04.2022
2551 Clouds 7 1016 87 10000 0.51 330 20:46 19.04.2022
2552 Clouds 7 1016 87 10000 1.03 320 20:26 19.04.2022
2553 Clouds 7 1015 81 10000 2.06 350 19:19 19.04.2022
2554 Clouds 7 1015 81 10000 2.06 350 19:19 19.04.2022
2555 Clouds 8 1015 76 10000 2.06 30 17:50 19.04.2022
2556 Clouds 8 1014 76 10000 3.09 360 16:43 19.04.2022
2557 Clouds 8 1014 76 10000 3.09 10 16:23 19.04.2022
2558 Clouds 8 1014 81 10000 3.09 10 14:51 19.04.2022
2559 Clouds 8 1014 81 10000 3.6 20 14:27 19.04.2022
2560 Rain 7 1014 87 10000 3.6 10 12:51 19.04.2022
2561 Rain 7 1013 87 8000 4.63 10 12:26 19.04.2022
2562 Clouds 7 1013 87 10000 4.63 10 10:47 19.04.2022
2563 Clouds 7 1012 87 10000 5.14 10 09:22 19.04.2022
2564 Clouds 6 1010 93 10000 6.69 20 05:59 19.04.2022
2565 Clouds 7 1010 87 10000 5.14 10 03:37 19.04.2022
2566 Clouds 7 1011 87 10000 7.72 40 00:56 19.04.2022
2567 Clouds 7 1011 87 10000 6.69 30 23:36 18.04.2022
2568 Clouds 7 1012 87 10000 7.72 30 21:37 18.04.2022
2569 Clouds 7 1012 87 10000 6.69 30 21:18 18.04.2022
2570 Clouds 7 1012 87 10000 7.2 30 20:35 18.04.2022
2571 Clouds 7 1012 87 10000 6.69 30 19:54 18.04.2022
2572 Clouds 7 1011 87 10000 7.72 30 18:58 18.04.2022
2573 Clouds 7 1011 87 10000 7.72 30 18:32 18.04.2022
2574 Clouds 7 1011 87 10000 6.69 20 17:36 18.04.2022
2575 Clouds 8 1011 81 10000 8.75 20 17:18 18.04.2022
2576 Clouds 8 1011 81 10000 7.72 20 16:34 18.04.2022
2577 Clouds 8 1010 81 10000 8.23 10 15:18 18.04.2022
2578 Clouds 7 1010 87 10000 10.29 360 13:42 18.04.2022
2579 Clouds 8 1009 87 10000 9.26 10 12:34 18.04.2022
2580 Clouds 8 1008 87 10000 8.75 10 11:35 18.04.2022
2581 Rain 8 1008 93 10000 7.2 10 10:32 18.04.2022
2582 Rain 8 1007 93 3100 7.72 10 09:31 18.04.2022
2583 Clouds 8 1006 93 6000 7.2 20 08:28 18.04.2022
2584 Clouds 9 1005 93 8000 8.75 30 05:51 18.04.2022
2585 Clouds 10 1006 87 10000 7.2 20 01:34 18.04.2022
2586 Rain 10 1007 87 8000 7.2 30 22:43 17.04.2022
2587 Rain 10 1007 87 4000 9.26 30 21:50 17.04.2022
2588 Rain 10 1007 93 8000 7.72 20 21:27 17.04.2022
2589 Rain 10 1008 93 4000 7.2 30 20:50 17.04.2022
2590 Rain 10 1008 93 7000 7.72 40 19:52 17.04.2022
2591 Rain 10 1009 87 10000 9.26 50 18:24 17.04.2022
2592 Clouds 11 1010 82 10000 9.26 50 16:32 17.04.2022
2593 Clouds 11 1010 82 10000 7.2 40 15:28 17.04.2022
2594 Rain 11 1011 82 10000 9.77 40 14:27 17.04.2022
2595 Rain 12 1011 76 10000 10.29 20 13:20 17.04.2022
2596 Rain 12 1011 76 10000 7.72 10 12:29 17.04.2022
2597 Rain 12 1011 76 10000 8.23 10 10:47 17.04.2022
2598 Rain 12 1012 82 10000 8.23 10 10:28 17.04.2022
2599 Rain 12 1012 82 10000 7.72 10 09:37 17.04.2022
2600 Rain 13 1011 67 10000 6.69 10 08:54 17.04.2022
2601 Rain 13 1011 71 10000 6.69 10 08:26 17.04.2022
2602 Rain 14 1010 54 10000 4.63 360 04:52 17.04.2022
2603 Clear 14 1011 58 10000 2.57 10 01:38 17.04.2022
2604 Clear 12 1012 66 10000 1.03 30 23:57 16.04.2022
2605 Clear 14 1013 62 10000 0 0 22:41 16.04.2022
2606 Clear 15 1013 55 10000 1.54 60 21:41 16.04.2022
2607 Clear 15 1013 72 10000 1.03 10 20:35 16.04.2022
2608 Clear 16 1012 72 10000 1.54 250 19:18 16.04.2022
2609 Clear 19 1012 55 10000 1.54 230 18:32 16.04.2022
2610 Clear 19 1013 42 10000 1.03 0 16:41 16.04.2022
2611 Clear 19 1013 45 10000 2.57 230 15:46 16.04.2022
2612 Clear 18 1013 48 10000 1.54 270 14:57 16.04.2022
2613 Clear 16 1014 67 10000 3.09 230 13:58 16.04.2022
2614 Clear 18 1014 52 10000 2.06 230 13:37 16.04.2022
2615 Clear 16 1014 67 10000 3.09 230 13:37 16.04.2022
2616 Clear 17 1015 59 10000 2.06 220 12:27 16.04.2022
2617 Clear 16 1015 63 10000 1.54 240 11:19 16.04.2022
2618 Clear 15 1016 67 10000 2.57 210 09:57 16.04.2022
2619 Clear 14 1015 67 10000 1.03 0 08:59 16.04.2022
2620 Clear 14 1015 67 10000 1.03 0 08:18 16.04.2022
2621 Clear 10 1015 87 10000 1.54 340 06:59 16.04.2022
2622 Clear 10 1015 81 10000 1.03 110 03:36 16.04.2022
2623 Clear 12 1017 66 10000 2.06 360 00:31 16.04.2022
2624 Clear 12 1018 62 10000 3.09 350 23:23 15.04.2022
2625 Clear 12 1018 62 10000 1.54 40 22:36 15.04.2022
2626 Clear 13 1018 58 10000 2.57 20 21:55 15.04.2022
2627 Clear 16 1018 44 10000 3.09 80 21:18 15.04.2022
2628 Clear 17 1018 45 10000 4.12 50 20:24 15.04.2022
2629 Clear 18 1017 42 10000 4.12 50 19:40 15.04.2022
2630 Clear 18 1017 42 10000 4.12 50 18:54 15.04.2022
2631 Clear 19 1018 39 10000 5.66 40 18:25 15.04.2022
2632 Clear 20 1018 40 10000 4.63 50 17:35 15.04.2022
2633 Clear 21 1018 35 10000 3.6 70 16:53 15.04.2022
2634 Clear 20 1019 45 10000 1.54 230 16:19 15.04.2022
2635 Clear 20 1019 42 10000 1.54 240 15:24 15.04.2022
2636 Clear 17 1020 59 10000 3.6 260 13:42 15.04.2022
2637 Clear 17 1021 51 10000 3.09 240 12:43 15.04.2022
2638 Clear 17 1021 48 10000 2.06 230 11:57 15.04.2022
2639 Clear 17 1022 55 10000 1.03 0 11:35 15.04.2022
2640 Clear 16 1022 63 10000 2.06 160 10:45 15.04.2022
2641 Clear 15 1022 55 10000 2.06 160 09:47 15.04.2022
2642 Clear 14 1022 58 10000 2.57 160 09:21 15.04.2022
2643 Clear 13 1022 54 10000 0.51 0 07:44 15.04.2022
2644 Clear 9 1022 71 10000 1.03 60 06:37 15.04.2022
2645 Clear 9 1022 66 10000 1.54 360 03:21 15.04.2022
2646 Clear 13 1023 47 10000 2.06 110 23:32 14.04.2022
2647 Clear 13 1023 38 10000 2.57 50 22:49 14.04.2022
2648 Clear 13 1023 38 10000 3.09 50 22:31 14.04.2022
2649 Clear 13 1023 35 10000 2.57 80 21:59 14.04.2022
2650 Clear 15 1023 31 10000 3.6 70 20:57 14.04.2022
2651 Clear 16 1022 31 10000 2.57 0 19:23 14.04.2022
2652 Clear 15 1022 41 10000 1.03 0 18:29 14.04.2022
2653 Clear 15 1022 41 10000 1.54 230 17:40 14.04.2022
2654 Clear 15 1022 44 10000 2.57 250 16:46 14.04.2022
2655 Clear 16 1022 36 10000 3.09 250 15:26 14.04.2022
2656 Clouds 15 1023 51 10000 2.57 230 13:47 14.04.2022
2657 Clear 14 1023 58 10000 3.09 220 12:57 14.04.2022
2658 Clear 13 1023 67 10000 3.09 220 12:31 14.04.2022
2659 Clear 13 1023 58 10000 4.12 240 11:29 14.04.2022
2660 Clear 13 1023 58 10000 3.6 240 10:53 14.04.2022
2661 Clear 12 1023 62 10000 2.57 240 10:27 14.04.2022
2662 Clear 12 1023 66 10000 2.57 220 09:24 14.04.2022
2663 Clear 9 1022 81 10000 0.51 0 07:33 14.04.2022
2664 Clear 6 1021 81 10000 1.03 0 04:28 14.04.2022
2665 Clear 8 1022 66 10000 1.03 60 23:29 13.04.2022
2666 Clear 10 1022 62 10000 1.54 110 22:23 13.04.2022
2667 Clear 10 1022 40 10000 1.54 120 21:37 13.04.2022
2668 Clear 11 1021 32 10000 0 0 20:23 13.04.2022
2669 Clear 11 1021 35 10000 1.03 0 19:37 13.04.2022
2670 Clear 12 1021 28 10000 1.03 250 18:36 13.04.2022
2671 Clouds 13 1021 41 10000 2.57 250 17:24 13.04.2022
2672 Clouds 13 1021 47 10000 2.57 240 16:41 13.04.2022
2673 Clouds 12 1021 66 10000 3.09 240 15:43 13.04.2022
2674 Clouds 12 1021 62 10000 4.12 220 14:53 13.04.2022
2675 Clouds 12 1022 71 10000 4.12 220 14:30 13.04.2022
2676 Clouds 12 1022 66 10000 4.12 240 13:29 13.04.2022
2677 Clouds 12 1022 66 10000 4.12 230 12:30 13.04.2022
2678 Clouds 11 1022 71 10000 3.09 230 10:58 13.04.2022
2679 Clear 11 1022 66 10000 2.06 130 09:45 13.04.2022
2680 Clear 10 1021 76 10000 2.06 120 08:43 13.04.2022
2681 Clear 8 1021 87 10000 0 0 07:18 13.04.2022
2682 Clear 6 1021 93 10000 0 0 06:46 13.04.2022
2683 Clear 4 1021 93 10000 0.51 340 06:18 13.04.2022
2684 Clear 9 1021 76 10000 3.09 120 00:24 13.04.2022
2685 Clear 9 1021 71 10000 4.12 130 23:46 12.04.2022
2686 Clouds 9 1021 81 10000 3.09 80 22:19 12.04.2022
2687 Clouds 8 1022 76 10000 2.57 360 21:32 12.04.2022
2688 Clouds 9 1021 66 10000 2.57 350 20:42 12.04.2022
2689 Clouds 9 1021 71 10000 5.14 40 19:54 12.04.2022
2690 Clouds 10 1021 71 10000 6.69 70 19:33 12.04.2022
2691 Rain 11 1020 54 10000 2.06 100 18:50 12.04.2022
2692 Clouds 12 1020 58 10000 2.06 220 17:34 12.04.2022
2693 Clouds 11 1020 62 10000 3.09 220 16:25 12.04.2022
2694 Clouds 11 1020 62 10000 3.6 240 15:33 12.04.2022
2695 Clouds 12 1021 62 10000 4.12 250 14:32 12.04.2022
2696 Clouds 12 1021 58 10000 4.12 240 13:38 12.04.2022
2697 Clouds 11 1022 62 10000 4.12 250 12:53 12.04.2022
2698 Clouds 11 1022 62 10000 5.14 230 11:47 12.04.2022
2699 Clouds 12 1022 58 10000 4.12 220 11:24 12.04.2022
2700 Clear 11 1021 58 10000 3.09 330 09:25 12.04.2022
2701 Clear 10 1021 66 10000 2.06 350 08:18 12.04.2022
2702 Clear 7 1020 76 10000 2.06 270 06:33 12.04.2022
2703 Clear 7 1020 76 10000 2.06 270 05:35 12.04.2022
2704 Clear 9 1020 66 10000 2.57 300 00:59 12.04.2022
2705 Clear 9 1019 66 10000 2.57 300 23:19 11.04.2022
2706 Clear 9 1019 66 10000 3.6 310 21:49 11.04.2022
2707 Clear 9 1019 66 10000 2.57 300 21:18 11.04.2022
2708 Clear 9 1018 71 10000 2.06 290 20:30 11.04.2022
2709 Clear 9 1018 71 10000 3.09 320 19:56 11.04.2022
2710 Clear 9 1017 71 10000 3.09 300 19:21 11.04.2022
2711 Clear 9 1017 71 10000 3.6 350 18:48 11.04.2022
2712 Clouds 9 1016 66 10000 6.17 360 17:57 11.04.2022
2713 Clouds 8 1015 76 10000 7.2 350 16:54 11.04.2022
2714 Clouds 8 1015 81 10000 7.2 340 15:58 11.04.2022
2715 Clouds 7 1014 87 10000 7.72 340 14:33 11.04.2022
2716 Clouds 7 1013 81 10000 8.75 350 12:53 11.04.2022
2717 Clouds 8 1012 81 10000 7.2 360 12:35 11.04.2022
2718 Clouds 7 1012 87 10000 10.29 360 11:37 11.04.2022
2719 Clouds 7 1011 87 10000 9.77 350 10:31 11.04.2022
2720 Clouds 7 1010 87 10000 9.77 360 09:20 11.04.2022
2721 Clouds 7 1007 93 10000 7.72 10 06:44 11.04.2022
2722 Clouds 10 1004 93 10000 6.69 10 02:30 11.04.2022
2723 Clouds 14 1005 76 10000 6.17 350 22:38 10.04.2022
2724 Clouds 15 1005 77 10000 5.66 360 21:55 10.04.2022
2725 Clouds 17 1005 67 10000 6.69 10 21:32 10.04.2022
2726 Clear 18 1004 63 10000 0.51 0 20:31 10.04.2022
2727 Clear 18 1004 63 10000 1.03 0 19:45 10.04.2022
2728 Clear 18 1003 59 10000 1.54 160 19:22 10.04.2022
2729 Clear 19 1003 63 10000 2.06 150 18:42 10.04.2022
2730 Clear 19 1003 55 10000 2.57 240 17:54 10.04.2022
2731 Clear 21 1003 49 10000 1.54 230 17:34 10.04.2022
2732 Clear 22 1003 46 10000 4.63 270 16:22 10.04.2022
2733 Clear 23 1004 46 10000 5.66 270 15:19 10.04.2022
2734 Clear 21 1005 49 10000 3.6 250 14:22 10.04.2022
2735 Clear 18 1006 55 10000 4.12 250 12:34 10.04.2022
2736 Clear 18 1006 55 10000 3.09 260 11:46 10.04.2022
2737 Clear 18 1007 55 10000 2.57 250 11:28 10.04.2022
2738 Clear 18 1007 59 10000 3.6 250 10:48 10.04.2022
2739 Clear 17 1007 59 10000 4.63 250 09:55 10.04.2022
2740 Clear 17 1007 63 10000 4.63 250 09:28 10.04.2022
2741 Clear 16 1007 63 10000 3.6 250 08:22 10.04.2022
2742 Clear 15 1007 67 10000 6.17 240 07:21 10.04.2022
2743 Clear 13 1007 76 10000 2.57 260 05:27 10.04.2022
2744 Clear 14 1007 82 10000 1.54 240 02:20 10.04.2022
2745 Clear 15 1007 82 10000 2.06 270 00:25 10.04.2022
2746 Clear 15 1007 77 10000 2.06 270 23:43 09.04.2022
2747 Clear 15 1007 67 10000 3.09 270 22:45 09.04.2022
2748 Clear 15 1007 63 10000 2.06 230 21:34 09.04.2022
2749 Clear 16 1006 55 10000 1.54 240 20:48 09.04.2022
2750 Clear 16 1006 59 10000 0.51 0 20:23 09.04.2022
2751 Clear 16 1006 59 10000 1.03 230 19:41 09.04.2022
2752 Clear 17 1006 59 10000 1.54 0 18:54 09.04.2022
2753 Clear 17 1006 59 10000 2.57 200 18:18 09.04.2022
2754 Clear 21 1006 46 10000 2.57 220 17:34 09.04.2022
2755 Clear 23 1006 35 10000 2.06 260 16:47 09.04.2022
2756 Clear 23 1006 35 10000 2.06 260 15:53 09.04.2022
2757 Clear 22 1006 37 10000 2.06 250 15:28 09.04.2022
2758 Clear 21 1007 43 10000 4.12 260 14:27 09.04.2022
2759 Clear 21 1008 43 10000 3.09 240 13:47 09.04.2022
2760 Clear 19 1008 48 10000 3.09 230 12:59 09.04.2022
2761 Clear 19 1009 52 10000 3.6 260 11:56 09.04.2022
2762 Clear 17 1009 59 10000 4.12 220 10:56 09.04.2022
2763 Clear 16 1010 63 10000 2.57 230 10:19 09.04.2022
2764 Clear 16 1009 59 10000 2.57 220 09:36 09.04.2022
2765 Clear 15 1009 63 10000 2.06 190 08:50 09.04.2022
2766 Clear 10 1010 87 10000 0.51 0 05:58 09.04.2022
2767 Clear 13 1011 71 10000 2.57 280 00:38 09.04.2022
2768 Clear 13 1011 76 10000 2.06 210 23:25 08.04.2022
2769 Clear 14 1011 67 10000 2.57 250 21:57 08.04.2022
2770 Clear 14 1011 67 10000 1.54 260 20:47 08.04.2022
2771 Clear 15 1010 63 10000 2.57 260 19:57 08.04.2022
2772 Clear 15 1010 67 10000 2.57 270 19:18 08.04.2022
2773 Clear 16 1009 63 10000 2.57 250 18:25 08.04.2022
2774 Clear 16 1009 63 10000 3.09 230 17:38 08.04.2022
2775 Clear 16 1009 63 10000 3.09 230 17:19 08.04.2022
2776 Clear 15 1009 72 10000 3.09 240 16:35 08.04.2022
2777 Clear 15 1009 77 10000 3.09 240 15:53 08.04.2022
2778 Clear 16 1009 72 10000 4.12 220 15:23 08.04.2022
2779 Clear 16 1008 72 10000 3.6 240 14:26 08.04.2022
2780 Clouds 15 1009 77 10000 4.12 220 13:41 08.04.2022
2781 Clouds 15 1009 82 10000 4.12 230 13:22 08.04.2022
2782 Clouds 15 1008 77 10000 4.63 240 11:51 08.04.2022
2783 Clouds 13 1007 88 10000 3.09 230 10:31 08.04.2022
2784 Clouds 13 1006 88 10000 3.09 250 09:26 08.04.2022
2785 Clouds 12 1005 87 10000 3.6 230 08:30 08.04.2022
2786 Clouds 11 1004 93 10000 1.03 220 06:47 08.04.2022
2787 Clear 13 1003 82 10000 2.06 300 04:32 08.04.2022
2788 Clouds 12 1002 87 10000 8.23 270 00:33 08.04.2022
2789 Clouds 12 1002 87 10000 8.23 260 23:59 07.04.2022
2790 Clouds 12 1001 87 10000 3.6 290 22:58 07.04.2022
2791 Clouds 12 1001 87 10000 3.6 290 22:37 07.04.2022
2792 Clouds 13 1001 82 10000 4.12 270 22:19 07.04.2022
2793 Clouds 12 1000 87 10000 2.06 270 21:47 07.04.2022
2794 Clouds 12 1000 87 10000 2.06 230 20:57 07.04.2022
2795 Clouds 13 1000 87 10000 2.06 250 20:28 07.04.2022
2796 Rain 14 999 77 10000 3.09 150 17:51 07.04.2022
2797 Rain 16 1000 67 10000 2.06 220 17:24 07.04.2022
2798 Rain 17 1000 67 10000 3.09 280 16:42 07.04.2022
2799 Rain 17 1000 63 10000 8.23 290 16:18 07.04.2022
2800 Clouds 20 1000 42 10000 3.09 100 14:31 07.04.2022
2801 Clouds 18 1002 42 10000 2.57 100 13:41 07.04.2022
2802 Clouds 17 1004 45 10000 3.09 120 12:28 07.04.2022
2803 Clear 16 1006 41 10000 3.6 120 10:57 07.04.2022
2804 Clear 13 1007 47 10000 3.09 120 09:36 07.04.2022
2805 Clear 12 1008 50 10000 2.06 90 08:35 07.04.2022
2806 Clear 6 1009 70 10000 1.54 60 06:29 07.04.2022
2807 Clear 6 1011 61 10000 0 0 02:40 07.04.2022
2808 Clear 6 1012 61 10000 1.03 360 01:27 07.04.2022
2809 Clear 11 1013 37 10000 1.03 60 23:53 06.04.2022
2810 Clear 12 1014 35 10000 3.09 60 22:45 06.04.2022
2811 Clear 12 1014 35 10000 3.6 70 22:24 06.04.2022
2812 Clear 13 1014 38 10000 4.12 70 21:31 06.04.2022
2813 Clear 14 1014 38 10000 4.12 70 20:27 06.04.2022
2814 Clear 15 1014 36 10000 5.14 70 19:53 06.04.2022
2815 Clear 16 1013 36 10000 5.66 70 18:50 06.04.2022
2816 Clear 17 1013 31 10000 5.14 50 17:52 06.04.2022
2817 Clear 18 1013 32 10000 4.63 40 17:28 06.04.2022
2818 Clear 18 1013 32 10000 2.57 0 16:35 06.04.2022
2819 Clear 17 1014 48 10000 2.57 250 15:47 06.04.2022
2820 Clear 16 1014 55 10000 3.09 230 14:23 06.04.2022
2821 Clear 14 1015 72 10000 3.09 240 12:58 06.04.2022
2822 Clear 13 1015 71 7000 3.09 240 11:55 06.04.2022
2823 Clear 13 1016 71 8000 2.06 230 10:45 06.04.2022
2824 Clear 13 1015 76 7000 1.54 0 10:20 06.04.2022
2825 Clear 12 1015 76 7000 1.03 0 09:27 06.04.2022
2826 Clear 11 1015 82 6000 0.51 0 08:30 06.04.2022
2827 Mist 9 1015 87 3100 0 0 07:38 06.04.2022
2828 Mist 4 1013 100 4000 2.06 360 03:37 06.04.2022
2829 Clear 6 1012 93 10000 1.03 0 23:51 05.04.2022
2830 Clear 9 1013 87 10000 2.06 60 22:30 05.04.2022
2831 Clear 10 1012 81 10000 3.09 70 21:19 05.04.2022
2832 Clear 11 1012 82 10000 3.09 50 20:25 05.04.2022
2833 Clear 11 1011 82 10000 2.06 10 19:26 05.04.2022
2834 Clouds 12 1011 76 10000 3.6 10 17:52 05.04.2022
2835 Clouds 13 1012 76 10000 1.54 210 16:51 05.04.2022
2836 Clouds 12 1012 71 10000 0.51 0 15:53 05.04.2022
2837 Clouds 12 1012 66 10000 1.54 130 15:33 05.04.2022
2838 Clouds 12 1013 71 10000 1.03 0 14:27 05.04.2022
2839 Rain 11 1014 76 10000 2.06 80 12:56 05.04.2022
2840 Rain 11 1014 82 10000 2.57 60 11:50 05.04.2022
2841 Rain 11 1014 82 10000 1.54 90 11:32 05.04.2022
2842 Rain 11 1015 76 10000 2.06 50 09:52 05.04.2022
2843 Rain 10 1015 81 10000 2.57 60 08:52 05.04.2022
2844 Rain 10 1016 87 10000 2.57 80 06:52 05.04.2022
2845 Rain 9 1018 93 6000 1.03 0 00:41 05.04.2022
2846 Rain 9 1017 87 10000 3.6 80 22:41 04.04.2022
2847 Rain 9 1017 87 10000 3.6 80 22:19 04.04.2022
2848 Rain 9 1018 76 10000 3.6 60 21:21 04.04.2022
2849 Rain 10 1018 71 10000 4.63 50 20:49 04.04.2022
2850 Rain 10 1018 62 10000 4.12 40 19:45 04.04.2022
2851 Rain 10 1018 57 10000 5.14 30 19:25 04.04.2022
2852 Clear 11 1018 50 10000 5.66 40 18:20 04.04.2022
2853 Clear 13 1018 50 10000 5.14 70 16:36 04.04.2022
2854 Clear 14 1019 51 10000 4.63 70 15:43 04.04.2022
2855 Clear 14 1019 47 10000 3.6 40 15:25 04.04.2022
2856 Clear 14 1019 51 10000 3.6 70 14:46 04.04.2022
2857 Clear 13 1021 54 10000 4.12 50 13:22 04.04.2022
2858 Clouds 12 1022 54 10000 6.17 40 11:55 04.04.2022
2859 Clouds 11 1022 58 10000 6.17 40 11:28 04.04.2022
2860 Clouds 9 1021 66 10000 8.23 50 08:36 04.04.2022
2861 Clouds 8 1017 81 10000 1.03 340 04:18 04.04.2022
2862 Clouds 8 1016 71 10000 0.51 0 00:44 04.04.2022
2863 Clouds 12 1015 50 10000 2.57 300 22:40 03.04.2022
2864 Clouds 13 1015 50 10000 4.63 280 21:45 03.04.2022
2865 Clouds 13 1014 50 10000 7.72 280 20:54 03.04.2022
2866 Clouds 14 1013 44 10000 9.26 280 19:50 03.04.2022
2867 Clouds 15 1012 41 10000 11.83 280 18:32 03.04.2022
2868 Clouds 15 1012 44 10000 10.8 270 17:47 03.04.2022
2869 Clouds 15 1011 51 10000 11.32 270 16:57 03.04.2022
2870 Clouds 15 1011 51 10000 11.32 270 16:39 03.04.2022
2871 Clouds 15 1010 58 10000 9.26 260 14:48 03.04.2022
2872 Clouds 15 1010 58 10000 9.26 270 13:53 03.04.2022
2873 Clouds 14 1010 72 10000 7.72 230 12:42 03.04.2022
2874 Clear 12 1009 76 10000 6.69 240 11:29 03.04.2022
2875 Rain 11 1009 87 8000 6.69 270 09:38 03.04.2022
2876 Clouds 12 1007 76 10000 3.6 270 08:36 03.04.2022
2877 Clouds 12 1007 82 10000 2.57 240 05:38 03.04.2022
2878 Clouds 14 1008 71 10000 4.63 220 02:53 03.04.2022
2879 Clouds 14 1008 62 10000 8.75 220 23:21 02.04.2022
2880 Clouds 14 1007 62 10000 7.72 220 22:18 02.04.2022
2881 Clouds 14 1007 71 10000 5.66 230 21:47 02.04.2022
2882 Clouds 15 1007 67 10000 4.63 240 21:19 02.04.2022
2883 Clouds 15 1007 67 10000 4.12 270 20:29 02.04.2022
2884 Clear 16 1006 59 10000 5.14 280 18:23 02.04.2022
2885 Clear 16 1006 59 10000 5.14 280 17:53 02.04.2022
2886 Clear 18 1006 55 10000 3.6 230 16:30 02.04.2022
2887 Clear 18 1006 52 10000 5.14 260 15:22 02.04.2022
2888 Clear 18 1006 55 10000 5.66 250 14:51 02.04.2022
2889 Clear 17 1007 59 10000 5.14 250 13:56 02.04.2022
2890 Clear 18 1007 55 10000 7.72 240 13:19 02.04.2022
2891 Clear 17 1007 59 10000 9.26 220 11:39 02.04.2022
2892 Clear 15 1007 63 10000 8.23 210 09:31 02.04.2022
2893 Clouds 14 1006 67 10000 3.6 210 06:56 02.04.2022
2894 Clear 16 1005 51 10000 8.23 220 03:55 02.04.2022
2895 Clear 18 1005 36 10000 5.14 250 00:25 02.04.2022
2896 Clear 18 1004 36 10000 5.66 260 23:45 01.04.2022
2897 Clear 18 1004 39 10000 5.14 260 21:55 01.04.2022
2898 Clear 17 1004 42 10000 2.06 260 20:53 01.04.2022
2899 Clear 17 1003 45 10000 3.09 280 20:31 01.04.2022
2900 Clear 15 1003 55 10000 3.09 230 19:38 01.04.2022
2901 Clear 18 1002 42 10000 4.12 220 18:52 01.04.2022
2902 Clear 19 1003 39 10000 3.6 240 17:59 01.04.2022
2903 Clear 22 1003 28 10000 3.6 230 17:35 01.04.2022
2904 Clear 22 1004 30 10000 3.6 250 15:43 01.04.2022
2905 Rain 22 1004 30 10000 2.06 270 14:39 01.04.2022
2906 Rain 21 1005 35 10000 1.03 0 13:35 01.04.2022
2907 Rain 23 1006 31 10000 1.03 0 12:33 01.04.2022
2908 Rain 22 1006 33 10000 2.06 90 11:44 01.04.2022
2909 Clear 19 1006 37 10000 0.51 0 10:19 01.04.2022
2910 Clear 17 1007 45 10000 2.06 150 09:29 01.04.2022
2911 Rain 17 1006 42 10000 5.14 260 06:55 01.04.2022
2912 Clear 15 1007 51 10000 5.66 270 04:53 01.04.2022
2913 Clear 15 1007 51 10000 5.66 270 04:34 01.04.2022
2914 Clear 13 1009 62 10000 1.03 0 01:58 01.04.2022
2915 Clear 13 1010 62 10000 2.06 230 00:44 01.04.2022
2916 Clear 14 1011 67 10000 1.54 220 21:54 31.03.2022
2917 Clear 14 1011 67 10000 1.54 210 21:32 31.03.2022
2918 Clear 16 1011 55 10000 2.57 260 20:30 31.03.2022
2919 Clear 16 1011 58 10000 3.6 250 19:50 31.03.2022
2920 Clear 16 1010 55 10000 2.06 0 18:51 31.03.2022
2921 Clear 16 1010 55 10000 2.57 280 17:50 31.03.2022
2922 Clear 16 1010 51 10000 3.09 270 16:39 31.03.2022
2923 Clear 16 1010 55 10000 3.6 270 15:46 31.03.2022
2924 Clear 16 1011 55 10000 5.14 260 15:20 31.03.2022
2925 Clear 16 1011 51 10000 6.17 260 14:37 31.03.2022
2926 Clear 14 1012 71 10000 2.06 230 12:30 31.03.2022
2927 Clear 15 1013 62 10000 3.6 210 11:28 31.03.2022
2928 Clear 13 1012 71 10000 4.12 210 09:50 31.03.2022
2929 Clear 13 1012 71 10000 2.06 220 08:23 31.03.2022
2930 Clear 11 1012 76 10000 2.06 270 06:21 31.03.2022
2931 Clear 11 1013 82 10000 1.03 140 00:46 31.03.2022
2932 Clear 12 1013 71 10000 1.03 210 23:23 30.03.2022
2933 Clear 12 1012 66 10000 2.06 200 21:41 30.03.2022
2934 Clear 14 1012 58 10000 1.54 230 20:55 30.03.2022
2935 Clear 15 1012 51 10000 2.06 250 20:20 30.03.2022
2936 Clear 15 1012 51 10000 1.03 0 19:36 30.03.2022
2937 Clear 16 1012 48 10000 2.06 260 18:29 30.03.2022
2938 Clear 17 1011 45 10000 2.06 250 17:48 30.03.2022
2939 Clear 17 1012 48 10000 1.54 210 16:57 30.03.2022
2940 Clear 17 1012 48 10000 1.54 220 16:38 30.03.2022
2941 Clear 18 1013 45 10000 3.09 240 15:24 30.03.2022
2942 Clear 17 1014 51 10000 3.09 240 13:44 30.03.2022
2943 Clear 16 1014 55 10000 3.6 230 12:58 30.03.2022
2944 Clear 15 1015 58 10000 4.63 220 11:34 30.03.2022
2945 Clear 15 1015 58 10000 4.63 220 11:34 30.03.2022
2946 Clear 13 1015 67 10000 3.6 220 10:28 30.03.2022
2947 Clear 13 1014 67 10000 3.09 230 09:24 30.03.2022
2948 Clear 12 1014 71 10000 3.6 240 07:33 30.03.2022
2949 Clear 10 1014 76 10000 1.03 250 05:41 30.03.2022
2950 Clear 10 1014 81 10000 2.06 230 03:59 30.03.2022
2951 Clear 9 1014 93 10000 2.57 260 00:42 30.03.2022
2952 Clear 12 1015 76 10000 2.06 280 22:28 29.03.2022
2953 Clear 12 1015 71 10000 1.54 250 21:45 29.03.2022
2954 Clear 12 1015 71 10000 1.03 230 20:53 29.03.2022
2955 Clear 13 1015 62 10000 1.03 0 20:19 29.03.2022
2956 Clear 13 1015 62 10000 1.03 230 18:56 29.03.2022
2957 Clear 14 1015 58 10000 1.54 240 18:21 29.03.2022
2958 Clear 15 1015 51 10000 2.57 250 17:35 29.03.2022
2959 Clear 16 1015 48 10000 3.6 270 16:57 29.03.2022
2960 Clear 17 1015 45 10000 3.6 250 15:57 29.03.2022
2961 Clear 17 1016 45 10000 3.09 250 14:52 29.03.2022
2962 Clear 17 1017 45 10000 4.12 270 13:58 29.03.2022
2963 Clear 15 1018 51 10000 3.09 270 12:51 29.03.2022
2964 Clear 16 1018 51 10000 2.57 230 11:43 29.03.2022
2965 Clouds 12 1019 66 10000 0.51 0 10:30 29.03.2022
2966 Clouds 12 1020 66 10000 1.03 0 09:42 29.03.2022
2967 Clouds 9 1020 81 6000 1.03 220 06:58 29.03.2022
2968 Clear 10 1021 76 10000 1.03 130 03:54 29.03.2022
2969 Clear 9 1023 66 10000 2.06 250 00:35 29.03.2022
2970 Clear 10 1023 66 10000 0 0 23:23 28.03.2022
2971 Clear 11 1023 58 10000 1.03 0 22:52 28.03.2022
2972 Clear 12 1024 54 10000 2.06 280 22:26 28.03.2022
2973 Clear 11 1024 62 10000 1.03 40 20:56 28.03.2022
2974 Clear 11 1024 58 10000 1.03 40 20:21 28.03.2022
2975 Clear 11 1024 58 10000 1.03 180 19:41 28.03.2022
2976 Clear 12 1024 54 10000 1.03 0 18:56 28.03.2022
2977 Clear 12 1024 54 10000 1.03 0 18:36 28.03.2022
2978 Clear 14 1024 58 10000 2.57 190 17:39 28.03.2022
2979 Clear 15 1025 47 10000 2.06 220 16:20 28.03.2022
2980 Clear 16 1027 44 10000 2.06 230 14:29 28.03.2022
2981 Clear 15 1027 47 10000 2.57 240 13:58 28.03.2022
2982 Clear 15 1029 47 10000 2.57 250 12:20 28.03.2022
2983 Clear 15 1029 51 10000 2.06 250 11:23 28.03.2022
2984 Clear 14 1030 62 8000 1.03 0 09:42 28.03.2022
2985 Clear 13 1029 62 7000 0.51 0 09:19 28.03.2022
2986 Clouds 10 1029 76 7000 1.54 360 08:22 28.03.2022
2987 Clouds 6 1029 93 6000 2.06 350 07:28 28.03.2022
2988 Clear 5 1028 93 10000 1.03 20 03:43 28.03.2022
2989 Clear 9 1028 71 10000 1.54 190 23:28 27.03.2022
2990 Clear 9 1027 66 10000 0 0 22:24 27.03.2022
2991 Clear 9 1027 76 10000 0.51 0 21:41 27.03.2022
2992 Clear 9 1027 76 10000 0 0 20:54 27.03.2022
2993 Clear 10 1026 66 10000 1.54 170 19:47 27.03.2022
2994 Clear 11 1026 62 10000 1.54 220 18:55 27.03.2022
2995 Clear 12 1026 58 10000 2.06 230 18:27 27.03.2022
2996 Clear 12 1026 58 10000 2.06 230 18:27 27.03.2022
2997 Clear 13 1026 58 10000 3.09 250 17:38 27.03.2022
2998 Clear 13 1026 54 10000 4.12 260 15:59 27.03.2022
2999 Clear 12 1026 62 10000 4.63 240 14:55 27.03.2022
3000 Clear 12 1027 66 10000 4.12 240 13:54 27.03.2022
3001 Clear 11 1027 66 10000 4.63 240 12:20 27.03.2022
3002 Clear 10 1028 66 10000 5.14 230 10:47 27.03.2022
3003 Clear 8 1028 76 10000 6.17 230 08:37 27.03.2022
3004 Clear 7 1027 81 10000 5.14 230 05:54 27.03.2022
3005 Clear 6 1027 93 10000 2.06 250 00:47 27.03.2022
3006 Clear 6 1028 93 10000 1.54 220 23:34 26.03.2022
3007 Clear 6 1028 93 10000 1.54 180 22:35 26.03.2022
3008 Clear 6 1028 93 10000 1.03 190 21:33 26.03.2022
3009 Clear 5 1028 81 10000 0 0 20:20 26.03.2022
3010 Clear 7 1028 76 10000 2.06 260 19:19 26.03.2022
3011 Clear 7 1028 81 10000 3.09 240 17:47 26.03.2022
3012 Clear 8 1028 76 10000 3.6 250 17:28 26.03.2022
3013 Clear 8 1028 76 10000 4.12 240 16:25 26.03.2022
3014 Clouds 9 1028 71 10000 4.12 250 14:51 26.03.2022
3015 Clouds 9 1029 66 10000 4.63 250 13:52 26.03.2022
3016 Clouds 9 1029 71 10000 5.14 250 12:44 26.03.2022
3017 Clouds 8 1029 76 10000 4.12 230 11:29 26.03.2022
3018 Clouds 8 1029 71 10000 2.06 30 09:23 26.03.2022
3019 Clouds 7 1029 76 10000 3.09 340 08:28 26.03.2022
3020 Clouds 4 1027 93 10000 2.06 330 05:54 26.03.2022
3021 Clouds 5 1026 93 10000 3.09 20 03:59 26.03.2022
3022 Rain 8 1025 61 10000 6.17 20 23:39 25.03.2022
3023 Clouds 9 1023 49 10000 5.66 50 21:28 25.03.2022
3024 Clouds 9 1024 40 10000 5.14 50 20:45 25.03.2022
3025 Clouds 9 1022 40 10000 4.12 60 19:28 25.03.2022
3026 Clouds 9 1022 43 10000 4.63 70 18:46 25.03.2022
3027 Clouds 9 1022 43 10000 4.63 70 18:46 25.03.2022
3028 Clear 11 1021 37 10000 5.66 70 17:35 25.03.2022
3029 Clear 12 1021 37 10000 4.63 50 16:41 25.03.2022
3030 Clear 12 1021 37 10000 4.63 50 16:41 25.03.2022
3031 Clear 13 1020 33 10000 3.6 30 15:52 25.03.2022
3032 Clear 13 1020 41 10000 2.06 250 13:51 25.03.2022
3033 Clear 12 1020 50 10000 3.6 150 12:32 25.03.2022
3034 Clear 11 1020 62 10000 4.12 360 09:52 25.03.2022
3035 Clear 11 1020 58 10000 3.09 340 09:23 25.03.2022
3036 Clear 8 1019 76 10000 4.12 250 07:48 25.03.2022
3037 Clear 8 1019 76 10000 3.6 240 07:23 25.03.2022
3038 Clear 6 1018 70 10000 4.63 230 04:47 25.03.2022
3039 Clear 6 1019 87 10000 2.06 210 00:33 25.03.2022
3040 Clear 6 1020 65 10000 2.06 260 22:30 24.03.2022
3041 Clear 7 1020 57 10000 2.57 270 21:34 24.03.2022
3042 Clear 6 1020 70 10000 1.54 270 19:50 24.03.2022
3043 Clear 7 1020 76 10000 3.09 270 18:54 24.03.2022
3044 Clear 7 1020 65 10000 3.6 250 17:45 24.03.2022
3045 Clear 8 1020 66 10000 4.63 250 16:54 24.03.2022
3046 Clear 9 1020 61 10000 5.66 240 15:19 24.03.2022
3047 Clear 8 1020 66 10000 5.66 250 14:41 24.03.2022
3048 Clear 8 1021 71 10000 5.14 240 13:54 24.03.2022
3049 Clear 9 1021 66 10000 5.14 200 12:42 24.03.2022
3050 Clouds 10 1021 50 10000 3.09 340 11:33 24.03.2022
3051 Clouds 9 1022 61 10000 4.12 30 09:48 24.03.2022
3052 Clouds 7 1022 70 10000 3.6 350 08:40 24.03.2022
3053 Clouds 5 1021 87 10000 1.54 350 06:44 24.03.2022
3054 Clouds 3 1021 87 10000 2.57 10 01:43 24.03.2022
3055 Clouds 3 1023 81 10000 2.06 360 22:37 23.03.2022
3056 Clouds 5 1023 70 10000 3.6 20 21:25 23.03.2022
3057 Clouds 5 1023 70 10000 3.6 20 21:25 23.03.2022
3058 Clouds 5 1023 75 10000 4.12 20 20:47 23.03.2022
3059 Clouds 5 1023 81 10000 4.63 20 19:43 23.03.2022
3060 Clouds 5 1023 81 10000 4.63 20 19:43 23.03.2022
3061 Clouds 7 1023 65 10000 6.17 40 18:22 23.03.2022
3062 Clouds 7 1023 65 10000 5.66 40 17:36 23.03.2022
3063 Clouds 7 1023 70 10000 7.72 50 16:20 23.03.2022
3064 Clouds 7 1023 70 10000 8.23 30 14:50 23.03.2022
3065 Clouds 9 1023 53 10000 8.23 40 13:51 23.03.2022
3066 Clouds 8 1023 66 10000 8.23 30 11:52 23.03.2022
3067 Clouds 7 1023 76 10000 8.75 30 09:38 23.03.2022
3068 Clouds 6 1023 87 10000 6.69 30 06:40 23.03.2022
3069 Clouds 6 1023 81 10000 4.12 40 03:58 23.03.2022
3070 Clouds 5 1024 81 10000 5.14 40 00:29 23.03.2022
3071 Clouds 6 1025 75 10000 6.17 50 22:26 22.03.2022
3072 Clouds 6 1025 75 10000 5.14 50 21:29 22.03.2022
3073 Clouds 6 1024 75 10000 6.17 50 20:39 22.03.2022
3074 Clouds 5 1024 81 10000 6.17 40 19:31 22.03.2022
3075 Clouds 6 1024 70 10000 6.17 50 18:57 22.03.2022
3076 Clouds 6 1024 70 10000 7.72 60 17:58 22.03.2022
3077 Clouds 7 1023 65 10000 8.23 70 17:25 22.03.2022
3078 Clouds 6 1022 81 10000 1.03 0 15:54 22.03.2022
3079 Clouds 6 1022 81 10000 2.57 220 15:22 22.03.2022
3080 Clouds 6 1022 70 10000 1.03 0 14:46 22.03.2022
3081 Clouds 5 1022 81 10000 2.57 340 14:25 22.03.2022
3082 Clouds 4 1023 87 10000 3.09 150 12:46 22.03.2022
3083 Rain 5 1023 81 8000 3.09 190 11:36 22.03.2022
3084 Rain 6 1024 75 10000 2.57 190 10:35 22.03.2022
3085 Clear 5 1025 70 10000 3.6 40 07:57 22.03.2022
3086 Clear 4 1026 70 10000 3.09 30 05:20 22.03.2022
3087 Clear 4 1026 65 10000 5.14 30 03:41 22.03.2022
3088 Clear 5 1028 65 10000 4.63 40 23:49 21.03.2022
3089 Clouds 5 1029 65 10000 4.63 40 21:58 21.03.2022
3090 Clouds 5 1029 65 10000 5.14 50 20:47 21.03.2022
3091 Clouds 5 1029 65 10000 4.63 50 20:27 21.03.2022
3092 Clouds 5 1029 60 10000 5.66 50 19:57 21.03.2022
3093 Clouds 5 1029 65 10000 6.17 50 19:25 21.03.2022
3094 Clouds 6 1029 61 10000 6.69 50 17:53 21.03.2022
3095 Clouds 7 1029 53 10000 8.75 60 17:18 21.03.2022
3096 Clouds 6 1029 49 10000 9.26 50 16:42 21.03.2022
3097 Clouds 7 1029 49 10000 11.83 50 15:48 21.03.2022
3098 Clouds 7 1030 53 10000 9.26 40 14:56 21.03.2022
3099 Clouds 7 1030 45 10000 10.29 60 13:46 21.03.2022
3100 Clouds 7 1031 49 10000 7.72 40 12:34 21.03.2022
3101 Clouds 7 1031 49 10000 9.26 50 11:45 21.03.2022
3102 Clouds 6 1031 52 10000 4.63 90 10:36 21.03.2022
3103 Clouds 4 1031 52 10000 6.17 70 08:30 21.03.2022
3104 Clouds 4 1031 65 10000 6.17 60 06:38 21.03.2022
3105 Clouds 3 1031 60 10000 3.6 50 02:51 21.03.2022
3106 Clouds 3 1033 60 10000 6.17 50 23:43 20.03.2022
3107 Clouds 4 1033 56 10000 5.14 40 22:44 20.03.2022
3108 Clouds 4 1034 60 10000 6.17 50 21:51 20.03.2022
3109 Clouds 4 1034 56 10000 5.14 50 21:23 20.03.2022
3110 Clouds 4 1034 56 10000 5.66 50 20:43 20.03.2022
3111 Clouds 4 1034 52 10000 7.2 30 19:59 20.03.2022
3112 Clouds 4 1034 52 10000 6.69 40 19:31 20.03.2022
3113 Clouds 4 1034 60 10000 7.72 30 18:22 20.03.2022
3114 Clouds 5 1034 56 10000 8.75 40 17:33 20.03.2022
3115 Clouds 5 1034 52 10000 8.75 40 16:57 20.03.2022
3116 Clouds 5 1034 52 10000 10.29 30 15:34 20.03.2022
3117 Clouds 5 1034 52 10000 9.77 40 14:34 20.03.2022
3118 Clouds 5 1034 52 10000 8.54 31 12:35 20.03.2022
3119 Clouds 5 1034 54 10000 8.21 31 11:23 20.03.2022
3120 Clouds 5 1035 60 10000 9.77 20 09:26 20.03.2022
3121 Clouds 4 1034 70 10000 6.69 30 07:28 20.03.2022
3122 Snow 3 1034 75 10000 6.28 36 05:40 20.03.2022
3123 Clouds 0 1035 100 10000 1.54 340 01:50 20.03.2022
3124 Clouds 1 1035 86 10000 5.66 30 00:39 20.03.2022
3125 Snow 0 1035 100 10000 6.17 10 23:19 19.03.2022
3126 Clouds 0 1036 100 10000 7.2 30 21:27 19.03.2022
3127 Clouds 1 1036 86 10000 6.17 20 20:49 19.03.2022
3128 Clouds 1 1036 86 10000 5.14 50 18:58 19.03.2022
3129 Clouds 1 1036 86 4000 7.72 40 18:23 19.03.2022
3130 Clouds 2 1035 65 10000 6.69 20 17:35 19.03.2022
3131 Clouds 2 1036 80 6000 9.26 50 15:44 19.03.2022
3132 Clouds 1 1036 86 4000 7.72 10 14:44 19.03.2022
3133 Clouds 4 1036 70 10000 7.72 20 13:19 19.03.2022
3134 Clouds 4 1036 56 10000 7.72 30 12:40 19.03.2022
3135 Clouds 3 1036 65 10000 8.23 30 11:54 19.03.2022
3136 Clouds 3 1036 65 10000 8.23 30 11:54 19.03.2022
3137 Clouds 4 1036 60 4000 6.17 30 10:47 19.03.2022
3138 Snow 0 1036 86 10000 4.12 360 07:33 19.03.2022
3139 Snow 0 1036 69 10000 3.09 70 03:49 19.03.2022
3140 Clouds 0 1036 74 10000 5.66 10 02:29 19.03.2022
3141 Snow -1 1037 80 8000 4.12 20 23:45 18.03.2022
3142 Clouds -1 1037 86 7000 6.17 20 22:28 18.03.2022
3143 Clouds -1 1038 93 2000 5.66 360 21:45 18.03.2022
3144 Clouds 0 1037 80 2000 7.2 30 19:52 18.03.2022
3145 Clouds 0 1037 80 2000 7.2 30 19:52 18.03.2022
3146 Snow 0 1037 80 10000 7.72 30 19:21 18.03.2022
3147 Snow 0 1037 86 2000 9.26 20 17:52 18.03.2022
3148 Snow 2 1036 60 8000 9.26 10 16:49 18.03.2022
3149 Clouds 4 1036 60 10000 10.8 20 15:26 18.03.2022
3150 Snow 3 1036 70 7000 11.32 20 14:22 18.03.2022
3151 Clouds 3 1036 75 10000 8.75 20 12:36 18.03.2022
3152 Clouds 2 1036 87 10000 6.69 20 10:53 18.03.2022
3153 Snow 0 1036 100 2000 4.63 340 09:30 18.03.2022
3154 Snow 0 1035 93 8000 4.63 360 08:32 18.03.2022
3155 Snow 1 1035 80 6000 4.63 350 06:35 18.03.2022
3156 Clouds 1 1034 80 10000 3.6 40 02:57 18.03.2022
3157 Clouds 2 1034 75 10000 2.06 10 00:23 18.03.2022
3158 Clouds 2 1034 69 10000 5.66 50 23:24 17.03.2022
3159 Clouds 2 1033 69 10000 6.17 40 22:24 17.03.2022
3160 Clouds 3 1033 65 10000 7.2 40 21:48 17.03.2022
3161 Clouds 3 1033 65 10000 8.23 30 21:23 17.03.2022
3162 Clouds 3 1033 65 10000 7.72 30 20:44 17.03.2022
3163 Clouds 4 1032 65 10000 8.75 40 19:48 17.03.2022
3164 Clouds 3 1032 75 10000 8.23 50 18:59 17.03.2022
3165 Clouds 3 1032 75 10000 8.23 50 18:39 17.03.2022
3166 Clouds 4 1030 81 10000 10.29 40 16:49 17.03.2022
3167 Clouds 4 1029 87 10000 10.29 40 15:44 17.03.2022
3168 Clouds 4 1029 87 10000 9.26 40 15:24 17.03.2022
3169 Clouds 6 1028 75 10000 9.77 30 14:28 17.03.2022
3170 Clouds 10 1027 57 10000 7.72 30 12:54 17.03.2022
3171 Clouds 9 1027 61 10000 6.69 20 12:23 17.03.2022
3172 Clouds 10 1027 62 10000 6.69 20 11:27 17.03.2022
3173 Clouds 9 1027 66 10000 4.12 20 10:29 17.03.2022
3174 Mist 6 1026 87 4000 2.06 50 08:34 17.03.2022
3175 Mist 6 1025 87 4000 1.54 80 07:33 17.03.2022
3176 Mist 5 1024 93 4800 2.06 360 05:47 17.03.2022
3177 Rain 6 1023 81 10000 1.54 250 01:23 17.03.2022
3178 Rain 6 1024 87 10000 3.6 220 23:46 16.03.2022
3179 Clouds 6 1023 70 10000 1.03 200 22:45 16.03.2022
3180 Rain 6 1023 70 10000 0 0 22:21 16.03.2022
3181 Clouds 6 1023 70 10000 1.03 210 21:37 16.03.2022
3182 Clear 5 1023 75 10000 1.03 150 19:41 16.03.2022
3183 Clear 5 1023 75 10000 1.03 150 19:20 16.03.2022
3184 Clear 6 1023 70 10000 1.03 0 18:36 16.03.2022
3185 Clear 6 1023 70 10000 1.03 0 17:41 16.03.2022
3186 Clear 7 1024 70 10000 2.06 160 16:56 16.03.2022
3187 Clear 7 1024 65 10000 3.09 220 15:55 16.03.2022
3188 Clear 7 1025 61 10000 3.6 220 14:25 16.03.2022
3189 Clear 7 1026 61 10000 4.12 220 13:27 16.03.2022
3190 Clear 7 1027 65 10000 4.12 210 11:54 16.03.2022
3191 Clear 7 1027 65 10000 4.63 220 11:20 16.03.2022
3192 Clear 7 1028 65 10000 3.09 200 10:22 16.03.2022
3193 Clear 6 1028 70 10000 2.57 210 08:52 16.03.2022
3194 Clear 4 1028 81 10000 3.6 210 05:58 16.03.2022
3195 Clear 4 1031 75 10000 3.09 230 01:35 16.03.2022
3196 Clear 5 1032 70 10000 2.06 260 22:38 15.03.2022
3197 Clear 5 1032 60 10000 2.06 210 21:52 15.03.2022
3198 Clear 5 1033 65 10000 2.06 210 20:18 15.03.2022
3199 Clear 5 1033 70 10000 2.06 220 18:54 15.03.2022
3200 Clear 6 1034 65 10000 3.09 240 16:57 15.03.2022
3201 Clear 7 1034 61 10000 2.57 240 16:28 15.03.2022
3202 Clouds 7 1034 61 10000 4.12 0 14:58 15.03.2022
3203 Clouds 7 1034 61 10000 4.12 250 14:39 15.03.2022
3204 Clouds 7 1035 65 10000 4.12 230 13:28 15.03.2022
3205 Clouds 6 1035 65 10000 1.54 250 12:21 15.03.2022
3206 Clouds 6 1036 70 10000 2.06 200 11:29 15.03.2022
3207 Clouds 5 1036 75 10000 2.57 350 09:40 15.03.2022
3208 Clouds 4 1036 87 10000 3.09 350 08:42 15.03.2022
3209 Clouds 4 1036 75 10000 1.03 0 07:50 15.03.2022
3210 Clouds 0 1036 86 10000 1.54 320 06:54 15.03.2022
3211 Clouds 2 1036 93 10000 2.06 340 02:59 15.03.2022
3212 Clouds 2 1036 87 10000 2.06 350 23:40 14.03.2022
3213 Clouds 2 1036 87 10000 2.06 350 23:21 14.03.2022
3214 Clouds 0 1036 93 10000 3.09 350 22:26 14.03.2022
3215 Clouds 2 1036 87 10000 2.57 20 21:26 14.03.2022
3216 Clouds 3 1036 81 10000 3.09 10 20:41 14.03.2022
3217 Clouds 4 1036 75 10000 3.6 30 20:19 14.03.2022
3218 Clouds 4 1036 75 10000 3.09 30 18:42 14.03.2022
3219 Clouds 4 1035 81 10000 2.57 30 17:54 14.03.2022
3220 Clouds 4 1035 81 10000 4.63 70 16:58 14.03.2022
3221 Clouds 5 1034 70 10000 4.63 10 15:37 14.03.2022
3222 Clouds 5 1034 70 10000 4.63 10 14:40 14.03.2022
3223 Clouds 2 1035 93 10000 6.69 350 12:22 14.03.2022
3224 Clouds 5 1035 56 10000 2.06 290 10:51 14.03.2022
3225 Clouds 3 1035 75 10000 1.03 20 09:44 14.03.2022
3226 Clouds 3 1035 56 1100 3.09 70 09:21 14.03.2022
3227 Clouds 3 1034 60 10000 1.54 110 08:55 14.03.2022
3228 Clear 1 1033 80 10000 1.54 70 07:28 14.03.2022
3229 Clear -1 1033 86 10000 0.51 30 05:44 14.03.2022
3230 Clear -4 1032 100 10000 2.06 350 01:52 14.03.2022
3231 Clear -4 1032 100 10000 2.06 360 01:24 14.03.2022
3232 Clear -1 1031 93 10000 2.06 50 22:43 13.03.2022
3233 Clear -1 1031 93 10000 1.03 40 21:29 13.03.2022
3234 Clear -1 1031 93 10000 0.51 50 20:55 13.03.2022
3235 Clear -1 1031 93 10000 1.03 100 20:30 13.03.2022
3236 Clear 0 1031 93 10000 1.03 120 19:49 13.03.2022
3237 Clear 0 1030 86 10000 1.03 0 19:27 13.03.2022
3238 Clear 0 1030 86 10000 1.03 130 18:59 13.03.2022
3239 Clear 1 1030 86 10000 0 0 18:31 13.03.2022
3240 Clear 2 1030 75 10000 1.03 0 17:40 13.03.2022
3241 Clouds 4 1029 65 10000 1.03 0 16:57 13.03.2022
3242 Clouds 3 1029 75 10000 1.03 0 16:29 13.03.2022
3243 Clouds 3 1029 75 10000 2.06 150 15:44 13.03.2022
3244 Clouds 3 1029 81 10000 2.57 130 14:51 13.03.2022
3245 Rain 4 1029 70 10000 2.06 210 13:33 13.03.2022
3246 Clouds 3 1029 81 10000 1.03 0 12:37 13.03.2022
3247 Clouds 4 1029 75 10000 1.54 140 11:51 13.03.2022
3248 Clouds 3 1029 87 10000 1.03 110 11:31 13.03.2022
3249 Clouds 2 1029 93 7000 2.06 100 10:46 13.03.2022
3250 Snow 1 1029 100 7000 0.51 0 09:53 13.03.2022
3251 Snow 1 1029 100 1600 1.54 360 09:29 13.03.2022
3252 Snow 0 1029 100 10000 1.54 310 08:40 13.03.2022
3253 Snow 0 1028 100 1200 3.09 70 07:40 13.03.2022
3254 Snow -1 1026 93 10000 5.66 40 05:40 13.03.2022
3255 Clouds -1 1026 93 6000 6.69 30 02:27 13.03.2022
3256 Snow 0 1026 86 900 6.69 340 23:31 12.03.2022
3257 Snow -1 1026 93 3000 2.57 290 21:49 12.03.2022
3258 Snow -2 1026 100 700 6.69 310 20:29 12.03.2022
3259 Snow -2 1026 93 500 7.2 290 19:47 12.03.2022
3260 Snow -2 1027 93 900 6.69 280 18:47 12.03.2022
3261 Snow -1 1027 74 3500 6.17 290 18:21 12.03.2022
3262 Snow -1 1027 74 10000 5.66 310 17:23 12.03.2022
3263 Snow -1 1027 80 6000 8.75 340 16:23 12.03.2022
3264 Snow 0 1027 64 10000 7.2 330 15:22 12.03.2022
3265 Snow 0 1027 64 10000 8.23 340 13:55 12.03.2022
3266 Clouds 0 1027 74 10000 8.23 330 12:33 12.03.2022
3267 Clouds -1 1028 74 10000 7.2 330 11:55 12.03.2022
3268 Clouds -1 1028 74 10000 7.2 330 11:34 12.03.2022
3269 Snow -1 1028 74 10000 8.23 320 10:43 12.03.2022
3270 Snow -2 1028 74 10000 8.23 330 09:44 12.03.2022
3271 Snow -3 1027 80 10000 6.69 340 08:41 12.03.2022
3272 Clouds -4 1027 80 10000 6.17 330 06:44 12.03.2022
3273 Clouds -2 1027 80 10000 4.63 330 01:44 12.03.2022
3274 Clouds -2 1027 86 10000 2.06 290 23:46 11.03.2022
3275 Clouds -4 1027 80 10000 2.06 360 22:36 11.03.2022
3276 Snow -3 1027 93 6000 3.6 50 21:24 11.03.2022
3277 Snow -3 1027 100 1600 6.17 350 20:48 11.03.2022
3278 Clouds -2 1027 93 4000 4.12 360 20:26 11.03.2022
3279 Clouds -2 1027 93 2000 4.12 10 19:35 11.03.2022
3280 Clouds -1 1026 74 10000 4.12 10 18:33 11.03.2022
3281 Snow -2 1026 93 6000 5.14 360 17:26 11.03.2022
3282 Clouds -2 1026 93 6000 6.69 10 16:25 11.03.2022
3283 Clouds -1 1025 80 10000 8.23 360 15:36 11.03.2022
3284 Clouds -1 1024 74 10000 9.77 360 13:45 11.03.2022
3285 Clouds 0 1024 64 10000 10.8 350 12:41 11.03.2022
3286 Clouds -1 1024 80 10000 11.32 360 12:19 11.03.2022
3287 Snow -1 1023 86 7000 10.8 360 10:53 11.03.2022
3288 Snow -1 1022 93 2000 11.32 360 09:35 11.03.2022
3289 Snow -1 1021 93 1700 6.17 10 08:28 11.03.2022
3290 Snow -1 1021 100 1700 6.17 10 07:48 11.03.2022
3291 Snow -1 1021 100 350 5.66 360 06:42 11.03.2022
3292 Snow -1 1021 93 400 7.72 10 04:40 11.03.2022
3293 Clouds 0 1021 80 10000 4.63 20 01:48 11.03.2022
3294 Clouds 0 1021 86 2000 8.23 20 22:33 10.03.2022
3295 Clouds 1 1020 69 10000 8.75 30 21:54 10.03.2022
3296 Snow 0 1021 86 6000 11.32 20 21:25 10.03.2022
3297 Snow 1 1020 80 8000 6.17 20 20:36 10.03.2022
3298 Clouds 2 1019 75 8000 8.75 30 19:20 10.03.2022
3299 Clouds 1 1019 86 10000 8.23 20 17:51 10.03.2022
3300 Clouds 2 1018 80 10000 6.69 10 16:52 10.03.2022
3301 Clouds 0 1017 100 4000 7.72 20 15:29 10.03.2022
3302 Clouds 1 1017 93 2000 8.23 20 13:45 10.03.2022
3303 Clouds 1 1017 93 8000 7.2 30 12:41 10.03.2022
3304 Snow 2 1016 80 2000 7.72 40 11:28 10.03.2022
3305 Snow 2 1016 81 6000 6.17 30 09:42 10.03.2022
3306 Clouds 1 1016 93 2000 5.14 40 07:48 10.03.2022
3307 Snow 0 1016 86 6000 5.66 20 05:30 10.03.2022
3308 Clouds 0 1016 93 10000 5.66 360 02:33 10.03.2022
3309 Clouds 3 1017 60 10000 6.69 40 23:32 09.03.2022
3310 Clouds 4 1017 56 10000 6.17 30 22:22 09.03.2022
3311 Clouds 4 1017 52 10000 7.72 40 21:43 09.03.2022
3312 Clouds 4 1017 60 10000 8.23 40 20:36 09.03.2022
3313 Clouds 4 1017 65 10000 8.23 40 18:41 09.03.2022
3314 Clouds 3 1016 81 10000 6.69 10 17:28 09.03.2022
3315 Clouds 4 1016 70 10000 8.23 50 16:36 09.03.2022
3316 Clouds 5 1015 49 10000 8.23 30 15:32 09.03.2022
3317 Clouds 5 1015 70 10000 9.26 50 13:58 09.03.2022
3318 Clouds 6 1015 61 10000 8.23 30 12:59 09.03.2022
3319 Clouds 6 1016 61 10000 8.23 30 12:19 09.03.2022
3320 Clouds 5 1015 70 10000 7.72 10 11:36 09.03.2022
3321 Clouds 6 1015 65 10000 7.2 30 10:39 09.03.2022
3322 Clouds 5 1015 56 10000 6.69 60 08:59 09.03.2022
3323 Clouds 5 1015 65 10000 5.14 40 08:25 09.03.2022
3324 Clouds 3 1015 75 10000 5.14 30 04:47 09.03.2022
3325 Clouds 4 1015 87 10000 4.12 70 00:52 09.03.2022
3326 Clouds 4 1015 87 10000 5.66 30 23:18 08.03.2022
3327 Clouds 4 1015 87 10000 4.63 30 22:44 08.03.2022
3328 Clouds 4 1015 87 10000 4.12 20 21:26 08.03.2022
3329 Clouds 4 1015 87 8000 5.14 60 20:49 08.03.2022
3330 Rain 4 1015 87 10000 6.69 20 19:53 08.03.2022
3331 Clouds 5 1015 81 10000 5.66 50 18:44 08.03.2022
3332 Rain 5 1014 81 10000 6.69 50 17:40 08.03.2022
3333 Clouds 5 1013 81 10000 7.72 50 16:29 08.03.2022
3334 Rain 5 1013 87 10000 8.75 50 14:21 08.03.2022
3335 Rain 5 1013 87 10000 6.17 40 12:44 08.03.2022
3336 Rain 5 1013 93 10000 6.69 40 11:45 08.03.2022
3337 Clouds 5 1013 87 10000 7.2 50 10:55 08.03.2022
3338 Rain 5 1014 87 10000 5.66 50 10:19 08.03.2022
3339 Rain 5 1014 93 6000 2.57 80 07:33 08.03.2022
3340 Clouds 4 1015 87 10000 3.6 20 05:43 08.03.2022
3341 Clouds 4 1015 87 10000 5.66 340 23:52 07.03.2022
3342 Clouds 4 1015 87 10000 5.14 350 22:23 07.03.2022
3343 Clouds 5 1015 81 10000 6.17 360 21:33 07.03.2022
3344 Clouds 5 1015 81 10000 5.14 360 20:49 07.03.2022
3345 Clouds 5 1014 81 10000 6.17 360 20:20 07.03.2022
3346 Clouds 5 1014 81 10000 6.17 360 19:33 07.03.2022
3347 Clouds 5 1014 81 10000 6.17 350 18:44 07.03.2022
3348 Clouds 5 1014 81 10000 7.2 350 17:50 07.03.2022
3349 Clouds 6 1013 75 10000 6.17 360 16:56 07.03.2022
3350 Clouds 6 1013 81 10000 6.69 360 15:59 07.03.2022
3351 Clouds 6 1012 81 10000 5.66 10 13:52 07.03.2022
3352 Clouds 6 1012 81 10000 5.66 10 13:52 07.03.2022
3353 Clouds 7 1013 76 10000 5.66 10 12:28 07.03.2022
3354 Clouds 6 1013 87 10000 6.69 20 10:39 07.03.2022
3355 Clouds 5 1013 93 10000 6.69 10 08:57 07.03.2022
3356 Clouds 6 1012 93 10000 4.63 360 04:51 07.03.2022
3357 Rain 6 1012 93 10000 4.12 50 00:23 07.03.2022
3358 Rain 7 1012 81 10000 5.14 60 23:35 06.03.2022
3359 Rain 7 1012 87 10000 5.66 60 22:52 06.03.2022
3360 Rain 6 1012 87 10000 8.75 70 21:58 06.03.2022
3361 Rain 6 1013 87 10000 7.2 60 20:49 06.03.2022
3362 Rain 7 1013 81 10000 6.69 70 20:22 06.03.2022
3363 Rain 7 1013 76 10000 8.75 70 18:56 06.03.2022
3364 Clouds 7 1014 76 10000 8.75 70 18:23 06.03.2022
3365 Clouds 7 1014 76 10000 8.75 70 17:21 06.03.2022
3366 Clouds 7 1014 76 10000 9.26 60 16:41 06.03.2022
3367 Clouds 8 1014 71 10000 9.26 60 15:52 06.03.2022
3368 Clouds 8 1014 71 10000 9.77 60 14:49 06.03.2022
3369 Clouds 8 1014 71 10000 9.77 60 14:49 06.03.2022
3370 Clouds 8 1014 71 10000 10.29 60 14:31 06.03.2022
3371 Clouds 9 1014 66 10000 9.26 50 13:29 06.03.2022
3372 Clouds 8 1015 71 10000 10.29 60 12:35 06.03.2022
3373 Rain 8 1015 76 10000 9.26 70 10:59 06.03.2022
3374 Rain 7 1016 76 10000 8.23 70 10:22 06.03.2022
3375 Clouds 7 1016 70 10000 9.26 70 08:29 06.03.2022
3376 Clouds 7 1016 70 10000 9.26 70 08:29 06.03.2022
3377 Rain 7 1016 70 10000 9.26 70 08:29 06.03.2022
3378 Clouds 7 1016 70 10000 9.26 70 08:29 06.03.2022
3379 Rain 7 1016 70 10000 8.23 70 07:34 06.03.2022
3380 Rain 7 1015 70 10000 8.75 70 05:32 06.03.2022
3381 Clouds 7 1016 70 10000 9.26 70 00:51 06.03.2022
3382 Clouds 7 1016 76 10000 9.77 60 00:30 06.03.2022
3383 Clouds 7 1016 76 10000 8.75 60 23:21 05.03.2022
3384 Clouds 7 1017 76 10000 8.23 60 22:47 05.03.2022
3385 Clouds 7 1017 76 10000 7.72 60 21:46 05.03.2022
3386 Clouds 7 1016 76 10000 6.17 60 21:21 05.03.2022
3387 Clouds 8 1016 61 10000 4.63 60 19:26 05.03.2022
3388 Clouds 9 1016 49 10000 5.14 60 18:53 05.03.2022
3389 Clouds 9 1016 53 10000 5.66 70 17:53 05.03.2022
3390 Clouds 10 1016 53 10000 5.14 80 16:32 05.03.2022
3391 Clouds 10 1016 57 10000 4.63 100 15:31 05.03.2022
3392 Rain 10 1016 57 10000 3.6 110 14:47 05.03.2022
3393 Rain 10 1016 57 10000 3.6 130 14:29 05.03.2022
3394 Rain 10 1016 53 10000 2.57 140 13:21 05.03.2022
3395 Rain 10 1017 53 10000 2.06 100 11:48 05.03.2022
3396 Rain 9 1017 61 10000 2.06 120 11:18 05.03.2022
3397 Clouds 9 1017 57 10000 1.54 140 09:59 05.03.2022
3398 Clouds 8 1017 61 10000 2.57 110 08:59 05.03.2022
3399 Clouds 7 1017 76 10000 2.06 90 07:37 05.03.2022
3400 Clouds 6 1016 81 10000 2.06 100 05:42 05.03.2022
3401 Clouds 4 1016 81 10000 0.51 30 02:20 05.03.2022
3402 Clouds 5 1016 70 10000 1.03 160 23:37 04.03.2022
3403 Clouds 6 1016 65 10000 0 0 22:42 04.03.2022
3404 Clouds 6 1016 70 10000 1.03 60 21:48 04.03.2022
3405 Clear 7 1016 61 10000 1.54 140 20:52 04.03.2022
3406 Clear 7 1016 65 10000 1.54 120 20:22 04.03.2022
3407 Clear 7 1016 57 10000 1.03 0 19:35 04.03.2022
3408 Clear 7 1016 57 10000 0 0 18:43 04.03.2022
3409 Clear 7 1016 57 10000 1.03 250 17:31 04.03.2022
3410 Clear 8 1015 49 10000 1.03 260 16:43 04.03.2022
3411 Clear 9 1015 53 10000 2.06 230 15:28 04.03.2022
3412 Clear 9 1016 53 10000 3.6 220 14:19 04.03.2022
3413 Clear 8 1016 57 10000 3.6 220 13:24 04.03.2022
3414 Clear 9 1017 53 10000 5.14 220 11:40 04.03.2022
3415 Clear 9 1017 53 10000 5.66 210 10:42 04.03.2022
3416 Clouds 9 1017 53 10000 5.14 200 09:40 04.03.2022
3417 Clear 7 1017 65 10000 5.14 200 08:34 04.03.2022
3418 Clear 6 1017 70 10000 5.14 210 07:23 04.03.2022
3419 Clouds 5 1016 75 10000 4.63 230 03:50 04.03.2022
3420 Clouds 5 1016 70 10000 3.09 220 00:24 04.03.2022
3421 Clouds 6 1017 70 10000 2.06 300 22:21 03.03.2022
3422 Rain 6 1017 65 10000 3.6 310 21:40 03.03.2022
3423 Rain 6 1016 65 10000 5.66 220 21:21 03.03.2022
3424 Clouds 5 1016 75 10000 2.06 210 19:50 03.03.2022
3425 Clouds 5 1016 81 10000 2.06 210 18:53 03.03.2022
3426 Clouds 5 1016 81 10000 2.57 210 18:22 03.03.2022
3427 Clouds 5 1015 81 10000 2.57 190 17:28 03.03.2022
3428 Clouds 5 1015 81 10000 2.06 200 16:22 03.03.2022
3429 Clouds 5 1014 75 10000 1.03 0 15:20 03.03.2022
3430 Clouds 6 1014 65 10000 3.09 330 14:42 03.03.2022
3431 Clouds 6 1014 65 10000 5.66 330 13:19 03.03.2022
3432 Clouds 5 1013 75 10000 7.72 340 11:51 03.03.2022
3433 Clouds 4 1013 81 10000 6.69 320 10:42 03.03.2022
3434 Clouds 3 1013 87 10000 6.17 330 08:57 03.03.2022
3435 Rain 3 1013 87 10000 6.17 310 07:45 03.03.2022
3436 Clouds 3 1012 87 10000 4.63 320 06:35 03.03.2022
3437 Clouds 3 1012 81 10000 4.63 350 02:23 03.03.2022
3438 Clouds 4 1013 81 10000 5.14 30 23:31 02.03.2022
3439 Clouds 3 1013 87 10000 3.09 30 22:52 02.03.2022
3440 Clouds 4 1014 75 9000 4.63 360 21:32 02.03.2022
3441 Clouds 4 1014 75 10000 4.12 360 20:46 02.03.2022
3442 Clouds 4 1014 70 10000 5.14 40 20:24 02.03.2022
3443 Clouds 4 1014 65 10000 4.63 40 19:36 02.03.2022
3444 Clouds 4 1014 65 10000 6.17 50 18:46 02.03.2022
3445 Clouds 4 1015 70 10000 5.14 20 17:59 02.03.2022
3446 Clouds 4 1015 65 10000 4.63 20 17:28 02.03.2022
3447 Clouds 4 1015 65 10000 6.17 20 16:51 02.03.2022
3448 Clouds 6 1015 56 10000 5.14 20 14:48 02.03.2022
3449 Clouds 6 1017 56 10000 3.6 20 13:25 02.03.2022
3450 Clouds 6 1017 61 10000 4.12 20 12:44 02.03.2022
3451 Clouds 6 1018 61 10000 4.12 40 11:51 02.03.2022
3452 Clouds 6 1018 56 10000 4.12 40 11:24 02.03.2022
3453 Clouds 6 1018 56 10000 4.12 40 11:24 02.03.2022
3454 Clouds 5 1019 60 10000 5.14 40 09:46 02.03.2022
3455 Clouds 5 1019 65 10000 5.66 30 09:23 02.03.2022
3456 Clouds 3 1020 75 10000 5.14 360 07:51 02.03.2022
3457 Clouds 2 1021 75 10000 4.12 360 06:54 02.03.2022
3458 Clouds 3 1021 75 10000 5.66 350 02:54 02.03.2022
3459 Clouds 3 1022 81 10000 5.14 10 00:33 02.03.2022
3460 Clouds 3 1022 75 10000 4.63 20 22:50 01.03.2022
3461 Clouds 4 1022 70 10000 5.66 20 22:31 01.03.2022
3462 Clouds 4 1023 75 10000 4.12 10 21:25 01.03.2022
3463 Clouds 4 1023 70 10000 5.66 10 20:32 01.03.2022
3464 Clouds 4 1023 70 10000 6.17 10 19:45 01.03.2022
3465 Clouds 4 1022 70 10000 6.17 20 18:51 01.03.2022
3466 Clouds 4 1022 75 10000 5.14 10 18:21 01.03.2022
3467 Clouds 4 1022 75 10000 5.66 10 17:30 01.03.2022
3468 Clouds 4 1022 70 10000 6.17 10 16:35 01.03.2022
3469 Clouds 4 1022 75 10000 6.17 10 15:42 01.03.2022
3470 Clouds 5 1022 70 10000 6.17 360 14:41 01.03.2022
3471 Clouds 5 1023 70 10000 6.17 360 14:23 01.03.2022
3472 Clouds 5 1023 70 10000 6.69 350 13:25 01.03.2022
3473 Clouds 4 1023 75 10000 6.17 350 12:34 01.03.2022
3474 Clouds 4 1024 81 10000 4.63 330 10:37 01.03.2022
3475 Clouds 4 1023 81 10000 3.6 320 09:18 01.03.2022
3476 Clouds 4 1023 75 10000 3.09 310 07:54 01.03.2022
3477 Clouds 3 1023 75 10000 3.09 340 06:26 01.03.2022
3478 Clouds 3 1023 75 10000 3.09 330 02:44 01.03.2022
3479 Clouds 3 1023 75 10000 5.66 330 00:39 01.03.2022
3480 Clouds 3 1023 81 10000 6.69 340 23:33 28.02.2022
3481 Clouds 4 1023 75 10000 6.17 330 22:24 28.02.2022
3482 Clouds 4 1023 75 10000 6.69 340 21:41 28.02.2022
3483 Clouds 4 1022 75 10000 6.17 350 20:28 28.02.2022
3484 Clouds 4 1022 75 10000 8.23 340 19:41 28.02.2022
3485 Clouds 4 1021 81 10000 6.17 340 18:49 28.02.2022
3486 Clouds 4 1020 87 10000 9.26 340 17:33 28.02.2022
3487 Clouds 4 1020 87 10000 9.26 350 16:53 28.02.2022
3488 Clouds 5 1019 81 10000 9.77 340 15:31 28.02.2022
3489 Clouds 6 1018 81 10000 9.26 350 14:32 28.02.2022
3490 Clouds 6 1018 81 10000 8.23 350 13:48 28.02.2022
3491 Clouds 6 1017 87 10000 10.29 340 12:50 28.02.2022
3492 Clouds 6 1017 87 10000 8.75 330 11:58 28.02.2022
3493 Clouds 6 1017 87 10000 8.23 340 11:18 28.02.2022
3494 Clouds 7 1016 87 10000 7.72 340 10:22 28.02.2022
3495 Clouds 7 1016 87 10000 7.2 340 09:41 28.02.2022
3496 Clouds 7 1016 87 10000 4.63 320 08:48 28.02.2022
3497 Clouds 6 1015 93 10000 3.09 330 07:43 28.02.2022
3498 Clouds 6 1014 93 10000 3.09 340 05:52 28.02.2022
3499 Rain 7 1014 87 10000 3.6 300 04:30 28.02.2022
3500 Rain 7 1014 87 10000 3.6 300 04:30 28.02.2022
3501 Rain 7 1014 87 10000 3.6 300 04:30 28.02.2022
3502 Rain 7 1014 93 10000 3.6 70 00:34 28.02.2022
3503 Rain 7 1015 87 10000 5.66 50 22:38 27.02.2022
3504 Rain 7 1015 87 10000 7.2 60 21:58 27.02.2022
3505 Clouds 7 1015 87 10000 6.69 60 21:36 27.02.2022
3506 Clouds 7 1016 81 10000 7.2 60 20:41 27.02.2022
3507 Rain 7 1017 81 10000 8.23 70 20:18 27.02.2022
3508 Clouds 8 1018 71 10000 7.72 60 19:36 27.02.2022
3509 Clouds 8 1018 71 10000 7.72 60 19:18 27.02.2022
3510 Clouds 8 1019 71 10000 8.75 60 17:57 27.02.2022
3511 Clouds 8 1019 71 10000 10.29 70 17:34 27.02.2022
3512 Rain 8 1019 66 10000 9.77 60 16:22 27.02.2022
3513 Clouds 9 1020 71 10000 8.23 40 14:28 27.02.2022
3514 Clouds 10 1020 62 10000 7.72 60 12:35 27.02.2022
3515 Clouds 9 1022 66 10000 8.23 60 11:36 27.02.2022
3516 Clouds 9 1022 66 10000 6.17 50 10:36 27.02.2022
3517 Clouds 8 1022 71 10000 6.17 60 09:52 27.02.2022
3518 Clouds 8 1022 71 10000 6.69 50 09:21 27.02.2022
3519 Clouds 8 1022 71 10000 7.2 70 08:44 27.02.2022
3520 Clouds 7 1023 76 10000 6.69 60 05:43 27.02.2022
3521 Clouds 7 1022 81 10000 6.69 50 03:26 27.02.2022
3522 Clear 8 1023 76 10000 7.2 60 23:51 26.02.2022
3523 Clear 8 1022 81 10000 6.69 50 22:42 26.02.2022
3524 Clear 8 1022 81 10000 6.17 40 21:27 26.02.2022
3525 Clear 8 1022 76 10000 6.17 40 20:41 26.02.2022
3526 Clear 8 1022 76 10000 5.66 50 19:55 26.02.2022
3527 Clear 8 1022 76 10000 6.17 40 19:33 26.02.2022
3528 Clear 9 1022 66 10000 5.66 40 18:31 26.02.2022
3529 Clear 10 1022 57 10000 5.14 40 17:34 26.02.2022
3530 Clear 10 1021 53 10000 5.66 30 16:38 26.02.2022
3531 Clouds 11 1021 58 10000 3.09 50 15:28 26.02.2022
3532 Clouds 10 1021 62 10000 1.03 0 14:59 26.02.2022
3533 Clouds 10 1021 66 10000 2.06 0 14:41 26.02.2022
3534 Clouds 10 1021 66 10000 2.57 250 13:46 26.02.2022
3535 Clouds 10 1021 71 10000 3.6 240 12:53 26.02.2022
3536 Clear 10 1021 66 10000 2.57 230 11:50 26.02.2022
3537 Clear 10 1021 62 10000 2.57 210 11:25 26.02.2022
3538 Clear 10 1021 62 10000 1.54 200 09:31 26.02.2022
3539 Clear 8 1021 71 10000 1.54 240 08:26 26.02.2022
3540 Clear 6 1020 87 10000 0.51 270 04:23 26.02.2022
3541 Clear 7 1020 76 10000 1.03 240 23:50 25.02.2022
3542 Clouds 7 1020 76 10000 0.51 180 22:31 25.02.2022
3543 Clouds 7 1019 70 10000 1.03 130 21:31 25.02.2022
3544 Clouds 7 1019 70 10000 0.51 0 20:47 25.02.2022
3545 Clouds 7 1019 70 10000 1.03 70 20:25 25.02.2022
3546 Clouds 7 1019 70 10000 2.57 10 17:57 25.02.2022
3547 Clouds 7 1018 70 10000 4.12 10 16:54 25.02.2022
3548 Clouds 8 1018 66 10000 5.14 350 15:55 25.02.2022
3549 Clouds 8 1017 66 10000 5.14 350 15:23 25.02.2022
3550 Clouds 8 1017 66 10000 4.63 360 14:55 25.02.2022
3551 Clouds 8 1017 71 10000 5.14 10 14:24 25.02.2022
3552 Clouds 8 1017 71 10000 5.14 360 13:30 25.02.2022
3553 Clouds 8 1018 76 10000 5.66 360 12:21 25.02.2022
3554 Rain 7 1018 81 10000 6.17 10 11:21 25.02.2022
3555 Clouds 7 1017 87 10000 5.66 360 10:23 25.02.2022
3556 Rain 7 1017 81 10000 6.17 360 09:45 25.02.2022
3557 Rain 7 1017 87 10000 4.63 10 08:22 25.02.2022
3558 Rain 7 1016 81 10000 5.14 10 06:56 25.02.2022
3559 Rain 7 1016 76 10000 7.2 20 05:41 25.02.2022
3560 Rain 7 1016 81 10000 6.69 20 02:46 25.02.2022
3561 Rain 7 1016 76 10000 9.77 20 22:47 24.02.2022
3562 Rain 6 1016 81 10000 10.29 20 21:51 24.02.2022
3563 Rain 6 1017 87 10000 10.8 30 21:30 24.02.2022
3564 Rain 6 1017 87 10000 11.32 20 20:47 24.02.2022
3565 Rain 6 1017 87 10000 10.8 20 19:32 24.02.2022
3566 Rain 6 1017 87 10000 9.26 30 18:21 24.02.2022
3567 Rain 7 1017 81 10000 10.8 30 17:58 24.02.2022
3568 Rain 7 1017 81 10000 9.26 30 17:21 24.02.2022
3569 Rain 7 1017 81 10000 7.72 30 16:28 24.02.2022
3570 Rain 7 1017 81 10000 9.26 30 15:44 24.02.2022
3571 Rain 7 1017 81 10000 8.23 30 14:48 24.02.2022
3572 Rain 7 1017 81 10000 10.29 30 13:59 24.02.2022
3573 Rain 7 1017 81 10000 10.29 30 13:38 24.02.2022
3574 Rain 6 1018 87 8000 7.72 40 11:56 24.02.2022
3575 Rain 6 1019 87 10000 8.75 30 10:34 24.02.2022
3576 Rain 6 1019 87 10000 7.72 30 08:46 24.02.2022
3577 Rain 6 1019 87 10000 7.2 40 08:22 24.02.2022
3578 Clouds 6 1018 87 10000 6.69 30 05:50 24.02.2022
3579 Clouds 7 1020 87 10000 5.66 30 00:32 24.02.2022
3580 Rain 7 1020 87 10000 6.69 20 22:29 23.02.2022
3581 Clouds 7 1020 93 10000 5.66 20 20:52 23.02.2022
3582 Clouds 7 1019 93 7000 6.69 20 20:30 23.02.2022
3583 Clouds 8 1019 93 6000 7.72 20 19:37 23.02.2022
3584 Rain 8 1018 93 6000 5.14 10 18:31 23.02.2022
3585 Clouds 8 1018 93 6000 5.66 20 16:43 23.02.2022
3586 Clouds 9 1016 87 10000 8.23 10 14:34 23.02.2022
3587 Clouds 9 1016 93 6000 7.2 10 12:37 23.02.2022
3588 Rain 8 1016 93 3700 7.2 10 11:23 23.02.2022
3589 Mist 8 1016 93 3500 6.69 10 10:30 23.02.2022
3590 Rain 9 1016 93 7000 6.69 10 08:57 23.02.2022
3591 Clouds 9 1015 93 10000 8.23 10 07:57 23.02.2022
3592 Rain 9 1013 100 10000 4.12 340 03:47 23.02.2022
3593 Clouds 11 1011 93 10000 4.63 10 00:19 23.02.2022
3594 Clouds 11 1011 93 10000 2.06 350 23:35 22.02.2022
3595 Clouds 12 1011 93 6000 2.06 360 22:31 22.02.2022
3596 Rain 12 1010 87 6000 3.09 10 21:48 22.02.2022
3597 Rain 12 1011 94 6000 3.09 290 21:25 22.02.2022
3598 Rain 13 1010 88 7000 0.51 0 20:51 22.02.2022
3599 Rain 12 1009 94 8000 1.03 0 20:29 22.02.2022
3600 Clouds 14 1008 72 8000 1.03 0 19:36 22.02.2022
3601 Rain 14 1008 72 8000 1.03 0 19:18 22.02.2022
3602 Clouds 15 1007 58 10000 2.57 100 17:40 22.02.2022
3603 Clouds 15 1007 58 10000 2.57 100 17:19 22.02.2022
3604 Clouds 16 1006 55 10000 3.6 100 16:36 22.02.2022
3605 Clouds 16 1006 59 10000 2.06 100 15:38 22.02.2022
3606 Clouds 16 1006 59 10000 3.09 110 14:43 22.02.2022
3607 Clouds 16 1007 63 10000 1.54 160 11:54 22.02.2022
3608 Clouds 16 1007 55 10000 2.06 130 10:24 22.02.2022
3609 Clouds 12 1007 76 10000 0.51 0 07:48 22.02.2022
3610 Clouds 12 1007 76 10000 1.54 110 07:25 22.02.2022
3611 Clouds 11 1008 87 10000 2.06 250 02:52 22.02.2022
3612 Clouds 11 1008 82 10000 2.06 220 00:48 22.02.2022
3613 Clouds 12 1009 82 10000 1.54 270 22:38 21.02.2022
3614 Clouds 11 1010 81 10000 0 0 21:25 21.02.2022
3615 Clouds 11 1010 76 10000 1.03 0 20:29 21.02.2022
3616 Clear 12 1010 71 10000 1.54 70 18:41 21.02.2022
3617 Clear 15 1010 58 10000 1.03 0 16:47 21.02.2022
3618 Clear 16 1012 51 10000 2.06 210 14:24 21.02.2022
3619 Clear 16 1012 51 10000 2.06 210 13:59 21.02.2022
3620 Clear 16 1013 55 10000 2.06 170 12:58 21.02.2022
3621 Clear 15 1014 58 10000 2.06 160 12:22 21.02.2022
3622 Clear 15 1015 63 10000 2.06 100 10:45 21.02.2022
3623 Clouds 12 1016 62 10000 3.09 70 08:44 21.02.2022
3624 Clouds 9 1017 87 10000 1.03 10 02:31 21.02.2022
3625 Clouds 10 1017 81 10000 0 0 23:29 20.02.2022
3626 Rain 10 1017 81 10000 1.03 0 22:19 20.02.2022
3627 Clouds 10 1018 76 10000 1.03 0 21:41 20.02.2022
3628 Rain 10 1018 71 10000 0.51 0 20:52 20.02.2022
3629 Rain 10 1017 71 10000 1.03 230 20:22 20.02.2022
3630 Rain 11 1017 62 10000 2.06 250 19:29 20.02.2022
3631 Rain 11 1017 58 10000 1.54 250 18:49 20.02.2022
3632 Rain 10 1017 66 10000 1.54 270 18:30 20.02.2022
3633 Rain 11 1017 62 10000 1.54 260 17:30 20.02.2022
3634 Clear 12 1017 54 10000 3.09 260 15:30 20.02.2022
3635 Clear 12 1017 62 10000 3.09 270 14:39 20.02.2022
3636 Clear 12 1018 62 10000 3.6 250 13:22 20.02.2022
3637 Clear 12 1018 62 10000 3.6 250 13:22 20.02.2022
3638 Clear 12 1018 62 10000 3.6 250 13:22 20.02.2022
3639 Rain 12 1019 62 10000 3.6 260 11:56 20.02.2022
3640 Rain 12 1019 62 10000 3.6 260 11:56 20.02.2022
3641 Rain 12 1019 62 10000 3.6 260 11:56 20.02.2022
3642 Clear 11 1020 66 10000 3.09 250 10:21 20.02.2022
3643 Clear 11 1020 71 10000 2.57 260 09:35 20.02.2022
3644 Clear 8 1020 81 10000 1.54 220 06:30 20.02.2022
3645 Clear 7 1021 87 10000 1.03 0 00:32 20.02.2022
3646 Clear 5 1021 87 10000 0.51 300 23:33 19.02.2022
3647 Clear 4 1021 93 10000 0 0 22:24 19.02.2022
3648 Clear 4 1021 87 10000 0 0 21:47 19.02.2022
3649 Clear 5 1021 93 10000 0 0 20:28 19.02.2022
3650 Clear 6 1021 87 10000 0 0 19:34 19.02.2022
3651 Clear 7 1020 87 10000 0.51 180 18:40 19.02.2022
3652 Clear 7 1021 81 10000 1.03 190 18:40 19.02.2022
3653 Clear 7 1020 87 10000 0 0 17:57 19.02.2022
3654 Clear 9 1020 76 10000 2.06 210 16:47 19.02.2022
3655 Clear 11 1021 57 10000 2.06 210 15:59 19.02.2022
3656 Clear 11 1022 57 10000 2.57 240 14:53 19.02.2022
3657 Clear 10 1022 66 10000 3.09 250 13:57 19.02.2022
3658 Clear 10 1022 76 10000 2.57 190 11:47 19.02.2022
3659 Clear 10 1023 66 10000 2.06 160 10:48 19.02.2022
3660 Clear 8 1023 81 10000 1.54 120 08:56 19.02.2022
3661 Clear 2 1021 100 10000 1.03 70 06:45 19.02.2022
3662 Clear 2 1020 93 10000 2.57 350 00:37 19.02.2022
3663 Clear 5 1019 93 10000 1.54 290 22:24 18.02.2022
3664 Clear 6 1019 81 10000 0 0 21:21 18.02.2022
3665 Clear 7 1018 76 10000 3.09 70 19:56 18.02.2022
3666 Clear 8 1017 71 10000 3.6 60 18:51 18.02.2022
3667 Clear 8 1017 71 10000 5.66 40 18:28 18.02.2022
3668 Clear 8 1016 76 10000 2.57 20 17:56 18.02.2022
3669 Clouds 10 1014 66 10000 3.09 280 15:57 18.02.2022
3670 Thunderstorm 9 1013 71 10000 5.66 30 13:56 18.02.2022
3671 Rain 11 1012 66 10000 4.12 220 13:32 18.02.2022
3672 Clouds 12 1012 58 10000 2.57 240 12:48 18.02.2022
3673 Rain 10 1012 66 10000 1.03 0 11:56 18.02.2022
3674 Rain 10 1012 76 10000 3.6 290 10:42 18.02.2022
3675 Rain 10 1011 87 10000 4.12 290 07:20 18.02.2022
3676 Clouds 10 1010 81 10000 3.6 250 05:43 18.02.2022
3677 Rain 10 1009 76 10000 6.17 240 03:47 18.02.2022
3678 Clear 10 1009 76 10000 3.6 210 21:56 17.02.2022
3679 Clear 11 1009 71 10000 4.63 220 21:27 17.02.2022
3680 Clear 10 1009 76 10000 4.12 210 20:40 17.02.2022
3681 Clear 9 1009 76 10000 1.54 230 19:54 17.02.2022
3682 Clear 9 1010 81 10000 1.54 180 18:57 17.02.2022
3683 Clear 9 1010 81 10000 1.03 0 18:18 17.02.2022
3684 Clear 10 1010 66 10000 1.54 190 16:43 17.02.2022
3685 Clear 12 1011 50 10000 2.06 240 15:50 17.02.2022
3686 Clear 12 1012 54 10000 4.12 270 14:29 17.02.2022
3687 Clear 13 1012 62 10000 4.12 280 13:30 17.02.2022
3688 Clear 12 1013 76 10000 2.06 230 11:36 17.02.2022
3689 Clear 12 1014 66 10000 5.14 270 09:38 17.02.2022
3690 Clear 7 1015 81 10000 2.06 330 06:37 17.02.2022
3691 Clear 4 1017 81 10000 1.03 10 23:23 16.02.2022
3692 Clear 6 1017 70 10000 1.03 90 22:27 16.02.2022
3693 Clear 6 1018 70 10000 1.03 20 20:21 16.02.2022
3694 Clear 10 1018 53 10000 0 0 18:50 16.02.2022
3695 Clear 9 1018 57 10000 0 0 17:54 16.02.2022
3696 Clear 12 1019 46 10000 1.54 100 15:58 16.02.2022
3697 Clear 13 1019 50 10000 1.54 140 15:21 16.02.2022
3698 Clear 13 1020 50 10000 1.54 240 13:38 16.02.2022
3699 Clear 12 1021 47 10000 1.54 200 12:21 16.02.2022
3700 Clear 12 1022 50 10000 2.06 160 11:35 16.02.2022
3701 Clear 10 1023 62 10000 2.06 160 10:34 16.02.2022
3702 Clear 10 1023 62 10000 2.57 150 09:34 16.02.2022
3703 Mist 4 1023 100 4000 2.06 130 06:43 16.02.2022
3704 Mist 3 1024 93 4000 0 0 00:37 16.02.2022
3705 Clear 4 1024 87 10000 0 0 22:34 15.02.2022
3706 Clear 4 1024 87 10000 0 0 21:50 15.02.2022
3707 Clear 4 1024 87 10000 0.51 0 21:29 15.02.2022
3708 Clear 4 1024 93 10000 0 0 20:57 15.02.2022
3709 Clear 5 1024 87 10000 1.03 150 20:19 15.02.2022
3710 Clear 5 1024 87 10000 1.54 170 19:33 15.02.2022
3711 Clear 6 1024 81 10000 1.54 180 18:24 15.02.2022
3712 Clear 6 1024 81 10000 2.06 200 17:52 15.02.2022
3713 Clear 6 1024 81 10000 1.54 190 17:26 15.02.2022
3714 Clear 8 1024 71 10000 2.57 230 15:34 15.02.2022
3715 Clear 9 1024 61 10000 3.6 260 13:29 15.02.2022
3716 Clear 8 1024 71 10000 2.06 250 12:59 15.02.2022
3717 Clouds 8 1025 76 10000 2.57 230 11:41 15.02.2022
3718 Clouds 8 1025 76 10000 2.57 230 11:41 15.02.2022
3719 Clouds 8 1025 76 10000 2.06 230 09:54 15.02.2022
3720 Mist 0 1025 93 5000 1.54 350 07:00 15.02.2022
3721 Clear 0 1025 93 6000 2.06 350 06:19 15.02.2022
3722 Clear 5 1025 75 10000 2.06 40 23:34 14.02.2022
3723 Clouds 5 1025 75 10000 2.06 40 21:55 14.02.2022
3724 Clouds 5 1025 75 10000 2.06 50 20:51 14.02.2022
3725 Clouds 6 1025 70 10000 2.06 50 19:46 14.02.2022
3726 Clear 6 1025 70 10000 3.09 60 19:26 14.02.2022
3727 Clear 6 1025 70 10000 3.6 60 18:23 14.02.2022
3728 Clouds 7 1025 65 10000 3.6 60 17:27 14.02.2022
3729 Clouds 7 1025 65 10000 3.6 30 16:26 14.02.2022
3730 Clouds 8 1024 57 10000 3.09 50 14:43 14.02.2022
3731 Clouds 8 1024 61 10000 3.6 50 13:34 14.02.2022
3732 Clouds 8 1024 61 10000 3.6 20 12:58 14.02.2022
3733 Clouds 8 1025 66 10000 4.12 40 11:56 14.02.2022
3734 Clouds 8 1025 61 10000 4.63 40 11:37 14.02.2022
3735 Clouds 6 1025 81 10000 4.63 40 09:25 14.02.2022
3736 Clouds 6 1025 81 10000 4.12 30 07:37 14.02.2022
3737 Clouds 6 1025 81 10000 4.12 30 07:19 14.02.2022
3738 Clouds 6 1025 87 10000 5.14 40 22:48 13.02.2022
3739 Clouds 6 1026 87 10000 4.12 50 22:29 13.02.2022
3740 Clouds 6 1026 87 10000 5.14 50 21:48 13.02.2022
3741 Clouds 6 1026 87 10000 6.17 50 20:42 13.02.2022
3742 Clouds 7 1026 81 10000 6.69 50 19:57 13.02.2022
3743 Clouds 7 1026 76 10000 6.69 70 18:57 13.02.2022
3744 Clouds 7 1026 81 10000 5.66 60 18:38 13.02.2022
3745 Clouds 7 1026 70 10000 5.14 60 16:40 13.02.2022
3746 Clouds 7 1026 70 10000 6.69 40 15:50 13.02.2022
3747 Clouds 7 1027 70 10000 7.72 50 14:38 13.02.2022
3748 Clouds 7 1028 70 10000 8.75 50 13:26 13.02.2022
3749 Clouds 7 1028 70 10000 8.23 50 12:40 13.02.2022
3750 Clouds 7 1029 70 10000 8.75 60 10:40 13.02.2022
3751 Clouds 7 1029 76 10000 8.23 60 09:50 13.02.2022
3752 Clouds 7 1029 76 10000 10.29 70 08:55 13.02.2022
3753 Clouds 7 1031 81 10000 8.75 60 01:26 13.02.2022
3754 Clouds 7 1031 81 10000 9.77 50 00:21 13.02.2022
3755 Clouds 8 1032 76 10000 9.77 60 22:34 12.02.2022
3756 Clouds 8 1032 76 10000 8.75 40 22:00 12.02.2022
3757 Clouds 8 1031 76 10000 10.29 50 20:55 12.02.2022
3758 Clouds 8 1031 76 10000 8.23 40 19:56 12.02.2022
3759 Clouds 8 1030 81 10000 9.26 30 18:54 12.02.2022
3760 Clouds 8 1030 81 10000 9.26 30 18:36 12.02.2022
3761 Clouds 8 1029 81 10000 8.75 20 17:39 12.02.2022
3762 Clouds 9 1028 76 10000 6.69 20 16:46 12.02.2022
3763 Clouds 12 1028 54 10000 7.2 40 15:53 12.02.2022
3764 Clouds 11 1028 81 10000 1.54 0 15:20 12.02.2022
3765 Clouds 11 1027 81 10000 3.09 240 14:25 12.02.2022
3766 Clear 11 1027 81 10000 2.57 230 11:33 12.02.2022
3767 Clear 10 1027 81 10000 2.57 250 10:32 12.02.2022
3768 Clear 11 1027 76 10000 4.12 250 09:37 12.02.2022
3769 Clear 9 1027 71 10000 3.09 270 08:47 12.02.2022
3770 Clear 7 1026 87 10000 2.57 280 07:45 12.02.2022
3771 Clear 3 1024 100 7000 0 0 04:50 12.02.2022
3772 Clear 2 1024 93 7000 1.54 220 02:19 12.02.2022
3773 Clear 3 1023 93 7000 0 0 23:34 11.02.2022
3774 Clear 5 1023 100 7000 0 0 22:23 11.02.2022
3775 Clear 4 1023 93 10000 0 0 21:37 11.02.2022
3776 Clear 4 1023 93 10000 0 0 20:29 11.02.2022
3777 Clear 6 1023 87 10000 1.03 210 19:29 11.02.2022
3778 Clear 7 1023 81 10000 2.06 220 18:44 11.02.2022
3779 Clear 8 1023 76 10000 2.06 180 17:27 11.02.2022
3780 Clear 8 1023 76 10000 1.54 210 16:47 11.02.2022
3781 Clear 10 1023 61 10000 2.06 260 15:22 11.02.2022
3782 Clear 10 1023 57 10000 2.57 250 14:38 11.02.2022
3783 Clear 11 1023 62 10000 2.06 250 14:19 11.02.2022
3784 Clear 10 1024 61 10000 2.06 230 13:47 11.02.2022
3785 Clear 9 1024 66 10000 3.09 240 13:28 11.02.2022
3786 Clear 9 1025 61 10000 4.63 220 11:23 11.02.2022
3787 Clear 8 1026 66 10000 3.6 230 09:37 11.02.2022
3788 Clear 8 1026 66 10000 4.12 220 08:35 11.02.2022
3789 Clear 6 1026 70 10000 4.63 230 07:46 11.02.2022
3790 Clear 6 1026 70 10000 4.63 230 07:46 11.02.2022
3791 Clear 6 1025 81 10000 4.12 230 06:24 11.02.2022
3792 Clear 2 1026 93 10000 1.03 360 02:22 11.02.2022
3793 Clear 2 1027 93 10000 1.54 120 23:48 10.02.2022
3794 Clear 4 1028 87 10000 1.54 140 22:33 10.02.2022
3795 Clear 5 1028 81 10000 2.06 100 21:42 10.02.2022
3796 Clear 6 1028 75 10000 2.06 100 20:50 10.02.2022
3797 Clear 6 1028 75 10000 1.54 100 19:59 10.02.2022
3798 Clear 7 1028 70 10000 1.54 90 19:23 10.02.2022
3799 Clear 7 1028 70 10000 2.06 100 18:33 10.02.2022
3800 Clear 7 1028 76 10000 1.03 300 17:23 10.02.2022
3801 Clear 8 1028 76 10000 2.06 0 16:47 10.02.2022
3802 Clear 10 1028 57 10000 1.54 190 15:42 10.02.2022
3803 Clear 10 1028 57 10000 2.57 230 15:24 10.02.2022
3804 Clear 10 1028 50 10000 2.57 0 14:35 10.02.2022
3805 Clear 10 1028 46 10000 4.12 60 13:59 10.02.2022
3806 Clouds 10 1028 46 10000 3.6 50 13:19 10.02.2022
3807 Clouds 10 1029 57 10000 4.12 50 11:57 10.02.2022
3808 Clouds 9 1029 66 10000 4.12 30 11:32 10.02.2022
3809 Clouds 8 1029 71 10000 5.66 30 10:25 10.02.2022
3810 Clouds 9 1029 61 10000 4.63 20 09:46 10.02.2022
3811 Clouds 7 1029 81 10000 2.57 10 08:42 10.02.2022
3812 Clouds 2 1028 93 10000 2.06 10 06:34 10.02.2022
3813 Clouds 1 1027 93 10000 2.57 340 03:33 10.02.2022
3814 Clouds 3 1027 87 10000 2.06 330 00:57 10.02.2022
3815 Clouds 4 1027 87 10000 3.09 340 00:38 10.02.2022
3816 Clouds 4 1027 87 10000 3.09 340 00:20 10.02.2022
3817 Clouds 6 1026 81 10000 3.09 30 22:56 09.02.2022
3818 Clouds 6 1026 81 10000 2.57 30 22:33 09.02.2022
3819 Clouds 6 1026 81 10000 3.09 30 21:47 09.02.2022
3820 Clouds 5 1026 81 10000 2.57 360 21:27 09.02.2022
3821 Clouds 5 1026 81 10000 2.57 360 21:27 09.02.2022
3822 Clouds 5 1026 81 10000 2.06 360 20:44 09.02.2022
3823 Clouds 5 1026 81 10000 2.06 360 20:44 09.02.2022
3824 Clouds 5 1026 81 10000 2.06 360 20:22 09.02.2022
3825 Clouds 5 1026 75 10000 2.57 20 19:42 09.02.2022
3826 Clouds 6 1025 70 10000 3.09 30 18:50 09.02.2022
3827 Clouds 6 1025 65 10000 4.12 20 17:24 09.02.2022
3828 Clouds 6 1024 65 10000 5.14 30 16:20 09.02.2022
3829 Clouds 6 1024 65 10000 5.66 10 15:24 09.02.2022
3830 Clouds 8 1023 53 10000 6.17 20 12:53 09.02.2022
3831 Clouds 6 1023 70 10000 8.23 350 11:36 09.02.2022
3832 Clouds 6 1023 65 10000 7.2 360 10:35 09.02.2022
3833 Clouds 6 1023 61 10000 5.66 20 09:53 09.02.2022
3834 Clouds 6 1023 61 10000 7.2 20 09:22 09.02.2022
3835 Clouds 6 1023 61 10000 6.17 30 08:46 09.02.2022
3836 Clouds 4 1022 70 10000 6.17 10 06:52 09.02.2022
3837 Clouds 5 1020 65 10000 9.26 20 04:30 09.02.2022
3838 Clouds 5 1019 70 10000 7.72 10 03:48 09.02.2022
3839 Rain 4 1017 87 10000 9.26 20 23:45 08.02.2022
3840 Rain 4 1016 87 10000 9.26 20 23:19 08.02.2022
3841 Rain 4 1016 87 10000 8.75 20 22:38 08.02.2022
3842 Rain 4 1016 87 10000 8.75 20 22:20 08.02.2022
3843 Rain 4 1016 93 10000 9.26 20 21:22 08.02.2022
3844 Rain 4 1015 87 10000 9.77 10 20:58 08.02.2022
3845 Rain 4 1015 87 10000 7.2 10 20:37 08.02.2022
3846 Rain 4 1015 87 10000 7.2 10 20:37 08.02.2022
3847 Rain 4 1013 87 8000 11.32 20 19:27 08.02.2022
3848 Rain 5 1012 87 8000 10.8 20 18:24 08.02.2022
3849 Rain 5 1012 87 9000 9.77 20 17:30 08.02.2022
3850 Rain 4 1010 87 10000 10.29 20 15:47 08.02.2022
3851 Rain 4 1010 93 8000 11.32 20 15:27 08.02.2022
3852 Rain 5 1009 87 8000 10.29 20 13:50 08.02.2022
3853 Rain 5 1008 87 10000 8.75 20 12:24 08.02.2022
3854 Rain 5 1008 87 7000 9.26 20 10:49 08.02.2022
3855 Rain 5 1008 87 7000 7.72 20 09:49 08.02.2022
3856 Rain 4 1007 93 4000 6.69 10 08:39 08.02.2022
3857 Rain 5 1006 87 10000 9.77 20 06:38 08.02.2022
3858 Rain 7 1004 93 10000 8.75 360 04:40 08.02.2022
3859 Rain 8 1004 93 4000 7.72 330 04:22 08.02.2022
3860 Rain 10 1003 87 10000 3.09 280 03:36 08.02.2022
3861 Rain 10 1003 87 10000 3.09 280 03:18 08.02.2022
3862 Rain 10 1003 87 10000 5.66 220 02:59 08.02.2022
3863 Rain 10 1003 87 10000 5.66 220 02:36 08.02.2022
3864 Thunderstorm 10 1003 87 4000 7.2 210 02:18 08.02.2022
3865 Rain 10 1004 93 4000 7.2 200 01:44 08.02.2022
3866 Rain 10 1004 93 7000 2.06 280 01:25 08.02.2022
3867 Rain 10 1004 93 7000 2.06 280 01:25 08.02.2022
3868 Rain 10 1005 87 10000 2.57 230 00:55 08.02.2022
3869 Rain 10 1005 87 10000 3.09 270 00:21 08.02.2022
3870 Rain 11 1006 82 10000 6.17 220 23:44 07.02.2022
3871 Clouds 11 1006 82 10000 6.17 220 23:18 07.02.2022
3872 Clouds 11 1006 82 10000 7.72 220 22:59 07.02.2022
3873 Rain 11 1006 76 10000 8.75 220 22:19 07.02.2022
3874 Clouds 11 1006 76 10000 7.2 220 21:50 07.02.2022
3875 Clouds 11 1006 76 10000 9.26 210 21:27 07.02.2022
3876 Clouds 12 1006 71 10000 9.26 210 20:45 07.02.2022
3877 Clouds 11 1006 76 10000 9.26 210 20:27 07.02.2022
3878 Clouds 11 1007 76 10000 9.26 210 19:47 07.02.2022
3879 Clouds 10 1007 76 10000 2.57 190 18:35 07.02.2022
3880 Clouds 11 1008 76 10000 5.66 210 17:18 07.02.2022
3881 Clouds 11 1008 66 10000 8.75 210 16:46 07.02.2022
3882 Clouds 11 1009 62 10000 9.77 220 15:48 07.02.2022
3883 Clouds 12 1010 62 10000 6.69 230 13:51 07.02.2022
3884 Clouds 11 1011 62 10000 8.75 220 13:26 07.02.2022
3885 Clouds 12 1012 58 10000 7.2 230 12:18 07.02.2022
3886 Clouds 12 1012 58 10000 8.23 230 11:38 07.02.2022
3887 Clouds 11 1014 62 10000 6.17 220 10:59 07.02.2022
3888 Clouds 12 1014 62 10000 6.17 220 10:41 07.02.2022
3889 Clear 11 1014 66 10000 5.14 220 10:22 07.02.2022
3890 Clear 10 1014 66 10000 6.17 220 09:47 07.02.2022
3891 Clear 10 1014 66 10000 6.17 220 09:18 07.02.2022
3892 Clear 7 1015 71 10000 6.69 210 07:35 07.02.2022
3893 Clear 7 1015 71 10000 5.14 200 06:34 07.02.2022
3894 Clear 7 1017 76 10000 4.12 200 04:22 07.02.2022
3895 Clear 7 1020 87 10000 2.06 220 01:37 07.02.2022
3896 Clear 6 1020 87 10000 1.03 140 23:51 06.02.2022
3897 Clear 6 1021 87 10000 2.06 230 23:19 06.02.2022
3898 Clear 5 1021 93 10000 1.03 270 22:39 06.02.2022
3899 Clear 7 1022 87 10000 1.54 220 21:37 06.02.2022
3900 Clear 7 1022 87 10000 1.54 220 21:18 06.02.2022
3901 Clear 7 1023 81 10000 1.54 220 20:48 06.02.2022
3902 Clear 7 1023 81 10000 2.06 220 20:21 06.02.2022
3903 Clear 7 1023 87 10000 1.54 210 18:54 06.02.2022
3904 Clear 6 1023 93 10000 1.03 220 18:27 06.02.2022
3905 Clear 7 1023 87 10000 2.06 250 17:29 06.02.2022
3906 Clear 8 1023 81 10000 2.57 270 16:50 06.02.2022
3907 Clear 9 1023 76 10000 2.57 0 15:51 06.02.2022
3908 Clear 9 1023 76 10000 3.09 250 15:28 06.02.2022
3909 Clear 9 1024 76 10000 3.09 240 14:59 06.02.2022
3910 Clear 10 1024 71 10000 3.09 230 13:57 06.02.2022
3911 Clouds 9 1024 76 10000 3.6 220 13:20 06.02.2022
3912 Clouds 11 1025 62 10000 1.03 0 11:45 06.02.2022
3913 Clouds 10 1025 66 10000 2.57 350 10:33 06.02.2022
3914 Clear 9 1025 71 10000 3.09 360 09:36 06.02.2022
3915 Clouds 8 1024 76 10000 2.06 360 08:41 06.02.2022
3916 Clear 6 1023 81 10000 3.6 260 06:31 06.02.2022
3917 Clear 7 1022 76 10000 4.12 240 05:27 06.02.2022
3918 Clear 6 1021 81 10000 2.57 240 02:25 06.02.2022
3919 Clear 6 1021 81 10000 3.09 240 00:30 06.02.2022
3920 Clear 6 1021 81 10000 3.09 220 23:27 05.02.2022
3921 Clear 7 1021 76 10000 4.12 220 21:46 05.02.2022
3922 Clear 7 1020 71 10000 4.12 210 20:39 05.02.2022
3923 Clear 7 1020 71 10000 4.12 210 20:19 05.02.2022
3924 Clear 7 1020 81 10000 3.6 210 19:41 05.02.2022
3925 Clear 7 1020 76 10000 3.6 210 18:26 05.02.2022
3926 Clear 7 1019 76 10000 4.12 230 17:34 05.02.2022
3927 Clear 8 1019 57 10000 4.12 230 15:43 05.02.2022
3928 Clouds 8 1019 57 10000 4.12 230 15:25 05.02.2022
3929 Clear 7 1019 65 10000 5.14 230 13:24 05.02.2022
3930 Clear 7 1020 61 10000 5.66 220 12:42 05.02.2022
3931 Clear 7 1020 61 10000 6.17 220 11:18 05.02.2022
3932 Clear 7 1021 65 10000 6.17 220 10:43 05.02.2022
3933 Clear 6 1021 61 10000 6.17 210 09:49 05.02.2022
3934 Clear 5 1021 70 10000 5.66 200 08:21 05.02.2022
3935 Clear 3 1021 75 10000 5.14 220 06:58 05.02.2022
3936 Clear 3 1021 75 10000 5.14 220 05:44 05.02.2022
3937 Clear 1 1021 80 10000 1.54 170 01:47 05.02.2022
3938 Clear 2 1021 75 10000 1.54 160 01:18 05.02.2022
3939 Clear 2 1021 75 10000 1.54 160 01:18 05.02.2022
3940 Clear 3 1021 70 10000 1.54 150 00:36 05.02.2022
3941 Clear 3 1022 75 10000 2.06 120 23:33 04.02.2022
3942 Clear 1 1022 75 10000 2.57 120 22:37 04.02.2022
3943 Clear 1 1022 75 10000 2.06 120 21:36 04.02.2022
3944 Clear 2 1022 69 10000 2.06 130 21:18 04.02.2022
3945 Clear 3 1022 65 10000 2.06 90 20:28 04.02.2022
3946 Clear 3 1022 60 10000 2.57 70 18:30 04.02.2022
3947 Clouds 6 1022 49 10000 3.6 20 15:57 04.02.2022
3948 Clouds 6 1022 52 10000 5.14 360 14:56 04.02.2022
3949 Clouds 7 1022 49 10000 3.6 50 14:24 04.02.2022
3950 Clouds 6 1022 52 10000 4.63 10 12:43 04.02.2022
3951 Clouds 7 1022 53 10000 5.66 50 11:43 04.02.2022
3952 Clouds 7 1023 57 10000 5.14 40 10:48 04.02.2022
3953 Clouds 5 1022 70 10000 4.12 10 08:50 04.02.2022
3954 Clouds 3 1022 81 10000 4.12 10 07:35 04.02.2022
3955 Clouds 4 1020 81 10000 3.09 10 02:54 04.02.2022
3956 Clouds 5 1019 75 10000 4.12 20 02:20 04.02.2022
3957 Clouds 5 1019 75 10000 4.63 30 23:32 03.02.2022
3958 Clouds 6 1018 70 10000 5.14 20 22:48 03.02.2022
3959 Clouds 6 1018 75 10000 6.17 30 21:50 03.02.2022
3960 Rain 5 1018 87 10000 4.12 40 20:43 03.02.2022
3961 Rain 5 1017 81 10000 4.63 50 20:20 03.02.2022
3962 Rain 5 1017 81 10000 6.69 40 19:34 03.02.2022
3963 Rain 5 1017 81 10000 7.2 40 18:44 03.02.2022
3964 Rain 5 1016 87 10000 6.69 30 17:42 03.02.2022
3965 Rain 5 1015 87 10000 7.2 20 16:35 03.02.2022
3966 Rain 5 1014 87 10000 7.72 20 14:52 03.02.2022
3967 Rain 5 1012 87 10000 7.2 20 12:59 03.02.2022
3968 Rain 5 1012 87 10000 7.2 20 11:42 03.02.2022
3969 Rain 4 1010 87 10000 7.2 20 08:38 03.02.2022
3970 Rain 3 1007 93 10000 7.72 10 05:26 03.02.2022
3971 Snow 5 1007 93 10000 7.2 10 00:32 03.02.2022
3972 Rain 5 1006 93 10000 6.69 360 23:44 02.02.2022
3973 Rain 6 1006 93 10000 3.09 10 22:32 02.02.2022
3974 Rain 6 1006 93 10000 3.6 30 21:34 02.02.2022
3975 Rain 6 1006 93 8000 4.12 30 20:51 02.02.2022
3976 Rain 6 1007 93 10000 5.14 20 19:59 02.02.2022
3977 Rain 6 1007 93 9000 3.09 10 19:32 02.02.2022
3978 Rain 6 1007 93 8000 6.17 350 18:50 02.02.2022
3979 Rain 6 1006 93 10000 7.2 340 18:22 02.02.2022
3980 Rain 6 1005 100 8000 8.23 360 17:19 02.02.2022
3981 Clouds 7 1004 93 8000 4.12 360 16:42 02.02.2022
3982 Clouds 9 1005 93 9000 1.03 0 13:35 02.02.2022
3983 Rain 9 1006 87 10000 2.06 100 12:25 02.02.2022
3984 Rain 8 1007 93 4000 0.51 0 11:34 02.02.2022
3985 Rain 7 1007 100 4000 0 0 10:31 02.02.2022
3986 Rain 7 1007 93 10000 5.14 360 07:37 02.02.2022
3987 Clouds 7 1008 93 10000 2.06 360 22:52 01.02.2022
3988 Clouds 8 1008 87 10000 2.57 30 21:51 01.02.2022
3989 Rain 8 1007 87 10000 1.03 40 20:35 01.02.2022
3990 Rain 9 1007 66 10000 3.09 90 17:50 01.02.2022
3991 Clouds 9 1006 61 10000 3.6 100 16:40 01.02.2022
3992 Rain 8 1007 71 10000 5.66 130 14:47 01.02.2022
3993 Rain 9 1008 61 10000 5.14 130 12:45 01.02.2022
3994 Rain 10 1009 57 10000 4.12 130 11:34 01.02.2022
3995 Clear 6 1009 75 10000 2.57 180 04:53 01.02.2022
3996 Clear 5 1011 81 10000 2.06 130 23:42 31.01.2022
3997 Clear 5 1011 81 10000 2.06 130 23:42 31.01.2022
3998 Clear 5 1011 81 10000 2.06 120 23:21 31.01.2022
3999 Clear 4 1011 87 10000 1.54 120 21:42 31.01.2022
4000 Clear 6 1011 75 10000 2.06 120 21:19 31.01.2022
4001 Clear 4 1012 81 10000 1.54 180 20:32 31.01.2022
4002 Clear 3 1012 81 10000 0.51 0 19:35 31.01.2022
4003 Clear 6 1012 70 10000 2.57 220 18:26 31.01.2022
4004 Clear 6 1012 70 10000 2.57 220 17:41 31.01.2022
4005 Clear 7 1012 65 10000 3.09 220 16:38 31.01.2022
4006 Clear 8 1012 61 10000 4.12 220 15:43 31.01.2022
4007 Clear 8 1013 53 10000 4.12 240 14:22 31.01.2022
4008 Clear 8 1013 53 10000 5.14 230 12:39 31.01.2022
4009 Clear 8 1014 53 10000 4.12 230 11:56 31.01.2022
4010 Clear 8 1015 57 10000 4.12 230 10:50 31.01.2022
4011 Clear 8 1015 49 10000 2.57 270 10:30 31.01.2022
4012 Clear 7 1015 49 10000 2.57 300 09:27 31.01.2022
4013 Clear 7 1015 49 10000 1.54 260 08:51 31.01.2022
4014 Clear 6 1015 61 10000 3.6 280 08:20 31.01.2022
4015 Clear 4 1013 65 10000 2.06 290 06:18 31.01.2022
4016 Clouds 6 1013 65 10000 4.12 290 02:18 31.01.2022
4017 Clouds 8 1013 81 10000 6.17 260 23:18 30.01.2022
4018 Clouds 8 1012 76 10000 6.69 240 22:29 30.01.2022
4019 Clouds 8 1013 76 10000 7.72 250 21:42 30.01.2022
4020 Clouds 8 1012 71 10000 6.17 230 21:19 30.01.2022
4021 Clouds 8 1012 71 10000 7.72 240 20:47 30.01.2022
4022 Clouds 8 1012 66 10000 7.72 250 20:28 30.01.2022
4023 Clouds 7 1012 76 10000 7.2 250 19:52 30.01.2022
4024 Clouds 6 1012 81 10000 3.6 220 18:43 30.01.2022
4025 Clouds 6 1012 81 10000 3.6 220 18:20 30.01.2022
4026 Rain 6 1012 81 10000 5.66 220 17:22 30.01.2022
4027 Clouds 6 1013 81 10000 5.66 240 16:40 30.01.2022
4028 Rain 6 1014 81 10000 5.14 240 16:22 30.01.2022
4029 Rain 6 1013 81 10000 5.14 230 15:50 30.01.2022
4030 Rain 6 1014 81 10000 4.63 230 15:31 30.01.2022
4031 Rain 6 1014 81 10000 4.12 240 14:46 30.01.2022
4032 Clear 6 1016 70 10000 4.63 240 12:47 30.01.2022
4033 Clear 6 1017 65 10000 5.14 240 11:58 30.01.2022
4034 Clear 6 1017 61 10000 2.06 240 10:36 30.01.2022
4035 Clear 6 1017 61 10000 1.03 0 09:51 30.01.2022
4036 Clear 4 1018 70 10000 3.09 130 08:55 30.01.2022
4037 Clear 0 1019 93 6000 2.06 350 07:28 30.01.2022
4038 Clear 0 1022 93 10000 3.09 360 01:56 30.01.2022
4039 Clear 1 1022 93 10000 2.06 10 00:34 30.01.2022
4040 Clear 4 1023 81 10000 2.06 70 23:20 29.01.2022
4041 Clear 4 1023 87 10000 1.03 0 21:50 29.01.2022
4042 Clear 5 1023 70 10000 3.09 40 21:24 29.01.2022
4043 Clear 4 1023 81 10000 2.57 30 20:32 29.01.2022
4044 Clear 6 1023 70 10000 4.12 30 19:34 29.01.2022
4045 Clear 6 1023 70 10000 3.6 40 18:52 29.01.2022
4046 Clear 6 1023 70 10000 3.09 30 18:23 29.01.2022
4047 Clear 6 1023 70 10000 4.63 40 17:31 29.01.2022
4048 Clouds 7 1023 65 10000 3.09 50 16:25 29.01.2022
4049 Clouds 8 1022 66 10000 3.6 120 14:23 29.01.2022
4050 Clouds 8 1022 66 10000 3.09 130 13:44 29.01.2022
4051 Clouds 8 1022 66 10000 3.6 130 13:24 29.01.2022
4052 Clouds 8 1023 61 10000 3.6 130 11:49 29.01.2022
4053 Clouds 8 1023 66 10000 3.6 130 11:24 29.01.2022
4054 Clouds 6 1023 87 10000 0.51 0 08:57 29.01.2022
4055 Clouds 6 1022 75 10000 1.54 230 06:55 29.01.2022
4056 Clouds 7 1020 70 10000 6.17 220 00:36 29.01.2022
4057 Clouds 7 1020 70 10000 6.17 220 23:52 28.01.2022
4058 Clouds 6 1021 70 10000 6.17 220 22:50 28.01.2022
4059 Clouds 6 1021 70 10000 5.66 220 22:21 28.01.2022
4060 Clouds 7 1021 70 10000 6.17 210 21:36 28.01.2022
4061 Clouds 7 1020 65 10000 6.17 210 20:29 28.01.2022
4062 Clouds 7 1020 65 10000 6.17 210 19:29 28.01.2022
4063 Clouds 7 1019 70 10000 7.2 210 18:42 28.01.2022
4064 Clouds 6 1019 65 10000 6.17 210 16:46 28.01.2022
4065 Clouds 6 1019 65 10000 7.2 210 15:20 28.01.2022
4066 Clear 6 1020 61 10000 7.72 210 13:50 28.01.2022
4067 Clear 5 1020 65 10000 7.2 210 12:29 28.01.2022
4068 Clear 5 1022 65 10000 6.69 210 10:49 28.01.2022
4069 Clear 5 1022 65 10000 7.2 210 09:52 28.01.2022
4070 Clear 3 1022 70 10000 6.17 210 07:44 28.01.2022
4071 Clear 3 1022 75 10000 5.14 210 06:44 28.01.2022
4072 Clouds 3 1022 75 10000 5.14 220 03:56 28.01.2022
4073 Clouds 3 1023 75 10000 4.63 220 02:31 28.01.2022
4074 Clouds 3 1023 75 10000 4.12 220 01:59 28.01.2022
4075 Clouds 3 1023 75 10000 4.63 210 01:30 28.01.2022
4076 Clear 3 1024 75 10000 4.12 220 22:48 27.01.2022
4077 Clouds 5 1025 70 10000 4.12 220 21:46 27.01.2022
4078 Clouds 4 1025 75 10000 4.12 220 21:28 27.01.2022
4079 Clouds 4 1025 70 10000 2.57 240 20:24 27.01.2022
4080 Clear 4 1025 70 10000 2.57 230 18:24 27.01.2022
4081 Clear 4 1024 70 10000 2.57 230 17:26 27.01.2022
4082 Clouds 5 1025 70 10000 2.06 230 14:25 27.01.2022
4083 Clouds 5 1025 70 10000 2.57 230 13:24 27.01.2022
4084 Clouds 5 1025 60 10000 1.03 0 12:25 27.01.2022
4085 Clouds 3 1025 70 10000 1.54 350 09:56 27.01.2022
4086 Clouds 2 1025 69 10000 2.06 310 08:41 27.01.2022
4087 Clouds 2 1025 69 10000 2.06 310 08:18 27.01.2022
4088 Clouds 2 1023 69 10000 3.09 290 03:37 27.01.2022
4089 Clouds 2 1024 64 10000 2.06 300 00:25 27.01.2022
4090 Clouds 2 1024 64 10000 2.06 300 00:25 27.01.2022
4091 Clouds 1 1024 69 10000 1.54 280 22:38 26.01.2022
4092 Clouds 0 1024 74 10000 0.51 0 21:45 26.01.2022
4093 Snow -1 1024 74 10000 0 0 20:59 26.01.2022
4094 Clouds -1 1024 74 10000 1.03 0 20:35 26.01.2022
4095 Clouds -1 1024 74 10000 0.51 360 19:52 26.01.2022
4096 Clouds 0 1024 69 10000 0 0 19:18 26.01.2022
4097 Clouds 0 1023 64 10000 1.03 350 18:26 26.01.2022
4098 Snow 0 1023 69 10000 1.03 350 17:49 26.01.2022
4099 Snow 0 1023 59 10000 1.54 360 17:19 26.01.2022
4100 Clouds 1 1023 55 10000 2.57 330 16:26 26.01.2022
4101 Clouds 1 1022 55 10000 2.06 350 15:24 26.01.2022
4102 Clear 1 1023 64 10000 4.12 340 12:52 26.01.2022
4103 Clear 0 1023 69 10000 5.14 330 10:57 26.01.2022
4104 Clouds 0 1024 69 10000 5.14 330 09:59 26.01.2022
4105 Clouds 0 1024 69 10000 5.14 330 09:40 26.01.2022
4106 Clouds -1 1023 74 10000 6.17 350 07:28 26.01.2022
4107 Clouds -1 1023 74 10000 4.63 360 00:42 26.01.2022
4108 Clouds -1 1024 74 10000 4.63 10 23:44 25.01.2022
4109 Snow 0 1024 74 10000 4.12 10 22:50 25.01.2022
4110 Snow -1 1024 80 10000 4.63 360 22:20 25.01.2022
4111 Snow -3 1024 86 10000 4.12 360 21:35 25.01.2022
4112 Clouds -3 1025 80 10000 4.12 360 20:46 25.01.2022
4113 Clouds -1 1024 80 10000 4.63 10 19:59 25.01.2022
4114 Clouds -1 1024 80 10000 4.63 360 19:34 25.01.2022
4115 Clouds -2 1024 80 10000 4.12 10 18:20 25.01.2022
4116 Clouds -2 1024 80 10000 5.14 10 17:39 25.01.2022
4117 Clouds -1 1025 80 10000 5.66 10 16:35 25.01.2022
4118 Clouds 0 1025 74 10000 6.69 10 15:39 25.01.2022
4119 Clouds 0 1025 74 10000 6.69 10 15:20 25.01.2022
4120 Clouds 0 1025 74 10000 6.17 10 14:56 25.01.2022
4121 Clouds 0 1025 80 10000 5.66 10 12:23 25.01.2022
4122 Clouds 0 1027 74 10000 6.17 10 09:39 25.01.2022
4123 Clouds -1 1027 86 10000 4.12 10 08:29 25.01.2022
4124 Clouds -1 1028 80 10000 3.6 10 07:28 25.01.2022
4125 Clouds -1 1027 74 10000 4.12 10 05:54 25.01.2022
4126 Clouds 0 1028 80 6000 3.09 20 00:58 25.01.2022
4127 Snow 0 1028 93 2000 2.57 20 23:36 24.01.2022
4128 Snow 0 1028 93 2000 2.57 20 23:18 24.01.2022
4129 Snow 0 1028 100 800 3.09 10 22:53 24.01.2022
4130 Snow 0 1028 100 800 3.09 10 22:35 24.01.2022
4131 Snow 0 1028 100 400 2.06 40 21:42 24.01.2022
4132 Snow 0 1028 100 200 6.17 50 21:24 24.01.2022
4133 Snow 0 1027 100 600 4.12 30 20:28 24.01.2022
4134 Snow 0 1027 100 3000 5.14 360 19:38 24.01.2022
4135 Snow 0 1026 100 6000 3.6 10 18:50 24.01.2022
4136 Snow 0 1025 100 4000 5.66 20 17:42 24.01.2022
4137 Snow 0 1025 100 4000 5.66 360 17:22 24.01.2022
4138 Snow 0 1024 100 400 12.35 340 16:31 24.01.2022
4139 Snow -1 1024 100 300 6.69 310 15:35 24.01.2022
4140 Clouds 0 1024 100 600 12.35 330 13:59 24.01.2022
4141 Snow 1 1024 80 7000 10.8 330 12:34 24.01.2022
4142 Clouds 1 1024 80 10000 11.32 340 11:41 24.01.2022
4143 Snow 0 1025 86 10000 7.2 340 10:19 24.01.2022
4144 Snow 0 1024 93 10000 3.09 340 09:45 24.01.2022
4145 Snow -1 1024 93 750 4.63 330 08:18 24.01.2022
4146 Clouds -2 1022 93 7000 4.63 340 02:26 24.01.2022
4147 Clouds -3 1022 93 10000 6.17 340 01:26 24.01.2022
4148 Clouds -2 1022 86 10000 6.17 330 00:31 24.01.2022
4149 Clouds -2 1022 93 10000 6.69 330 23:40 23.01.2022
4150 Clouds -2 1022 93 7000 5.66 330 22:20 23.01.2022
4151 Clouds -2 1022 93 7000 4.63 340 21:40 23.01.2022
4152 Snow -2 1022 93 10000 6.17 330 21:20 23.01.2022
4153 Snow -2 1022 100 400 3.6 330 20:22 23.01.2022
4154 Clouds -1 1022 80 10000 5.14 320 18:56 23.01.2022
4155 Clouds -1 1022 80 10000 4.63 340 18:24 23.01.2022
4156 Clouds 0 1022 80 10000 4.63 20 17:19 23.01.2022
4157 Clouds 0 1020 74 10000 10.8 350 15:59 23.01.2022
4158 Clouds 2 1019 60 10000 7.2 360 14:52 23.01.2022
4159 Clouds 2 1019 60 10000 9.77 360 14:18 23.01.2022
4160 Clouds 1 1018 75 10000 6.17 360 12:46 23.01.2022
4161 Clouds 0 1019 86 900 6.69 360 12:20 23.01.2022
4162 Clouds 2 1018 69 10000 9.26 360 11:26 23.01.2022
4163 Clouds 1 1018 60 10000 7.72 10 10:57 23.01.2022
4164 Clouds 0 1018 74 10000 6.69 10 10:25 23.01.2022
4165 Clouds 0 1018 93 10000 4.12 330 09:31 23.01.2022
4166 Snow -1 1018 100 10000 3.6 300 08:49 23.01.2022
4167 Snow -2 1017 93 10000 3.6 340 03:49 23.01.2022
4168 Clouds -2 1017 93 10000 4.12 340 01:38 23.01.2022
4169 Snow -2 1017 93 10000 4.12 360 00:47 23.01.2022
4170 Clouds -2 1017 100 1600 7.2 340 23:59 22.01.2022
4171 Snow -2 1017 86 10000 2.06 360 22:53 22.01.2022
4172 Clouds 0 1017 86 10000 4.12 10 22:19 22.01.2022
4173 Clouds -1 1016 80 10000 2.57 350 20:46 22.01.2022
4174 Clouds -1 1016 74 10000 2.57 360 19:46 22.01.2022
4175 Clouds 0 1016 69 10000 2.57 10 18:38 22.01.2022
4176 Clouds 0 1016 64 10000 3.6 360 17:49 22.01.2022
4177 Clouds 0 1016 64 10000 3.09 10 17:29 22.01.2022
4178 Clouds 0 1015 64 10000 2.06 10 16:54 22.01.2022
4179 Clouds 2 1015 55 10000 3.09 10 15:45 22.01.2022
4180 Clouds 2 1015 55 10000 3.09 340 14:55 22.01.2022
4181 Clouds 2 1015 64 10000 3.09 340 13:31 22.01.2022
4182 Rain 2 1015 64 10000 3.6 360 12:40 22.01.2022
4183 Clouds 2 1016 69 10000 4.12 340 12:20 22.01.2022
4184 Clouds 2 1017 69 10000 3.09 350 10:55 22.01.2022
4185 Snow 1 1018 69 10000 3.09 320 10:26 22.01.2022
4186 Clouds 1 1018 69 10000 2.06 310 09:25 22.01.2022
4187 Clouds 1 1018 69 10000 2.57 300 08:50 22.01.2022
4188 Snow 0 1018 86 7000 2.06 330 06:56 22.01.2022
4189 Snow 1 1018 80 10000 5.66 340 02:40 22.01.2022
4190 Rain 2 1019 87 10000 4.63 360 23:52 21.01.2022
4191 Rain 2 1019 87 10000 4.12 10 23:21 21.01.2022
4192 Snow 2 1020 87 10000 6.17 360 21:45 21.01.2022
4193 Snow 2 1019 93 10000 3.6 10 19:48 21.01.2022
4194 Snow 1 1018 100 3400 3.6 360 17:53 21.01.2022
4195 Snow 1 1018 100 6000 4.63 20 16:54 21.01.2022
4196 Rain 3 1017 93 6000 7.2 20 15:24 21.01.2022
4197 Rain 7 1016 87 7000 9.77 360 12:51 21.01.2022
4198 Rain 10 1016 76 10000 5.66 220 11:29 21.01.2022
4199 Rain 10 1016 76 10000 7.72 220 10:51 21.01.2022
4200 Clouds 10 1017 76 10000 6.69 210 09:24 21.01.2022
4201 Clouds 10 1017 76 10000 7.2 210 08:20 21.01.2022
4202 Clouds 8 1017 76 10000 7.2 220 04:36 21.01.2022
4203 Clouds 8 1020 66 10000 9.26 210 22:52 20.01.2022
4204 Clouds 8 1020 71 10000 7.72 210 21:49 20.01.2022
4205 Clouds 8 1021 71 10000 9.26 210 21:28 20.01.2022
4206 Clouds 8 1021 66 10000 9.77 210 19:56 20.01.2022
4207 Clouds 8 1021 61 10000 10.29 210 19:19 20.01.2022
4208 Clouds 8 1021 61 10000 9.77 210 17:38 20.01.2022
4209 Clouds 8 1021 57 10000 9.26 210 16:35 20.01.2022
4210 Clouds 8 1022 57 10000 8.23 210 15:40 20.01.2022
4211 Clouds 8 1022 57 10000 9.26 210 14:40 20.01.2022
4212 Clouds 7 1023 61 10000 9.77 210 13:21 20.01.2022
4213 Clouds 7 1024 57 10000 9.77 210 12:31 20.01.2022
4214 Clouds 6 1025 61 10000 9.77 210 11:20 20.01.2022
4215 Clouds 5 1025 60 10000 9.77 210 10:19 20.01.2022
4216 Clouds 5 1025 60 10000 10.29 210 09:19 20.01.2022
4217 Clouds 3 1026 70 10000 9.26 200 07:24 20.01.2022
4218 Clouds 3 1028 56 10000 5.14 240 00:41 20.01.2022
4219 Clear 2 1030 77 10000 3.09 230 22:50 19.01.2022
4220 Clear 1 1030 84 10000 0.51 0 21:44 19.01.2022
4221 Clear 0 1030 87 10000 0.51 0 21:22 19.01.2022
4222 Clear 0 1030 87 10000 0 0 20:45 19.01.2022
4223 Clear 0 1031 87 10000 0.51 350 19:26 19.01.2022
4224 Clouds 0 1031 84 10000 2.57 340 17:51 19.01.2022
4225 Clouds 1 1031 77 10000 4.12 340 17:28 19.01.2022
4226 Clouds 3 1030 48 10000 5.66 330 15:44 19.01.2022
4227 Snow 2 1031 69 10000 4.63 320 13:38 19.01.2022
4228 Snow 3 1030 75 10000 6.69 300 12:24 19.01.2022
4229 Clouds 3 1030 56 10000 7.2 350 11:38 19.01.2022
4230 Clouds 2 1031 60 10000 8.23 360 10:19 19.01.2022
4231 Clouds 1 1030 80 10000 5.14 340 09:33 19.01.2022
4232 Clouds 2 1029 55 10000 6.17 10 06:34 19.01.2022
4233 Snow 2 1027 93 8000 8.75 340 01:40 19.01.2022
4234 Clouds 2 1026 60 10000 7.2 320 23:18 18.01.2022
4235 Clouds 3 1026 77 10000 5.14 330 21:56 18.01.2022
4236 Clouds 4 1025 77 10000 1.03 0 20:47 18.01.2022
4237 Clouds 3 1025 80 10000 2.06 360 19:53 18.01.2022
4238 Clouds 3 1025 79 10000 2.06 360 19:35 18.01.2022
4239 Clouds 4 1025 45 10000 3.6 30 18:36 18.01.2022
4240 Clouds 5 1025 45 10000 4.12 30 17:48 18.01.2022
4241 Clouds 5 1024 48 10000 5.66 360 16:33 18.01.2022
4242 Clouds 6 1024 45 10000 6.17 20 15:26 18.01.2022
4243 Clouds 7 1024 42 10000 6.17 360 14:54 18.01.2022
4244 Clouds 6 1023 52 10000 7.2 350 11:52 18.01.2022
4245 Clouds 5 1024 56 10000 9.26 340 10:41 18.01.2022
4246 Clouds 6 1021 52 10000 5.66 10 08:49 18.01.2022
4247 Clouds 4 1020 70 10000 9.77 360 07:45 18.01.2022
4248 Clouds 7 1015 61 10000 5.14 270 02:20 18.01.2022
4249 Clouds 9 1015 66 10000 8.23 240 23:22 17.01.2022
4250 Clouds 9 1016 82 10000 8.23 220 21:58 17.01.2022
4251 Clouds 9 1016 82 10000 7.72 230 21:31 17.01.2022
4252 Clouds 9 1017 82 10000 9.77 230 19:51 17.01.2022
4253 Clouds 9 1017 66 10000 7.2 220 18:28 17.01.2022
4254 Clouds 9 1017 82 10000 7.72 230 17:24 17.01.2022
4255 Clouds 9 1018 82 10000 6.17 230 16:24 17.01.2022
4256 Clouds 8 1019 61 10000 6.69 220 14:59 17.01.2022
4257 Clouds 8 1019 61 10000 7.2 230 14:33 17.01.2022
4258 Clouds 8 1020 57 10000 8.23 220 13:19 17.01.2022
4259 Clouds 8 1020 61 10000 8.75 210 12:52 17.01.2022
4260 Clouds 7 1021 61 10000 9.26 210 11:47 17.01.2022
4261 Clouds 6 1022 61 10000 7.2 210 10:21 17.01.2022
4262 Clouds 5 1023 65 10000 9.26 210 08:44 17.01.2022
4263 Clouds 3 1023 75 10000 6.69 210 07:22 17.01.2022
4264 Clouds 4 1026 60 10000 3.09 220 02:20 17.01.2022
4265 Clear 2 1026 65 10000 2.57 220 00:43 17.01.2022
4266 Clear 1 1027 93 10000 1.54 350 21:26 16.01.2022
4267 Clear 2 1027 90 10000 1.54 350 20:30 16.01.2022
4268 Clear 1 1027 80 10000 2.06 360 18:48 16.01.2022
4269 Clouds 3 1028 69 10000 2.57 340 17:51 16.01.2022
4270 Clouds 4 1028 65 10000 3.09 350 16:55 16.01.2022
4271 Clouds 5 1028 56 10000 5.14 350 15:50 16.01.2022
4272 Clouds 6 1027 52 10000 4.12 350 14:29 16.01.2022
4273 Clouds 6 1027 56 10000 5.66 340 13:33 16.01.2022
4274 Clouds 7 1027 45 10000 6.17 360 12:22 16.01.2022
4275 Clouds 7 1027 49 10000 5.14 20 11:29 16.01.2022
4276 Clouds 7 1028 53 10000 5.14 360 10:28 16.01.2022
4277 Clear 6 1028 56 10000 5.14 360 09:58 16.01.2022
4278 Clear 6 1028 56 10000 5.14 360 09:38 16.01.2022
4279 Clear 6 1028 52 10000 4.63 360 09:19 16.01.2022
4280 Clouds 3 1026 65 10000 5.14 20 07:19 16.01.2022
4281 Clouds 3 1023 96 10000 1.03 0 00:35 16.01.2022
4282 Clouds 2 1023 93 10000 1.54 330 22:53 15.01.2022
4283 Rain 4 1024 82 10000 3.6 40 21:22 15.01.2022
4284 Rain 5 1022 77 10000 1.54 280 20:45 15.01.2022
4285 Rain 5 1022 77 10000 2.06 290 20:22 15.01.2022
4286 Clouds 3 1022 81 10000 0.51 0 19:27 15.01.2022
4287 Clear 4 1022 52 10000 0.51 0 18:18 15.01.2022
4288 Clear 6 1021 42 10000 3.09 30 16:49 15.01.2022
4289 Clear 8 1021 39 10000 6.69 360 14:38 15.01.2022
4290 Clouds 8 1021 46 10000 6.17 10 12:40 15.01.2022
4291 Clouds 8 1020 49 10000 7.2 20 11:26 15.01.2022
4292 Clouds 7 1020 57 10000 6.17 20 09:46 15.01.2022
4293 Clear 4 1016 75 10000 3.6 280 01:58 15.01.2022
4294 Clear 6 1016 70 10000 5.66 250 23:21 14.01.2022
4295 Clear 5 1017 75 10000 5.66 250 21:18 14.01.2022
4296 Clear 5 1017 65 10000 6.17 260 20:25 14.01.2022
4297 Clear 5 1018 70 10000 6.17 260 19:50 14.01.2022
4298 Clear 5 1018 70 10000 6.17 250 18:41 14.01.2022
4299 Clear 4 1019 65 10000 5.14 240 17:36 14.01.2022
4300 Clear 4 1019 60 10000 5.14 240 16:42 14.01.2022
4301 Clear 4 1020 65 10000 6.69 260 15:32 14.01.2022
4302 Clear 4 1021 65 10000 5.66 260 14:26 14.01.2022
4303 Clear 4 1022 65 10000 5.14 260 12:58 14.01.2022
4304 Clear 5 1024 79 10000 5.14 260 11:52 14.01.2022
4305 Clear 4 1025 79 10000 2.57 250 10:30 14.01.2022
4306 Clear 2 1026 77 10000 2.06 350 08:53 14.01.2022
4307 Clear -1 1027 90 10000 3.6 350 07:30 14.01.2022
4308 Clouds 1 1030 77 10000 3.6 30 02:27 14.01.2022
4309 Clouds 2 1030 81 10000 4.63 10 00:21 14.01.2022
4310 Clouds 2 1031 79 10000 4.63 30 21:47 13.01.2022
4311 Clouds 2 1031 79 10000 4.63 40 21:29 13.01.2022
4312 Clouds 2 1032 79 10000 5.14 40 19:45 13.01.2022
4313 Clouds 2 1032 77 10000 6.17 40 19:23 13.01.2022
4314 Clouds 2 1032 77 10000 6.17 30 18:37 13.01.2022
4315 Clouds 2 1031 77 10000 6.17 40 16:52 13.01.2022
4316 Clouds 2 1031 79 10000 7.2 30 15:39 13.01.2022
4317 Clouds 2 1031 77 10000 7.72 20 15:20 13.01.2022
4318 Clouds 3 1031 77 10000 8.23 40 13:28 13.01.2022
4319 Clouds 3 1032 79 10000 8.23 20 10:39 13.01.2022
4320 Rain 3 1032 77 10000 7.72 40 09:23 13.01.2022
4321 Clouds 2 1031 77 10000 7.2 40 08:29 13.01.2022
4322 Clouds 2 1031 79 10000 7.72 50 07:58 13.01.2022
4323 Clouds 2 1031 81 10000 6.17 40 07:18 13.01.2022
4324 Clouds 2 1030 79 10000 7.2 30 05:20 13.01.2022
4325 Rain 2 1030 77 10000 7.72 40 03:34 13.01.2022
4326 Clouds 2 1028 81 10000 11.83 30 01:38 13.01.2022
4327 Clouds 2 1028 81 10000 9.26 20 23:53 12.01.2022
4328 Clouds 2 1028 84 10000 11.32 20 23:33 12.01.2022
4329 Clouds 2 1028 93 10000 9.26 20 21:59 12.01.2022
4330 Clouds 2 1028 93 10000 9.26 20 21:39 12.01.2022
4331 Clouds 2 1027 87 10000 8.75 20 21:18 12.01.2022
4332 Clouds 2 1027 84 10000 10.8 20 20:41 12.01.2022
4333 Clouds 2 1026 84 10000 9.26 10 18:48 12.01.2022
4334 Snow 2 1026 90 10000 8.23 20 17:54 12.01.2022
4335 Clouds 2 1025 87 10000 8.75 20 16:43 12.01.2022
4336 Clouds 3 1024 93 10000 9.77 30 14:49 12.01.2022
4337 Clouds 3 1023 96 10000 8.75 20 13:40 12.01.2022
4338 Clouds 3 1023 93 10000 9.26 30 12:56 12.01.2022
4339 Rain 3 1021 93 10000 9.77 30 09:26 12.01.2022
4340 Rain 3 1020 93 10000 9.77 20 07:57 12.01.2022
4341 Rain 3 1019 96 10000 11.32 30 07:33 12.01.2022
4342 Rain 5 1016 93 10000 10.29 30 02:20 12.01.2022
4343 Rain 6 1014 93 7000 12.35 30 23:26 11.01.2022
4344 Rain 6 1014 96 4000 11.32 30 22:25 11.01.2022
4345 Rain 7 1014 93 6000 12.86 40 21:28 11.01.2022
4346 Clouds 7 1014 96 6000 11.83 40 20:36 11.01.2022
4347 Clouds 7 1013 93 6000 10.8 40 19:31 11.01.2022
4348 Clouds 8 1013 87 6000 11.32 40 17:53 11.01.2022
4349 Clouds 8 1011 93 7000 11.32 40 16:39 11.01.2022
4350 Clouds 8 1011 93 7000 11.32 40 16:18 11.01.2022
4351 Clouds 8 1011 93 10000 10.8 40 14:50 11.01.2022
4352 Rain 9 1011 87 10000 11.83 40 14:32 11.01.2022
4353 Rain 9 1011 93 10000 12.86 50 13:48 11.01.2022
4354 Rain 9 1010 96 10000 11.32 40 13:25 11.01.2022
4355 Clouds 9 1011 96 10000 9.77 50 12:25 11.01.2022
4356 Rain 10 1010 93 10000 9.77 50 10:31 11.01.2022
4357 Rain 10 1010 87 10000 9.77 50 07:54 11.01.2022
4358 Clouds 10 1007 87 10000 7.72 50 03:51 11.01.2022
4359 Clouds 10 1006 87 10000 7.2 50 00:27 11.01.2022
4360 Clouds 10 1006 87 10000 7.2 40 23:39 10.01.2022
4361 Clouds 10 1006 87 10000 6.69 40 22:39 10.01.2022
4362 Clouds 10 1006 87 10000 7.2 30 22:18 10.01.2022
4363 Clouds 10 1006 93 10000 5.14 40 21:33 10.01.2022
4364 Clouds 10 1006 87 10000 5.66 30 20:59 10.01.2022
4365 Clouds 10 1006 87 10000 5.66 30 20:41 10.01.2022
4366 Clouds 10 1006 93 10000 5.66 30 20:19 10.01.2022
4367 Clouds 10 1006 93 10000 5.66 30 19:38 10.01.2022
4368 Clouds 11 1006 87 10000 5.14 30 19:19 10.01.2022
4369 Clouds 11 1005 87 10000 4.63 20 18:46 10.01.2022
4370 Clouds 12 1004 82 10000 2.57 30 16:48 10.01.2022
4371 Clouds 12 1004 82 10000 1.54 50 16:26 10.01.2022
4372 Clouds 12 1003 91 10000 3.09 30 14:43 10.01.2022
4373 Clouds 12 1002 91 10000 2.57 10 13:22 10.01.2022
4374 Clouds 12 1002 93 10000 4.12 30 11:56 10.01.2022
4375 Clouds 11 1002 87 10000 3.6 10 10:48 10.01.2022
4376 Clouds 10 1002 93 10000 4.63 20 09:37 10.01.2022
4377 Rain 10 1001 87 10000 6.17 30 05:51 10.01.2022
4378 Clouds 10 1001 87 10000 5.66 30 02:32 10.01.2022
4379 Clouds 10 1001 93 10000 5.14 40 01:21 10.01.2022
4380 Clouds 10 1001 87 10000 6.17 30 00:20 10.01.2022
4381 Clouds 10 1002 90 10000 5.14 30 22:47 09.01.2022
4382 Clouds 10 1002 90 10000 2.57 10 22:18 09.01.2022
4383 Clouds 10 1002 90 10000 3.09 10 21:41 09.01.2022
4384 Clouds 10 1003 90 10000 4.12 20 21:22 09.01.2022
4385 Clouds 10 1003 81 10000 3.6 20 20:46 09.01.2022
4386 Clouds 10 1003 81 10000 3.6 20 20:28 09.01.2022
4387 Clouds 11 1004 82 10000 3.6 30 19:39 09.01.2022
4388 Clouds 11 1004 82 10000 3.6 30 19:20 09.01.2022
4389 Clouds 11 1004 87 10000 3.09 10 18:38 09.01.2022
4390 Clouds 12 1004 93 10000 1.03 0 18:18 09.01.2022
4391 Clear 12 1004 91 10000 2.06 20 17:30 09.01.2022
4392 Clear 12 1004 76 10000 2.57 360 16:49 09.01.2022
4393 Clear 14 1004 83 10000 2.06 60 15:46 09.01.2022
4394 Clear 14 1004 80 10000 1.54 80 15:25 09.01.2022
4395 Clear 14 1005 62 10000 1.54 110 14:39 09.01.2022
4396 Clear 13 1005 67 10000 1.54 90 13:48 09.01.2022
4397 Clouds 13 1006 91 8000 1.54 80 11:58 09.01.2022
4398 Clouds 12 1007 93 8000 2.06 90 11:28 09.01.2022
4399 Clouds 9 1008 93 6000 1.03 0 09:55 09.01.2022
4400 Mist 9 1008 93 4000 1.54 110 09:24 09.01.2022
4401 Mist 9 1008 93 2500 1.03 0 07:54 09.01.2022
4402 Mist 9 1009 93 5000 3.09 350 01:30 09.01.2022
4403 Mist 9 1010 93 5000 2.57 10 00:50 09.01.2022
4404 Clouds 9 1010 93 6000 3.09 360 23:36 08.01.2022
4405 Rain 9 1011 93 6000 2.06 360 22:56 08.01.2022
4406 Clouds 9 1011 93 8000 2.06 10 21:32 08.01.2022
4407 Clouds 8 1011 93 10000 3.09 360 20:44 08.01.2022
4408 Clouds 9 1012 93 10000 2.06 360 20:23 08.01.2022
4409 Clouds 9 1012 93 7000 3.6 20 19:22 08.01.2022
4410 Clouds 10 1012 87 8000 3.09 10 17:43 08.01.2022
4411 Clouds 10 1013 93 7000 3.6 30 16:57 08.01.2022
4412 Clouds 11 1013 87 9000 4.12 350 15:34 08.01.2022
4413 Clouds 12 1013 87 7000 3.6 340 14:33 08.01.2022
4414 Clouds 12 1014 87 6000 1.03 0 12:35 08.01.2022
4415 Clouds 11 1015 87 10000 1.03 0 10:43 08.01.2022
4416 Clouds 11 1016 87 10000 1.54 30 10:23 08.01.2022
4417 Clouds 11 1016 87 10000 1.54 30 10:23 08.01.2022
4418 Clouds 11 1016 96 8000 2.57 40 09:34 08.01.2022
4419 Clouds 10 1016 93 10000 2.06 20 07:18 08.01.2022
4420 Rain 10 1018 93 10000 5.66 50 01:49 08.01.2022
4421 Clouds 10 1017 96 10000 6.17 60 00:22 08.01.2022
4422 Clouds 11 1018 93 10000 6.69 70 22:21 07.01.2022
4423 Clouds 11 1019 93 10000 6.17 60 20:35 07.01.2022
4424 Clouds 11 1019 93 10000 6.17 60 20:35 07.01.2022
4425 Clouds 11 1019 93 10000 6.69 60 19:34 07.01.2022
4426 Clouds 10 1019 93 10000 6.17 60 18:50 07.01.2022
4427 Clouds 10 1019 93 10000 6.69 50 18:26 07.01.2022
4428 Clouds 10 1019 93 10000 8.23 50 17:24 07.01.2022
4429 Clouds 10 1019 93 10000 6.69 40 15:55 07.01.2022
4430 Clouds 10 1018 93 10000 7.72 30 13:52 07.01.2022
4431 Clouds 10 1018 93 10000 6.17 30 12:57 07.01.2022
4432 Clouds 10 1019 93 10000 7.2 20 12:25 07.01.2022
4433 Clouds 12 1017 93 10000 1.03 10 06:47 07.01.2022
4434 Clear 11 1016 96 10000 1.03 0 02:54 07.01.2022
4435 Clear 12 1016 96 10000 1.03 200 01:52 07.01.2022
4436 Clear 13 1016 93 10000 1.03 0 01:27 07.01.2022
4437 Clear 13 1015 96 10000 1.03 0 00:34 07.01.2022
4438 Clear 13 1015 93 10000 2.06 270 22:42 06.01.2022
4439 Clear 13 1015 93 10000 1.54 230 21:22 06.01.2022
4440 Clear 14 1014 93 10000 1.54 250 20:19 06.01.2022
4441 Clear 14 1014 91 10000 2.57 230 19:40 06.01.2022
4442 Clear 15 1013 88 10000 5.66 270 17:52 06.01.2022
4443 Clear 15 1014 88 10000 3.6 290 17:31 06.01.2022
4444 Clear 16 1013 88 10000 4.12 260 16:39 06.01.2022
4445 Clear 15 1013 77 10000 5.14 260 15:45 06.01.2022
4446 Clear 16 1013 72 10000 5.14 250 15:23 06.01.2022
4447 Clear 17 1013 72 10000 1.03 0 14:20 06.01.2022
4448 Clear 16 1013 72 10000 2.06 240 13:44 06.01.2022
4449 Clear 16 1013 72 10000 4.12 240 12:40 06.01.2022
4450 Clear 16 1013 77 10000 6.17 260 11:41 06.01.2022
4451 Clear 16 1013 77 10000 6.17 250 11:20 06.01.2022
4452 Clear 15 1012 72 10000 8.75 230 08:31 06.01.2022
4453 Clear 13 1013 76 10000 3.09 250 00:39 06.01.2022
4454 Clear 13 1013 76 10000 4.12 250 23:35 05.01.2022
4455 Clear 13 1013 76 10000 4.12 250 23:35 05.01.2022
4456 Clear 14 1013 72 10000 4.63 240 22:50 05.01.2022
4457 Clear 14 1012 76 10000 4.63 260 22:29 05.01.2022
4458 Clear 14 1012 72 10000 5.14 240 21:45 05.01.2022
4459 Clear 14 1012 72 10000 6.69 230 20:45 05.01.2022
4460 Clear 15 1012 67 10000 7.2 230 19:58 05.01.2022
4461 Clear 14 1012 82 10000 5.14 230 18:33 05.01.2022
4462 Clear 15 1012 67 10000 9.26 240 17:23 05.01.2022
4463 Clear 15 1012 77 10000 4.12 230 16:24 05.01.2022
4464 Clear 15 1012 72 10000 4.63 250 15:20 05.01.2022
4465 Clouds 15 1012 72 10000 5.66 260 13:38 05.01.2022
4466 Clouds 16 1012 72 10000 4.63 250 12:51 05.01.2022
4467 Clear 12 1013 76 10000 4.63 220 08:58 05.01.2022
4468 Clear 11 1013 82 10000 5.14 220 07:34 05.01.2022
4469 Clear 11 1013 76 10000 4.63 210 03:33 05.01.2022
4470 Clear 12 1014 76 10000 5.14 230 00:33 05.01.2022
4471 Clear 11 1014 82 10000 3.6 260 23:26 04.01.2022
4472 Clear 12 1014 76 10000 5.14 200 22:27 04.01.2022
4473 Clear 10 1014 87 10000 2.57 170 20:50 04.01.2022
4474 Clear 9 1015 93 10000 1.03 140 19:19 04.01.2022
4475 Clear 10 1015 81 10000 0.51 0 17:39 04.01.2022
4476 Clear 11 1016 76 10000 1.54 270 16:41 04.01.2022
4477 Clear 12 1016 76 10000 1.54 270 16:22 04.01.2022
4478 Clear 13 1016 71 10000 2.06 210 14:52 04.01.2022
4479 Clear 14 1016 76 10000 2.06 230 14:34 04.01.2022
4480 Clear 14 1016 76 10000 3.09 220 13:27 04.01.2022
4481 Clear 13 1017 82 10000 4.12 250 10:41 04.01.2022
4482 Clear 12 1017 87 10000 3.09 240 09:20 04.01.2022
4483 Clear 11 1017 82 10000 2.57 260 08:25 04.01.2022
4484 Clouds 11 1015 82 10000 4.63 260 01:51 04.01.2022
4485 Clear 11 1015 82 10000 5.66 260 00:40 04.01.2022
4486 Clouds 11 1015 82 10000 4.63 260 23:18 03.01.2022
4487 Clear 11 1015 82 10000 3.6 250 21:50 03.01.2022
4488 Clear 11 1015 87 10000 5.14 260 21:24 03.01.2022
4489 Clear 12 1015 87 10000 3.6 260 19:47 03.01.2022
4490 Clear 12 1015 82 10000 3.6 260 18:47 03.01.2022
4491 Clear 11 1015 82 10000 3.6 250 18:24 03.01.2022
4492 Clear 12 1015 82 10000 3.09 250 16:58 03.01.2022
4493 Clear 13 1016 71 10000 5.14 220 14:55 03.01.2022
4494 Clouds 12 1016 71 10000 3.6 230 14:30 03.01.2022
4495 Clear 12 1017 71 10000 5.14 240 12:39 03.01.2022
4496 Clear 12 1018 66 10000 6.17 230 11:34 03.01.2022
4497 Clear 11 1018 71 10000 7.2 220 10:25 03.01.2022
4498 Clear 9 1019 76 10000 6.17 220 08:47 03.01.2022
4499 Clear 8 1019 81 10000 5.14 210 07:32 03.01.2022
4500 Clear 9 1023 87 10000 2.06 120 23:54 02.01.2022
4501 Clouds 8 1024 87 10000 1.54 130 23:18 02.01.2022
4502 Clouds 9 1024 87 10000 1.54 120 22:43 02.01.2022
4503 Clouds 9 1025 87 10000 1.03 120 21:38 02.01.2022
4504 Clouds 8 1025 93 10000 0 0 20:31 02.01.2022
4505 Clouds 9 1025 87 10000 1.54 100 19:52 02.01.2022
4506 Clouds 8 1026 87 10000 1.03 80 19:25 02.01.2022
4507 Clouds 9 1026 87 10000 1.54 30 18:33 02.01.2022
4508 Clouds 10 1026 76 10000 1.54 30 17:43 02.01.2022
4509 Clouds 10 1026 81 10000 3.09 70 17:21 02.01.2022
4510 Clouds 11 1025 71 10000 2.57 50 16:33 02.01.2022
4511 Clouds 11 1025 71 10000 4.12 60 15:51 02.01.2022
4512 Clouds 12 1025 71 10000 5.14 60 13:58 02.01.2022
4513 Clouds 12 1025 71 10000 3.6 60 12:34 02.01.2022
4514 Clouds 11 1025 87 10000 3.6 70 11:56 02.01.2022
4515 Clouds 11 1025 87 10000 4.63 360 10:59 02.01.2022
4516 Clouds 11 1025 87 10000 3.09 10 10:37 02.01.2022
4517 Clouds 10 1024 93 10000 0.51 0 08:27 02.01.2022
4518 Clouds 10 1022 87 9000 1.54 240 03:22 02.01.2022
4519 Clouds 10 1021 87 10000 3.6 260 23:56 01.01.2022
4520 Clouds 10 1021 87 10000 3.6 260 23:36 01.01.2022
4521 Clouds 10 1020 93 10000 3.09 250 22:44 01.01.2022
4522 Clouds 10 1020 87 9000 2.57 250 22:18 01.01.2022
4523 Clouds 10 1020 87 8000 2.06 270 21:43 01.01.2022
4524 Clouds 10 1019 87 8000 2.57 260 20:51 01.01.2022
4525 Clouds 10 1019 87 8000 2.57 260 19:55 01.01.2022
4526 Clouds 10 1019 93 8000 5.14 260 18:58 01.01.2022
4527 Clouds 10 1019 87 10000 3.09 250 17:56 01.01.2022
4528 Clouds 10 1018 87 7000 3.6 260 16:35 01.01.2022
4529 Rain 10 1018 87 7000 4.12 270 15:57 01.01.2022
4530 Rain 10 1018 87 10000 2.57 250 14:56 01.01.2022
4531 Rain 10 1018 87 10000 3.6 240 13:42 01.01.2022
4532 Clouds 10 1019 87 10000 4.63 250 12:43 01.01.2022
4533 Rain 10 1019 87 10000 3.6 230 11:47 01.01.2022
4534 Clouds 10 1019 81 10000 4.12 230 11:19 01.01.2022
4535 Clouds 10 1020 81 7000 4.63 250 09:49 01.01.2022
4536 Clouds 10 1020 81 10000 5.14 250 09:20 01.01.2022
4537 Clear 9 1020 87 10000 4.63 250 08:22 01.01.2022
4538 Clear 9 1019 87 10000 4.12 250 07:41 01.01.2022
4539 Clear 9 1019 87 10000 3.09 240 06:45 01.01.2022
4540 Clear 8 1019 93 10000 2.57 250 05:26 01.01.2022
4541 Clear 8 1019 87 10000 3.09 270 04:37 01.01.2022
4542 Clouds 7 1021 87 10000 2.06 290 00:41 01.01.2022
4543 Clouds 8 1022 87 10000 1.03 270 22:59 31.12.2021
4544 Clouds 8 1022 81 10000 1.54 310 21:52 31.12.2021
4545 Clouds 8 1022 87 10000 0.51 10 20:32 31.12.2021
4546 Clouds 9 1022 81 10000 1.03 0 19:29 31.12.2021
4547 Clouds 9 1022 81 10000 1.54 70 18:30 31.12.2021
4548 Clouds 9 1022 81 10000 2.06 80 17:38 31.12.2021
4549 Clouds 9 1022 81 10000 2.06 80 17:18 31.12.2021
4550 Clouds 9 1022 81 10000 2.06 100 16:21 31.12.2021
4551 Clouds 9 1022 81 10000 2.57 70 15:53 31.12.2021
4552 Clouds 9 1022 81 10000 2.57 80 15:28 31.12.2021
4553 Clouds 9 1022 81 10000 3.09 80 14:47 31.12.2021
4554 Clouds 9 1022 81 10000 3.6 50 14:28 31.12.2021
4555 Clouds 9 1022 81 10000 4.12 20 13:36 31.12.2021
4556 Clouds 9 1022 87 10000 5.14 30 12:45 31.12.2021
4557 Clouds 9 1023 93 10000 4.63 30 11:43 31.12.2021
4558 Clouds 9 1023 93 10000 4.12 30 11:24 31.12.2021
4559 Clouds 9 1023 87 10000 5.14 50 10:34 31.12.2021
4560 Clouds 9 1023 87 10000 4.12 30 09:52 31.12.2021
4561 Clouds 9 1023 87 10000 4.12 30 09:32 31.12.2021
4562 Clouds 9 1023 87 10000 5.66 50 08:25 31.12.2021
4563 Clouds 9 1022 87 10000 5.14 40 07:30 31.12.2021
4564 Clouds 10 1019 81 10000 6.69 40 23:23 30.12.2021
4565 Clouds 10 1019 81 10000 7.2 40 22:33 30.12.2021
4566 Clouds 10 1018 81 10000 7.2 40 21:56 30.12.2021
4567 Clouds 10 1018 81 10000 8.75 40 21:36 30.12.2021
4568 Clouds 10 1018 81 10000 7.2 50 20:46 30.12.2021
4569 Clouds 10 1017 81 10000 9.26 40 20:25 30.12.2021
4570 Clouds 10 1017 87 10000 8.23 40 19:45 30.12.2021
4571 Clouds 10 1016 87 10000 10.8 30 18:45 30.12.2021
4572 Clouds 10 1015 87 10000 10.8 20 18:18 30.12.2021
4573 Clouds 10 1013 87 10000 9.77 20 16:19 30.12.2021
4574 Clouds 11 1013 87 10000 9.77 20 15:51 30.12.2021
4575 Clouds 13 1012 87 10000 7.2 10 14:39 30.12.2021
4576 Clouds 13 1011 82 10000 7.72 10 13:55 30.12.2021
4577 Clouds 13 1011 82 10000 6.17 360 12:40 30.12.2021
4578 Clouds 13 1010 82 10000 4.12 360 10:58 30.12.2021
4579 Rain 13 1010 82 10000 4.12 360 09:59 30.12.2021
4580 Rain 12 1010 82 10000 3.6 360 08:58 30.12.2021
4581 Clouds 13 1008 58 10000 4.12 90 06:52 30.12.2021
4582 Rain 12 1007 71 10000 4.12 100 03:43 30.12.2021
4583 Rain 13 1007 71 10000 4.12 90 03:23 30.12.2021
4584 Clouds 13 1007 71 10000 3.6 100 23:50 29.12.2021
4585 Clouds 13 1007 71 10000 4.12 100 23:23 29.12.2021
4586 Clouds 13 1007 71 10000 4.12 100 22:22 29.12.2021
4587 Clouds 13 1007 71 10000 4.12 100 21:43 29.12.2021
4588 Clouds 13 1007 71 10000 4.12 90 20:39 29.12.2021
4589 Clouds 13 1008 76 10000 3.6 90 19:50 29.12.2021
4590 Rain 12 1008 82 10000 3.6 90 18:54 29.12.2021
4591 Rain 12 1009 87 8000 3.6 70 17:56 29.12.2021
4592 Rain 12 1008 93 8000 4.12 70 17:28 29.12.2021
4593 Rain 12 1009 87 10000 2.57 70 16:44 29.12.2021
4594 Rain 12 1009 87 9000 1.03 120 16:19 29.12.2021
4595 Rain 13 1009 76 10000 2.06 90 14:24 29.12.2021
4596 Rain 13 1009 71 10000 3.09 120 12:42 29.12.2021
4597 Clouds 13 1009 67 10000 4.12 110 11:49 29.12.2021
4598 Rain 13 1011 67 10000 4.12 120 10:31 29.12.2021
4599 Clouds 12 1011 62 10000 3.09 110 07:52 29.12.2021
4600 Clouds 12 1011 71 10000 2.57 100 06:43 29.12.2021
4601 Clouds 11 1011 76 10000 2.57 100 06:23 29.12.2021
4602 Clouds 10 1011 93 10000 2.06 10 05:40 29.12.2021
4603 Clouds 10 1011 93 10000 2.06 10 03:18 29.12.2021
4604 Clouds 12 1012 82 10000 2.57 50 00:24 29.12.2021
4605 Clouds 11 1012 93 10000 3.09 80 23:45 28.12.2021
4606 Clouds 11 1012 93 10000 1.54 30 22:42 28.12.2021
4607 Clouds 11 1012 93 10000 5.14 350 22:24 28.12.2021
4608 Rain 13 1012 82 10000 3.09 340 21:52 28.12.2021
4609 Clouds 13 1012 76 10000 2.57 80 20:47 28.12.2021
4610 Clouds 14 1012 67 10000 2.06 320 19:39 28.12.2021
4611 Clouds 14 1012 71 10000 2.06 280 18:44 28.12.2021
4612 Clouds 14 1012 67 10000 3.6 280 18:19 28.12.2021
4613 Clouds 14 1012 67 10000 3.6 220 16:35 28.12.2021
4614 Clouds 14 1011 67 10000 4.12 220 15:51 28.12.2021
4615 Clouds 14 1011 67 10000 2.57 230 15:23 28.12.2021
4616 Clouds 15 1011 58 10000 3.09 230 14:50 28.12.2021
4617 Clouds 15 1011 63 10000 3.09 250 14:21 28.12.2021
4618 Clouds 15 1011 63 10000 3.09 250 14:21 28.12.2021
4619 Clouds 15 1012 67 10000 3.09 260 13:51 28.12.2021
4620 Clouds 14 1012 67 10000 3.09 240 13:27 28.12.2021
4621 Clouds 14 1012 62 10000 3.6 250 12:49 28.12.2021
4622 Clouds 14 1012 67 10000 3.6 220 11:51 28.12.2021
4623 Clouds 13 1013 71 10000 3.09 210 09:27 28.12.2021
4624 Clouds 13 1013 67 10000 4.63 210 07:28 28.12.2021
4625 Clear 14 1014 62 10000 6.17 210 00:59 28.12.2021
4626 Clear 14 1014 62 10000 5.14 210 23:26 27.12.2021
4627 Clear 14 1015 62 10000 7.2 210 21:46 27.12.2021
4628 Clear 14 1014 67 10000 8.23 210 21:24 27.12.2021
4629 Clear 14 1015 67 10000 4.63 220 20:24 27.12.2021
4630 Clear 13 1015 71 10000 1.54 0 19:43 27.12.2021
4631 Clear 13 1015 71 10000 4.12 210 18:54 27.12.2021
4632 Clear 13 1016 76 10000 4.12 200 17:50 27.12.2021
4633 Clear 14 1015 72 10000 5.14 210 16:57 27.12.2021
4634 Clear 14 1016 72 10000 3.09 220 15:53 27.12.2021
4635 Clear 15 1016 67 10000 3.6 230 14:34 27.12.2021
4636 Clear 15 1016 72 10000 4.63 220 13:40 27.12.2021
4637 Clear 15 1016 67 10000 5.14 220 12:47 27.12.2021
4638 Clouds 15 1017 63 10000 5.66 220 10:32 27.12.2021
4639 Clouds 15 1018 63 10000 5.14 220 09:57 27.12.2021
4640 Clouds 14 1018 67 10000 5.14 220 08:39 27.12.2021
4641 Clear 13 1017 71 10000 4.12 220 07:32 27.12.2021
4642 Clear 13 1018 71 10000 5.14 220 02:24 27.12.2021
4643 Clear 12 1018 82 10000 2.57 250 23:58 26.12.2021
4644 Clear 12 1018 82 10000 2.57 250 23:58 26.12.2021
4645 Clear 12 1018 82 10000 2.57 250 23:40 26.12.2021
4646 Clear 12 1018 82 10000 3.6 280 22:47 26.12.2021
4647 Clear 12 1017 82 10000 2.06 220 21:29 26.12.2021
4648 Clear 12 1017 82 10000 5.66 230 19:49 26.12.2021
4649 Clear 13 1016 76 10000 7.2 220 18:25 26.12.2021
4650 Clear 13 1016 76 10000 7.2 210 17:30 26.12.2021
4651 Clear 14 1015 82 10000 6.69 220 14:38 26.12.2021
4652 Clear 14 1015 82 10000 7.72 210 13:43 26.12.2021
4653 Clear 14 1015 82 10000 7.72 220 13:21 26.12.2021
4654 Clear 14 1016 76 10000 7.72 220 12:33 26.12.2021
4655 Clear 13 1016 76 10000 6.17 220 10:48 26.12.2021
4656 Clear 12 1017 76 10000 4.63 230 09:29 26.12.2021
4657 Clear 11 1017 82 10000 6.17 220 08:44 26.12.2021
4658 Clear 12 1016 76 10000 6.69 220 07:59 26.12.2021
4659 Clear 11 1016 76 10000 4.63 220 01:36 26.12.2021
4660 Clear 11 1017 71 10000 8.75 220 23:58 25.12.2021
4661 Clear 11 1017 66 10000 9.26 220 23:28 25.12.2021
4662 Clear 11 1017 71 10000 7.72 220 22:29 25.12.2021
4663 Clear 11 1017 71 10000 6.69 210 21:25 25.12.2021
4664 Clear 11 1018 71 10000 9.26 220 19:28 25.12.2021
4665 Clear 11 1018 71 10000 9.26 220 18:57 25.12.2021
4666 Clear 11 1018 71 10000 8.23 220 18:25 25.12.2021
4667 Clear 11 1017 71 10000 8.75 220 16:46 25.12.2021
4668 Clear 12 1017 66 10000 8.75 220 15:26 25.12.2021
4669 Clear 12 1017 66 10000 7.72 210 13:47 25.12.2021
4670 Clear 12 1018 62 10000 6.69 220 12:18 25.12.2021
4671 Clouds 11 1018 62 10000 9.26 220 10:32 25.12.2021
4672 Clouds 11 1018 62 10000 10.29 220 09:48 25.12.2021
4673 Clear 9 1018 66 10000 9.26 210 07:21 25.12.2021
4674 Clear 8 1018 66 10000 9.26 210 01:34 25.12.2021
4675 Clear 8 1017 66 10000 9.77 220 00:18 25.12.2021
4676 Clouds 8 1017 61 10000 11.32 220 21:46 24.12.2021
4677 Clouds 8 1018 66 10000 8.23 210 19:26 24.12.2021
4678 Clouds 9 1018 61 10000 9.26 220 18:34 24.12.2021
4679 Clouds 8 1017 61 10000 7.72 220 16:43 24.12.2021
4680 Clouds 8 1017 57 10000 8.75 210 15:50 24.12.2021
4681 Clouds 9 1017 53 10000 8.23 210 15:20 24.12.2021
4682 Clouds 8 1018 57 10000 8.23 210 14:33 24.12.2021
4683 Clouds 8 1018 57 10000 8.23 220 13:50 24.12.2021
4684 Clouds 8 1018 61 10000 8.23 220 13:32 24.12.2021
4685 Clear 7 1019 65 10000 9.26 220 12:39 24.12.2021
4686 Clear 7 1019 61 10000 9.26 210 11:42 24.12.2021
4687 Clear 6 1020 65 10000 8.23 210 11:24 24.12.2021
4688 Clear 6 1021 61 10000 7.72 210 10:33 24.12.2021
4689 Clouds 5 1021 70 10000 7.72 210 08:40 24.12.2021
4690 Clouds 4 1022 75 10000 7.72 210 07:58 24.12.2021
4691 Clouds 4 1021 75 10000 7.72 210 06:44 24.12.2021
4692 Clouds -1 1024 86 10000 1.03 0 00:21 24.12.2021
4693 Clouds 0 1025 93 10000 0.51 0 23:49 23.12.2021
4694 Clear 0 1025 86 10000 0.51 360 22:51 23.12.2021
4695 Clear -1 1025 86 10000 0.51 350 22:24 23.12.2021
4696 Clear -1 1026 86 10000 0.51 0 21:39 23.12.2021
4697 Clear 0 1026 86 10000 1.03 80 20:30 23.12.2021
4698 Clear 0 1026 93 10000 2.06 360 19:28 23.12.2021
4699 Clouds 1 1026 86 10000 2.06 10 18:18 23.12.2021
4700 Clouds 1 1026 75 10000 2.57 360 17:29 23.12.2021
4701 Clouds 2 1027 64 10000 3.6 340 16:26 23.12.2021
4702 Clouds 4 1027 56 10000 3.6 340 15:33 23.12.2021
4703 Clouds 4 1027 60 10000 3.6 360 14:59 23.12.2021
4704 Clouds 4 1027 60 10000 3.6 360 14:39 23.12.2021
4705 Clouds 4 1027 75 10000 5.14 10 13:31 23.12.2021
4706 Clouds 4 1028 65 10000 3.09 10 11:49 23.12.2021
4707 Rain 3 1028 75 10000 4.63 360 09:53 23.12.2021
4708 Rain 3 1028 75 10000 6.17 350 09:34 23.12.2021
4709 Rain 2 1028 80 10000 3.6 360 08:28 23.12.2021
4710 Clouds 2 1027 75 10000 1.54 50 05:39 23.12.2021
4711 Clouds 2 1027 75 10000 3.09 60 01:31 23.12.2021
4712 Snow 2 1027 80 10000 3.09 20 22:53 22.12.2021
4713 Snow 2 1027 75 10000 4.12 20 22:19 22.12.2021
4714 Rain 2 1027 75 10000 3.6 30 21:36 22.12.2021
4715 Rain 3 1027 60 10000 4.63 80 21:18 22.12.2021
4716 Rain 4 1027 52 10000 3.09 70 20:40 22.12.2021
4717 Clouds 3 1027 56 10000 3.6 60 19:54 22.12.2021
4718 Clouds 3 1027 56 10000 3.6 60 18:55 22.12.2021
4719 Clouds 3 1027 60 10000 3.09 30 17:38 22.12.2021
4720 Clouds 3 1026 60 10000 3.6 50 16:22 22.12.2021
4721 Rain 5 1027 52 10000 2.57 70 14:28 22.12.2021
4722 Clouds 4 1027 56 10000 1.54 120 12:55 22.12.2021
4723 Clouds 5 1028 52 10000 3.09 50 11:48 22.12.2021
4724 Clouds 4 1028 52 10000 3.09 70 09:52 22.12.2021
4725 Clouds 3 1028 60 10000 2.06 80 08:23 22.12.2021
4726 Clouds 0 1027 86 10000 1.54 10 05:54 22.12.2021
4727 Clouds 1 1027 80 10000 1.54 350 05:36 22.12.2021
4728 Clouds 1 1027 80 10000 1.54 350 05:18 22.12.2021
4729 Clear 1 1027 80 10000 3.09 30 04:37 22.12.2021
4730 Clear 1 1027 86 10000 3.09 20 03:52 22.12.2021
4731 Clear 0 1027 93 10000 3.09 360 03:31 22.12.2021
4732 Clouds 1 1026 74 10000 2.57 10 23:48 21.12.2021
4733 Clouds 1 1026 74 10000 2.06 360 22:41 21.12.2021
4734 Clouds 2 1025 64 10000 3.09 300 21:57 21.12.2021
4735 Clouds 2 1025 64 10000 3.09 300 21:33 21.12.2021
4736 Clouds 2 1025 69 10000 1.54 290 20:39 21.12.2021
4737 Clouds 2 1024 80 10000 0.51 0 20:18 21.12.2021
4738 Clouds 1 1024 80 10000 1.03 0 19:34 21.12.2021
4739 Clouds 2 1024 75 10000 1.03 330 18:28 21.12.2021
4740 Clouds 3 1023 75 10000 2.06 290 17:58 21.12.2021
4741 Clouds 3 1023 75 10000 2.06 290 17:39 21.12.2021
4742 Clouds 6 1022 49 10000 5.14 300 15:39 21.12.2021
4743 Clouds 7 1021 42 10000 5.14 300 14:21 21.12.2021
4744 Clouds 7 1021 45 10000 5.66 280 13:42 21.12.2021
4745 Clouds 6 1020 52 10000 4.63 290 12:29 21.12.2021
4746 Clouds 6 1021 52 10000 5.14 320 10:39 21.12.2021
4747 Clouds 5 1020 56 10000 6.69 320 09:56 21.12.2021
4748 Clear 5 1020 60 10000 6.69 330 08:57 21.12.2021
4749 Clear 3 1019 65 10000 5.14 330 07:44 21.12.2021
4750 Clear 2 1019 69 10000 6.17 320 07:22 21.12.2021
4751 Clear 4 1017 65 10000 3.09 300 03:26 21.12.2021
4752 Clear 5 1017 75 10000 3.6 300 01:25 21.12.2021
4753 Clear 4 1015 81 10000 6.17 330 23:54 20.12.2021
4754 Clear 5 1015 70 10000 8.23 330 22:35 20.12.2021
4755 Clear 6 1014 65 10000 6.17 320 21:59 20.12.2021
4756 Clouds 7 1013 65 10000 6.17 310 21:27 20.12.2021
4757 Clouds 7 1013 65 10000 5.66 300 20:54 20.12.2021
4758 Clouds 7 1012 65 10000 6.17 300 20:23 20.12.2021
4759 Clouds 7 1012 70 10000 3.6 300 19:38 20.12.2021
4760 Clouds 7 1012 65 10000 3.09 290 19:19 20.12.2021
4761 Clouds 7 1012 65 10000 4.12 290 18:32 20.12.2021
4762 Clouds 7 1012 65 10000 3.09 300 17:50 20.12.2021
4763 Clouds 7 1011 65 10000 3.09 300 16:47 20.12.2021
4764 Clouds 7 1011 61 10000 4.63 290 15:57 20.12.2021
4765 Clouds 8 1011 61 10000 4.63 290 15:35 20.12.2021
4766 Rain 8 1010 61 10000 7.2 280 13:32 20.12.2021
4767 Rain 8 1010 61 10000 7.2 280 13:32 20.12.2021
4768 Clouds 7 1010 65 10000 8.23 290 12:30 20.12.2021
4769 Clouds 7 1010 65 10000 6.69 280 10:46 20.12.2021
4770 Clouds 7 1011 70 10000 6.17 250 09:40 20.12.2021
4771 Clouds 7 1011 70 10000 6.69 240 08:50 20.12.2021
4772 Clouds 7 1011 65 10000 6.17 250 08:31 20.12.2021
4773 Clouds 7 1010 65 10000 5.66 240 07:32 20.12.2021
4774 Clouds 6 1010 70 9000 4.12 240 06:39 20.12.2021
4775 Clear 0 1012 93 10000 1.54 310 00:20 20.12.2021
4776 Clear 1 1012 80 10000 2.57 340 22:56 19.12.2021
4777 Clear 1 1012 80 10000 3.09 350 22:32 19.12.2021
4778 Clear 2 1012 80 10000 3.09 330 21:32 19.12.2021
4779 Clear 1 1013 93 10000 1.54 360 20:42 19.12.2021
4780 Clear 1 1013 93 10000 1.54 360 20:23 19.12.2021
4781 Clear 2 1013 80 10000 2.06 350 19:41 19.12.2021
4782 Clouds 3 1013 75 10000 3.09 340 18:37 19.12.2021
4783 Clear 4 1013 75 10000 3.09 360 17:53 19.12.2021
4784 Clouds 5 1013 75 10000 4.12 360 17:30 19.12.2021
4785 Clouds 5 1013 70 10000 3.6 10 16:41 19.12.2021
4786 Clouds 5 1013 75 10000 6.17 20 15:52 19.12.2021
4787 Clouds 6 1013 65 10000 7.2 30 15:24 19.12.2021
4788 Clouds 6 1013 65 10000 7.72 30 14:45 19.12.2021
4789 Clouds 7 1014 65 10000 8.23 30 13:27 19.12.2021
4790 Clouds 7 1014 57 10000 9.26 20 12:52 19.12.2021
4791 Clouds 8 1015 53 10000 9.26 30 12:29 19.12.2021
4792 Clouds 7 1015 61 10000 8.75 30 11:33 19.12.2021
4793 Clouds 7 1015 61 10000 9.77 20 10:49 19.12.2021
4794 Clouds 7 1016 65 10000 8.23 20 10:22 19.12.2021
4795 Clouds 6 1016 81 10000 9.77 30 08:46 19.12.2021
4796 Clouds 6 1017 75 10000 6.17 30 06:30 19.12.2021
4797 Clouds 5 1018 81 10000 8.75 30 01:45 19.12.2021
4798 Rain 5 1018 75 10000 7.72 40 00:54 19.12.2021
4799 Rain 6 1019 81 10000 10.29 40 22:59 18.12.2021
4800 Rain 6 1019 81 10000 10.29 30 22:24 18.12.2021
4801 Rain 6 1019 81 10000 8.23 30 21:41 18.12.2021
4802 Rain 6 1019 75 10000 7.72 20 21:22 18.12.2021
4803 Rain 5 1019 81 10000 7.2 20 20:25 18.12.2021
4804 Rain 5 1019 81 10000 9.26 20 19:34 18.12.2021
4805 Rain 6 1019 75 10000 9.26 20 18:24 18.12.2021
4806 Clouds 6 1018 75 10000 7.72 20 17:49 18.12.2021
4807 Clouds 7 1018 76 10000 7.2 20 16:27 18.12.2021
4808 Clouds 6 1018 81 10000 7.2 20 15:48 18.12.2021
4809 Clouds 5 1018 87 10000 6.69 20 14:53 18.12.2021
4810 Clouds 6 1018 81 10000 7.72 20 13:42 18.12.2021
4811 Rain 7 1018 76 10000 6.17 20 11:48 18.12.2021
4812 Rain 6 1018 81 10000 7.2 10 09:53 18.12.2021
4813 Clouds 5 1018 93 5000 7.2 10 09:30 18.12.2021
4814 Clouds 6 1017 81 10000 6.17 20 08:35 18.12.2021
4815 Rain 5 1017 87 10000 3.09 20 06:27 18.12.2021
4816 Clouds 5 1017 93 10000 2.06 20 00:42 18.12.2021
4817 Clouds 5 1017 93 10000 2.57 10 23:46 17.12.2021
4818 Clouds 6 1017 87 10000 4.12 310 22:18 17.12.2021
4819 Rain 6 1018 87 10000 3.6 330 21:28 17.12.2021
4820 Rain 6 1018 87 10000 2.06 310 20:42 17.12.2021
4821 Rain 6 1018 93 10000 2.06 300 19:50 17.12.2021
4822 Rain 6 1018 93 10000 2.57 320 18:39 17.12.2021
4823 Rain 6 1018 87 10000 4.63 340 17:46 17.12.2021
4824 Rain 6 1018 87 10000 4.12 340 16:50 17.12.2021
4825 Rain 6 1018 87 10000 3.6 340 16:26 17.12.2021
4826 Rain 6 1018 87 10000 3.6 320 15:26 17.12.2021
4827 Rain 6 1019 87 10000 3.6 310 14:41 17.12.2021
4828 Rain 6 1019 81 10000 4.63 310 13:35 17.12.2021
4829 Clouds 6 1019 87 10000 4.12 300 12:28 17.12.2021
4830 Clouds 5 1020 87 8000 4.63 310 10:39 17.12.2021
4831 Clouds 5 1021 87 7000 4.12 300 09:47 17.12.2021
4832 Rain 5 1021 87 10000 3.6 290 08:31 17.12.2021
4833 Rain 5 1021 93 10000 2.06 290 07:20 17.12.2021
4834 Rain 5 1021 87 10000 3.09 330 04:40 17.12.2021
4835 Rain 5 1022 87 10000 7.2 330 23:58 16.12.2021
4836 Clouds 5 1022 87 10000 8.75 340 22:24 16.12.2021
4837 Clouds 5 1022 93 10000 9.26 340 21:51 16.12.2021
4838 Clouds 5 1022 93 10000 8.75 340 21:30 16.12.2021
4839 Clouds 5 1022 87 10000 8.23 340 20:31 16.12.2021
4840 Clouds 5 1022 87 10000 8.23 340 19:49 16.12.2021
4841 Rain 6 1022 93 10000 7.2 350 18:41 16.12.2021
4842 Clouds 6 1022 87 10000 7.2 350 17:57 16.12.2021
4843 Clouds 6 1022 87 10000 7.2 340 17:31 16.12.2021
4844 Clouds 6 1022 87 10000 7.72 340 16:22 16.12.2021
4845 Clouds 6 1021 87 10000 6.17 340 14:54 16.12.2021
4846 Rain 6 1021 87 10000 6.69 340 13:43 16.12.2021
4847 Rain 6 1022 93 10000 4.12 310 11:21 16.12.2021
4848 Rain 6 1022 93 9000 3.09 310 10:59 16.12.2021
4849 Rain 6 1022 93 8000 3.09 300 10:22 16.12.2021
4850 Rain 5 1022 93 10000 4.12 310 08:25 16.12.2021
4851 Rain 4 1022 93 10000 5.14 340 06:22 16.12.2021
4852 Rain 5 1023 93 10000 7.2 340 02:54 16.12.2021
4853 Rain 5 1023 87 10000 6.17 350 23:35 15.12.2021
4854 Rain 5 1023 87 10000 5.66 350 22:44 15.12.2021
4855 Rain 5 1023 87 10000 6.17 350 21:57 15.12.2021
4856 Rain 5 1023 87 10000 5.66 350 21:27 15.12.2021
4857 Rain 5 1022 93 10000 7.2 340 20:19 15.12.2021
4858 Rain 5 1022 87 10000 6.17 350 19:51 15.12.2021
4859 Rain 5 1022 93 10000 7.2 350 18:38 15.12.2021
4860 Rain 5 1022 87 10000 7.2 350 17:55 15.12.2021
4861 Rain 5 1021 87 10000 7.72 360 17:37 15.12.2021
4862 Rain 6 1021 93 10000 7.72 350 16:34 15.12.2021
4863 Rain 6 1021 87 10000 7.2 360 15:47 15.12.2021
4864 Rain 6 1021 87 8000 8.23 360 15:28 15.12.2021
4865 Rain 6 1020 87 10000 8.75 360 14:42 15.12.2021
4866 Rain 6 1019 87 8000 8.75 360 12:46 15.12.2021
4867 Rain 6 1020 87 10000 8.75 360 10:44 15.12.2021
4868 Rain 7 1019 87 10000 9.26 360 08:55 15.12.2021
4869 Clouds 6 1019 87 10000 9.26 360 07:43 15.12.2021
4870 Clouds 7 1017 93 10000 7.2 10 01:35 15.12.2021
4871 Clouds 8 1017 87 10000 8.23 20 23:42 14.12.2021
4872 Clouds 8 1017 87 10000 8.75 20 22:49 14.12.2021
4873 Clouds 9 1017 81 10000 9.26 20 22:24 14.12.2021
4874 Clouds 9 1017 87 10000 8.75 20 20:55 14.12.2021
4875 Clouds 9 1016 87 10000 7.72 20 19:44 14.12.2021
4876 Clouds 9 1016 87 10000 9.77 20 19:20 14.12.2021
4877 Clouds 10 1016 87 10000 9.77 30 18:28 14.12.2021
4878 Clouds 10 1015 87 10000 10.29 30 17:33 14.12.2021
4879 Clouds 10 1015 93 10000 9.26 40 16:42 14.12.2021
4880 Rain 11 1015 87 4000 7.2 40 15:36 14.12.2021
4881 Clouds 12 1014 76 10000 9.26 50 13:31 14.12.2021
4882 Clouds 13 1014 76 10000 8.75 50 12:21 14.12.2021
4883 Clouds 13 1015 76 10000 7.2 50 11:24 14.12.2021
4884 Clouds 12 1015 82 10000 7.2 60 10:24 14.12.2021
4885 Clouds 12 1016 82 10000 6.69 60 09:51 14.12.2021
4886 Clouds 11 1016 87 10000 4.63 50 08:28 14.12.2021
4887 Clouds 11 1016 87 10000 5.14 40 07:43 14.12.2021
4888 Clouds 11 1016 87 10000 5.14 40 05:35 14.12.2021
4889 Clouds 10 1017 93 10000 7.2 30 22:59 13.12.2021
4890 Clouds 9 1017 93 10000 8.75 40 21:53 13.12.2021
4891 Clouds 9 1017 93 8000 8.75 40 21:33 13.12.2021
4892 Clouds 10 1017 93 8000 7.2 30 20:45 13.12.2021
4893 Clouds 9 1017 93 8000 7.2 20 19:53 13.12.2021
4894 Clouds 10 1017 87 8000 6.69 20 19:19 13.12.2021
4895 Rain 10 1017 87 8000 6.69 30 17:26 13.12.2021
4896 Rain 10 1016 93 8000 7.2 10 15:56 13.12.2021
4897 Rain 9 1016 93 8000 7.2 10 15:38 13.12.2021
4898 Clouds 12 1015 87 10000 6.69 20 13:47 13.12.2021
4899 Clouds 12 1016 87 10000 7.72 350 12:59 13.12.2021
4900 Clouds 12 1016 87 10000 6.69 350 12:19 13.12.2021
4901 Clouds 11 1016 93 8000 4.63 350 11:35 13.12.2021
4902 Clouds 11 1016 93 4000 3.6 360 10:47 13.12.2021
4903 Clouds 12 1016 94 10000 1.03 0 09:41 13.12.2021
4904 Rain 12 1015 87 10000 2.57 120 07:57 13.12.2021
4905 Rain 12 1014 87 10000 4.12 130 05:36 13.12.2021
4906 Rain 12 1015 87 10000 2.06 160 03:30 13.12.2021
4907 Rain 12 1016 82 10000 4.12 180 23:26 12.12.2021
4908 Rain 12 1016 87 10000 5.14 190 21:50 12.12.2021
4909 Rain 12 1016 87 10000 4.63 190 20:28 12.12.2021
4910 Rain 12 1016 94 10000 5.14 170 18:43 12.12.2021
4911 Rain 12 1016 94 10000 4.63 180 17:45 12.12.2021
4912 Rain 12 1015 94 10000 2.57 180 16:28 12.12.2021
4913 Rain 12 1015 94 10000 2.06 170 15:50 12.12.2021
4914 Rain 12 1015 94 10000 1.03 0 15:26 12.12.2021
4915 Rain 12 1015 94 10000 1.03 0 15:26 12.12.2021
4916 Clouds 12 1015 94 10000 0.51 0 14:37 12.12.2021
4917 Rain 12 1015 94 10000 2.57 280 13:33 12.12.2021
4918 Rain 12 1014 94 10000 3.09 270 12:32 12.12.2021
4919 Rain 12 1015 87 10000 3.09 270 11:44 12.12.2021
4920 Rain 13 1015 87 10000 3.09 280 11:24 12.12.2021
4921 Rain 14 1015 82 9000 5.14 300 10:32 12.12.2021
4922 Rain 14 1014 82 10000 3.6 340 09:39 12.12.2021
4923 Rain 17 1014 64 10000 3 182 08:34 12.12.2021
4924 Clouds 17 1012 67 10000 3.38 125 06:20 12.12.2021
4925 Clouds 17 1012 67 10000 3.2 121 04:56 12.12.2021
4926 Clouds 16 1010 63 10000 5.14 150 03:57 12.12.2021
4927 Rain 16 1012 67 10000 3.6 150 23:48 11.12.2021
4928 Clear 16 1013 67 10000 2.57 120 22:24 11.12.2021
4929 Clear 15 1013 63 10000 3.09 100 21:52 11.12.2021
4930 Clear 16 1013 63 10000 2.06 100 21:18 11.12.2021
4931 Rain 16 1013 63 10000 2.06 100 19:30 11.12.2021
4932 Rain 16 1013 67 10000 1.54 100 18:53 11.12.2021
4933 Clear 16 1013 63 10000 2.57 100 18:26 11.12.2021
4934 Rain 16 1013 67 10000 2.57 90 17:24 11.12.2021
4935 Clouds 17 1013 63 10000 2.57 130 15:55 11.12.2021
4936 Clear 17 1013 55 10000 2.57 140 15:30 11.12.2021
4937 Clear 17 1014 63 10000 2.57 130 12:59 11.12.2021
4938 Clear 17 1014 59 10000 3.09 130 11:46 11.12.2021
4939 Clear 16 1015 55 10000 3.6 200 09:47 11.12.2021
4940 Clear 15 1015 67 10000 1.03 0 09:18 11.12.2021
4941 Clear 13 1014 71 10000 7.2 200 02:40 11.12.2021
4942 Clear 12 1014 76 10000 6.17 200 00:40 11.12.2021
4943 Clouds 12 1014 76 10000 8.23 200 23:23 10.12.2021
4944 Rain 11 1014 82 10000 7.2 200 21:57 10.12.2021
4945 Rain 11 1014 82 10000 7.2 200 21:36 10.12.2021
4946 Rain 11 1013 93 3500 13.89 260 19:22 10.12.2021
4947 Thunderstorm 13 1012 87 3500 15.43 260 18:39 10.12.2021
4948 Rain 16 1011 67 10000 5.66 270 16:57 10.12.2021
4949 Clouds 17 1010 67 10000 2.57 230 16:29 10.12.2021
4950 Clouds 17 1011 59 10000 4.12 190 15:41 10.12.2021
4951 Clouds 17 1011 63 10000 4.63 210 15:21 10.12.2021
4952 Clouds 18 1011 59 10000 4.12 180 13:52 10.12.2021
4953 Clouds 19 1011 52 10000 2.06 90 13:26 10.12.2021
4954 Clouds 19 1011 52 10000 2.06 90 13:26 10.12.2021
4955 Clouds 19 1012 48 10000 3.09 140 12:47 10.12.2021
4956 Clear 18 1013 48 10000 5.14 170 11:30 10.12.2021
4957 Clear 17 1014 55 10000 3.6 150 10:38 10.12.2021
4958 Clear 16 1015 59 10000 5.14 180 09:19 10.12.2021
4959 Clear 15 1015 58 10000 4.63 170 06:59 10.12.2021
4960 Clear 13 1015 71 10000 2.57 150 02:50 10.12.2021
4961 Clear 14 1015 63 10000 5.14 210 00:57 10.12.2021
4962 Clear 13 1016 71 10000 2.57 190 23:37 09.12.2021
4963 Clear 12 1016 76 10000 2.06 180 22:40 09.12.2021
4964 Clear 13 1016 71 10000 3.6 210 22:19 09.12.2021
4965 Clear 12 1016 76 10000 2.57 180 21:20 09.12.2021
4966 Clear 12 1016 76 10000 2.57 190 20:29 09.12.2021
4967 Clear 13 1016 72 10000 4.12 200 19:22 09.12.2021
4968 Clear 13 1016 67 10000 4.63 220 18:50 09.12.2021
4969 Clear 13 1016 76 10000 2.57 200 17:57 09.12.2021
4970 Clear 12 1016 82 10000 1.54 200 17:27 09.12.2021
4971 Clear 13 1016 76 10000 1.03 0 16:57 09.12.2021
4972 Clear 14 1016 72 10000 2.57 240 15:59 09.12.2021
4973 Clear 15 1016 67 10000 4.12 220 14:52 09.12.2021
4974 Clear 15 1016 63 10000 4.12 210 13:50 09.12.2021
4975 Clear 14 1016 67 10000 4.63 210 12:47 09.12.2021
4976 Clear 14 1017 62 10000 6.69 210 11:25 09.12.2021
4977 Clouds 13 1018 67 10000 6.69 220 09:45 09.12.2021
4978 Clouds 11 1016 82 10000 6.17 230 06:51 09.12.2021
4979 Clouds 10 1015 87 10000 3.6 250 03:49 09.12.2021
4980 Clouds 9 1014 87 10000 2.06 330 23:50 08.12.2021
4981 Clouds 9 1014 87 10000 1.03 0 23:31 08.12.2021
4982 Clouds 9 1014 87 10000 1.03 50 22:53 08.12.2021
4983 Clouds 9 1013 87 10000 2.57 60 21:49 08.12.2021
4984 Clouds 9 1013 87 10000 2.06 30 21:30 08.12.2021
4985 Clouds 9 1013 87 10000 3.09 30 20:19 08.12.2021
4986 Rain 9 1012 87 10000 4.12 40 19:39 08.12.2021
4987 Clouds 9 1012 87 10000 3.6 40 18:53 08.12.2021
4988 Clouds 9 1011 81 10000 4.12 40 18:21 08.12.2021
4989 Clouds 9 1010 87 10000 5.14 30 15:59 08.12.2021
4990 Clouds 9 1009 87 10000 5.66 30 15:31 08.12.2021
4991 Clouds 9 1009 87 10000 5.14 10 14:52 08.12.2021
4992 Clouds 10 1008 81 10000 6.17 10 13:21 08.12.2021
4993 Clouds 10 1007 87 10000 6.17 20 10:36 08.12.2021
4994 Clouds 10 1006 87 10000 5.14 360 09:31 08.12.2021
4995 Clouds 12 1004 71 10000 3.09 270 07:34 08.12.2021
4996 Clouds 11 1002 82 10000 2.57 250 04:58 08.12.2021
4997 Clouds 11 1000 87 10000 1.54 190 23:56 07.12.2021
4998 Clouds 12 1000 94 10000 1.03 0 22:37 07.12.2021
4999 Clouds 12 1000 94 10000 2.57 130 21:24 07.12.2021
5000 Rain 12 1000 94 8000 0.51 0 20:25 07.12.2021
5001 Clouds 13 1000 82 10000 2.57 110 18:56 07.12.2021
5002 Clouds 13 1000 82 10000 2.57 80 18:18 07.12.2021
5003 Rain 12 1001 87 10000 2.06 110 17:20 07.12.2021
5004 Clouds 12 1001 87 7000 1.54 350 16:36 07.12.2021
5005 Rain 12 1002 94 6000 5.66 280 15:37 07.12.2021
5006 Rain 13 1002 87 7000 9.26 280 14:37 07.12.2021
5007 Rain 17 1000 63 10000 4.12 90 13:19 07.12.2021
5008 Clouds 18 1001 59 10000 3.09 100 12:21 07.12.2021
5009 Clouds 17 1003 67 10000 4.12 120 10:44 07.12.2021
5010 Clouds 17 1004 67 10000 3.6 90 09:19 07.12.2021
5011 Clouds 14 1006 77 10000 2.06 140 06:39 07.12.2021
5012 Clouds 14 1006 88 10000 1.03 310 05:45 07.12.2021
5013 Clear 14 1008 77 10000 2.57 130 01:43 07.12.2021
5014 Clear 15 1009 72 10000 1.54 150 23:21 06.12.2021
5015 Clear 15 1009 72 10000 2.06 120 22:40 06.12.2021
5016 Clear 14 1009 72 10000 1.03 0 21:58 06.12.2021
5017 Clear 15 1009 72 10000 1.54 0 21:20 06.12.2021
5018 Clear 15 1009 72 10000 1.03 0 20:30 06.12.2021
5019 Clear 16 1010 67 10000 1.03 160 19:24 06.12.2021
5020 Clear 16 1010 67 10000 2.06 170 18:31 06.12.2021
5021 Clear 17 1010 63 10000 3.6 210 17:53 06.12.2021
5022 Clear 16 1010 67 10000 2.06 200 17:20 06.12.2021
5023 Clear 17 1010 63 10000 3.6 180 15:49 06.12.2021
5024 Clear 18 1010 63 10000 2.06 160 13:53 06.12.2021
5025 Clear 18 1011 59 10000 2.06 140 12:40 06.12.2021
5026 Clear 18 1011 59 10000 4.63 180 11:54 06.12.2021
5027 Clear 16 1013 72 10000 2.57 130 09:37 06.12.2021
5028 Clear 13 1012 88 10000 3.6 170 06:59 06.12.2021
5029 Clouds 12 1012 94 10000 2.06 190 00:33 06.12.2021
5030 Clear 11 1012 100 8000 0.51 0 21:54 05.12.2021
5031 Clear 11 1012 93 10000 1.03 0 21:25 05.12.2021
5032 Clear 11 1012 93 6000 1.03 130 20:20 05.12.2021
5033 Clear 11 1012 100 6000 1.54 120 19:57 05.12.2021
5034 Clouds 11 1012 100 6000 1.03 110 19:22 05.12.2021
5035 Clear 11 1012 93 7000 0.51 0 18:25 05.12.2021
5036 Clear 10 1012 93 7000 0.51 0 17:49 05.12.2021
5037 Clear 12 1012 94 7000 0.51 200 16:57 05.12.2021
5038 Clear 13 1011 88 7000 1.54 170 16:28 05.12.2021
5039 Clouds 13 1011 88 8000 0 0 15:58 05.12.2021
5040 Clouds 14 1011 82 8000 1.54 180 14:45 05.12.2021
5041 Clouds 14 1011 82 10000 1.54 180 14:27 05.12.2021
5042 Clouds 15 1011 77 10000 1.03 0 13:28 05.12.2021
5043 Clouds 15 1011 77 10000 1.03 0 12:40 05.12.2021
5044 Clouds 15 1012 82 8000 2.06 130 12:21 05.12.2021
5045 Clouds 14 1012 82 10000 2.06 160 11:35 05.12.2021
5046 Clouds 14 1012 88 10000 3.6 130 10:21 05.12.2021
5047 Clouds 13 1012 88 10000 2.06 130 08:50 05.12.2021
5048 Clouds 11 1011 93 10000 3.6 50 04:56 05.12.2021
5049 Clouds 10 1012 93 10000 4.12 50 01:23 05.12.2021
5050 Clouds 10 1012 93 10000 4.63 40 22:32 04.12.2021
5051 Clouds 10 1012 93 10000 3.6 30 21:36 04.12.2021
5052 Clouds 10 1012 93 10000 4.12 10 20:32 04.12.2021
5053 Clouds 10 1012 87 10000 4.12 20 19:33 04.12.2021
5054 Clouds 10 1012 87 10000 5.14 360 18:23 04.12.2021
5055 Clouds 10 1011 87 10000 5.14 360 17:45 04.12.2021
5056 Clouds 10 1011 87 10000 5.66 360 17:20 04.12.2021
5057 Clouds 11 1011 87 10000 4.63 10 16:42 04.12.2021
5058 Clouds 11 1010 93 10000 6.69 360 16:24 04.12.2021
5059 Rain 15 1008 82 10000 5.66 200 11:56 04.12.2021
5060 Rain 15 1009 82 10000 5.66 200 11:33 04.12.2021
5061 Rain 14 1009 82 10000 7.2 190 10:57 04.12.2021
5062 Rain 14 1010 82 7000 3.09 180 08:53 04.12.2021
5063 Rain 14 1010 82 10000 1.03 0 08:27 04.12.2021
5064 Clouds 14 1011 77 10000 2.06 130 04:42 04.12.2021
5065 Clear 14 1013 77 10000 4.63 190 00:49 04.12.2021
5066 Clear 14 1013 82 10000 2.06 120 23:29 03.12.2021
5067 Clear 14 1014 82 10000 3.6 170 22:50 03.12.2021
5068 Clear 14 1014 82 10000 3.6 170 21:50 03.12.2021
5069 Clouds 14 1014 82 10000 4.63 180 21:20 03.12.2021
5070 Clouds 14 1014 82 10000 4.12 190 20:27 03.12.2021
5071 Rain 14 1014 88 8000 4.63 210 19:20 03.12.2021
5072 Rain 16 1014 72 10000 6.17 240 18:22 03.12.2021
5073 Clouds 16 1014 72 10000 6.17 220 17:30 03.12.2021
5074 Clouds 18 1013 68 10000 4.12 210 13:35 03.12.2021
5075 Clouds 17 1013 72 10000 7.2 240 12:21 03.12.2021
5076 Clouds 17 1013 72 10000 4.63 250 11:19 03.12.2021
5077 Clear 16 1014 67 10000 6.17 220 08:40 03.12.2021
5078 Clear 15 1013 72 10000 8.23 220 07:43 03.12.2021
5079 Clear 14 1013 77 10000 8.23 220 06:41 03.12.2021
5080 Clear 14 1013 72 10000 6.17 230 00:49 03.12.2021
5081 Clouds 14 1013 72 10000 6.17 230 23:48 02.12.2021
5082 Clouds 14 1013 72 10000 7.2 230 22:54 02.12.2021
5083 Clouds 14 1013 72 10000 8.23 230 21:41 02.12.2021
5084 Clouds 13 1013 67 10000 5.66 200 20:45 02.12.2021
5085 Clouds 13 1013 67 10000 4.63 200 20:22 02.12.2021
5086 Clouds 13 1013 62 10000 5.66 200 18:50 02.12.2021
5087 Clear 12 1013 76 10000 3.09 200 16:43 02.12.2021
5088 Clear 13 1013 62 10000 4.63 230 15:41 02.12.2021
5089 Clear 14 1014 54 10000 3.09 190 14:52 02.12.2021
5090 Clear 14 1014 58 10000 6.17 220 13:39 02.12.2021
5091 Clear 14 1014 54 10000 7.2 210 12:36 02.12.2021
5092 Clear 13 1015 58 10000 7.2 210 10:42 02.12.2021
5093 Clear 12 1016 62 10000 7.2 210 09:26 02.12.2021
5094 Clear 10 1016 62 10000 7.2 210 07:19 02.12.2021
5095 Clear 11 1016 66 10000 5.14 220 01:28 02.12.2021
5096 Clear 11 1016 66 10000 5.66 230 00:35 02.12.2021
5097 Clouds 11 1016 66 10000 5.14 250 22:31 01.12.2021
5098 Clouds 12 1016 62 10000 5.14 250 21:44 01.12.2021
5099 Clouds 12 1016 62 10000 6.17 260 20:24 01.12.2021
5100 Clouds 12 1015 62 10000 7.2 250 19:43 01.12.2021
5101 Clear 12 1015 62 10000 7.72 260 18:47 01.12.2021
5102 Clouds 12 1015 58 10000 7.2 270 17:31 01.12.2021
5103 Clouds 11 1014 50 10000 9.26 280 16:34 01.12.2021
5104 Clouds 11 1014 66 10000 7.72 260 14:35 01.12.2021
5105 Clouds 10 1014 66 10000 8.23 260 13:37 01.12.2021
5106 Clouds 9 1015 66 10000 7.72 250 10:45 01.12.2021
5107 Clouds 9 1015 66 10000 8.23 240 10:27 01.12.2021
5108 Clouds 9 1015 66 10000 6.69 250 08:52 01.12.2021
5109 Clouds 8 1015 61 10000 5.66 260 07:59 01.12.2021
5110 Clear 7 1014 57 10000 6.17 260 07:31 01.12.2021
5111 Clouds 6 1014 75 10000 2.57 300 03:59 01.12.2021
5112 Clouds 5 1014 75 10000 2.57 310 03:28 01.12.2021
5113 Clouds 6 1014 70 10000 3.6 310 00:44 01.12.2021
5114 Clouds 6 1014 75 10000 4.12 330 23:33 30.11.2021
5115 Clouds 6 1013 81 10000 4.12 340 22:34 30.11.2021
5116 Clouds 7 1012 76 10000 4.12 340 20:47 30.11.2021
5117 Clouds 7 1011 76 10000 4.12 340 20:26 30.11.2021
5118 Clouds 7 1011 70 10000 4.63 330 19:39 30.11.2021
5119 Clouds 7 1010 70 10000 6.69 340 18:57 30.11.2021
5120 Clouds 7 1009 70 10000 5.14 310 17:47 30.11.2021
5121 Clouds 8 1008 70 10000 6.17 320 16:25 30.11.2021
5122 Clouds 10 1004 71 10000 7.2 320 14:35 30.11.2021
5123 Rain 10 1003 76 10000 7.72 300 13:41 30.11.2021
5124 Rain 10 1003 76 10000 9.26 300 13:22 30.11.2021
5125 Clouds 12 1002 76 10000 12.86 280 12:40 30.11.2021
5126 Clouds 16 1001 63 10000 11.83 250 11:26 30.11.2021
5127 Clouds 15 1001 72 10000 9.26 230 10:36 30.11.2021
5128 Clouds 13 1000 72 10000 11.83 220 08:59 30.11.2021
5129 Rain 13 1000 72 10000 11.83 220 08:40 30.11.2021
5130 Rain 13 1000 77 10000 11.32 210 08:19 30.11.2021
5131 Rain 15 999 63 10000 8.23 190 06:39 30.11.2021
5132 Clouds 14 1005 82 10000 4.12 220 01:52 30.11.2021
5133 Clouds 13 1006 88 10000 2.57 240 01:28 30.11.2021
5134 Clouds 14 1006 82 10000 6.17 220 23:51 29.11.2021
5135 Clouds 14 1006 82 10000 6.17 220 23:20 29.11.2021
5136 Clouds 15 1006 77 10000 7.2 230 22:42 29.11.2021
5137 Clouds 15 1005 77 10000 8.23 230 22:23 29.11.2021
5138 Clouds 14 1005 88 10000 9.77 230 21:21 29.11.2021
5139 Rain 13 1005 94 8000 10.29 220 20:54 29.11.2021
5140 Rain 15 1005 88 8000 10.29 240 20:21 29.11.2021
5141 Rain 14 1005 94 6000 14.4 270 19:42 29.11.2021
5142 Rain 16 1003 77 10000 10.8 240 19:21 29.11.2021
5143 Rain 17 1003 63 10000 14.65 223 18:42 29.11.2021
5144 Rain 16 1002 74 10000 11.3 232 17:22 29.11.2021
5145 Rain 16 1002 74 10000 11.29 233 16:50 29.11.2021
5146 Rain 16 1002 81 10000 11.65 246 16:24 29.11.2021
5147 Rain 16 1002 86 6965 11.69 252 14:47 29.11.2021
5148 Rain 15 1001 83 10000 12.94 254 14:29 29.11.2021
5149 Rain 17 1000 83 10000 12.6 255 13:23 29.11.2021
5150 Rain 21 1000 53 10000 15.08 214 12:20 29.11.2021
5151 Rain 21 1000 53 10000 15.08 214 11:30 29.11.2021
5152 Clouds 21 1000 44 10000 12.29 211 09:59 29.11.2021
5153 Rain 20 1000 56 10000 8.23 200 07:48 29.11.2021
5154 Clear 19 1001 55 10000 5.66 210 05:52 29.11.2021
5155 Clear 17 1004 63 10000 6.17 240 01:30 29.11.2021
5156 Clear 18 1006 55 10000 7.2 220 23:59 28.11.2021
5157 Clear 18 1006 55 10000 7.2 220 23:40 28.11.2021
5158 Clear 16 1007 72 10000 3.6 230 22:20 28.11.2021
5159 Clear 17 1008 67 10000 6.69 240 21:39 28.11.2021
5160 Clear 17 1008 67 10000 6.17 240 20:44 28.11.2021
5161 Clear 15 1009 77 10000 3.09 220 19:53 28.11.2021
5162 Clear 15 1009 77 10000 2.57 260 18:40 28.11.2021
5163 Clear 17 1008 67 10000 4.12 230 18:22 28.11.2021
5164 Clear 17 1008 67 10000 3.09 250 17:45 28.11.2021
5165 Clear 16 1008 72 10000 2.06 240 17:18 28.11.2021
5166 Clouds 15 1008 82 10000 2.57 230 16:28 28.11.2021
5167 Clouds 15 1008 82 10000 2.57 230 16:28 28.11.2021
5168 Clear 16 1008 72 10000 1.03 0 15:50 28.11.2021
5169 Clear 17 1009 67 10000 4.12 250 14:56 28.11.2021
5170 Clear 17 1008 72 10000 4.63 250 14:28 28.11.2021
5171 Clear 17 1008 67 10000 6.69 250 12:54 28.11.2021
5172 Clouds 16 1008 77 10000 5.14 260 11:51 28.11.2021
5173 Clouds 16 1008 82 10000 6.17 250 10:37 28.11.2021
5174 Clouds 16 1007 82 10000 7.72 250 09:56 28.11.2021
5175 Clouds 17 1007 82 10000 9.77 250 09:36 28.11.2021
5176 Rain 16 1008 72 10000 5.14 230 00:53 28.11.2021
5177 Clouds 16 1008 77 10000 2.06 220 22:58 27.11.2021
5178 Clear 15 1009 82 10000 2.06 200 20:28 27.11.2021
5179 Clear 15 1009 82 10000 2.57 190 18:44 27.11.2021
5180 Rain 17 1009 67 10000 3.6 230 16:19 27.11.2021
5181 Clear 16 1009 72 10000 3.6 210 15:32 27.11.2021
5182 Clear 17 1009 72 10000 3.6 200 13:40 27.11.2021
5183 Clear 17 1010 72 10000 3.09 220 12:27 27.11.2021
5184 Clear 16 1010 82 10000 4.12 210 10:30 27.11.2021
5185 Clear 16 1010 82 10000 3.6 210 09:25 27.11.2021
5186 Clouds 15 1010 82 10000 3.6 210 07:43 27.11.2021
5187 Clouds 15 1008 82 10000 4.12 250 04:53 27.11.2021
5188 Clouds 16 1008 77 10000 8.23 230 00:31 27.11.2021
5189 Clouds 15 1007 82 10000 6.17 240 22:52 26.11.2021
5190 Clouds 14 1007 94 7000 8.75 220 22:24 26.11.2021
5191 Rain 13 1007 94 10000 2.06 310 21:34 26.11.2021
5192 Rain 14 1007 88 10000 2.06 310 20:42 26.11.2021
5193 Rain 15 1006 77 8000 1.54 130 19:56 26.11.2021
5194 Rain 15 1007 82 8000 1.54 140 19:27 26.11.2021
5195 Clouds 15 1007 72 10000 2.57 100 17:54 26.11.2021
5196 Rain 15 1008 72 10000 2.06 80 17:21 26.11.2021
5197 Clouds 14 1009 77 10000 2.57 110 15:46 26.11.2021
5198 Clouds 16 1012 67 10000 2.06 150 13:35 26.11.2021
5199 Clear 15 1013 67 10000 2.57 160 11:58 26.11.2021
5200 Clear 14 1015 76 10000 3.09 140 10:37 26.11.2021
5201 Clouds 12 1016 82 10000 2.57 150 08:57 26.11.2021
5202 Clouds 11 1016 82 10000 2.57 150 08:21 26.11.2021
5203 Clouds 8 1017 93 10000 0.51 0 07:25 26.11.2021
5204 Clouds 8 1017 87 10000 0.51 0 06:26 26.11.2021
5205 Clear 7 1017 87 10000 0 0 03:57 26.11.2021
5206 Clear 7 1018 87 10000 1.03 10 01:55 26.11.2021
5207 Clear 9 1019 81 10000 2.57 70 22:48 25.11.2021
5208 Clear 11 1019 71 10000 3.09 60 21:26 25.11.2021
5209 Clear 11 1019 71 10000 4.12 70 20:27 25.11.2021
5210 Clear 11 1019 71 10000 4.63 60 18:47 25.11.2021
5211 Clear 11 1019 71 10000 4.12 60 17:47 25.11.2021
5212 Clouds 11 1019 71 10000 4.12 50 17:25 25.11.2021
5213 Clear 12 1019 62 10000 5.14 70 16:33 25.11.2021
5214 Clouds 12 1019 66 10000 5.14 60 14:59 25.11.2021
5215 Clouds 12 1020 71 10000 6.17 50 13:37 25.11.2021
5216 Clouds 12 1020 76 10000 7.72 40 12:27 25.11.2021
5217 Clouds 12 1021 66 10000 5.14 40 11:50 25.11.2021
5218 Clouds 11 1022 71 10000 5.66 60 09:28 25.11.2021
5219 Clouds 10 1022 71 10000 6.69 50 06:18 25.11.2021
5220 Clouds 10 1023 66 10000 7.2 60 02:49 25.11.2021
5221 Clouds 10 1023 66 10000 5.66 70 23:28 24.11.2021
5222 Clouds 10 1024 71 10000 7.72 70 22:25 24.11.2021
5223 Clouds 10 1024 71 10000 7.72 70 21:37 24.11.2021
5224 Clouds 11 1024 66 10000 7.72 70 20:52 24.11.2021
5225 Clouds 11 1024 71 10000 7.2 70 20:26 24.11.2021
5226 Clouds 10 1024 71 10000 7.2 50 18:31 24.11.2021
5227 Clouds 10 1024 71 10000 8.23 60 17:58 24.11.2021
5228 Clouds 11 1023 71 10000 7.72 50 15:47 24.11.2021
5229 Clouds 11 1023 71 10000 9.26 60 14:53 24.11.2021
5230 Clouds 11 1023 71 10000 9.26 60 14:20 24.11.2021
5231 Clouds 11 1023 71 10000 9.26 40 12:47 24.11.2021
5232 Clouds 11 1024 71 10000 9.26 40 11:21 24.11.2021
5233 Clouds 11 1024 71 10000 9.77 40 10:49 24.11.2021
5234 Clouds 11 1024 76 10000 9.77 30 10:23 24.11.2021
5235 Clouds 11 1024 82 10000 7.72 50 07:55 24.11.2021
5236 Clouds 11 1023 76 10000 8.75 50 06:55 24.11.2021
5237 Clouds 12 1021 76 10000 7.72 40 03:51 24.11.2021
5238 Clouds 12 1021 82 10000 6.69 40 00:52 24.11.2021
5239 Rain 12 1021 87 10000 6.69 30 22:40 23.11.2021
5240 Rain 12 1020 87 10000 6.17 30 22:20 23.11.2021
5241 Rain 12 1020 87 10000 6.17 40 21:44 23.11.2021
5242 Rain 12 1020 87 10000 6.17 40 21:44 23.11.2021
5243 Rain 12 1019 94 7000 7.2 20 19:43 23.11.2021
5244 Rain 13 1019 88 7000 6.17 20 18:43 23.11.2021
5245 Rain 13 1019 94 10000 5.14 10 18:21 23.11.2021
5246 Rain 13 1017 94 7000 1.54 350 16:58 23.11.2021
5247 Rain 13 1017 94 6000 3.09 340 16:34 23.11.2021
5248 Rain 13 1017 94 4500 1.03 0 15:22 23.11.2021
5249 Rain 13 1017 94 4800 2.06 330 14:26 23.11.2021
5250 Rain 14 1017 100 5000 4.12 280 11:43 23.11.2021
5251 Rain 15 1018 88 10000 4.12 270 10:19 23.11.2021
5252 Rain 15 1018 88 10000 4.63 280 09:22 23.11.2021
5253 Clear 15 1017 63 10000 4.63 230 06:46 23.11.2021
5254 Clear 15 1017 72 10000 4.12 230 03:54 23.11.2021
5255 Clear 15 1017 72 10000 6.17 220 02:57 23.11.2021
5256 Clear 15 1018 77 10000 3.6 230 23:21 22.11.2021
5257 Clear 16 1018 67 10000 5.14 240 22:52 22.11.2021
5258 Clear 16 1018 72 10000 3.6 240 22:27 22.11.2021
5259 Clear 16 1018 67 10000 6.17 240 21:41 22.11.2021
5260 Clear 15 1018 63 10000 4.63 240 20:52 22.11.2021
5261 Clear 14 1018 67 10000 2.57 240 19:57 22.11.2021
5262 Clear 14 1018 67 10000 2.57 240 19:19 22.11.2021
5263 Clear 13 1018 82 10000 1.54 270 18:39 22.11.2021
5264 Clear 14 1017 77 10000 1.54 270 17:43 22.11.2021
5265 Clear 14 1017 77 10000 3.09 260 16:19 22.11.2021
5266 Clear 17 1016 67 10000 3.6 260 14:20 22.11.2021
5267 Clear 17 1017 72 10000 4.12 240 12:26 22.11.2021
5268 Clear 16 1017 63 10000 5.66 220 10:43 22.11.2021
5269 Clear 15 1018 67 10000 5.14 210 09:43 22.11.2021
5270 Clear 14 1018 67 10000 5.66 210 08:40 22.11.2021
5271 Clear 12 1017 76 10000 5.14 220 06:22 22.11.2021
5272 Clear 8 1016 93 7000 1.03 210 23:30 21.11.2021
5273 Clear 8 1016 93 6000 1.03 200 22:50 21.11.2021
5274 Clear 8 1016 81 6000 0.51 0 21:57 21.11.2021
5275 Clear 8 1016 87 7000 2.57 340 20:42 21.11.2021
5276 Clear 9 1015 81 10000 1.03 320 19:58 21.11.2021
5277 Clear 10 1016 76 10000 1.03 0 18:25 21.11.2021
5278 Clear 10 1016 76 10000 1.03 0 17:39 21.11.2021
5279 Clear 11 1015 71 10000 1.54 350 16:42 21.11.2021
5280 Clear 16 1016 51 10000 2.06 0 14:46 21.11.2021
5281 Clear 16 1016 48 10000 3.09 110 13:47 21.11.2021
5282 Clear 15 1017 51 10000 2.06 70 12:37 21.11.2021
5283 Clear 15 1018 51 10000 3.6 90 11:54 21.11.2021
5284 Clear 14 1018 58 10000 3.6 80 11:35 21.11.2021
5285 Clear 13 1019 58 10000 3.6 120 10:19 21.11.2021
5286 Clear 12 1019 58 10000 2.57 60 08:56 21.11.2021
5287 Clear 11 1019 66 10000 2.06 70 08:26 21.11.2021
5288 Clear 10 1019 76 10000 2.06 80 07:49 21.11.2021
5289 Clear 6 1019 87 10000 2.57 360 06:18 21.11.2021
5290 Clear 7 1019 93 10000 2.06 350 05:26 21.11.2021
5291 Clear 7 1019 87 10000 2.57 60 03:19 21.11.2021
5292 Clear 9 1019 76 10000 2.57 60 02:52 21.11.2021
5293 Clear 9 1020 76 10000 1.03 90 00:59 21.11.2021
5294 Clear 8 1020 87 10000 1.03 0 23:59 20.11.2021
5295 Clouds 8 1020 87 7000 1.54 10 21:49 20.11.2021
5296 Clouds 8 1020 81 8000 2.06 350 21:28 20.11.2021
5297 Clear 8 1019 76 10000 0 0 19:22 20.11.2021
5298 Clear 9 1019 76 10000 0 0 18:45 20.11.2021
5299 Clear 9 1019 76 10000 0 0 18:19 20.11.2021
5300 Clouds 11 1018 66 10000 0 0 16:59 20.11.2021
5301 Clouds 13 1018 58 10000 1.54 230 14:49 20.11.2021
5302 Clouds 13 1018 58 10000 2.06 230 14:27 20.11.2021
5303 Clouds 13 1018 54 10000 2.06 220 13:32 20.11.2021
5304 Clouds 13 1019 58 10000 3.09 260 11:20 20.11.2021
5305 Clear 12 1020 58 10000 2.06 320 09:53 20.11.2021
5306 Clear 10 1020 66 10000 1.03 330 08:25 20.11.2021
5307 Clear 7 1019 87 10000 1.03 320 05:29 20.11.2021
5308 Clear 5 1019 93 10000 1.54 360 04:51 20.11.2021
5309 Clear 6 1019 93 10000 1.03 0 03:24 20.11.2021
5310 Clouds 9 1021 81 10000 0 0 00:41 20.11.2021
5311 Clouds 9 1021 76 10000 1.03 140 23:43 19.11.2021
5312 Clouds 9 1021 87 10000 1.03 0 22:52 19.11.2021
5313 Clouds 9 1021 81 10000 2.06 40 21:21 19.11.2021
5314 Clouds 10 1021 76 10000 3.09 10 20:37 19.11.2021
5315 Clouds 10 1021 76 10000 3.09 10 20:37 19.11.2021
5316 Clouds 10 1021 76 10000 2.57 20 19:56 19.11.2021
5317 Clouds 10 1022 76 10000 2.06 20 19:27 19.11.2021
5318 Rain 10 1022 71 10000 2.06 30 18:43 19.11.2021
5319 Clouds 10 1022 76 10000 5.14 10 17:38 19.11.2021
5320 Clouds 10 1021 76 10000 4.12 20 15:58 19.11.2021
5321 Clouds 10 1022 81 10000 4.63 360 13:57 19.11.2021
5322 Clouds 11 1023 71 10000 6.69 10 10:34 19.11.2021
5323 Clouds 11 1023 71 10000 5.66 10 09:58 19.11.2021
5324 Clouds 11 1023 71 10000 5.14 20 08:32 19.11.2021
5325 Clouds 10 1023 71 10000 2.06 350 04:54 19.11.2021
5326 Clouds 10 1023 76 10000 2.57 350 02:43 19.11.2021
5327 Clouds 9 1024 81 10000 2.06 350 23:52 18.11.2021
5328 Clouds 10 1024 76 10000 2.06 350 22:35 18.11.2021
5329 Clouds 11 1024 71 10000 3.09 10 20:56 18.11.2021
5330 Clouds 11 1024 76 10000 2.57 20 20:32 18.11.2021
5331 Clouds 12 1024 66 10000 2.06 40 19:58 18.11.2021
5332 Clouds 11 1024 66 10000 2.06 40 19:35 18.11.2021
5333 Clouds 12 1024 66 10000 1.54 40 18:34 18.11.2021
5334 Clouds 12 1024 66 10000 1.54 60 17:51 18.11.2021
5335 Clouds 12 1023 66 10000 2.57 30 16:45 18.11.2021
5336 Clouds 12 1023 66 10000 3.09 40 15:52 18.11.2021
5337 Clouds 12 1023 66 10000 3.09 50 14:18 18.11.2021
5338 Clouds 12 1023 66 10000 4.63 20 12:34 18.11.2021
5339 Clouds 12 1024 66 10000 3.09 20 11:43 18.11.2021
5340 Clouds 12 1024 71 10000 3.09 20 11:25 18.11.2021
5341 Clouds 12 1024 71 10000 3.6 360 10:21 18.11.2021
5342 Clouds 11 1024 76 10000 3.09 360 07:42 18.11.2021
5343 Clouds 11 1024 71 10000 3.09 10 06:20 18.11.2021
5344 Clouds 11 1023 71 10000 3.09 10 05:41 18.11.2021
5345 Clouds 11 1023 71 10000 2.57 30 01:25 18.11.2021
5346 Clouds 12 1023 66 10000 4.12 50 23:27 17.11.2021
5347 Clouds 12 1023 66 10000 4.12 50 22:39 17.11.2021
5348 Clouds 12 1023 66 10000 4.12 50 22:18 17.11.2021
5349 Clouds 11 1023 71 10000 4.12 40 21:35 17.11.2021
5350 Clouds 11 1023 71 10000 4.63 40 19:30 17.11.2021
5351 Clouds 11 1022 71 10000 5.66 40 17:35 17.11.2021
5352 Clouds 11 1022 66 10000 7.2 30 15:54 17.11.2021
5353 Clouds 12 1022 66 10000 6.17 30 12:56 17.11.2021
5354 Clouds 12 1022 66 10000 6.17 30 12:36 17.11.2021
5355 Clear 12 1022 66 10000 5.66 30 10:52 17.11.2021
5356 Clouds 12 1022 66 10000 6.17 40 09:37 17.11.2021
5357 Clouds 11 1022 66 10000 7.2 40 07:46 17.11.2021
5358 Clouds 11 1022 66 10000 7.2 60 06:53 17.11.2021
5359 Clouds 11 1022 66 10000 7.2 60 02:48 17.11.2021
5360 Clouds 11 1023 71 10000 6.69 50 23:58 16.11.2021
5361 Clouds 11 1023 71 10000 6.17 60 22:25 16.11.2021
5362 Clouds 12 1024 66 10000 8.23 70 20:19 16.11.2021
5363 Clouds 12 1023 66 10000 7.72 60 19:37 16.11.2021
5364 Clouds 12 1024 66 10000 8.23 70 18:43 16.11.2021
5365 Clouds 12 1024 66 10000 8.75 60 17:56 16.11.2021
5366 Clouds 12 1023 71 10000 10.8 50 16:59 16.11.2021
5367 Clouds 12 1024 71 10000 8.75 60 16:19 16.11.2021
5368 Clouds 13 1024 71 10000 10.29 60 15:42 16.11.2021
5369 Clouds 14 1023 72 10000 10.29 50 13:46 16.11.2021
5370 Clouds 14 1025 67 10000 7.72 60 10:27 16.11.2021
5371 Clouds 14 1025 67 10000 9.26 50 09:41 16.11.2021
5372 Clouds 13 1025 76 10000 8.23 70 07:47 16.11.2021
5373 Clouds 13 1024 71 10000 7.72 70 06:43 16.11.2021
5374 Clear 12 1025 82 10000 5.66 60 23:26 15.11.2021
5375 Clouds 12 1025 82 10000 6.17 60 22:41 15.11.2021
5376 Clouds 12 1025 82 10000 6.69 60 22:19 15.11.2021
5377 Clouds 13 1025 77 10000 6.17 50 21:31 15.11.2021
5378 Clouds 13 1025 77 10000 6.17 60 20:43 15.11.2021
5379 Clear 13 1024 76 10000 6.17 50 19:26 15.11.2021
5380 Clouds 14 1024 77 10000 7.2 50 17:33 15.11.2021
5381 Clouds 14 1023 77 10000 7.2 50 15:52 15.11.2021
5382 Clouds 15 1023 72 10000 7.2 50 15:33 15.11.2021
5383 Clouds 16 1023 67 10000 6.69 50 14:32 15.11.2021
5384 Clouds 16 1023 63 10000 7.2 50 12:38 15.11.2021
5385 Clouds 15 1023 72 10000 5.14 50 10:33 15.11.2021
5386 Clouds 14 1023 77 10000 5.14 60 09:22 15.11.2021
5387 Clouds 11 1023 87 10000 2.57 50 07:23 15.11.2021
5388 Clear 12 1022 87 10000 4.63 30 00:56 15.11.2021
5389 Clear 12 1022 87 10000 4.63 30 22:44 14.11.2021
5390 Clear 12 1022 87 10000 4.12 40 21:45 14.11.2021
5391 Clear 13 1021 76 10000 4.12 40 19:22 14.11.2021
5392 Clear 13 1022 71 10000 4.12 40 18:55 14.11.2021
5393 Clear 13 1021 67 10000 4.12 40 18:36 14.11.2021
5394 Clear 13 1021 67 10000 4.12 40 18:18 14.11.2021
5395 Clear 13 1021 71 10000 4.63 30 17:58 14.11.2021
5396 Clear 13 1021 71 10000 4.63 30 17:40 14.11.2021
5397 Clear 13 1021 76 10000 5.14 30 17:21 14.11.2021
5398 Clear 13 1021 82 10000 4.63 30 16:58 14.11.2021
5399 Clear 14 1021 77 10000 4.63 30 16:40 14.11.2021
5400 Clear 14 1021 77 10000 4.63 30 16:18 14.11.2021
5401 Clear 15 1021 72 10000 3.6 30 15:19 14.11.2021
5402 Clear 17 1021 63 10000 2.06 10 14:45 14.11.2021
5403 Clear 17 1021 51 10000 1.54 270 14:20 14.11.2021
5404 Clear 17 1021 55 10000 2.06 240 13:51 14.11.2021
5405 Clear 17 1021 51 10000 1.54 0 13:27 14.11.2021
5406 Clear 17 1021 45 10000 2.06 130 12:22 14.11.2021
5407 Clear 15 1022 51 10000 2.06 80 10:58 14.11.2021
5408 Clear 15 1022 58 10000 1.54 70 10:36 14.11.2021
5409 Clear 13 1022 62 10000 1.54 70 09:26 14.11.2021
5410 Clear 12 1022 71 10000 2.57 60 08:51 14.11.2021
5411 Clear 6 1021 93 10000 1.03 10 04:46 14.11.2021
5412 Clear 10 1022 81 10000 2.06 40 22:31 13.11.2021
5413 Clear 11 1022 82 10000 3.09 30 21:59 13.11.2021
5414 Clear 11 1022 82 10000 3.09 30 21:32 13.11.2021
5415 Clear 11 1022 82 10000 3.09 40 20:43 13.11.2021
5416 Clear 12 1022 76 10000 4.12 40 18:56 13.11.2021
5417 Clear 12 1022 76 10000 3.6 40 18:32 13.11.2021
5418 Clear 12 1022 76 10000 4.12 30 17:38 13.11.2021
5419 Clear 14 1021 58 10000 0.51 0 15:53 13.11.2021
5420 Clear 16 1021 47 10000 1.54 130 14:43 13.11.2021
5421 Clear 15 1022 47 10000 2.06 150 13:47 13.11.2021
5422 Clear 15 1022 58 10000 2.57 140 12:43 13.11.2021
5423 Clear 15 1022 58 10000 2.06 130 11:48 13.11.2021
5424 Clear 14 1022 58 10000 2.06 110 11:21 13.11.2021
5425 Clear 14 1023 62 10000 3.09 110 10:33 13.11.2021
5426 Clear 13 1023 62 10000 2.57 100 09:45 13.11.2021
5427 Clear 13 1023 58 10000 2.57 100 09:22 13.11.2021
5428 Clear 12 1023 76 10000 2.57 0 08:48 13.11.2021
5429 Clear 10 1023 87 10000 1.54 60 07:47 13.11.2021
5430 Clear 7 1022 93 10000 2.06 60 04:42 13.11.2021
5431 Clear 8 1022 87 10000 2.57 30 02:59 13.11.2021
5432 Clear 9 1022 81 10000 3.09 40 23:35 12.11.2021
5433 Clear 10 1022 87 10000 3.6 30 21:56 12.11.2021
5434 Clear 11 1022 82 10000 5.14 50 20:47 12.11.2021
5435 Clear 11 1022 82 10000 4.12 40 19:32 12.11.2021
5436 Clear 11 1022 76 10000 5.14 60 18:57 12.11.2021
5437 Clear 12 1022 71 10000 5.14 50 18:19 12.11.2021
5438 Clear 13 1021 67 10000 5.66 50 15:55 12.11.2021
5439 Clouds 16 1021 55 10000 5.66 40 13:28 12.11.2021
5440 Clouds 15 1022 63 10000 4.12 40 11:25 12.11.2021
5441 Clouds 14 1022 62 10000 4.12 60 10:40 12.11.2021
5442 Clear 13 1023 71 10000 5.66 70 08:56 12.11.2021
5443 Clear 10 1023 76 10000 3.6 60 07:49 12.11.2021
5444 Clear 10 1024 76 10000 5.66 60 00:21 12.11.2021
5445 Clear 10 1025 76 10000 5.66 70 23:30 11.11.2021
5446 Clear 10 1025 66 10000 5.66 60 22:21 11.11.2021
5447 Clear 11 1026 66 10000 5.14 70 21:26 11.11.2021
5448 Clear 10 1026 66 10000 6.17 70 19:56 11.11.2021
5449 Clear 10 1027 66 10000 6.69 80 18:40 11.11.2021
5450 Clear 11 1027 66 10000 6.17 80 17:41 11.11.2021
5451 Clouds 12 1026 58 10000 9.26 70 15:51 11.11.2021
5452 Clouds 13 1027 54 10000 9.26 60 14:42 11.11.2021
5453 Clouds 13 1027 54 10000 8.23 60 14:22 11.11.2021
5454 Clouds 14 1027 51 10000 8.23 70 13:35 11.11.2021
5455 Clouds 14 1028 51 10000 6.69 80 12:27 11.11.2021
5456 Clouds 12 1029 54 10000 8.75 70 09:59 11.11.2021
5457 Clouds 11 1030 58 10000 8.23 80 09:23 11.11.2021
5458 Clouds 10 1030 62 10000 5.66 80 07:34 11.11.2021
5459 Clouds 10 1033 57 10000 6.17 70 00:40 11.11.2021
5460 Clouds 11 1034 58 10000 7.2 70 22:46 10.11.2021
5461 Clouds 11 1034 58 10000 7.2 70 21:54 10.11.2021
5462 Clouds 11 1034 62 10000 6.17 60 20:57 10.11.2021
5463 Clouds 10 1034 62 10000 7.2 60 20:33 10.11.2021
5464 Clouds 10 1034 66 10000 5.66 60 19:45 10.11.2021
5465 Clouds 10 1034 62 10000 6.69 50 17:39 10.11.2021
5466 Clouds 11 1034 54 10000 7.2 60 16:21 10.11.2021
5467 Clouds 12 1034 54 10000 8.23 40 14:25 10.11.2021
5468 Clouds 12 1034 54 10000 8.75 50 13:38 10.11.2021
5469 Clouds 12 1035 54 10000 9.77 50 12:39 10.11.2021
5470 Clouds 12 1036 62 10000 8.23 30 09:41 10.11.2021
5471 Clouds 12 1035 66 10000 8.23 30 08:44 10.11.2021
5472 Clouds 11 1035 76 10000 5.66 30 06:59 10.11.2021
5473 Clouds 10 1034 87 10000 5.66 20 05:58 10.11.2021
5474 Clouds 11 1034 76 10000 8.23 30 04:58 10.11.2021
5475 Clouds 11 1031 82 10000 6.69 20 22:41 09.11.2021
5476 Rain 11 1028 93 8000 9.77 20 20:51 09.11.2021
5477 Rain 14 1027 88 8000 11.83 10 19:51 09.11.2021
5478 Clouds 15 1026 88 10000 5.66 350 18:58 09.11.2021
5479 Clouds 16 1024 82 10000 5.14 30 17:22 09.11.2021
5480 Clouds 16 1023 88 10000 3.09 280 15:38 09.11.2021
5481 Clouds 17 1022 82 7000 3.09 210 13:55 09.11.2021
5482 Clouds 17 1022 82 7000 3.09 210 12:49 09.11.2021
5483 Clouds 17 1022 82 7000 1.54 180 11:34 09.11.2021
5484 Clouds 16 1022 88 7000 2.06 160 10:41 09.11.2021
5485 Clouds 15 1022 82 7000 1.54 190 09:22 09.11.2021
5486 Clouds 15 1022 88 6000 1.03 0 07:55 09.11.2021
5487 Clouds 14 1020 88 6000 2.57 30 03:45 09.11.2021
5488 Fog 13 1020 100 1700 4.12 360 01:58 09.11.2021
5489 Fog 13 1020 100 1000 1.54 320 01:39 09.11.2021
5490 Mist 14 1018 94 2100 2.06 280 23:34 08.11.2021
5491 Mist 14 1018 94 2100 1.54 260 22:47 08.11.2021
5492 Mist 15 1018 94 2000 1.54 230 21:46 08.11.2021
5493 Mist 15 1017 94 1600 1.03 0 20:38 08.11.2021
5494 Mist 15 1017 94 2100 2.06 230 19:46 08.11.2021
5495 Mist 15 1016 94 3100 1.54 220 17:48 08.11.2021
5496 Clouds 16 1015 88 6000 2.57 250 15:58 08.11.2021
5497 Clouds 17 1015 82 6000 2.57 250 14:57 08.11.2021
5498 Clouds 18 1015 77 6000 2.06 250 14:34 08.11.2021
5499 Clouds 18 1015 77 6000 2.57 240 13:20 08.11.2021
5500 Clouds 18 1016 72 7000 1.03 0 11:56 08.11.2021
5501 Clouds 16 1017 82 6000 2.06 240 10:50 08.11.2021
5502 Clouds 16 1017 82 6000 1.03 0 09:31 08.11.2021
5503 Mist 16 1017 82 4900 1.54 150 08:52 08.11.2021
5504 Mist 13 1017 94 4000 0.51 0 06:56 08.11.2021
5505 Mist 14 1017 94 3100 0 0 03:38 08.11.2021
5506 Mist 14 1017 94 3200 0.51 0 03:19 08.11.2021
5507 Mist 12 1019 94 4000 1.54 360 23:33 07.11.2021
5508 Clouds 15 1020 88 6000 2.57 30 21:31 07.11.2021
5509 Clouds 15 1020 88 7000 3.09 60 20:36 07.11.2021
5510 Clouds 16 1020 82 8000 3.6 60 19:19 07.11.2021
5511 Clouds 16 1021 82 10000 5.14 50 17:44 07.11.2021
5512 Clouds 16 1021 88 10000 5.14 50 16:42 07.11.2021
5513 Clouds 16 1021 88 10000 4.12 50 15:41 07.11.2021
5514 Clouds 17 1021 88 10000 3.6 30 14:28 07.11.2021
5515 Clouds 17 1022 82 10000 3.09 50 12:55 07.11.2021
5516 Clouds 16 1023 88 10000 3.09 50 11:42 07.11.2021
5517 Clouds 15 1025 94 10000 3.6 60 09:21 07.11.2021
5518 Clouds 15 1025 88 10000 5.66 60 03:40 07.11.2021
5519 Clouds 15 1025 94 10000 4.63 50 02:25 07.11.2021
5520 Clouds 15 1025 94 10000 4.12 30 22:56 06.11.2021
5521 Clouds 15 1025 94 10000 5.66 30 22:29 06.11.2021
5522 Clouds 15 1025 94 10000 5.14 50 21:27 06.11.2021
5523 Clouds 15 1025 94 10000 7.2 50 20:30 06.11.2021
5524 Clouds 15 1025 94 10000 7.2 40 17:50 06.11.2021
5525 Clouds 15 1024 94 7000 9.77 30 16:38 06.11.2021
5526 Clear 16 1023 94 10000 1.54 220 14:31 06.11.2021
5527 Mist 15 1023 100 5000 1.54 210 13:37 06.11.2021
5528 Mist 16 1023 100 3000 1.54 220 11:24 06.11.2021
5529 Fog 14 1023 100 200 1.54 240 09:21 06.11.2021
5530 Fog 13 1022 100 300 1.03 0 04:55 06.11.2021
5531 Fog 13 1021 100 300 1.54 250 00:58 06.11.2021
5532 Fog 14 1021 100 300 1.03 240 23:33 05.11.2021
5533 Fog 13 1021 100 300 1.03 0 22:33 05.11.2021
5534 Fog 15 1021 100 300 0 0 20:42 05.11.2021
5535 Fog 15 1020 100 300 0.51 0 20:19 05.11.2021
5536 Fog 15 1021 100 300 1.03 0 18:59 05.11.2021
5537 Fog 15 1021 100 300 1.03 0 18:38 05.11.2021
5538 Fog 16 1020 100 200 1.54 210 16:50 05.11.2021
5539 Clear 20 1020 82 10000 2.06 220 14:41 05.11.2021
5540 Clear 20 1020 82 10000 3.09 250 13:33 05.11.2021
5541 Fog 18 1022 100 2100 3.6 260 09:59 05.11.2021
5542 Fog 17 1022 100 1000 3.09 240 08:38 05.11.2021
5543 Mist 13 1021 100 2000 0.51 0 06:50 05.11.2021
5544 Mist 13 1021 94 5000 0.51 0 04:42 05.11.2021
5545 Mist 14 1021 100 4900 1.03 0 02:22 05.11.2021
5546 Mist 15 1021 94 4300 0 0 00:30 05.11.2021
5547 Mist 15 1021 88 4300 1.54 0 22:56 04.11.2021
5548 Mist 16 1021 94 4000 1.03 0 22:18 04.11.2021
5549 Clear 16 1021 88 10000 2.57 340 21:29 04.11.2021
5550 Clear 18 1021 82 10000 1.03 0 20:29 04.11.2021
5551 Clear 16 1021 88 10000 0 0 19:50 04.11.2021
5552 Clear 17 1021 88 10000 0.51 0 19:28 04.11.2021
5553 Clear 17 1021 82 10000 1.03 0 18:30 04.11.2021
5554 Clear 19 1021 77 10000 1.03 130 17:28 04.11.2021
5555 Clear 20 1020 72 10000 2.06 150 16:23 04.11.2021
5556 Clear 20 1020 72 10000 2.06 150 16:23 04.11.2021
5557 Clear 23 1021 60 10000 1.54 260 14:19 04.11.2021
5558 Clouds 21 1022 73 10000 2.06 230 10:52 04.11.2021
5559 Clouds 19 1022 82 10000 3.6 260 08:58 04.11.2021
5560 Clouds 18 1022 88 10000 2.06 250 08:28 04.11.2021
5561 Mist 17 1021 94 4900 1.03 240 07:33 04.11.2021
5562 Mist 15 1020 94 4900 1.54 120 23:43 03.11.2021
5563 Mist 15 1020 94 3300 1.03 90 22:49 03.11.2021
5564 Mist 16 1020 94 4200 0.51 0 21:45 03.11.2021
5565 Clouds 16 1020 94 6000 1.03 10 20:45 03.11.2021
5566 Clouds 16 1019 94 7000 2.06 340 20:27 03.11.2021
5567 Clear 16 1019 94 10000 1.54 360 19:38 03.11.2021
5568 Clear 17 1019 88 10000 1.03 90 18:33 03.11.2021
5569 Clear 17 1018 88 10000 1.03 120 17:56 03.11.2021
5570 Clouds 18 1018 88 7000 1.03 160 16:49 03.11.2021
5571 Clear 19 1018 82 10000 1.03 180 15:52 03.11.2021
5572 Clear 21 1018 73 10000 1.54 190 15:31 03.11.2021
5573 Clear 20 1017 77 10000 2.06 240 13:43 03.11.2021
5574 Clear 19 1018 82 10000 2.57 240 11:38 03.11.2021
5575 Clouds 19 1017 82 10000 3.09 250 10:51 03.11.2021
5576 Clouds 19 1017 88 10000 2.06 250 09:48 03.11.2021
5577 Clouds 18 1017 94 10000 1.54 240 09:27 03.11.2021
5578 Clouds 17 1016 94 10000 0 0 08:20 03.11.2021
5579 Clouds 17 1016 88 10000 2.06 270 07:38 03.11.2021
5580 Clouds 17 1013 88 10000 2.06 270 04:23 03.11.2021
5581 Clouds 17 1012 88 10000 2.57 250 01:42 03.11.2021
5582 Clouds 15 1012 100 10000 2.06 130 23:32 02.11.2021
5583 Clouds 15 1011 100 10000 2.06 150 22:21 02.11.2021
5584 Clouds 15 1011 94 4000 2.06 140 20:48 02.11.2021
5585 Clouds 15 1011 94 4500 1.54 150 20:23 02.11.2021
5586 Clouds 15 1011 94 4000 1.03 0 19:40 02.11.2021
5587 Rain 15 1011 94 4000 1.54 80 18:36 02.11.2021
5588 Rain 15 1011 94 3000 1.03 0 17:56 02.11.2021
5589 Rain 16 1010 94 10000 0.51 0 17:31 02.11.2021
5590 Rain 17 1009 82 10000 1.54 110 16:26 02.11.2021
5591 Rain 17 1009 77 10000 2.06 250 14:58 02.11.2021
5592 Clouds 17 1009 82 10000 2.06 240 13:44 02.11.2021
5593 Clouds 17 1010 77 10000 3.09 250 13:26 02.11.2021
5594 Clouds 18 1010 72 10000 3.6 210 12:28 02.11.2021
5595 Clouds 18 1012 72 10000 5.14 210 11:28 02.11.2021
5596 Clouds 17 1012 77 8000 4.12 190 10:50 02.11.2021
5597 Mist 16 1012 82 5000 4.63 190 10:23 02.11.2021
5598 Mist 15 1013 88 5000 3.09 200 08:25 02.11.2021
5599 Mist 14 1013 94 4000 2.06 170 06:32 02.11.2021
5600 Clouds 14 1013 94 6000 1.54 140 03:32 02.11.2021
5601 Clouds 14 1014 94 8000 0.51 0 00:55 02.11.2021
5602 Clouds 14 1015 88 7000 0 0 22:25 01.11.2021
5603 Clouds 14 1015 94 8000 1.03 0 20:47 01.11.2021
5604 Clouds 14 1015 94 8000 2.06 330 20:27 01.11.2021
5605 Clouds 14 1014 88 10000 1.54 350 19:44 01.11.2021
5606 Clouds 14 1014 88 10000 3.09 330 18:54 01.11.2021
5607 Clouds 14 1014 94 6000 2.57 360 17:59 01.11.2021
5608 Clouds 15 1014 88 10000 3.6 350 17:18 01.11.2021
5609 Clouds 15 1014 94 6000 1.03 340 16:33 01.11.2021
5610 Clouds 15 1014 94 7000 2.57 260 15:44 01.11.2021
5611 Clouds 15 1014 88 10000 3.6 260 15:19 01.11.2021
5612 Clouds 16 1014 82 10000 2.06 240 14:40 01.11.2021
5613 Clouds 16 1014 82 10000 2.06 240 14:19 01.11.2021
5614 Clouds 16 1014 82 10000 2.06 240 14:19 01.11.2021
5615 Clouds 16 1013 82 8000 2.06 240 12:53 01.11.2021
5616 Clouds 16 1014 82 8000 2.06 220 11:39 01.11.2021
5617 Clouds 15 1014 88 8000 1.03 0 10:21 01.11.2021
5618 Rain 14 1015 94 6000 2.06 80 08:26 01.11.2021
5619 Rain 14 1015 94 6000 2.57 70 07:47 01.11.2021
5620 Rain 14 1016 88 10000 3.09 70 03:55 01.11.2021
5621 Rain 14 1016 88 10000 3.09 60 03:36 01.11.2021
5622 Clouds 14 1017 88 10000 2.57 40 23:58 31.10.2021
5623 Clouds 14 1018 88 10000 5.14 40 20:59 31.10.2021
5624 Clouds 14 1018 88 10000 5.66 40 20:24 31.10.2021
5625 Clouds 14 1019 88 10000 5.14 30 18:43 31.10.2021
5626 Clouds 15 1019 82 10000 6.17 30 18:21 31.10.2021
5627 Clouds 15 1018 82 10000 6.69 40 16:48 31.10.2021
5628 Clouds 17 1018 72 10000 5.14 20 14:53 31.10.2021
5629 Clouds 18 1019 63 10000 4.12 30 12:57 31.10.2021
5630 Clouds 18 1019 63 10000 4.63 50 12:19 31.10.2021
5631 Clouds 18 1020 68 10000 3.09 120 10:51 31.10.2021
5632 Clouds 16 1021 72 10000 4.12 90 09:26 31.10.2021
5633 Clouds 16 1021 77 10000 3.09 90 08:46 31.10.2021
5634 Clouds 13 1021 88 10000 3.09 30 02:59 31.10.2021
5635 Clouds 14 1021 82 10000 4.12 60 23:43 30.10.2021
5636 Clouds 14 1022 82 10000 5.14 60 21:46 30.10.2021
5637 Clouds 14 1022 82 10000 5.14 50 21:25 30.10.2021
5638 Clouds 15 1021 72 10000 8.23 60 19:35 30.10.2021
5639 Clouds 15 1021 77 10000 7.2 50 17:43 30.10.2021
5640 Clouds 17 1021 59 10000 9.26 50 15:34 30.10.2021
5641 Clouds 18 1021 55 10000 8.23 50 13:58 30.10.2021
5642 Clouds 18 1021 55 10000 8.23 50 13:38 30.10.2021
5643 Clouds 18 1021 55 10000 7.72 40 13:19 30.10.2021
5644 Clouds 17 1022 63 10000 8.23 50 11:49 30.10.2021
5645 Clouds 16 1022 67 10000 6.69 50 10:34 30.10.2021
5646 Clouds 15 1022 77 10000 7.2 60 08:55 30.10.2021
5647 Clouds 14 1022 82 10000 5.66 60 07:55 30.10.2021
5648 Clouds 14 1022 82 10000 5.14 50 05:45 30.10.2021
5649 Clouds 14 1022 77 10000 6.69 60 01:58 30.10.2021
5650 Clouds 14 1022 77 10000 7.72 60 23:20 29.10.2021
5651 Clouds 15 1023 72 10000 7.2 70 22:33 29.10.2021
5652 Clouds 15 1022 77 10000 7.2 70 20:55 29.10.2021
5653 Clouds 14 1022 82 10000 6.69 70 20:31 29.10.2021
5654 Clouds 15 1022 72 10000 8.23 70 18:49 29.10.2021
5655 Clouds 15 1022 67 10000 7.2 60 17:28 29.10.2021
5656 Clouds 16 1022 59 10000 10.29 50 15:22 29.10.2021
5657 Clouds 15 1023 63 10000 8.23 60 12:29 29.10.2021
5658 Clouds 14 1024 67 10000 8.23 50 10:46 29.10.2021
5659 Clouds 14 1024 67 10000 8.23 50 10:46 29.10.2021
5660 Clouds 14 1024 67 10000 6.17 60 09:27 29.10.2021
5661 Clouds 13 1024 71 10000 2.57 40 00:55 29.10.2021
5662 Clouds 13 1025 67 10000 4.12 50 23:47 28.10.2021
5663 Clouds 13 1025 62 10000 5.66 30 22:21 28.10.2021
5664 Clouds 13 1025 62 10000 5.66 40 20:57 28.10.2021
5665 Clouds 13 1025 62 10000 6.17 60 19:52 28.10.2021
5666 Clouds 14 1025 58 10000 8.23 50 18:36 28.10.2021
5667 Clouds 14 1025 62 10000 8.75 50 17:27 28.10.2021
5668 Clouds 14 1025 67 10000 8.75 40 16:37 28.10.2021
5669 Clouds 16 1025 63 10000 7.72 40 14:40 28.10.2021
5670 Clouds 16 1025 59 10000 7.72 30 13:33 28.10.2021
5671 Clouds 16 1025 63 10000 6.69 40 12:49 28.10.2021
5672 Clouds 16 1026 55 10000 7.2 50 11:37 28.10.2021
5673 Clouds 15 1026 63 10000 6.69 50 10:23 28.10.2021
5674 Clouds 15 1026 67 10000 6.69 60 09:37 28.10.2021
5675 Clouds 14 1026 72 10000 5.66 50 08:36 28.10.2021
5676 Clouds 14 1025 72 10000 5.66 40 07:41 28.10.2021
5677 Clouds 13 1025 77 10000 6.17 50 01:37 28.10.2021
5678 Clouds 15 1025 77 10000 4.63 40 22:49 27.10.2021
5679 Clouds 15 1025 77 10000 5.14 50 21:53 27.10.2021
5680 Clouds 15 1025 77 10000 6.17 60 21:20 27.10.2021
5681 Clouds 15 1025 77 10000 4.63 50 20:43 27.10.2021
5682 Clouds 15 1025 77 10000 5.66 50 19:46 27.10.2021
5683 Clouds 15 1024 77 10000 5.14 60 18:56 27.10.2021
5684 Clouds 15 1024 77 10000 4.63 50 17:39 27.10.2021
5685 Clouds 16 1023 77 10000 5.14 20 16:25 27.10.2021
5686 Clouds 16 1024 77 10000 4.63 10 15:24 27.10.2021
5687 Clouds 16 1024 77 10000 4.63 10 15:24 27.10.2021
5688 Clouds 15 1024 77 10000 6.17 30 14:20 27.10.2021
5689 Clouds 15 1024 77 10000 6.69 30 11:18 27.10.2021
5690 Clouds 16 1024 67 10000 6.17 20 10:36 27.10.2021
5691 Clouds 14 1024 72 10000 6.17 30 09:23 27.10.2021
5692 Clouds 13 1023 82 10000 4.63 30 07:44 27.10.2021
5693 Clouds 12 1023 82 10000 3.6 40 05:49 27.10.2021
5694 Clear 12 1023 82 10000 3.6 40 01:24 27.10.2021
5695 Clear 12 1023 82 10000 4.12 60 00:54 27.10.2021
5696 Clear 12 1023 71 10000 3.6 60 23:54 26.10.2021
5697 Clear 12 1023 71 10000 3.6 60 22:44 26.10.2021
5698 Clear 12 1023 67 10000 4.12 70 22:21 26.10.2021
5699 Clear 12 1023 67 10000 4.12 60 21:41 26.10.2021
5700 Clear 13 1023 67 10000 5.14 60 19:54 26.10.2021
5701 Clear 13 1023 67 10000 5.66 60 19:18 26.10.2021
5702 Clear 14 1023 58 10000 7.2 60 17:58 26.10.2021
5703 Clouds 16 1023 51 10000 8.23 50 15:51 26.10.2021
5704 Clouds 16 1024 51 10000 9.26 60 13:21 26.10.2021
5705 Clouds 15 1025 55 10000 5.66 110 10:54 26.10.2021
5706 Clouds 13 1026 67 10000 5.66 80 08:42 26.10.2021
5707 Clouds 11 1026 76 10000 3.09 70 07:22 26.10.2021
5708 Clear 11 1027 62 10000 4.12 70 00:19 26.10.2021
5709 Clear 11 1027 62 10000 5.14 70 23:37 25.10.2021
5710 Clear 12 1028 58 10000 5.14 70 22:33 25.10.2021
5711 Clouds 12 1028 62 10000 6.17 70 21:43 25.10.2021
5712 Clouds 13 1028 67 10000 6.69 70 20:38 25.10.2021
5713 Clouds 13 1028 67 10000 7.2 60 19:43 25.10.2021
5714 Clouds 13 1028 62 10000 9.26 60 19:22 25.10.2021
5715 Clouds 13 1028 62 10000 7.2 50 18:38 25.10.2021
5716 Clouds 14 1028 62 10000 8.23 50 17:34 25.10.2021
5717 Clouds 15 1028 55 10000 9.77 50 14:53 25.10.2021
5718 Clouds 14 1030 54 10000 9.26 40 12:33 25.10.2021
5719 Clouds 14 1030 58 10000 8.75 40 10:47 25.10.2021
5720 Clouds 13 1030 58 10000 7.2 40 08:58 25.10.2021
5721 Clouds 10 1029 66 10000 3.6 50 06:28 25.10.2021
5722 Clouds 11 1029 58 10000 5.14 70 04:35 25.10.2021
5723 Clouds 12 1030 58 10000 6.17 50 00:52 25.10.2021
5724 Clouds 13 1030 54 10000 6.69 50 00:33 25.10.2021
5725 Clouds 13 1030 58 10000 6.17 40 23:41 24.10.2021
5726 Clouds 12 1030 76 10000 6.17 60 22:38 24.10.2021
5727 Clouds 12 1030 76 10000 6.17 60 22:19 24.10.2021
5728 Clouds 13 1030 71 10000 8.75 50 21:18 24.10.2021
5729 Clouds 13 1029 67 10000 6.69 50 20:34 24.10.2021
5730 Clouds 13 1029 71 10000 7.2 40 19:39 24.10.2021
5731 Clouds 13 1028 71 10000 7.72 40 18:29 24.10.2021
5732 Clouds 13 1028 76 10000 8.75 40 17:44 24.10.2021
5733 Clouds 13 1027 82 10000 8.23 30 15:56 24.10.2021
5734 Rain 13 1027 94 10000 8.23 40 14:41 24.10.2021
5735 Clouds 14 1026 94 10000 4.63 20 12:58 24.10.2021
5736 Clouds 14 1025 88 10000 5.66 20 11:45 24.10.2021
5737 Rain 14 1025 94 10000 5.66 10 11:25 24.10.2021
5738 Clouds 14 1024 88 10000 8.23 350 10:27 24.10.2021
5739 Clouds 14 1023 88 10000 7.72 360 07:51 24.10.2021
5740 Clouds 13 1022 94 6000 0 0 01:22 24.10.2021
5741 Clouds 14 1022 94 7000 0.51 110 23:48 23.10.2021
5742 Mist 15 1022 94 3500 0.51 0 22:29 23.10.2021
5743 Clear 15 1021 94 10000 0 0 20:37 23.10.2021
5744 Clear 16 1021 88 10000 0.51 290 18:59 23.10.2021
5745 Clear 16 1021 88 10000 0.51 0 18:30 23.10.2021
5746 Clear 17 1021 82 10000 1.54 240 17:43 23.10.2021
5747 Clear 18 1020 77 10000 2.06 250 16:35 23.10.2021
5748 Clear 20 1021 72 10000 4.12 250 14:35 23.10.2021
5749 Clouds 17 1021 77 10000 3.6 230 09:45 23.10.2021
5750 Clear 13 1020 100 10000 0.51 70 00:22 23.10.2021
5751 Clear 14 1020 88 10000 0 0 23:22 22.10.2021
5752 Clear 15 1020 88 10000 2.06 110 20:50 22.10.2021
5753 Clear 16 1020 77 10000 1.03 180 18:45 22.10.2021
5754 Clear 18 1020 68 10000 0.51 240 17:44 22.10.2021
5755 Clear 19 1020 63 10000 2.57 260 15:50 22.10.2021
5756 Clear 19 1020 68 10000 3.09 240 14:23 22.10.2021
5757 Clear 19 1021 68 10000 5.14 220 11:33 22.10.2021
5758 Clear 19 1021 68 10000 4.63 220 10:48 22.10.2021
5759 Clear 18 1021 68 10000 5.14 230 09:56 22.10.2021
5760 Clear 18 1021 68 10000 5.14 240 09:30 22.10.2021
5761 Clear 16 1020 72 10000 5.14 250 07:25 22.10.2021
5762 Clear 15 1019 77 10000 4.12 250 03:48 22.10.2021
5763 Clear 15 1020 82 10000 4.12 260 00:19 22.10.2021
5764 Clear 15 1020 82 10000 4.12 260 23:39 21.10.2021
5765 Clear 16 1020 82 10000 3.09 240 22:21 21.10.2021
5766 Clear 15 1020 88 10000 1.03 0 20:53 21.10.2021
5767 Clear 15 1020 82 10000 1.03 0 20:19 21.10.2021
5768 Clear 14 1020 88 10000 1.03 0 19:30 21.10.2021
5769 Clear 14 1020 88 10000 1.54 200 18:52 21.10.2021
5770 Clear 15 1020 82 10000 1.54 190 18:19 21.10.2021
5771 Clear 15 1020 82 10000 1.03 0 17:39 21.10.2021
5772 Clear 18 1020 72 10000 2.06 230 16:18 21.10.2021
5773 Clear 18 1020 63 10000 2.57 250 15:21 21.10.2021
5774 Clear 18 1021 63 10000 3.09 230 14:39 21.10.2021
5775 Clear 18 1022 63 10000 3.6 240 13:20 21.10.2021
5776 Clear 16 1023 72 10000 2.57 230 11:27 21.10.2021
5777 Clear 15 1024 72 10000 1.03 0 08:59 21.10.2021
5778 Clear 9 1024 93 10000 2.06 360 07:29 21.10.2021
5779 Clear 10 1024 81 10000 2.57 40 03:49 21.10.2021
5780 Clear 13 1026 71 10000 3.09 60 23:31 20.10.2021
5781 Clear 14 1026 72 10000 3.09 50 22:18 20.10.2021
5782 Clear 14 1026 72 10000 4.12 60 21:38 20.10.2021
5783 Clear 14 1026 72 10000 4.12 70 20:54 20.10.2021
5784 Clear 15 1026 67 10000 4.12 70 20:33 20.10.2021
5785 Clear 14 1027 67 10000 4.63 70 19:57 20.10.2021
5786 Clear 15 1027 67 10000 5.66 70 18:56 20.10.2021
5787 Clear 16 1026 63 10000 6.17 50 17:51 20.10.2021
5788 Clouds 17 1027 63 10000 7.2 30 15:44 20.10.2021
5789 Clouds 17 1028 59 10000 5.66 70 11:42 20.10.2021
5790 Clouds 15 1028 72 10000 2.57 80 08:54 20.10.2021
5791 Clouds 11 1028 82 10000 2.06 40 04:50 20.10.2021
5792 Clouds 12 1028 87 10000 1.54 10 00:48 20.10.2021
5793 Clouds 12 1028 87 10000 1.54 10 00:48 20.10.2021
5794 Clouds 13 1028 82 10000 2.06 20 00:18 20.10.2021
5795 Clouds 14 1028 77 10000 3.6 40 21:44 19.10.2021
5796 Clouds 15 1028 72 10000 4.63 40 20:56 19.10.2021
5797 Clouds 15 1028 77 10000 5.14 40 20:25 19.10.2021
5798 Clouds 15 1028 77 10000 5.14 50 19:44 19.10.2021
5799 Clouds 15 1028 77 10000 4.63 40 19:20 19.10.2021
5800 Clouds 15 1027 77 10000 6.17 40 17:59 19.10.2021
5801 Clouds 16 1027 77 10000 5.14 20 15:57 19.10.2021
5802 Clouds 16 1027 72 10000 5.14 20 15:20 19.10.2021
5803 Clouds 17 1027 77 10000 6.17 20 14:27 19.10.2021
5804 Clouds 17 1027 72 10000 4.12 20 13:36 19.10.2021
5805 Clouds 17 1027 67 10000 3.6 80 11:37 19.10.2021
5806 Clouds 17 1027 67 10000 4.63 70 10:39 19.10.2021
5807 Clouds 15 1027 77 10000 4.12 60 08:58 19.10.2021
5808 Clouds 15 1026 77 10000 4.12 40 07:50 19.10.2021
5809 Clouds 14 1025 77 10000 2.06 50 00:27 19.10.2021
5810 Clouds 14 1025 77 10000 3.09 40 23:56 18.10.2021
5811 Clouds 14 1024 77 10000 3.6 50 23:20 18.10.2021
5812 Clear 14 1024 77 10000 4.12 50 22:54 18.10.2021
5813 Clear 15 1024 72 10000 4.63 60 21:54 18.10.2021
5814 Clouds 15 1023 72 10000 4.63 40 20:42 18.10.2021
5815 Clouds 15 1023 72 10000 4.63 40 20:20 18.10.2021
5816 Clouds 15 1023 72 10000 5.66 30 19:30 18.10.2021
5817 Clouds 15 1023 77 10000 6.17 30 18:58 18.10.2021
5818 Clouds 16 1022 72 10000 6.17 40 15:56 18.10.2021
5819 Clouds 16 1022 77 10000 6.69 40 14:30 18.10.2021
5820 Clouds 16 1023 77 10000 5.66 20 11:20 18.10.2021
5821 Clouds 15 1023 82 10000 5.14 30 09:42 18.10.2021
5822 Clouds 13 1021 94 10000 3.09 10 05:32 18.10.2021
5823 Clouds 14 1021 82 10000 4.63 10 23:51 17.10.2021
5824 Clouds 14 1021 82 10000 5.14 10 21:59 17.10.2021
5825 Clouds 14 1021 82 10000 4.63 10 21:40 17.10.2021
5826 Clouds 14 1021 82 10000 5.14 10 20:49 17.10.2021
5827 Clouds 14 1020 82 10000 6.17 10 19:56 17.10.2021
5828 Clouds 14 1020 82 10000 6.17 10 19:37 17.10.2021
5829 Clouds 14 1019 88 10000 5.14 10 18:28 17.10.2021
5830 Clouds 14 1019 88 10000 6.17 10 15:57 17.10.2021
5831 Clouds 14 1018 88 10000 6.17 10 14:38 17.10.2021
5832 Clouds 15 1018 82 10000 6.69 360 13:56 17.10.2021
5833 Clouds 15 1018 82 10000 7.2 20 13:30 17.10.2021
5834 Clouds 14 1018 94 10000 7.2 10 10:59 17.10.2021
5835 Clouds 14 1018 94 10000 6.69 10 09:56 17.10.2021
5836 Rain 15 1016 94 6000 6.69 10 07:42 17.10.2021
5837 Rain 16 1015 94 10000 0 0 02:35 17.10.2021
5838 Clouds 16 1014 94 10000 1.54 320 00:29 17.10.2021
5839 Clouds 17 1015 88 10000 2.06 100 22:40 16.10.2021
5840 Rain 17 1014 94 4000 2.57 200 20:36 16.10.2021
5841 Rain 18 1014 82 4200 4.63 220 19:58 16.10.2021
5842 Rain 19 1013 72 10000 2.06 310 19:39 16.10.2021
5843 Clouds 19 1013 72 10000 2.57 330 19:18 16.10.2021
5844 Clouds 19 1013 68 10000 1.54 340 18:43 16.10.2021
5845 Rain 20 1012 64 10000 3.09 340 18:22 16.10.2021
5846 Clouds 20 1012 64 10000 3.09 290 17:30 16.10.2021
5847 Clouds 21 1012 56 10000 2.06 260 15:40 16.10.2021
5848 Clouds 22 1013 64 10000 3.09 220 12:45 16.10.2021
5849 Clouds 21 1013 68 10000 3.6 220 11:24 16.10.2021
5850 Clouds 18 1012 82 10000 3.6 210 08:57 16.10.2021
5851 Clouds 17 1011 88 10000 5.66 100 01:37 16.10.2021
5852 Rain 17 1012 88 10000 3.09 70 00:29 16.10.2021
5853 Rain 17 1014 100 10000 4.12 190 23:25 15.10.2021
5854 Rain 17 1013 94 10000 2.57 40 22:20 15.10.2021
5855 Clouds 17 1013 94 10000 5.14 40 21:40 15.10.2021
5856 Rain 18 1014 94 10000 1.54 0 20:52 15.10.2021
5857 Rain 18 1015 88 10000 3.09 260 20:22 15.10.2021
5858 Clouds 18 1014 82 10000 3.09 360 19:19 15.10.2021
5859 Clouds 18 1014 82 10000 2.57 20 18:21 15.10.2021
5860 Clouds 20 1014 77 10000 4.63 40 15:46 15.10.2021
5861 Rain 20 1015 83 10000 2.57 220 14:18 15.10.2021
5862 Clouds 22 1015 64 10000 4.63 20 11:54 15.10.2021
5863 Clouds 21 1016 68 10000 4.12 50 10:58 15.10.2021
5864 Clouds 20 1016 73 10000 5.14 50 10:22 15.10.2021
5865 Clouds 17 1015 88 10000 5.14 50 07:33 15.10.2021
5866 Clear 17 1015 82 10000 5.66 50 04:26 15.10.2021
5867 Clear 16 1016 88 10000 5.14 60 00:22 15.10.2021
5868 Clear 17 1016 82 10000 6.69 70 22:54 14.10.2021
5869 Clear 17 1017 82 10000 6.69 70 22:19 14.10.2021
5870 Clear 17 1017 82 10000 5.66 70 21:37 14.10.2021
5871 Clear 17 1017 82 10000 6.17 70 20:20 14.10.2021
5872 Clear 17 1017 77 10000 6.17 70 19:46 14.10.2021
5873 Clear 18 1017 72 10000 6.69 70 18:26 14.10.2021
5874 Clear 19 1016 68 10000 7.2 60 16:58 14.10.2021
5875 Clear 19 1016 68 10000 7.72 50 16:32 14.10.2021
5876 Clouds 21 1017 64 10000 6.17 50 14:50 14.10.2021
5877 Clouds 21 1017 60 10000 6.17 60 14:26 14.10.2021
5878 Clouds 21 1017 60 10000 4.12 70 13:33 14.10.2021
5879 Clouds 20 1018 64 10000 5.66 80 11:34 14.10.2021
5880 Clouds 16 1018 77 10000 5.6 72 08:26 14.10.2021
5881 Clouds 15 1018 81 10000 5.13 67 05:52 14.10.2021
5882 Clouds 15 1018 78 10000 3.96 68 00:41 14.10.2021
5883 Clear 15 1018 72 10000 3.6 80 22:40 13.10.2021
5884 Clear 15 1017 72 10000 4.12 70 21:36 13.10.2021
5885 Clear 15 1017 72 10000 4.12 70 20:43 13.10.2021
5886 Clear 15 1017 67 10000 4.12 70 19:20 13.10.2021
5887 Clouds 15 1017 67 10000 4.12 80 18:37 13.10.2021
5888 Clouds 15 1016 63 10000 3.09 50 16:37 13.10.2021
5889 Clouds 15 1015 67 10000 3.6 30 14:47 13.10.2021
5890 Clouds 15 1015 72 10000 2.57 350 14:23 13.10.2021
5891 Clouds 15 1015 72 10000 1.54 360 12:42 13.10.2021
5892 Clouds 15 1014 72 10000 4.63 350 11:36 13.10.2021
5893 Clouds 13 1013 82 10000 6.69 340 09:37 13.10.2021
5894 Clouds 13 1011 82 10000 6.17 340 07:50 13.10.2021
5895 Clouds 15 1008 88 10000 6.17 270 03:37 13.10.2021
5896 Rain 16 1007 88 10000 5.14 270 02:21 13.10.2021
5897 Rain 16 1006 88 10000 4.12 200 23:33 12.10.2021
5898 Clouds 16 1006 88 10000 4.12 210 22:50 12.10.2021
5899 Rain 16 1006 88 10000 3.6 210 22:26 12.10.2021
5900 Rain 16 1007 94 10000 5.66 230 20:54 12.10.2021
5901 Thunderstorm 16 1006 100 6000 4.63 250 20:30 12.10.2021
5902 Clouds 18 1005 82 10000 1.54 210 19:31 12.10.2021
5903 Clouds 18 1005 82 10000 1.03 0 18:25 12.10.2021
5904 Clouds 18 1006 88 10000 6.17 230 17:20 12.10.2021
5905 Clouds 19 1006 77 10000 2.06 220 16:20 12.10.2021
5906 Rain 19 1006 82 10000 2.57 160 15:31 12.10.2021
5907 Rain 19 1006 82 10000 2.57 160 15:31 12.10.2021
5908 Rain 19 1006 82 10000 2.57 160 15:30 12.10.2021
5909 Rain 19 1006 82 10000 2.06 190 13:46 12.10.2021
5910 Clouds 22 1007 73 10000 3.6 180 12:58 12.10.2021
5911 Clouds 23 1007 60 10000 2.57 110 11:22 12.10.2021
5912 Clouds 19 1009 77 10000 2.57 80 09:22 12.10.2021
5913 Clouds 18 1009 88 8000 3.6 80 08:20 12.10.2021
5914 Clouds 17 1010 94 6000 2.57 40 06:44 12.10.2021
5915 Mist 16 1011 100 4800 2.57 20 04:38 12.10.2021
5916 Clouds 15 1012 100 7000 4.12 350 02:46 12.10.2021
5917 Clouds 16 1013 94 8000 2.06 360 23:46 11.10.2021
5918 Clear 16 1013 94 10000 2.57 30 23:28 11.10.2021
5919 Clear 17 1014 94 10000 2.06 10 22:31 11.10.2021
5920 Clear 18 1014 88 10000 3.6 30 21:20 11.10.2021
5921 Clouds 18 1014 88 10000 3.6 30 19:46 11.10.2021
5922 Clouds 19 1014 82 10000 3.09 30 19:23 11.10.2021
5923 Clouds 19 1014 88 10000 4.12 40 18:20 11.10.2021
5924 Clouds 21 1014 73 10000 5.14 50 16:40 11.10.2021
5925 Clouds 22 1014 68 10000 3.6 40 16:19 11.10.2021
5926 Clouds 22 1015 64 10000 2.06 110 15:40 11.10.2021
5927 Clouds 23 1015 64 10000 2.06 100 14:53 11.10.2021
5928 Clouds 22 1016 64 10000 4.12 100 13:51 11.10.2021
5929 Clouds 20 1018 73 10000 4.63 90 12:20 11.10.2021
5930 Clouds 19 1018 77 10000 4.63 90 10:49 11.10.2021
5931 Clouds 18 1018 82 10000 5.66 80 09:45 11.10.2021
5932 Clouds 17 1018 88 10000 6.17 70 07:56 11.10.2021
5933 Clouds 17 1020 77 10000 3.6 50 01:42 11.10.2021
5934 Clouds 17 1021 82 10000 5.14 50 00:53 11.10.2021
5935 Clouds 17 1021 82 10000 4.12 50 00:31 11.10.2021
5936 Clouds 17 1021 88 10000 5.14 40 22:22 10.10.2021
5937 Clouds 17 1022 82 10000 5.66 40 21:35 10.10.2021
5938 Clouds 17 1021 82 10000 6.69 40 20:48 10.10.2021
5939 Clouds 17 1021 82 10000 7.2 40 20:22 10.10.2021
5940 Clouds 17 1021 82 10000 8.23 40 19:59 10.10.2021
5941 Clouds 17 1021 82 10000 8.23 40 19:38 10.10.2021
5942 Clouds 17 1021 82 10000 6.69 40 18:37 10.10.2021
5943 Clouds 16 1021 88 10000 8.23 40 17:19 10.10.2021
5944 Clouds 17 1022 82 10000 8.23 40 15:47 10.10.2021
5945 Clouds 17 1022 77 10000 8.23 40 14:42 10.10.2021
5946 Clouds 17 1022 77 10000 7.72 40 13:34 10.10.2021
5947 Clouds 17 1022 82 10000 8.23 40 12:40 10.10.2021
5948 Clouds 16 1022 88 10000 7.2 30 10:55 10.10.2021
5949 Clouds 16 1022 88 10000 7.2 40 09:31 10.10.2021
5950 Clouds 16 1022 88 10000 6.69 40 08:54 10.10.2021
5951 Clouds 16 1022 88 10000 7.2 40 07:56 10.10.2021
5952 Clouds 16 1021 88 10000 6.69 40 03:28 10.10.2021
5953 Clouds 16 1021 88 10000 8.23 40 01:38 10.10.2021
5954 Clouds 16 1021 94 10000 6.17 40 00:37 10.10.2021
5955 Clouds 17 1021 88 10000 8.23 50 23:20 09.10.2021
5956 Clouds 17 1021 88 10000 7.72 50 21:48 09.10.2021
5957 Clouds 17 1021 88 10000 7.72 60 21:29 09.10.2021
5958 Clouds 17 1021 88 10000 6.17 30 19:45 09.10.2021
5959 Clouds 17 1021 88 10000 6.17 30 19:22 09.10.2021
5960 Clouds 18 1021 82 10000 5.14 30 18:33 09.10.2021
5961 Clouds 18 1020 82 10000 6.17 30 18:33 09.10.2021
5962 Clouds 18 1020 82 10000 5.66 30 17:21 09.10.2021
5963 Clouds 18 1020 82 10000 6.17 20 16:19 09.10.2021
5964 Clouds 19 1020 88 10000 4.63 360 13:46 09.10.2021
5965 Clouds 18 1020 88 10000 4.12 20 12:54 09.10.2021
5966 Clouds 17 1020 94 10000 4.12 50 11:56 09.10.2021
5967 Rain 17 1020 94 10000 1.54 90 10:42 09.10.2021
5968 Rain 17 1020 94 10000 1.54 90 10:42 09.10.2021
5969 Rain 17 1019 94 10000 4.12 50 09:53 09.10.2021
5970 Rain 17 1018 88 10000 4.12 50 08:32 09.10.2021
5971 Rain 17 1018 88 10000 3.6 40 07:49 09.10.2021
5972 Rain 16 1017 94 10000 5.14 40 05:39 09.10.2021
5973 Rain 17 1017 88 8000 4.63 50 03:44 09.10.2021
5974 Rain 17 1017 88 10000 6.69 70 02:41 09.10.2021
5975 Clouds 17 1017 82 10000 6.69 50 23:52 08.10.2021
5976 Rain 17 1018 82 10000 8.23 50 22:59 08.10.2021
5977 Rain 17 1018 82 10000 6.17 20 22:24 08.10.2021
5978 Clouds 18 1018 77 10000 6.69 50 21:18 08.10.2021
5979 Clouds 18 1018 72 10000 9.77 60 18:59 08.10.2021
5980 Clouds 19 1018 72 10000 7.72 60 17:36 08.10.2021
5981 Clouds 19 1018 72 10000 9.26 50 16:51 08.10.2021
5982 Rain 19 1018 72 10000 9.26 50 16:23 08.10.2021
5983 Clouds 21 1018 68 10000 9.77 50 13:57 08.10.2021
5984 Clouds 21 1018 64 10000 9.77 70 13:35 08.10.2021
5985 Clouds 21 1019 68 10000 10.29 60 11:33 08.10.2021
5986 Clouds 19 1020 72 10000 8.23 70 10:41 08.10.2021
5987 Clouds 18 1020 77 10000 7.2 80 09:25 08.10.2021
5988 Clouds 16 1021 72 10000 4.12 60 23:59 07.10.2021
5989 Clouds 15 1021 77 10000 3.6 60 23:21 07.10.2021
5990 Clouds 16 1021 72 10000 5.14 60 21:46 07.10.2021
5991 Clouds 16 1021 77 10000 4.63 50 21:26 07.10.2021
5992 Clouds 17 1021 67 10000 6.17 60 20:22 07.10.2021
5993 Clouds 17 1021 63 10000 7.2 60 19:29 07.10.2021
5994 Clouds 17 1021 67 10000 8.23 60 18:24 07.10.2021
5995 Clouds 18 1020 63 10000 9.26 60 17:24 07.10.2021
5996 Clouds 20 1020 56 10000 8.75 50 15:50 07.10.2021
5997 Clouds 20 1019 56 10000 8.75 60 14:21 07.10.2021
5998 Clouds 20 1019 60 10000 8.75 50 13:38 07.10.2021
5999 Clouds 21 1020 52 10000 7.2 70 12:45 07.10.2021
6000 Clouds 19 1020 63 10000 7.2 80 10:56 07.10.2021
6001 Clouds 18 1020 68 10000 5.14 80 10:19 07.10.2021
6002 Clouds 18 1020 72 10000 6.17 70 09:34 07.10.2021
6003 Clouds 15 1020 94 10000 5.66 40 08:51 07.10.2021
6004 Clouds 15 1020 82 10000 6.69 30 07:44 07.10.2021
6005 Clouds 15 1020 88 10000 5.14 30 07:20 07.10.2021
6006 Clouds 16 1020 77 10000 2.57 40 02:50 07.10.2021
6007 Clouds 16 1022 72 10000 4.12 40 00:29 07.10.2021
6008 Clouds 16 1022 77 10000 5.14 40 22:51 06.10.2021
6009 Clouds 16 1022 77 10000 5.14 40 22:21 06.10.2021
6010 Clouds 16 1022 82 10000 7.2 50 20:40 06.10.2021
6011 Clouds 16 1022 82 10000 7.2 50 19:55 06.10.2021
6012 Clouds 17 1022 77 10000 6.17 30 18:41 06.10.2021
6013 Clouds 18 1022 63 10000 5.14 40 16:58 06.10.2021
6014 Clouds 18 1022 68 10000 4.12 20 15:30 06.10.2021
6015 Clouds 18 1022 63 10000 6.69 30 14:28 06.10.2021
6016 Clouds 18 1022 59 10000 4.63 50 13:20 06.10.2021
6017 Clouds 18 1023 59 10000 3.09 80 12:43 06.10.2021
6018 Clouds 18 1023 59 10000 4.12 60 12:21 06.10.2021
6019 Clouds 18 1023 55 10000 4.63 60 10:21 06.10.2021
6020 Clouds 17 1023 63 10000 3.6 50 09:39 06.10.2021
6021 Clouds 17 1023 63 10000 5.14 40 08:43 06.10.2021
6022 Clouds 16 1023 63 10000 4.63 30 07:50 06.10.2021
6023 Clouds 14 1023 77 10000 2.06 350 05:26 06.10.2021
6024 Clouds 16 1024 63 10000 5.14 40 00:29 06.10.2021
6025 Clouds 16 1024 63 10000 3.6 50 23:58 05.10.2021
6026 Clouds 16 1024 63 10000 3.6 50 23:39 05.10.2021
6027 Clear 16 1024 63 10000 4.12 50 23:20 05.10.2021
6028 Clouds 16 1024 63 10000 4.63 40 22:28 05.10.2021
6029 Clouds 16 1024 67 10000 6.17 40 21:50 05.10.2021
6030 Clouds 16 1024 67 10000 6.69 40 20:48 05.10.2021
6031 Clouds 16 1024 67 10000 6.17 40 20:24 05.10.2021
6032 Clouds 17 1024 63 10000 7.2 30 19:47 05.10.2021
6033 Clouds 17 1024 63 10000 7.72 50 18:57 05.10.2021
6034 Clouds 18 1024 59 10000 7.2 30 16:49 05.10.2021
6035 Clouds 19 1023 55 10000 7.72 40 14:57 05.10.2021
6036 Clouds 19 1023 52 10000 6.69 60 13:42 05.10.2021
6037 Clouds 20 1023 45 10000 6.69 40 12:48 05.10.2021
6038 Clouds 20 1023 45 10000 6.17 40 12:18 05.10.2021
6039 Clouds 19 1023 45 10000 7.2 20 11:19 05.10.2021
6040 Clouds 18 1023 52 10000 6.69 40 09:27 05.10.2021
6041 Clouds 15 1022 77 10000 4.12 30 05:25 05.10.2021
6042 Clouds 16 1023 72 10000 2.06 50 23:54 04.10.2021
6043 Clouds 17 1023 67 10000 4.12 50 22:38 04.10.2021
6044 Clouds 17 1023 72 10000 4.12 50 20:29 04.10.2021
6045 Clouds 17 1023 67 10000 5.66 40 18:34 04.10.2021
6046 Clouds 20 1023 52 10000 6.69 30 16:34 04.10.2021
6047 Clouds 20 1023 56 10000 6.69 40 15:31 04.10.2021
6048 Clouds 21 1023 49 10000 7.72 30 14:43 04.10.2021
6049 Clouds 21 1023 49 10000 7.72 30 13:57 04.10.2021
6050 Clouds 21 1023 46 10000 7.2 40 13:25 04.10.2021
6051 Clouds 21 1024 46 10000 6.17 70 12:27 04.10.2021
6052 Clouds 20 1024 52 10000 6.69 70 11:31 04.10.2021
6053 Clouds 20 1024 52 10000 6.69 70 10:23 04.10.2021
6054 Clouds 18 1024 68 10000 4.63 30 08:42 04.10.2021
6055 Clouds 16 1023 77 10000 2.57 50 07:37 04.10.2021
6056 Clouds 16 1023 88 10000 3.6 30 00:40 04.10.2021
6057 Clouds 17 1023 77 10000 3.6 40 22:37 03.10.2021
6058 Clouds 17 1023 77 10000 3.6 60 21:41 03.10.2021
6059 Clouds 17 1023 77 10000 3.6 60 21:22 03.10.2021
6060 Clouds 17 1023 77 10000 4.63 40 20:21 03.10.2021
6061 Clouds 17 1023 67 10000 5.14 30 19:30 03.10.2021
6062 Clouds 17 1023 67 10000 5.14 30 19:30 03.10.2021
6063 Clouds 18 1023 59 10000 5.66 40 18:27 03.10.2021
6064 Clouds 19 1022 55 10000 6.17 30 17:28 03.10.2021
6065 Clouds 19 1022 59 10000 5.66 10 14:48 03.10.2021
6066 Clouds 20 1022 52 10000 5.14 60 14:24 03.10.2021
6067 Clouds 20 1022 52 10000 5.14 60 13:34 03.10.2021
6068 Clouds 21 1023 46 10000 5.14 10 12:29 03.10.2021
6069 Clouds 19 1023 55 10000 5.14 40 10:43 03.10.2021
6070 Clouds 17 1022 59 10000 2.57 80 08:43 03.10.2021
6071 Clouds 13 1022 82 10000 2.06 360 01:51 03.10.2021
6072 Clouds 15 1022 72 10000 3.6 50 22:43 02.10.2021
6073 Clouds 16 1022 67 10000 4.63 30 21:21 02.10.2021
6074 Clouds 16 1022 72 10000 6.17 40 19:50 02.10.2021
6075 Clouds 16 1021 72 10000 8.23 30 18:54 02.10.2021
6076 Clouds 16 1021 82 10000 6.17 30 17:57 02.10.2021
6077 Clouds 16 1021 82 10000 4.63 40 17:26 02.10.2021
6078 Clouds 16 1021 94 10000 5.14 30 15:38 02.10.2021
6079 Clouds 19 1022 55 10000 8.75 50 16:50 30.09.2021
6080 Clouds 20 1021 64 10000 10.8 40 15:36 30.09.2021
6081 Clouds 21 1022 52 10000 8.75 50 13:45 30.09.2021
6082 Clouds 19 1022 68 10000 9.26 60 11:37 30.09.2021
6083 Clouds 19 1022 59 10000 7.72 90 10:43 30.09.2021
6084 Clouds 19 1022 59 10000 7.2 60 09:33 30.09.2021
6085 Clouds 18 1022 63 10000 6.69 60 08:29 30.09.2021
6086 Clouds 17 1021 67 10000 4.63 50 07:23 30.09.2021
6087 Clouds 17 1021 72 10000 4.12 50 04:52 30.09.2021
6088 Clouds 17 1021 82 10000 3.09 70 01:20 30.09.2021
6089 Clouds 17 1022 77 10000 6.17 80 23:55 29.09.2021
6090 Clouds 17 1022 77 10000 2.57 50 22:28 29.09.2021
6091 Clouds 18 1022 72 10000 5.14 80 21:24 29.09.2021
6092 Clouds 17 1021 82 10000 4.63 50 20:24 29.09.2021
6093 Clouds 18 1021 77 10000 3.09 90 19:50 29.09.2021
6094 Rain 19 1021 63 10000 6.17 20 18:28 29.09.2021
6095 Clouds 18 1021 72 10000 7.2 40 17:34 29.09.2021
6096 Clouds 19 1021 77 10000 5.66 10 16:46 29.09.2021
6097 Clouds 19 1020 77 10000 8.23 30 15:49 29.09.2021
6098 Clouds 21 1020 64 10000 7.2 30 14:39 29.09.2021
6099 Clouds 21 1020 56 10000 5.66 40 13:42 29.09.2021
6100 Clouds 21 1020 56 10000 5.66 30 12:50 29.09.2021
6101 Clouds 21 1020 56 10000 7.72 30 11:54 29.09.2021
6102 Clouds 20 1020 56 10000 8.23 30 10:44 29.09.2021
6103 Clouds 20 1020 56 10000 8.23 20 09:49 29.09.2021
6104 Clouds 19 1020 63 10000 8.23 40 08:49 29.09.2021
6105 Clouds 18 1020 68 10000 7.2 30 07:31 29.09.2021
6106 Clouds 18 1019 72 10000 7.2 40 03:29 29.09.2021
6107 Clouds 19 1019 68 10000 6.17 60 23:23 28.09.2021
6108 Clouds 19 1019 72 10000 5.14 40 22:22 28.09.2021
6109 Clouds 19 1019 72 10000 6.17 40 21:33 28.09.2021
6110 Clouds 19 1019 68 10000 5.66 40 20:27 28.09.2021
6111 Clouds 19 1019 68 10000 6.69 40 19:42 28.09.2021
6112 Clouds 19 1019 68 10000 7.72 30 18:44 28.09.2021
6113 Clouds 20 1019 60 10000 7.2 40 17:53 28.09.2021
6114 Clouds 22 1018 53 10000 7.2 30 15:22 28.09.2021
6115 Clouds 21 1018 56 10000 6.17 40 13:38 28.09.2021
6116 Clouds 21 1018 56 10000 6.17 40 12:30 28.09.2021
6117 Clouds 21 1018 56 10000 6.17 30 11:59 28.09.2021
6118 Clouds 21 1018 56 10000 6.17 30 11:40 28.09.2021
6119 Clouds 21 1018 60 10000 5.66 50 10:49 28.09.2021
6120 Clouds 20 1018 64 10000 6.69 50 09:45 28.09.2021
6121 Clouds 20 1018 68 10000 6.69 40 08:49 28.09.2021
6122 Clouds 20 1018 68 10000 6.69 50 08:28 28.09.2021
6123 Clouds 18 1017 77 10000 4.63 40 06:47 28.09.2021
6124 Clear 17 1017 77 10000 2.57 30 05:22 28.09.2021
6125 Clear 17 1017 88 10000 2.06 10 01:22 28.09.2021
6126 Clear 18 1017 82 10000 2.57 10 00:24 28.09.2021
6127 Clear 19 1018 77 10000 3.09 60 23:31 27.09.2021
6128 Clear 19 1018 77 10000 3.6 50 22:46 27.09.2021
6129 Clear 19 1018 68 10000 4.12 60 21:44 27.09.2021
6130 Clear 19 1018 68 10000 4.63 60 20:39 27.09.2021
6131 Clear 20 1018 64 10000 4.63 70 19:50 27.09.2021
6132 Clear 21 1017 60 10000 5.14 70 19:23 27.09.2021
6133 Clear 21 1017 60 10000 5.66 60 18:48 27.09.2021
6134 Clear 22 1017 53 10000 6.69 50 17:29 27.09.2021
6135 Clear 23 1017 49 10000 8.23 60 16:41 27.09.2021
6136 Clear 24 1017 46 10000 8.23 40 15:43 27.09.2021
6137 Clear 24 1017 50 10000 6.69 50 14:56 27.09.2021
6138 Clear 24 1018 50 10000 7.2 30 13:31 27.09.2021
6139 Clouds 24 1018 50 10000 5.66 50 11:23 27.09.2021
6140 Clear 23 1018 53 10000 7.2 80 09:54 27.09.2021
6141 Clear 20 1018 73 10000 4.12 60 08:40 27.09.2021
6142 Clear 18 1018 77 10000 3.6 40 05:21 27.09.2021
6143 Clear 18 1018 72 10000 3.6 60 02:59 27.09.2021
6144 Clear 19 1019 52 10000 5.14 60 22:32 26.09.2021
6145 Clear 19 1020 49 10000 4.12 60 21:50 26.09.2021
6146 Clear 20 1020 52 10000 4.63 60 20:58 26.09.2021
6147 Clear 20 1020 56 10000 5.14 60 20:21 26.09.2021
6148 Clear 21 1020 52 10000 5.14 70 19:42 26.09.2021
6149 Clear 22 1020 49 10000 5.66 70 18:45 26.09.2021
6150 Clear 23 1019 46 10000 5.66 60 17:56 26.09.2021
6151 Clear 24 1020 46 10000 5.66 60 17:22 26.09.2021
6152 Clear 25 1020 36 10000 5.66 60 16:40 26.09.2021
6153 Clear 26 1021 31 10000 5.66 60 15:59 26.09.2021
6154 Clear 26 1021 29 10000 5.14 40 14:54 26.09.2021
6155 Clear 26 1021 29 10000 4.63 40 13:55 26.09.2021
6156 Clear 26 1022 29 10000 3.09 120 12:59 26.09.2021
6157 Clear 25 1022 33 10000 3.09 120 12:24 26.09.2021
6158 Clear 24 1022 41 10000 3.09 150 11:42 26.09.2021
6159 Clear 24 1023 35 10000 3.09 110 10:25 26.09.2021
6160 Clear 21 1022 52 10000 3.09 70 08:58 26.09.2021
6161 Clear 15 1022 88 10000 2.06 30 06:36 26.09.2021
6162 Clear 18 1022 77 10000 2.06 40 00:23 26.09.2021
6163 Clear 18 1022 77 10000 2.06 70 23:26 25.09.2021
6164 Clear 19 1023 77 10000 2.57 70 22:38 25.09.2021
6165 Clear 20 1022 73 10000 3.09 90 21:55 25.09.2021
6166 Clear 19 1022 73 10000 3.09 80 21:32 25.09.2021
6167 Clear 20 1022 73 10000 3.6 80 20:48 25.09.2021
6168 Clear 22 1021 60 10000 2.06 100 18:59 25.09.2021
6169 Clear 22 1021 60 10000 2.06 0 18:24 25.09.2021
6170 Clouds 22 1021 64 10000 1.54 170 15:48 25.09.2021
6171 Clouds 22 1021 68 10000 4.63 230 13:57 25.09.2021
6172 Clouds 22 1021 68 10000 4.63 220 13:31 25.09.2021
6173 Clouds 21 1021 73 10000 4.12 240 12:27 25.09.2021
6174 Clouds 21 1021 73 10000 4.12 250 10:34 25.09.2021
6175 Clouds 20 1020 73 10000 4.12 250 09:32 25.09.2021
6176 Clouds 20 1019 77 10000 5.14 250 08:20 25.09.2021
6177 Clear 19 1018 72 10000 5.66 250 05:51 25.09.2021
6178 Clear 19 1017 68 10000 7.2 260 23:51 24.09.2021
6179 Clear 18 1017 59 10000 6.17 250 21:49 24.09.2021
6180 Clear 18 1016 63 10000 4.12 230 20:39 24.09.2021
6181 Clear 18 1016 55 10000 3.6 220 19:48 24.09.2021
6182 Clear 19 1016 48 10000 3.6 230 18:34 24.09.2021
6183 Clear 19 1016 48 10000 4.12 240 17:54 24.09.2021
6184 Clear 19 1016 48 10000 4.12 240 17:36 24.09.2021
6185 Clear 19 1016 55 10000 4.63 230 17:18 24.09.2021
6186 Clouds 19 1018 55 10000 4.63 230 13:57 24.09.2021
6187 Clouds 19 1018 59 10000 4.63 240 13:18 24.09.2021
6188 Clouds 18 1019 59 10000 4.63 240 12:39 24.09.2021
6189 Clouds 18 1019 59 10000 4.63 240 12:20 24.09.2021
6190 Clear 17 1019 59 10000 2.57 240 10:27 24.09.2021
6191 Clear 16 1019 59 10000 3.09 330 08:54 24.09.2021
6192 Clear 14 1019 77 10000 3.09 350 07:34 24.09.2021
6193 Clear 13 1019 82 10000 2.06 330 06:46 24.09.2021
6194 Clouds 14 1019 77 10000 0 0 04:54 24.09.2021
6195 Clouds 14 1020 77 10000 2.06 360 00:26 24.09.2021
6196 Rain 15 1019 72 10000 1.54 300 22:30 23.09.2021
6197 Clouds 16 1020 52 10000 4.35 26 21:56 23.09.2021
6198 Clouds 15 1019 63 10000 2.57 30 20:34 23.09.2021
6199 Clouds 15 1019 67 10000 2.06 20 19:46 23.09.2021
6200 Clouds 16 1019 55 10000 7.2 10 17:46 23.09.2021
6201 Clouds 16 1018 67 10000 6.69 30 15:30 23.09.2021
6202 Rain 15 1018 67 10000 9.26 20 14:59 23.09.2021
6203 Clouds 16 1017 72 10000 6.69 340 13:45 23.09.2021
6204 Clouds 16 1017 72 10000 7.72 350 13:19 23.09.2021
6205 Clouds 16 1017 72 10000 9.77 360 12:50 23.09.2021
6206 Clouds 15 1017 67 10000 9.26 360 12:22 23.09.2021
6207 Clouds 16 1016 72 10000 7.72 340 11:32 23.09.2021
6208 Rain 15 1016 72 10000 7.72 350 10:25 23.09.2021
6209 Rain 15 1016 77 10000 6.17 340 09:51 23.09.2021
6210 Clouds 14 1015 82 10000 3.09 20 07:54 23.09.2021
6211 Clouds 13 1015 88 10000 4.63 350 03:31 23.09.2021
6212 Thunderstorm 14 1015 88 4000 9.77 360 22:58 22.09.2021
6213 Thunderstorm 16 1015 77 10000 6.69 360 22:29 22.09.2021
6214 Rain 17 1015 67 10000 4.12 360 21:53 22.09.2021
6215 Rain 18 1015 63 10000 4.12 20 21:33 22.09.2021
6216 Clouds 18 1015 63 10000 4.12 30 20:52 22.09.2021
6217 Clouds 18 1015 59 10000 5.66 30 19:29 22.09.2021
6218 Clouds 18 1015 63 10000 4.63 30 18:39 22.09.2021
6219 Clouds 19 1015 48 10000 5.14 30 17:43 22.09.2021
6220 Clouds 18 1015 52 10000 5.51 34 16:37 22.09.2021
6221 Clouds 20 1017 49 10000 4.12 80 15:18 22.09.2021
6222 Clouds 19 1017 55 10000 4.63 50 13:48 22.09.2021
6223 Clouds 19 1018 59 10000 4.12 50 11:46 22.09.2021
6224 Clouds 18 1019 68 10000 5.14 40 10:44 22.09.2021
6225 Clouds 19 1019 55 10000 1.54 0 09:21 22.09.2021
6226 Clouds 18 1019 59 10000 1.54 60 08:22 22.09.2021
6227 Clouds 18 1019 59 10000 3.09 60 06:57 22.09.2021
6228 Clouds 18 1019 63 10000 2.57 60 05:51 22.09.2021
6229 Clouds 18 1019 63 10000 1.54 60 05:32 22.09.2021
6230 Clouds 18 1020 63 10000 3.09 70 03:44 22.09.2021
6231 Clouds 18 1021 63 10000 6.17 40 00:21 22.09.2021
6232 Clouds 18 1021 68 10000 6.17 40 22:52 21.09.2021
6233 Clouds 18 1021 68 10000 7.2 40 21:33 21.09.2021
6234 Clouds 18 1021 69 10000 6.67 29 20:24 21.09.2021
6235 Clouds 19 1020 71 10000 6.04 30 19:20 21.09.2021
6236 Clouds 21 1020 64 10000 7.2 30 17:20 21.09.2021
6237 Clouds 21 1020 60 10000 7.2 30 16:34 21.09.2021
6238 Clouds 22 1020 56 10000 6.69 20 15:35 21.09.2021
6239 Clouds 22 1020 56 10000 7.2 10 14:56 21.09.2021
6240 Clouds 21 1020 60 10000 7.72 360 13:56 21.09.2021
6241 Clouds 22 1020 60 10000 8.75 10 13:36 21.09.2021
6242 Clouds 22 1019 60 10000 8.23 20 11:44 21.09.2021
6243 Clouds 22 1019 56 10000 8.75 20 09:55 21.09.2021
6244 Clouds 21 1018 68 10000 8.23 20 08:27 21.09.2021
6245 Clouds 21 1017 73 10000 6.17 30 06:38 21.09.2021
6246 Clear 22 1012 83 10000 1.54 240 23:58 20.09.2021
6247 Clear 24 1012 73 10000 1.54 210 22:24 20.09.2021
6248 Clear 23 1012 78 10000 0 0 21:37 20.09.2021
6249 Clear 24 1011 73 10000 1.54 170 20:30 20.09.2021
6250 Clear 25 1010 65 10000 0 0 19:29 20.09.2021
6251 Clear 27 1010 57 10000 2.06 170 17:40 20.09.2021
6252 Clear 30 1010 39 10000 1.54 250 16:43 20.09.2021
6253 Clear 30 1011 45 10000 2.57 280 15:49 20.09.2021
6254 Clear 29 1011 47 10000 3.09 250 15:23 20.09.2021
6255 Clear 30 1012 42 10000 2.57 230 13:45 20.09.2021
6256 Clear 29 1012 44 10000 2.06 150 12:35 20.09.2021
6257 Clear 29 1012 44 10000 2.06 150 12:35 20.09.2021
6258 Clear 28 1013 54 10000 2.57 160 11:25 20.09.2021
6259 Clear 26 1013 65 10000 2.06 140 09:59 20.09.2021
6260 Clear 26 1013 73 10000 2.06 140 09:36 20.09.2021
6261 Clear 26 1013 73 10000 2.06 140 09:18 20.09.2021
6262 Clear 21 1013 88 10000 1.03 0 06:55 20.09.2021
6263 Clouds 23 1013 78 10000 2.06 270 23:49 19.09.2021
6264 Clouds 23 1013 78 10000 1.03 0 22:26 19.09.2021
6265 Clouds 23 1013 78 10000 1.03 0 22:26 19.09.2021
6266 Rain 23 1013 73 10000 0.51 0 21:40 19.09.2021
6267 Clouds 24 1012 60 10000 1.03 200 20:34 19.09.2021
6268 Clouds 24 1012 69 10000 1.54 150 19:22 19.09.2021
6269 Clouds 25 1012 73 10000 2.06 170 18:29 19.09.2021
6270 Clouds 27 1012 57 10000 2.06 170 17:22 19.09.2021
6271 Clear 28 1013 50 10000 1.54 220 15:55 19.09.2021
6272 Clear 27 1013 50 10000 1.54 220 15:29 19.09.2021
6273 Clear 27 1013 57 10000 2.06 210 14:46 19.09.2021
6274 Clouds 26 1014 61 10000 2.57 240 13:21 19.09.2021
6275 Clouds 26 1015 65 10000 2.57 220 12:50 19.09.2021
6276 Clouds 25 1015 64 10000 2.57 150 11:27 19.09.2021
6277 Clouds 25 1015 61 10000 2.57 150 10:35 19.09.2021
6278 Clouds 23 1015 78 10000 2.57 160 09:39 19.09.2021
6279 Clouds 23 1014 68 10000 1.54 110 08:31 19.09.2021
6280 Clear 20 1014 88 10000 0 0 05:55 19.09.2021
6281 Clouds 23 1012 78 10000 5.14 340 23:36 18.09.2021
6282 Clouds 24 1011 64 10000 2.57 300 21:59 18.09.2021
6283 Clouds 24 1011 69 10000 1.03 0 20:51 18.09.2021
6284 Clouds 25 1010 65 10000 2.06 160 20:31 18.09.2021
6285 Clouds 25 1010 57 10000 2.06 100 19:39 18.09.2021
6286 Clouds 25 1010 61 10000 4.12 360 19:20 18.09.2021
6287 Thunderstorm 26 1009 65 10000 1.54 220 18:32 18.09.2021
6288 Clouds 28 1009 44 10000 3.6 260 17:29 18.09.2021
6289 Clear 29 1009 42 10000 2.57 240 15:50 18.09.2021
6290 Clear 28 1010 44 10000 2.57 260 13:46 18.09.2021
6291 Clear 28 1011 47 10000 3.6 240 13:27 18.09.2021
6292 Clear 28 1011 47 10000 3.6 250 12:49 18.09.2021
6293 Clear 27 1011 57 10000 3.6 250 11:40 18.09.2021
6294 Clear 26 1011 57 10000 4.12 250 10:31 18.09.2021
6295 Clear 25 1011 64 10000 4.12 250 09:27 18.09.2021
6296 Clear 24 1011 64 10000 4.12 250 08:48 18.09.2021
6297 Clouds 21 1011 48 10000 2.21 138 02:50 18.09.2021
6298 Clouds 21 1012 46 10000 2.54 134 00:41 18.09.2021
6299 Clouds 21 1012 46 10000 3.19 129 23:47 17.09.2021
6300 Clouds 22 1012 42 10000 3.55 121 22:33 17.09.2021
6301 Clear 23 1012 64 10000 3.09 130 21:55 17.09.2021
6302 Clear 23 1013 56 10000 2.06 120 20:25 17.09.2021
6303 Clear 24 1013 40 10000 1.03 190 18:54 17.09.2021
6304 Clear 26 1014 38 10000 2.57 250 16:50 17.09.2021
6305 Clear 27 1014 29 10000 2.06 220 16:18 17.09.2021
6306 Clear 25 1016 60 10000 3.09 150 12:36 17.09.2021
6307 Clear 25 1017 57 10000 4.12 140 10:41 17.09.2021
6308 Clouds 21 1017 78 10000 2.57 110 08:25 17.09.2021
6309 Clouds 18 1017 94 10000 1.03 0 06:49 17.09.2021
6310 Clear 20 1018 78 10000 2.06 90 00:49 17.09.2021
6311 Clear 22 1018 83 10000 1.54 80 22:50 16.09.2021
6312 Rain 22 1018 83 10000 2.57 60 22:24 16.09.2021
6313 Clear 22 1018 83 10000 3.09 40 21:40 16.09.2021
6314 Clear 22 1018 83 10000 3.09 80 20:50 16.09.2021
6315 Clear 23 1018 73 10000 3.09 60 19:41 16.09.2021
6316 Clear 24 1017 53 10000 4.12 20 18:19 16.09.2021
6317 Clear 25 1017 50 10000 4.12 50 17:29 16.09.2021
6318 Clouds 26 1017 50 10000 2.06 0 14:53 16.09.2021
6319 Clouds 25 1017 73 10000 4.12 250 13:48 16.09.2021
6320 Clouds 24 1018 73 10000 4.12 240 12:47 16.09.2021
6321 Clouds 23 1018 78 10000 3.6 240 12:27 16.09.2021
6322 Clouds 25 1018 69 10000 3.09 190 11:25 16.09.2021
6323 Clouds 25 1018 61 10000 3.6 70 10:31 16.09.2021
6324 Clouds 25 1018 61 10000 3.6 70 10:30 16.09.2021
6325 Clouds 25 1018 61 10000 3.6 70 10:30 16.09.2021
6326 Clouds 24 1018 64 10000 3.6 20 09:53 16.09.2021
6327 Clouds 23 1017 73 10000 4.12 50 08:41 16.09.2021
6328 Clouds 21 1017 88 10000 2.57 20 07:22 16.09.2021
6329 Clouds 20 1017 88 10000 1.03 0 06:39 16.09.2021
6330 Clouds 19 1016 94 10000 1.03 260 04:31 16.09.2021
6331 Clouds 20 1016 88 10000 1.54 360 01:26 16.09.2021
6332 Clouds 20 1016 88 10000 1.54 360 01:26 16.09.2021
6333 Clouds 21 1016 88 10000 3.09 20 23:35 15.09.2021
6334 Clouds 21 1016 88 10000 3.09 20 22:46 15.09.2021
6335 Clouds 21 1016 83 10000 2.57 360 21:41 15.09.2021
6336 Clouds 21 1016 83 10000 2.06 20 21:23 15.09.2021
6337 Clouds 22 1016 78 10000 3.09 10 19:51 15.09.2021
6338 Clouds 22 1016 78 10000 3.6 10 19:19 15.09.2021
6339 Clear 24 1015 64 10000 4.63 20 17:48 15.09.2021
6340 Clouds 24 1015 57 10000 4.63 20 16:48 15.09.2021
6341 Clouds 26 1016 53 10000 5.66 30 15:30 15.09.2021
6342 Clouds 25 1016 53 10000 5.14 30 14:44 15.09.2021
6343 Clouds 26 1016 50 10000 4.63 30 13:51 15.09.2021
6344 Clouds 25 1016 53 10000 5.66 40 13:29 15.09.2021
6345 Clouds 25 1016 53 10000 6.17 30 12:34 15.09.2021
6346 Clouds 25 1016 57 10000 5.14 40 11:51 15.09.2021
6347 Clouds 26 1016 50 10000 6.17 40 11:18 15.09.2021
6348 Clouds 25 1016 61 10000 6.17 40 10:35 15.09.2021
6349 Clouds 24 1016 69 10000 5.66 20 09:23 15.09.2021
6350 Clouds 20 1016 88 10000 2.06 360 07:30 15.09.2021
6351 Clouds 20 1016 88 10000 2.06 360 07:30 15.09.2021
6352 Clear 19 1015 88 10000 1.54 90 02:50 15.09.2021
6353 Clear 21 1016 78 10000 3.6 50 22:38 14.09.2021
6354 Clear 22 1016 73 10000 4.63 40 21:38 14.09.2021
6355 Clear 22 1016 73 10000 5.14 50 20:25 14.09.2021
6356 Clear 22 1015 73 10000 6.17 50 19:41 14.09.2021
6357 Clouds 24 1014 60 10000 7.2 30 17:34 14.09.2021
6358 Clouds 25 1014 57 10000 7.72 40 16:49 14.09.2021
6359 Clouds 26 1014 53 10000 7.2 30 15:25 14.09.2021
6360 Clouds 26 1014 53 10000 7.72 30 14:19 14.09.2021
6361 Clouds 24 1014 64 10000 6.69 40 11:48 14.09.2021
6362 Clouds 24 1014 64 10000 5.14 60 10:47 14.09.2021
6363 Clouds 23 1014 68 10000 4.12 40 09:49 14.09.2021
6364 Clouds 21 1014 73 10000 2.06 80 08:24 14.09.2021
6365 Clear 18 1013 88 10000 2.06 30 05:38 14.09.2021
6366 Clear 20 1013 83 10000 2.57 60 23:34 13.09.2021
6367 Clear 21 1013 78 10000 3.09 60 22:28 13.09.2021
6368 Clear 22 1013 78 10000 2.57 70 21:59 13.09.2021
6369 Clouds 21 1013 78 10000 3.09 60 21:33 13.09.2021
6370 Clear 22 1013 73 10000 4.63 50 19:41 13.09.2021
6371 Clear 23 1013 68 10000 6.17 50 18:45 13.09.2021
6372 Clouds 24 1012 57 10000 7.2 40 17:39 13.09.2021
6373 Clouds 25 1012 53 10000 7.72 40 16:49 13.09.2021
6374 Clouds 26 1012 53 10000 8.23 60 14:47 13.09.2021
6375 Clouds 25 1012 57 10000 5.66 110 11:45 13.09.2021
6376 Clouds 24 1012 60 10000 4.63 100 10:50 13.09.2021
6377 Clouds 22 1012 68 10000 4.12 60 08:41 13.09.2021
6378 Clear 19 1012 73 10000 2.06 80 00:38 13.09.2021
6379 Clear 20 1012 68 10000 2.57 70 22:51 12.09.2021
6380 Clear 20 1012 64 10000 3.6 50 22:22 12.09.2021
6381 Clear 21 1012 60 10000 4.63 70 20:57 12.09.2021
6382 Clear 21 1012 60 10000 4.12 60 20:19 12.09.2021
6383 Clear 22 1012 60 10000 5.14 60 19:36 12.09.2021
6384 Clear 22 1012 60 10000 6.17 50 19:18 12.09.2021
6385 Clear 24 1012 50 10000 5.66 30 17:50 12.09.2021
6386 Clear 26 1012 38 10000 4.12 40 15:56 12.09.2021
6387 Clear 26 1012 57 10000 2.06 0 14:47 12.09.2021
6388 Clear 25 1013 57 10000 2.57 0 12:42 12.09.2021
6389 Clear 23 1014 64 10000 3.09 170 10:30 12.09.2021
6390 Clear 21 1014 68 10000 1.54 90 08:39 12.09.2021
6391 Clear 17 1014 88 10000 0.51 0 07:30 12.09.2021
6392 Clear 17 1014 82 10000 1.03 0 00:47 12.09.2021
6393 Clear 20 1015 73 10000 2.06 70 22:39 11.09.2021
6394 Clear 20 1015 68 10000 2.06 70 21:39 11.09.2021
6395 Clear 21 1015 68 10000 3.6 50 19:39 11.09.2021
6396 Clear 23 1015 68 10000 2.57 230 17:57 11.09.2021
6397 Clear 23 1015 68 10000 2.57 240 17:28 11.09.2021
6398 Clouds 23 1015 68 10000 4.12 250 15:36 11.09.2021
6399 Clouds 23 1016 73 10000 3.6 220 13:23 11.09.2021
6400 Clouds 22 1016 68 10000 4.63 340 11:42 11.09.2021
6401 Clouds 22 1017 68 10000 2.06 310 10:27 11.09.2021
6402 Clouds 21 1016 73 10000 2.57 350 08:51 11.09.2021
6403 Clouds 19 1016 82 10000 2.57 350 07:43 11.09.2021
6404 Clouds 17 1016 82 10000 2.06 340 04:23 11.09.2021
6405 Clouds 18 1017 77 10000 2.06 350 22:37 10.09.2021
6406 Clouds 19 1017 77 10000 2.57 330 21:57 10.09.2021
6407 Clouds 19 1017 77 10000 2.06 320 21:36 10.09.2021
6408 Clouds 21 1017 64 10000 3.6 20 19:31 10.09.2021
6409 Clouds 22 1016 56 10000 5.14 30 17:56 10.09.2021
6410 Clouds 23 1016 60 10000 5.14 50 16:27 10.09.2021
6411 Rain 22 1016 64 10000 6.69 30 13:26 10.09.2021
6412 Clouds 21 1016 73 10000 6.17 30 10:52 10.09.2021
6413 Rain 19 1016 94 10000 3.09 60 07:52 10.09.2021
6414 Rain 19 1015 88 10000 2.57 50 07:21 10.09.2021
6415 Rain 21 1016 78 10000 3.09 90 00:24 10.09.2021
6416 Clouds 21 1015 78 10000 3.6 70 21:49 09.09.2021
6417 Clouds 21 1015 78 10000 5.14 80 20:48 09.09.2021
6418 Thunderstorm 21 1016 78 10000 5.66 90 20:26 09.09.2021
6419 Clouds 22 1016 68 10000 6.17 70 18:46 09.09.2021
6420 Clouds 23 1015 60 10000 8.75 50 17:47 09.09.2021
6421 Clouds 24 1016 64 10000 8.23 60 16:28 09.09.2021
6422 Rain 25 1015 57 10000 9.26 40 15:24 09.09.2021
6423 Rain 24 1016 60 10000 11.32 60 12:24 09.09.2021
6424 Rain 23 1017 60 10000 8.75 70 11:22 09.09.2021
6425 Clouds 22 1017 64 10000 6.69 80 09:35 09.09.2021
6426 Clouds 21 1017 73 10000 5.66 80 07:43 09.09.2021
6427 Clouds 19 1017 73 10000 3.6 50 05:40 09.09.2021
6428 Clouds 20 1018 73 10000 7.2 80 23:55 08.09.2021
6429 Clouds 21 1018 64 10000 9.77 60 21:48 08.09.2021
6430 Clouds 21 1019 64 10000 8.23 70 20:48 08.09.2021
6431 Clouds 22 1019 60 10000 8.23 70 19:46 08.09.2021
6432 Clouds 22 1018 60 10000 10.8 80 18:47 08.09.2021
6433 Clouds 23 1019 56 10000 9.26 70 18:25 08.09.2021
6434 Clouds 23 1019 56 10000 10.29 60 17:39 08.09.2021
6435 Clouds 24 1019 53 10000 11.32 70 15:21 08.09.2021
6436 Clouds 24 1020 53 10000 10.8 60 13:28 08.09.2021
6437 Clouds 24 1020 50 10000 9.77 70 12:41 08.09.2021
6438 Clouds 24 1020 50 10000 9.77 70 12:22 08.09.2021
6439 Clouds 23 1020 49 10000 9.77 80 11:26 08.09.2021
6440 Clouds 23 1020 49 10000 10.29 60 10:31 08.09.2021
6441 Clouds 22 1020 56 10000 9.26 70 09:37 08.09.2021
6442 Clouds 20 1020 64 10000 8.23 80 07:44 08.09.2021
6443 Clouds 19 1020 68 10000 7.2 70 06:40 08.09.2021
6444 Clouds 19 1021 64 10000 7.2 80 23:18 07.09.2021
6445 Clouds 19 1021 64 10000 7.2 70 22:19 07.09.2021
6446 Clouds 21 1021 60 10000 8.23 80 20:40 07.09.2021
6447 Clouds 21 1021 56 10000 9.26 60 18:52 07.09.2021
6448 Clouds 22 1021 53 10000 9.77 70 18:24 07.09.2021
6449 Clouds 22 1021 53 10000 12.35 70 17:22 07.09.2021
6450 Clouds 23 1021 49 10000 13.89 50 15:56 07.09.2021
6451 Clouds 23 1021 46 10000 12.86 70 14:47 07.09.2021
6452 Clouds 23 1021 46 10000 12.86 70 13:50 07.09.2021
6453 Clouds 23 1022 43 10000 12.35 70 11:58 07.09.2021
6454 Clouds 23 1022 46 10000 11.83 70 10:45 07.09.2021
6455 Clouds 21 1021 56 10000 9.77 70 08:47 07.09.2021
6456 Clouds 21 1021 60 10000 7.2 90 07:45 07.09.2021
6457 Clouds 19 1021 72 10000 6.17 90 06:19 07.09.2021
6458 Clear 19 1021 64 10000 5.66 90 02:38 07.09.2021
6459 Clouds 19 1022 56 10000 4.12 40 00:55 07.09.2021
6460 Clouds 20 1022 52 10000 6.17 40 23:43 06.09.2021
6461 Clouds 20 1022 52 10000 7.2 40 23:21 06.09.2021
6462 Clouds 20 1022 52 10000 9.77 50 22:46 06.09.2021
6463 Clouds 21 1022 56 10000 10.8 60 21:52 06.09.2021
6464 Clouds 21 1021 60 10000 10.8 60 19:36 06.09.2021
6465 Clouds 22 1020 56 10000 10.8 70 19:18 06.09.2021
6466 Clouds 22 1020 60 10000 13.89 70 18:27 06.09.2021
6467 Clouds 22 1020 60 10000 13.89 70 18:27 06.09.2021
6468 Clouds 23 1019 56 10000 11.83 70 17:36 06.09.2021
6469 Clouds 24 1019 57 10000 13.38 80 15:59 06.09.2021
6470 Clouds 24 1019 60 10000 11.32 60 14:34 06.09.2021
6471 Clouds 25 1018 53 10000 9.77 50 12:48 06.09.2021
6472 Clouds 24 1019 57 10000 9.26 50 11:33 06.09.2021
6473 Clouds 24 1019 53 10000 9.77 40 09:59 06.09.2021
6474 Clouds 22 1018 64 10000 10.29 40 07:34 06.09.2021
6475 Clouds 23 1017 56 10000 5.14 80 00:22 06.09.2021
6476 Clouds 23 1017 60 10000 8.75 70 23:19 05.09.2021
6477 Clouds 23 1017 56 10000 8.23 60 22:30 05.09.2021
6478 Clouds 23 1017 56 10000 8.23 60 21:55 05.09.2021
6479 Clouds 23 1017 56 10000 9.77 60 20:55 05.09.2021
6480 Clouds 24 1016 57 10000 8.75 60 18:59 05.09.2021
6481 Clouds 25 1015 53 10000 11.32 40 17:36 05.09.2021
6482 Clouds 25 1015 53 10000 11.32 40 17:36 05.09.2021
6483 Clouds 26 1015 47 10000 10.29 70 15:40 05.09.2021
6484 Clouds 26 1015 47 10000 8.75 40 14:37 05.09.2021
6485 Clouds 25 1016 50 10000 7.72 50 12:34 05.09.2021
6486 Clouds 25 1016 50 10000 8.75 50 10:59 05.09.2021
6487 Clouds 25 1016 50 10000 8.75 50 10:33 05.09.2021
6488 Clouds 24 1015 53 10000 8.23 50 09:25 05.09.2021
6489 Clouds 23 1015 53 10000 4.63 60 08:22 05.09.2021
6490 Clear 20 1015 64 10000 3.09 30 03:19 05.09.2021
6491 Clouds 21 1016 60 10000 4.12 30 00:30 05.09.2021
6492 Clouds 21 1016 64 10000 4.63 50 23:43 04.09.2021
6493 Clear 21 1016 68 10000 5.66 70 22:36 04.09.2021
6494 Clear 21 1016 68 10000 6.17 60 21:58 04.09.2021
6495 Clouds 22 1015 64 10000 6.17 60 19:54 04.09.2021
6496 Clouds 22 1015 64 10000 5.66 50 19:29 04.09.2021
6497 Clouds 24 1015 53 10000 7.2 30 16:27 04.09.2021
6498 Clouds 25 1016 44 10000 5.66 30 13:36 04.09.2021
6499 Clouds 24 1016 46 10000 5.14 60 11:20 04.09.2021
6500 Clouds 22 1016 53 10000 5.14 50 09:26 04.09.2021
6501 Clear 17 1016 77 10000 2.06 10 06:55 04.09.2021
6502 Clear 19 1018 63 10000 3.09 60 00:28 04.09.2021
6503 Clear 19 1018 63 10000 3.09 50 23:32 03.09.2021
6504 Clear 19 1018 56 10000 3.6 50 22:40 03.09.2021
6505 Clear 20 1019 56 10000 5.14 50 21:36 03.09.2021
6506 Clear 20 1019 56 10000 6.69 50 20:49 03.09.2021
6507 Clear 20 1019 56 10000 7.2 50 19:56 03.09.2021
6508 Clear 20 1019 56 10000 7.2 50 19:23 03.09.2021
6509 Clear 22 1019 49 10000 7.2 30 17:56 03.09.2021
6510 Clouds 23 1020 46 10000 7.2 50 16:40 03.09.2021
6511 Clouds 24 1020 43 10000 8.23 50 15:20 03.09.2021
6512 Clouds 23 1021 49 10000 8.75 60 12:59 03.09.2021
6513 Clouds 23 1021 49 10000 6.69 70 10:43 03.09.2021
6514 Clouds 22 1021 56 10000 5.14 70 09:19 03.09.2021
6515 Clouds 22 1021 56 10000 5.14 70 09:19 03.09.2021
6516 Clouds 19 1020 82 10000 3.09 90 07:51 03.09.2021
6517 Clouds 18 1019 88 10000 1.54 10 05:30 03.09.2021
6518 Clouds 21 1019 60 10000 2.06 100 23:25 02.09.2021
6519 Clear 22 1018 60 10000 4.12 80 21:41 02.09.2021
6520 Clear 23 1018 46 10000 4.12 70 20:18 02.09.2021
6521 Clear 25 1017 38 10000 5.14 50 17:33 02.09.2021
6522 Clouds 25 1017 44 10000 5.14 20 16:19 02.09.2021
6523 Clouds 25 1017 50 10000 5.66 360 13:59 02.09.2021
6524 Clouds 25 1017 47 10000 5.14 10 12:56 02.09.2021
6525 Clouds 25 1017 50 10000 3.6 350 11:36 02.09.2021
6526 Clouds 25 1017 53 10000 4.12 10 10:37 02.09.2021
6527 Clear 22 1017 56 10000 4.63 340 08:40 02.09.2021
6528 Clear 21 1016 64 10000 3.09 330 07:20 02.09.2021
6529 Clouds 22 1015 64 10000 7.2 340 02:58 02.09.2021
6530 Clouds 22 1015 68 10000 5.14 350 02:33 02.09.2021
6531 Clouds 22 1015 64 10000 2.57 10 01:32 02.09.2021
6532 Clouds 23 1014 53 10000 3.6 30 23:40 01.09.2021
6533 Clouds 22 1015 53 10000 5.14 360 22:42 01.09.2021
6534 Clouds 23 1015 60 10000 9.26 340 21:40 01.09.2021
6535 Clouds 25 1014 61 10000 7.2 340 20:53 01.09.2021
6536 Clouds 26 1012 53 10000 4.12 40 19:22 01.09.2021
6537 Clear 27 1011 50 10000 6.17 60 17:47 01.09.2021
6538 Clear 28 1012 42 10000 6.17 40 16:48 01.09.2021
6539 Clear 29 1012 45 10000 6.69 20 15:52 01.09.2021
6540 Clouds 29 1013 48 10000 6.69 20 12:41 01.09.2021
6541 Clouds 29 1014 48 10000 5.66 30 11:45 01.09.2021
6542 Clear 26 1013 65 10000 6.17 50 08:56 01.09.2021
6543 Clear 24 1013 73 10000 3.09 50 07:53 01.09.2021
6544 Clear 20 1013 83 10000 2.06 40 05:39 01.09.2021
6545 Clear 24 1013 60 10000 4.12 70 22:43 31.08.2021
6546 Clear 25 1013 57 10000 4.63 90 21:40 31.08.2021
6547 Clear 26 1013 47 10000 5.66 70 19:48 31.08.2021
6548 Clear 26 1013 38 10000 7.2 50 18:37 31.08.2021
6549 Clear 27 1013 50 10000 6.69 40 17:38 31.08.2021
6550 Clear 28 1013 47 10000 6.17 40 17:20 31.08.2021
6551 Clear 28 1013 47 10000 7.2 30 16:24 31.08.2021
6552 Clear 29 1014 45 10000 5.66 40 13:40 31.08.2021
6553 Clouds 28 1014 54 10000 6.17 40 11:36 31.08.2021
6554 Clouds 28 1014 51 10000 6.69 50 10:55 31.08.2021
6555 Clouds 27 1014 57 10000 6.69 40 09:45 31.08.2021
6556 Clouds 27 1014 57 10000 7.2 50 08:40 31.08.2021
6557 Clouds 25 1014 61 10000 6.17 40 07:38 31.08.2021
6558 Clouds 24 1013 73 10000 5.66 40 05:36 31.08.2021
6559 Clouds 25 1013 73 10000 4.63 30 23:35 30.08.2021
6560 Clouds 25 1012 78 10000 5.14 40 21:52 30.08.2021
6561 Clouds 25 1012 78 10000 6.17 50 21:32 30.08.2021
6562 Clouds 25 1012 73 10000 6.17 50 20:32 30.08.2021
6563 Clouds 25 1011 73 10000 7.2 40 19:29 30.08.2021
6564 Clouds 25 1011 73 10000 7.2 30 18:44 30.08.2021
6565 Clouds 26 1011 73 10000 7.72 30 17:46 30.08.2021
6566 Clouds 27 1010 69 10000 7.2 30 16:24 30.08.2021
6567 Clouds 28 1010 65 10000 7.2 20 15:39 30.08.2021
6568 Clouds 28 1010 65 10000 6.69 20 13:45 30.08.2021
6569 Clouds 29 1010 65 10000 4.12 60 12:29 30.08.2021
6570 Clouds 28 1010 69 10000 4.12 30 10:33 30.08.2021
6571 Clear 26 1006 73 10000 2.57 60 22:30 29.08.2021
6572 Clear 26 1006 73 10000 3.6 70 21:33 29.08.2021
6573 Clear 27 1006 61 10000 4.63 60 20:22 29.08.2021
6574 Clear 28 1005 57 10000 4.12 40 19:19 29.08.2021
6575 Clear 29 1005 65 10000 1.03 0 17:50 29.08.2021
6576 Clear 29 1005 69 10000 3.6 250 15:49 29.08.2021
6577 Clear 29 1006 78 10000 4.12 240 14:20 29.08.2021
6578 Clear 29 1006 78 10000 4.12 230 13:44 29.08.2021
6579 Clear 29 1006 74 10000 4.63 230 12:32 29.08.2021
6580 Clouds 28 1006 78 10000 4.12 230 11:50 29.08.2021
6581 Clouds 27 1006 83 10000 4.12 230 11:22 29.08.2021
6582 Clouds 29 1006 74 10000 4.12 230 10:42 29.08.2021
6583 Clouds 28 1006 74 10000 3.6 200 10:23 29.08.2021
6584 Clouds 26 1006 83 10000 2.06 30 07:47 29.08.2021
6585 Clouds 26 1007 78 10000 4.63 60 00:25 29.08.2021
6586 Clear 26 1007 78 10000 5.66 60 21:53 28.08.2021
6587 Rain 27 1007 74 10000 7.72 60 20:22 28.08.2021
6588 Clear 28 1007 69 10000 7.72 50 18:33 28.08.2021
6589 Clear 29 1008 61 10000 8.23 50 17:59 28.08.2021
6590 Clear 31 1008 51 10000 7.72 50 16:59 28.08.2021
6591 Clear 32 1008 45 10000 8.23 40 15:33 28.08.2021
6592 Rain 33 1008 43 10000 7.72 40 14:20 28.08.2021
6593 Clear 33 1009 40 10000 7.72 50 13:43 28.08.2021
6594 Clear 33 1009 46 10000 6.69 60 12:42 28.08.2021
6595 Clear 33 1009 43 10000 5.14 50 11:53 28.08.2021
6596 Clear 32 1009 48 10000 5.66 70 10:35 28.08.2021
6597 Clear 29 1010 58 10000 4.12 50 08:39 28.08.2021
6598 Clear 24 1010 73 10000 1.03 50 06:24 28.08.2021
6599 Clear 28 1010 51 10000 2.57 20 22:28 27.08.2021
6600 Clear 27 1010 65 10000 1.03 0 20:56 27.08.2021
6601 Clear 28 1010 51 10000 1.03 150 20:19 27.08.2021
6602 Clear 28 1009 65 10000 1.54 170 18:46 27.08.2021
6603 Clear 28 1009 65 10000 3.09 200 18:28 27.08.2021
6604 Clear 31 1009 42 10000 2.57 250 16:50 27.08.2021
6605 Clear 32 1009 48 10000 3.6 250 15:21 27.08.2021
6606 Clear 32 1009 48 10000 3.6 250 15:21 27.08.2021
6607 Clear 31 1009 48 10000 3.6 240 14:38 27.08.2021
6608 Clear 31 1010 51 10000 2.57 240 12:28 27.08.2021
6609 Clear 30 1010 58 10000 3.09 250 11:24 27.08.2021
6610 Clear 29 1010 61 10000 2.57 240 10:41 27.08.2021
6611 Clear 29 1010 57 10000 2.06 240 09:26 27.08.2021
6612 Clear 28 1010 61 10000 0.51 0 08:39 27.08.2021
6613 Clear 24 1009 88 10000 1.03 0 05:52 27.08.2021
6614 Clear 24 1010 83 10000 1.54 150 02:44 27.08.2021
6615 Clear 25 1010 57 10000 0.51 0 00:28 27.08.2021
6616 Clear 25 1010 69 10000 2.57 340 22:28 26.08.2021
6617 Clear 25 1010 65 10000 0.51 0 21:57 26.08.2021
6618 Clear 26 1009 61 10000 1.03 0 19:53 26.08.2021
6619 Clear 27 1009 61 10000 2.06 140 18:36 26.08.2021
6620 Clear 29 1009 57 10000 2.06 200 17:28 26.08.2021
6621 Clear 29 1010 51 10000 2.57 220 16:31 26.08.2021
6622 Clear 29 1011 58 10000 3.09 230 14:53 26.08.2021
6623 Clouds 29 1011 57 10000 3.09 220 13:27 26.08.2021
6624 Clouds 28 1011 65 10000 3.09 230 12:47 26.08.2021
6625 Clouds 27 1012 73 10000 3.09 220 11:49 26.08.2021
6626 Clouds 25 1012 83 10000 3.09 150 09:30 26.08.2021
6627 Clouds 25 1012 83 10000 2.06 130 08:19 26.08.2021
6628 Clear 25 1011 78 10000 3.09 60 23:45 25.08.2021
6629 Clear 25 1011 83 10000 3.6 70 22:44 25.08.2021
6630 Clear 25 1011 83 10000 3.6 60 22:25 25.08.2021
6631 Clouds 25 1012 78 10000 4.12 40 20:58 25.08.2021
6632 Clouds 25 1012 78 10000 4.12 40 20:58 25.08.2021
6633 Clouds 26 1011 73 10000 5.14 30 20:30 25.08.2021
6634 Clouds 26 1011 73 10000 5.14 30 20:30 25.08.2021
6635 Clouds 26 1011 73 10000 6.69 50 19:24 25.08.2021
6636 Clouds 28 1011 61 10000 6.17 30 17:53 25.08.2021
6637 Clouds 29 1011 58 10000 5.14 40 15:59 25.08.2021
6638 Clouds 29 1011 58 10000 5.14 40 15:59 25.08.2021
6639 Clouds 29 1011 54 10000 5.66 40 15:32 25.08.2021
6640 Clouds 30 1011 54 10000 5.66 30 14:46 25.08.2021
6641 Clouds 30 1011 51 10000 5.14 50 13:53 25.08.2021
6642 Clouds 29 1012 54 10000 5.14 20 12:20 25.08.2021
6643 Clouds 28 1012 61 10000 4.12 50 11:19 25.08.2021
6644 Clouds 28 1012 57 10000 4.63 50 09:59 25.08.2021
6645 Clouds 28 1012 57 10000 4.63 50 09:35 25.08.2021
6646 Clouds 25 1012 73 10000 4.63 70 08:35 25.08.2021
6647 Rain 23 1012 88 10000 2.57 50 06:37 25.08.2021
6648 Clear 24 1012 83 10000 4.12 60 01:21 25.08.2021
6649 Clouds 25 1013 78 10000 5.14 60 23:23 24.08.2021
6650 Clear 25 1013 73 10000 6.69 60 21:18 24.08.2021
6651 Clouds 26 1012 69 10000 5.66 60 19:55 24.08.2021
6652 Clouds 26 1012 65 10000 7.2 70 19:31 24.08.2021
6653 Clouds 28 1012 61 10000 7.72 40 17:54 24.08.2021
6654 Clouds 28 1012 61 10000 8.23 50 17:22 24.08.2021
6655 Clouds 29 1012 54 10000 8.23 50 15:56 24.08.2021
6656 Clouds 30 1013 48 10000 7.2 50 13:46 24.08.2021
6657 Clouds 29 1013 48 10000 7.72 50 12:45 24.08.2021
6658 Clouds 28 1013 54 10000 6.69 50 11:19 24.08.2021
6659 Clouds 28 1013 54 10000 6.17 60 10:46 24.08.2021
6660 Clouds 27 1013 57 10000 6.17 90 09:46 24.08.2021
6661 Clouds 24 1013 73 10000 4.12 70 07:41 24.08.2021
6662 Clear 22 1013 78 10000 4.12 50 05:39 24.08.2021
6663 Clear<